GFSGBSN_sfc_wetblb_000.txt.gz
Wetbulb
56.15 55.61 55.46 55.37 55.05 54.88 54.84 54.93 55.16 55.02 55.17 55.31 55.50 55.61 55.87 55.99 56.38 56.64 56.88 57.17 56.88 56.56 56.79 57.49 58.13 58.34 60.47 57.98 56.65 66.08 70.39 71.85 68.20 68.35 60.23 59.39 56.50 57.10 54.69 57.41 58.49 58.21 59.62 60.69 62.36 64.23 65.27
56.02 55.90 55.49 55.48 55.13 54.55 55.05 54.50 54.65 54.82 54.95 55.19 55.20 55.78 55.99 55.97 56.15 56.42 56.52 56.22 56.05 55.74 56.25 57.17 58.15 57.82 59.80 52.79 60.85 64.59 67.05 68.45 65.69 63.23 60.09 59.02 57.27 58.05 56.65 57.23 57.76 59.31 59.39 59.81 61.27 63.75 65.42
55.84 55.64 55.04 55.07 54.97 54.69 54.93 54.45 54.40 54.19 54.47 54.85 55.29 55.35 55.69 55.67 55.62 55.82 55.48 55.13 54.78 54.77 55.97 57.59 58.56 59.50 58.60 56.19 61.07 62.07 62.58 63.02 65.31 63.46 59.61 59.90 59.72 57.22 57.86 56.98 60.18 59.46 58.41 61.84 62.36 64.08 64.52
55.55 55.10 54.83 54.82 54.92 54.76 54.44 54.44 54.10 53.73 54.04 54.77 54.62 54.40 54.40 54.58 54.76 55.12 54.72 54.29 53.79 55.63 57.42 59.41 58.78 61.49 56.85 62.73 64.27 62.81 63.71 62.62 63.42 65.63 62.38 61.70 60.58 58.57 57.49 60.35 58.52 57.86 59.32 57.41 62.60 64.39 65.26
54.86 55.26 54.60 55.12 55.03 55.03 54.73 54.02 53.71 53.72 53.92 54.46 54.36 54.28 54.40 54.64 54.58 54.41 53.39 53.15 54.70 57.90 58.31 59.29 60.85 60.53 56.53 63.58 61.66 63.82 64.62 60.16 60.56 61.96 61.38 60.38 59.51 57.66 57.60 56.13 56.01 57.76 55.00 56.50 60.58 64.87 64.69
54.36 54.67 54.87 55.14 54.66 54.72 54.66 54.27 54.09 53.88 53.96 54.50 54.60 54.45 54.37 54.15 53.88 52.92 52.44 53.35 56.28 59.11 60.14 61.62 61.91 58.25 60.70 57.13 62.55 61.18 64.60 60.39 58.83 59.89 58.23 57.23 56.58 54.59 55.22 54.76 51.30 54.49 55.16 57.07 57.40 62.85 64.33
54.65 54.60 54.71 54.52 54.54 54.43 54.30 53.77 53.35 53.20 53.67 54.23 54.37 54.23 53.80 53.51 52.73 51.95 52.89 56.61 56.86 57.26 59.23 56.75 56.18 57.75 56.70 59.86 61.21 59.72 62.28 58.58 57.92 57.84 52.48 54.72 51.44 50.17 53.72 56.48 57.14 57.28 57.13 56.67 58.87 63.54 62.71
54.62 54.60 54.38 54.23 54.00 53.95 54.01 53.27 53.36 53.17 53.02 53.57 53.92 53.77 53.51 52.91 51.90 51.43 53.83 50.53 51.96 51.47 48.35 53.22 53.46 53.95 56.27 57.66 53.39 56.51 61.23 57.41 55.03 52.53 54.22 51.83 49.23 53.38 54.93 55.94 55.99 57.00 56.12 56.54 59.43 62.82 62.63
54.59 54.48 54.22 54.09 54.33 54.35 54.53 54.19 53.90 53.41 53.49 53.55 53.59 53.36 52.77 52.05 51.22 54.12 51.57 51.84 54.74 53.45 48.59 51.26 52.96 52.58 54.51 55.49 53.35 54.82 58.10 57.42 54.64 52.24 51.96 50.47 51.19 53.75 53.39 53.52 54.30 56.23 56.01 56.77 57.92 61.33 62.87
54.56 54.90 54.94 54.49 54.41 54.34 54.42 54.21 53.53 53.26 53.36 53.40 53.41 53.08 52.19 51.08 51.20 52.60 52.77 54.72 55.69 54.05 46.83 50.16 52.06 55.19 56.77 56.96 53.88 58.59 58.56 56.96 54.61 52.14 52.73 51.12 53.45 51.75 51.20 51.96 55.02 53.83 57.70 57.83 57.96 58.30 55.19
55.03 55.11 55.18 55.02 54.69 54.42 54.37 53.98 53.53 53.06 53.24 53.34 53.12 52.56 51.15 50.06 50.76 51.15 52.83 55.02 54.97 53.74 40.76 51.71 53.39 59.75 58.61 56.00 55.95 55.81 58.83 56.55 52.96 52.82 53.43 50.87 50.58 50.23 49.90 51.42 54.68 54.57 58.20 57.37 57.47 57.77 57.75
54.88 54.95 54.48 54.33 54.00 53.93 54.00 53.67 53.53 53.16 53.16 53.20 52.66 51.57 50.91 52.42 53.12 53.20 54.68 54.90 54.82 46.73 40.47 48.79 53.94 53.51 53.89 55.31 54.81 55.85 55.59 57.56 56.74 53.50 54.17 53.17 54.68 52.80 52.15 53.30 54.69 56.93 56.48 56.94 57.37 56.22 52.16
54.94 54.58 54.19 54.10 53.73 53.68 53.61 53.65 53.34 53.16 52.93 52.44 51.28 49.99 50.35 52.26 49.94 55.71 55.27 51.13 44.61 41.71 49.47 47.90 49.73 53.11 52.33 50.89 52.47 53.83 52.67 51.92 50.85 49.12 49.36 51.30 51.37 52.63 53.11 51.57 53.92 55.04 54.59 50.08 49.06 49.45 49.57
54.90 54.75 54.48 54.15 53.78 53.45 53.53 53.63 53.20 52.97 52.89 51.80 49.90 48.62 52.38 53.31 54.97 54.58 51.89 44.98 40.16 45.13 46.83 50.89 50.99 51.79 50.05 51.58 51.30 52.51 52.09 49.84 52.53 52.52 50.52 47.90 45.40 51.17 52.73 51.71 51.99 52.76 53.96 50.35 46.01 46.92 49.57
55.40 54.95 54.56 54.03 53.55 53.41 53.51 53.30 52.81 52.81 52.15 50.97 49.03 51.75 51.05 54.81 54.86 54.55 48.32 39.77 42.76 45.78 48.72 47.85 49.36 48.11 49.10 50.83 49.82 50.98 51.33 51.31 52.19 53.53 49.66 49.05 48.28 53.24 52.94 53.42 53.49 53.09 51.87 56.11 52.47 53.32 50.06
55.24 54.75 54.52 54.17 53.80 53.40 53.38 52.68 52.66 52.79 51.67 50.43 48.69 48.99 49.31 54.76 56.75 52.72 44.97 40.18 44.72 46.91 48.53 50.22 46.52 49.01 46.85 48.59 48.58 49.88 50.34 52.75 52.01 54.20 56.09 53.23 48.45 52.83 52.89 53.74 54.05 53.46 56.06 50.88 52.58 48.02 46.38
54.01 54.09 53.63 53.51 53.36 53.34 53.06 52.91 52.62 52.35 51.21 50.07 48.78 44.21 52.31 58.13 56.43 49.96 41.77 43.12 45.07 47.50 47.73 47.47 46.78 47.08 48.01 48.06 49.31 49.25 49.56 52.21 53.70 53.91 55.97 54.55 51.76 50.58 52.82 50.29 50.03 51.34 51.38 53.70 54.05 52.30 47.97
53.54 53.63 53.76 53.35 53.20 53.30 52.87 52.93 52.23 51.66 50.22 49.25 46.53 40.60 52.59 56.27 46.45 47.09 44.12 46.02 45.54 46.33 47.46 46.33 47.75 47.21 47.17 48.68 48.54 48.92 48.77 51.19 54.51 55.15 52.79 55.44 53.12 48.80 48.69 52.79 53.32 53.56 52.80 54.21 50.11 50.79 52.34
53.14 52.91 52.96 52.85 52.99 52.68 52.43 52.31 51.82 51.03 50.31 48.20 43.36 43.49 51.81 51.10 39.39 41.34 46.23 45.31 46.61 45.97 46.11 46.10 45.10 47.11 48.77 47.75 46.72 48.67 49.49 52.07 52.72 53.83 53.78 55.43 51.89 47.90 48.94 50.13 52.14 50.45 52.19 53.87 54.43 54.47 53.50
52.35 52.41 52.44 52.39 52.35 52.23 52.27 51.87 51.34 50.85 50.76 48.69 43.86 39.26 45.09 49.01 47.09 43.99 43.31 43.27 43.71 47.64 46.80 47.80 47.59 48.72 46.65 46.84 49.47 47.95 49.13 51.17 53.70 53.44 60.04 58.85 52.47 50.30 47.13 49.54 51.16 48.95 49.81 51.71 52.07 50.79 51.52
51.40 51.52 51.65 51.77 51.89 51.85 51.70 51.89 51.26 50.86 50.64 48.05 44.13 40.90 44.47 39.55 44.55 44.98 45.50 44.37 41.86 42.63 47.21 49.02 47.17 47.93 47.24 45.54 47.18 47.65 49.88 51.60 53.89 57.71 57.06 58.15 53.00 53.52 52.29 52.35 52.28 51.11 49.87 50.00 49.72 51.19 50.75
51.30 51.33 51.43 51.52 51.49 51.64 51.58 51.76 51.52 50.59 50.02 44.63 40.24 41.35 43.71 40.31 41.47 40.61 40.44 41.09 41.68 42.97 45.13 45.33 46.16 46.82 47.97 46.88 48.03 47.03 49.08 50.34 49.96 54.33 53.98 56.19 52.91 54.31 52.01 53.17 52.73 50.64 51.54 50.78 50.39 50.91 51.56
51.11 51.26 51.18 51.11 51.26 51.18 51.12 51.13 51.33 50.46 49.08 44.01 45.50 45.60 40.23 38.74 37.62 37.53 39.02 40.85 40.84 43.75 45.61 46.82 46.77 46.20 45.87 48.62 51.39 53.12 53.95 54.28 54.66 53.31 53.66 54.78 54.14 53.53 50.12 53.34 52.39 49.46 52.24 51.93 51.26 52.12 52.29
50.99 51.18 51.14 51.24 51.29 51.09 50.90 50.78 50.90 50.90 49.65 47.83 45.98 44.10 37.01 35.26 38.41 37.21 39.21 40.79 40.44 41.55 41.12 44.85 46.31 43.89 48.16 50.92 50.89 52.04 52.33 52.86 53.39 54.03 55.74 54.58 55.39 54.43 50.62 52.48 44.91 52.40 56.58 55.20 52.76 52.37 54.05
50.54 50.75 50.99 51.22 51.03 51.14 51.03 50.82 50.88 50.89 50.00 47.63 48.02 42.53 38.90 33.72 38.10 37.61 38.11 39.16 42.02 42.81 42.12 42.26 44.49 47.56 49.91 46.81 44.86 45.77 47.41 49.66 50.85 52.90 54.15 56.47 54.77 51.91 48.49 48.75 51.60 53.26 56.12 53.83 52.47 51.95 54.56
50.63 50.50 50.48 50.50 50.94 51.22 51.03 50.86 50.86 50.97 50.55 48.78 47.90 48.16 41.91 36.55 37.51 40.48 38.49 39.61 39.19 39.79 41.06 42.53 46.47 49.37 48.07 44.43 45.62 42.81 42.40 46.14 45.98 49.83 55.77 56.17 56.37 52.67 51.06 46.62 44.89 54.27 57.73 59.99 59.84 52.08 56.86
50.10 50.38 50.22 50.33 50.59 50.80 50.63 50.73 50.61 50.42 50.48 48.60 48.07 49.62 44.35 38.24 42.06 42.51 38.75 39.14 43.17 42.33 41.20 42.47 41.61 43.48 49.32 47.02 44.37 44.62 44.48 49.78 45.49 47.52 49.84 51.98 53.06 49.56 49.91 48.68 51.52 57.09 58.17 60.22 51.00 53.20 58.15
49.85 50.27 50.17 50.38 50.50 50.48 50.56 50.41 50.44 49.84 49.67 48.46 46.91 49.47 44.19 39.42 40.33 44.22 44.57 40.17 39.78 41.91 39.60 43.03 41.13 43.69 44.25 45.24 46.23 46.80 47.32 49.40 48.97 52.48 52.34 51.29 50.11 49.34 50.84 48.49 46.52 57.87 58.37 54.90 59.46 62.60 62.86
49.68 49.33 50.06 50.28 50.27 50.29 50.18 50.07 49.67 49.39 48.59 49.00 44.57 51.14 51.45 42.64 40.66 47.28 47.38 47.98 46.58 45.42 42.77 43.28 41.43 41.37 43.28 44.13 48.10 49.67 49.67 52.82 50.65 46.91 56.01 50.42 53.76 51.63 52.46 52.13 57.05 58.45 57.54 61.06 63.23 62.54 63.17

GFSGBSN_sfc_wetblb_006.txt.gz
Wetbulb
56.40 56.08 56.00 56.35 56.08 56.23 55.65 55.13 55.17 55.31 55.02 55.08 55.40 55.78 56.04 55.84 55.80 55.69 56.11 56.19 55.86 55.89 56.12 56.42 57.22 58.25 60.29 57.02 58.62 65.87 73.52 72.56 67.70 63.97 61.26 61.06 59.51 60.33 57.90 60.16 60.86 58.84 61.83 63.11 62.99 63.23 63.57
55.89 55.84 56.07 56.25 55.95 55.58 55.44 55.19 55.02 54.93 54.60 54.43 54.42 55.10 55.76 56.04 56.01 55.96 56.02 55.94 55.52 55.09 55.59 56.40 57.52 58.50 58.76 51.77 62.33 65.53 64.57 65.24 63.35 61.39 60.94 62.46 60.01 61.61 59.72 59.41 59.07 60.36 60.63 61.24 61.90 61.91 62.90
55.90 55.62 56.06 55.71 55.61 55.65 55.50 55.44 54.77 54.85 54.70 54.49 54.38 54.58 55.21 55.41 55.18 55.48 55.69 55.11 54.86 54.46 55.21 56.94 59.00 59.48 56.58 53.96 63.47 63.64 63.10 63.59 63.15 62.94 58.98 61.90 61.95 59.78 60.20 57.74 60.77 59.90 57.97 59.85 60.25 60.85 61.67
56.80 56.12 55.79 55.39 55.47 55.24 55.04 54.80 55.21 55.25 55.16 55.03 54.99 54.92 55.18 55.23 55.17 55.19 54.55 53.89 53.99 54.74 56.42 59.06 59.84 61.08 54.26 59.97 63.21 62.62 62.57 62.33 63.18 63.88 62.14 62.29 61.81 59.18 58.74 59.65 58.19 56.47 57.62 54.87 59.49 60.89 61.71
56.77 56.69 56.06 55.58 55.69 55.68 55.33 55.11 55.01 55.18 54.99 54.76 54.68 54.94 55.12 55.06 54.81 54.12 53.15 52.94 54.02 56.17 58.99 59.96 60.32 60.62 55.41 66.21 61.00 63.20 63.15 59.45 60.30 61.16 62.43 62.28 60.47 56.55 57.00 54.39 53.39 55.30 52.47 54.30 56.46 61.41 60.86
56.59 56.62 56.06 55.44 55.35 55.82 55.62 55.36 55.26 55.05 54.84 54.64 54.43 54.51 54.61 54.50 53.87 53.00 52.32 52.75 56.89 57.91 60.61 62.35 62.29 58.89 61.26 58.63 61.70 61.75 62.67 61.05 59.43 59.25 57.82 58.66 57.15 54.45 53.70 53.05 48.23 51.57 53.20 55.14 55.69 59.90 59.90
56.14 56.15 55.41 55.11 55.38 55.90 55.54 55.38 55.25 54.83 54.57 54.55 54.20 54.17 54.17 53.83 53.17 52.28 51.67 57.55 57.76 57.66 60.23 58.47 58.73 56.34 57.99 61.81 62.27 61.44 62.62 61.05 59.64 56.93 53.69 56.67 52.50 50.55 53.36 54.47 55.31 54.90 55.73 54.99 57.46 61.33 59.19
56.50 55.84 55.79 55.87 55.94 55.76 55.56 55.31 54.80 54.57 54.51 54.47 54.16 53.99 53.95 53.33 52.61 51.76 52.83 55.46 54.54 54.60 48.80 53.97 56.29 59.41 61.35 61.65 57.69 60.25 61.71 57.39 55.73 52.51 55.05 52.88 49.74 53.19 55.63 56.00 54.91 55.05 54.59 55.48 58.25 60.87 60.20
56.68 56.47 56.18 55.91 55.92 55.88 55.40 54.92 54.36 54.28 54.30 54.07 53.89 53.70 53.47 52.82 51.77 54.77 55.89 52.87 57.81 56.35 48.96 51.22 53.80 53.34 56.79 60.03 56.23 56.32 59.34 58.27 53.93 52.08 53.47 50.74 52.21 54.23 54.28 54.61 53.99 54.49 54.05 55.12 55.82 59.20 60.22
56.57 56.23 55.96 56.04 55.98 55.72 55.17 54.82 54.32 54.10 53.93 53.83 53.66 53.60 52.98 51.78 52.93 53.13 52.55 57.69 56.79 55.93 45.36 49.44 53.12 53.99 55.46 56.07 52.82 57.78 58.67 57.32 55.37 51.88 52.23 52.85 54.83 52.88 52.30 52.92 54.88 52.10 56.45 56.20 55.93 56.35 53.37
56.40 56.19 56.21 56.04 55.98 55.51 55.14 54.77 54.07 53.89 53.91 53.74 53.54 53.19 52.05 51.02 49.94 51.41 55.14 56.60 56.06 53.86 39.29 53.76 53.88 59.36 57.02 53.79 55.15 54.99 58.31 55.97 51.70 52.43 53.64 50.67 52.57 51.85 50.81 52.18 55.31 54.19 57.30 56.20 55.99 55.10 56.76
56.25 56.21 56.17 56.06 56.02 55.73 55.22 54.75 54.27 53.84 53.91 53.37 53.10 52.37 51.67 52.02 53.40 54.95 57.15 56.15 54.02 44.62 39.80 51.42 54.88 53.49 52.86 53.60 55.36 57.41 54.88 56.97 56.86 52.56 54.27 53.58 55.80 54.32 53.12 54.16 54.94 56.80 55.71 55.53 55.65 54.90 50.52
55.90 56.04 55.96 55.93 55.85 55.80 55.05 54.62 54.29 53.87 53.39 52.90 52.15 51.04 50.70 52.38 49.71 55.50 55.81 52.34 43.52 40.58 52.42 50.59 52.07 54.27 53.81 52.61 52.81 54.96 53.48 52.64 50.93 47.85 49.08 52.35 52.47 54.46 55.03 52.22 54.18 53.77 52.45 48.90 47.74 48.96 48.71
55.56 55.30 55.34 55.30 55.13 54.99 54.83 54.52 54.01 53.42 53.25 52.27 50.57 49.44 52.28 54.47 56.79 56.67 53.39 45.97 39.27 46.91 47.41 53.99 53.51 53.41 51.34 54.06 53.25 53.03 53.15 51.17 53.09 52.04 49.88 48.00 46.70 52.14 54.72 52.30 51.30 51.83 51.74 49.49 44.56 46.71 49.10
54.98 54.94 54.90 54.67 54.38 54.20 54.36 54.27 53.58 53.29 52.93 51.79 49.72 53.25 53.04 55.17 56.92 56.07 49.13 38.77 42.69 46.74 51.40 51.32 52.26 50.28 50.89 52.28 52.74 52.42 52.27 51.89 52.54 52.95 50.06 48.68 48.81 54.89 54.31 55.08 53.23 51.35 49.32 53.73 50.49 52.08 49.82
54.07 54.23 54.23 54.12 53.91 54.21 54.17 53.91 53.60 53.31 52.89 51.30 49.22 49.93 53.13 57.50 57.00 53.24 45.04 40.17 45.08 48.79 51.03 51.22 47.92 50.52 48.83 51.16 50.83 51.55 51.65 54.09 53.30 54.48 54.65 52.48 48.63 53.69 54.53 54.97 54.61 52.22 54.37 48.33 50.13 46.01 45.90
53.58 53.40 53.59 53.75 53.72 53.66 53.82 53.84 53.50 53.13 52.19 51.00 49.06 47.76 53.69 57.08 55.96 49.93 41.53 42.90 45.80 49.02 49.22 46.89 46.67 47.25 49.36 50.46 51.75 51.15 51.26 53.66 54.71 54.75 55.50 53.46 51.88 51.38 54.46 52.22 50.86 50.50 49.63 50.89 51.58 51.28 48.20
52.97 53.19 53.07 53.11 53.00 53.25 53.40 53.54 53.06 52.44 50.99 49.34 48.17 42.16 54.57 56.90 47.04 47.86 44.37 46.74 46.90 48.39 50.64 49.49 49.43 47.97 47.30 48.71 50.28 50.74 51.13 53.02 55.76 55.39 52.57 54.69 51.95 49.33 50.67 55.00 55.02 53.29 51.51 50.93 47.61 49.24 51.29
52.86 52.90 53.07 53.17 53.03 52.98 53.00 52.84 52.34 51.74 51.39 49.32 44.13 44.98 52.52 51.69 40.69 42.37 45.81 46.34 48.42 48.18 49.09 48.82 47.96 49.23 49.88 47.24 46.73 49.33 51.57 54.93 55.69 54.49 53.44 54.74 51.72 48.44 48.46 52.22 54.73 51.77 52.06 51.90 51.05 51.78 50.74
52.82 52.86 53.01 53.05 52.92 52.80 52.74 52.54 51.95 51.42 51.60 49.04 43.67 39.78 45.98 48.82 47.39 44.01 42.79 42.98 43.07 47.56 47.47 48.25 48.42 49.80 48.56 47.15 48.90 47.67 48.75 52.18 54.83 54.89 60.24 59.15 52.31 51.26 47.81 50.31 53.09 51.73 51.65 52.32 51.21 47.81 49.47
51.70 51.64 51.83 52.28 52.47 52.36 52.80 52.65 51.87 51.35 51.25 48.60 44.47 41.15 44.46 38.76 42.00 42.33 42.59 43.07 40.80 42.52 47.05 48.25 46.21 46.30 46.17 44.64 46.20 45.96 47.94 49.38 52.66 57.09 56.43 54.42 51.00 52.80 51.91 52.40 53.32 52.68 51.59 51.51 50.83 51.79 49.54
51.53 51.32 51.25 51.45 51.78 51.88 51.94 52.46 52.09 51.22 50.71 46.29 40.43 40.62 44.16 41.79 43.02 41.08 39.58 38.84 39.19 41.93 43.82 42.32 41.95 44.28 44.84 42.76 43.45 40.48 45.14 49.41 50.05 53.05 53.13 53.89 51.10 52.50 51.01 53.04 52.61 51.91 52.98 52.08 51.60 52.05 52.23
51.10 51.12 51.08 51.32 51.26 51.40 51.76 51.88 52.09 51.19 49.48 46.07 44.60 45.77 42.81 39.77 40.25 39.27 39.42 39.29 39.23 42.18 43.57 44.48 42.82 41.79 42.09 44.43 46.85 47.93 48.94 49.54 50.91 50.79 53.34 53.36 51.38 51.95 48.89 52.16 52.10 49.17 52.49 52.92 52.91 52.63 52.29
51.48 51.16 51.27 51.30 51.26 51.28 51.53 51.57 51.54 51.51 49.98 50.24 48.00 45.61 37.54 36.28 38.79 38.49 40.47 40.77 39.97 42.23 40.04 43.36 44.85 41.67 45.54 48.83 48.89 49.35 49.43 50.27 50.60 51.45 53.74 54.09 52.34 52.49 49.94 52.15 43.70 52.52 56.02 55.11 53.58 54.36 54.62
51.14 50.89 51.25 51.23 51.02 51.29 51.46 51.57 51.51 51.82 51.40 50.94 50.17 44.35 38.63 34.36 38.59 38.13 40.58 40.40 41.32 41.89 42.32 42.58 44.73 47.27 48.57 45.44 40.66 38.68 43.27 45.82 48.26 51.32 52.87 54.71 54.35 50.60 48.94 48.79 51.67 53.04 55.60 55.57 54.06 54.28 57.66
51.36 51.27 51.14 51.02 50.96 51.35 51.57 51.78 51.60 51.80 51.36 51.05 51.29 49.35 42.40 36.55 35.98 41.36 39.84 40.88 38.30 39.84 41.22 43.06 48.36 50.23 47.46 42.43 38.44 33.55 32.98 41.03 43.69 47.77 52.32 52.88 57.92 51.13 50.88 46.11 45.40 54.36 58.52 60.92 59.62 52.30 61.79
50.96 51.11 51.23 50.93 50.97 50.85 51.46 51.72 51.57 51.43 51.40 50.91 50.62 51.28 44.34 34.64 39.92 42.24 39.62 39.10 42.46 41.21 39.21 43.09 44.16 45.91 47.86 39.55 35.70 34.38 34.66 43.12 39.39 43.67 45.31 47.41 49.52 47.68 48.87 47.39 50.40 57.05 59.19 60.15 51.10 53.93 62.43
51.28 51.10 50.96 50.66 50.34 50.61 51.40 51.22 51.20 51.27 51.23 50.19 49.34 52.63 44.92 39.70 40.95 44.32 45.28 42.17 41.72 40.92 36.87 40.74 38.88 44.33 43.58 37.85 36.58 37.73 37.75 41.81 42.60 46.67 47.09 45.57 44.68 46.31 50.00 48.49 46.11 60.21 58.43 54.40 60.18 62.99 62.97
50.96 50.96 50.74 50.72 50.68 50.87 50.81 50.79 50.76 50.54 50.35 50.17 47.23 52.86 51.79 44.26 41.66 46.64 47.99 49.37 47.69 46.62 43.76 43.43 40.32 39.93 44.23 42.32 43.38 43.12 40.50 44.81 44.49 40.58 49.18 44.40 49.14 47.60 49.82 50.70 58.81 62.62 62.51 63.58 63.81 62.99 64.05

GFSGBSN_sfc_wetblb_009.txt.gz
Wetbulb
56.29 56.35 56.60 56.40 56.71 56.55 55.61 55.43 55.77 55.70 55.34 55.14 54.91 55.08 55.05 55.01 55.26 55.65 55.93 56.30 56.14 55.84 55.60 56.20 56.89 57.84 56.14 52.82 54.51 60.70 73.71 73.93 70.48 65.07 60.04 57.17 54.14 54.10 53.69 56.69 57.90 57.41 59.23 61.70 62.74 63.12 61.01
56.87 56.52 56.24 55.84 55.93 55.72 55.56 55.42 55.30 55.42 55.31 55.04 55.17 55.32 55.76 55.88 55.79 56.09 56.21 55.85 55.57 55.44 55.20 56.18 57.06 58.05 54.55 47.29 56.60 60.02 65.64 66.33 64.28 60.68 57.96 57.65 56.13 57.38 56.44 56.72 55.65 58.18 58.68 60.80 61.76 60.02 62.10
57.15 56.49 56.07 56.14 55.90 55.67 55.53 55.16 55.29 55.12 55.03 55.06 55.15 55.35 55.51 55.73 55.53 55.67 55.79 55.09 55.22 54.50 54.83 56.27 57.82 57.96 54.07 50.64 57.52 63.57 61.10 61.66 61.69 59.93 55.89 58.70 59.80 57.57 56.33 55.35 58.60 57.13 54.59 56.68 58.15 57.98 58.87
57.56 56.88 56.31 55.93 56.19 56.26 55.95 55.29 55.13 55.42 55.23 55.02 55.14 55.28 55.36 55.56 55.38 55.32 54.68 53.99 54.21 54.68 55.64 57.11 59.11 57.03 51.07 57.88 58.15 56.85 57.05 58.41 61.57 59.92 59.60 57.85 59.15 56.98 54.14 56.42 56.17 53.49 51.49 48.26 55.58 57.50 58.52
56.99 56.88 56.96 56.74 56.42 56.05 56.10 55.97 55.73 55.65 55.22 54.93 55.11 55.03 54.82 54.89 54.84 54.24 53.32 53.11 54.69 56.45 56.98 59.17 56.71 55.56 52.74 64.14 57.53 58.15 58.15 57.87 58.34 58.30 59.77 61.22 57.10 53.47 53.58 49.97 47.48 48.47 45.68 48.32 52.12 58.21 58.76
57.11 56.91 56.64 56.37 56.24 56.18 55.98 55.71 55.63 55.22 54.89 54.93 54.82 54.49 54.43 54.23 53.90 53.15 52.51 52.91 55.00 56.48 58.98 60.68 59.97 53.81 58.37 56.54 58.35 59.43 59.99 60.37 56.60 55.88 55.64 55.22 52.81 49.31 49.63 46.29 42.13 44.80 46.12 48.98 50.47 55.77 57.65
57.38 57.05 56.39 56.41 56.39 56.12 56.26 55.77 55.63 55.04 54.85 54.74 54.47 54.00 53.90 53.71 53.25 52.26 50.35 48.45 50.92 50.24 56.09 54.74 54.15 54.61 54.50 58.38 60.60 58.89 59.55 57.31 56.08 53.23 49.27 51.54 47.70 46.38 47.76 49.04 50.15 50.52 49.63 49.65 52.93 57.96 56.81
57.23 57.03 56.68 56.61 56.29 56.37 56.11 55.68 55.44 55.03 54.54 54.33 54.26 54.02 53.73 53.23 52.55 51.57 49.95 49.06 52.33 49.93 45.84 51.34 51.86 55.16 58.62 60.17 56.53 57.36 59.72 53.82 52.89 49.89 50.90 48.36 46.74 50.78 52.85 52.21 50.58 50.36 49.37 49.45 53.24 58.19 56.21
57.10 56.76 56.51 56.37 56.39 56.26 56.06 55.77 55.26 54.77 54.55 54.24 54.24 53.73 53.27 52.64 51.55 51.93 48.52 49.25 53.96 52.14 44.19 47.26 50.36 50.10 51.09 55.46 55.42 56.22 56.96 55.43 52.22 49.77 49.60 47.02 49.51 53.81 52.00 51.00 50.51 49.66 48.60 49.71 50.51 56.18 58.13
56.65 56.21 56.19 56.26 56.04 55.94 55.89 55.63 55.32 54.89 54.50 54.30 54.18 53.56 52.66 51.64 50.18 48.21 48.74 54.66 54.93 52.69 38.76 44.82 47.99 50.42 51.38 52.03 51.27 58.82 59.16 55.61 53.11 49.37 49.83 48.96 52.70 51.56 50.14 48.86 50.58 47.32 52.73 52.79 52.34 51.22 49.15
56.21 56.17 56.11 55.98 56.04 55.83 55.79 55.64 55.20 54.65 54.44 54.05 54.01 53.25 51.88 51.18 46.71 47.07 52.14 54.18 54.30 49.98 32.80 51.01 50.87 55.21 51.57 48.72 51.81 54.75 59.43 55.37 51.05 51.44 48.67 46.99 50.20 50.04 48.89 48.72 50.64 50.14 53.85 52.85 52.50 50.30 51.65
56.01 55.87 55.80 55.78 55.89 55.53 55.12 54.71 54.58 54.42 54.09 53.77 53.54 52.48 51.55 49.37 48.86 50.28 52.74 52.72 50.39 38.73 34.44 47.66 51.92 49.67 48.08 48.94 50.19 52.23 54.54 54.77 53.56 51.32 51.11 50.36 53.19 50.67 50.78 52.41 51.53 52.61 52.03 51.76 51.53 49.47 44.37
55.48 55.52 55.43 55.43 55.18 54.59 54.20 54.20 54.26 54.08 53.69 53.28 52.28 51.08 49.91 50.32 45.52 52.05 51.78 49.25 37.26 34.59 49.03 48.50 48.31 50.33 48.49 47.47 48.29 49.23 49.11 47.90 45.89 42.91 43.50 47.38 49.06 52.22 52.59 49.03 50.22 49.76 45.50 42.89 41.82 42.49 40.91
54.71 54.38 54.50 54.45 54.14 54.01 54.09 54.28 54.24 53.61 53.43 52.59 51.08 49.63 50.12 52.32 53.11 51.85 49.80 41.09 33.04 43.96 43.99 49.83 49.25 50.20 47.79 49.38 48.66 48.94 48.35 45.95 48.37 46.97 43.97 42.38 41.49 49.34 52.49 49.33 47.12 46.64 46.31 42.66 36.44 39.89 42.67
54.15 53.99 54.08 53.75 53.61 53.79 53.99 53.83 53.65 53.50 53.08 51.76 50.24 48.70 48.50 51.16 53.60 52.55 45.53 35.54 37.71 42.65 47.16 47.32 46.11 46.40 47.88 50.40 50.47 48.58 48.36 46.87 48.23 48.71 44.31 42.91 43.52 51.97 52.67 52.74 50.53 46.57 44.41 47.61 41.17 43.66 41.74
53.68 53.86 53.69 53.55 53.50 53.42 53.50 53.42 53.17 53.15 52.60 51.34 46.91 46.06 47.55 53.33 55.24 50.50 42.16 36.87 41.04 45.87 46.00 44.87 39.15 44.14 40.78 44.17 47.24 48.87 47.77 51.16 50.78 52.25 52.00 46.67 42.19 49.99 52.26 52.57 51.53 48.46 48.59 43.03 44.83 37.99 38.47
53.72 53.45 53.63 53.69 53.58 53.40 53.36 53.32 52.96 52.58 51.81 50.67 46.23 42.81 49.45 52.88 53.05 46.46 37.57 39.22 42.77 46.46 46.83 43.90 42.74 42.07 42.96 42.89 43.98 44.08 48.34 51.56 52.71 52.68 52.02 49.59 46.32 46.47 49.60 48.05 46.92 47.08 45.51 44.63 43.68 44.61 40.14
53.42 53.46 53.32 53.30 53.19 53.28 53.27 53.03 52.41 52.01 50.81 48.63 44.35 37.12 49.74 51.01 40.53 44.20 40.18 43.19 44.79 45.74 48.36 46.46 46.31 44.65 43.27 44.34 43.52 43.47 43.90 47.57 54.41 53.65 49.78 50.44 46.69 43.11 45.78 50.92 52.31 50.16 46.16 44.88 41.25 38.88 42.38
52.68 52.78 52.74 52.72 52.93 53.15 53.01 52.70 52.10 51.51 51.31 46.74 40.14 40.70 48.86 48.31 35.16 38.48 42.77 43.64 45.47 44.23 44.28 44.68 44.57 46.70 47.36 44.47 41.50 44.75 46.21 50.03 50.94 50.64 50.56 51.16 47.06 41.51 43.73 47.06 50.03 48.05 48.92 46.74 46.75 42.31 41.54
52.54 52.21 52.33 52.47 52.82 52.70 52.66 52.49 51.94 51.44 51.44 47.39 41.42 34.97 41.75 44.50 44.24 40.26 38.28 37.99 38.66 44.45 43.56 44.79 44.20 45.77 44.31 42.66 44.71 42.61 44.50 49.39 50.23 49.66 59.26 55.25 47.23 45.76 42.48 43.97 46.37 46.40 48.52 49.09 46.16 42.59 42.12
51.77 51.68 51.94 52.25 51.91 52.39 52.41 52.17 51.87 51.13 50.92 47.82 43.15 37.54 40.66 34.03 37.60 37.51 39.30 38.15 36.73 36.54 42.51 43.44 41.24 41.18 40.06 37.87 39.51 40.90 43.13 43.66 47.21 51.30 50.84 46.91 45.59 46.94 48.12 49.86 49.40 48.46 49.07 48.90 46.59 46.16 42.80
51.76 51.99 51.89 52.31 52.47 51.97 52.16 51.95 51.93 51.30 50.87 46.08 38.90 38.07 40.22 36.58 38.01 36.90 37.69 36.98 36.84 38.10 38.57 37.66 38.45 40.32 40.56 37.32 38.45 37.29 40.09 40.25 40.40 45.21 43.22 44.97 43.89 47.11 45.95 49.86 49.62 48.03 49.94 50.74 48.94 48.62 47.80
51.21 51.30 51.40 51.57 52.25 51.87 51.66 51.90 51.80 51.20 49.31 45.18 45.35 44.96 40.84 36.84 35.28 34.78 35.82 36.90 37.08 39.58 40.33 42.14 40.59 39.75 38.66 41.20 43.63 43.89 43.98 43.49 43.14 42.23 41.75 42.22 42.69 43.64 41.59 47.80 48.10 44.99 48.04 49.50 50.49 50.46 49.54
51.67 51.53 51.51 51.66 51.99 51.64 51.50 51.89 52.07 51.68 50.18 48.34 47.28 44.79 38.04 31.85 34.15 34.85 36.31 37.89 37.69 38.86 37.50 40.38 41.77 40.02 43.56 48.26 46.46 45.13 44.91 44.64 45.46 45.51 46.15 43.00 41.89 43.61 41.73 44.19 38.42 47.89 52.87 53.06 51.88 52.84 51.75
51.72 51.50 51.67 51.74 51.89 51.64 51.56 51.81 51.82 51.78 51.19 48.87 49.20 44.53 39.11 32.92 35.39 36.00 36.44 37.27 39.02 39.91 38.86 40.03 42.03 44.95 47.26 45.05 39.20 36.93 38.92 40.95 43.64 46.51 46.25 47.31 43.93 42.13 39.67 41.01 44.13 49.63 51.86 50.88 49.70 49.23 54.51
51.78 51.99 52.11 51.72 51.78 51.49 51.39 51.58 51.72 51.78 51.49 49.59 48.99 48.95 42.52 35.05 33.85 38.81 36.80 37.44 35.47 36.15 37.75 40.20 44.75 46.94 45.28 40.54 38.24 31.56 32.04 36.87 37.40 41.47 47.91 47.32 48.19 44.02 40.54 38.66 38.92 46.22 55.22 58.57 56.25 47.61 59.34
51.02 51.13 51.21 51.44 51.44 51.36 51.35 51.72 51.61 51.71 51.69 50.34 48.52 49.90 43.52 34.63 38.29 38.72 36.02 37.00 40.51 39.12 36.04 38.60 40.04 40.05 44.29 38.08 34.38 33.33 31.92 39.08 34.45 37.40 40.44 42.85 44.59 41.90 43.45 40.76 45.78 53.78 57.40 58.41 46.83 49.19 58.29
51.58 51.91 51.95 51.34 51.27 51.36 51.32 51.35 51.40 51.42 51.11 49.31 47.35 50.78 45.62 38.47 39.34 41.16 41.83 39.43 39.94 39.77 35.77 39.73 38.26 39.14 37.93 36.81 34.45 35.36 34.67 37.54 38.44 41.24 40.72 39.20 39.12 41.59 44.42 42.81 41.04 58.13 56.96 52.91 55.25 58.81 61.15
51.87 51.79 51.81 51.72 51.72 51.32 51.03 51.10 50.95 50.82 50.90 50.51 45.37 51.41 51.19 43.24 40.63 45.22 45.14 45.68 44.61 44.32 41.67 41.22 39.22 38.07 38.15 39.13 40.36 40.99 36.91 41.24 40.41 36.43 46.33 39.17 44.07 42.05 43.81 46.01 55.55 58.31 55.95 58.69 59.48 60.31 61.41

GFSGBSN_sfc_wetblb_012.txt.gz
Wetbulb
57.22 56.62 56.25 56.20 56.74 56.52 56.00 55.73 55.91 56.18 55.68 55.40 55.30 55.12 55.22 55.12 55.37 55.60 55.88 55.93 55.95 55.43 55.49 55.80 56.45 57.40 54.06 50.03 51.75 56.30 72.63 73.74 69.17 65.46 60.93 57.75 53.20 50.73 49.07 51.77 54.92 54.24 56.31 59.21 62.46 61.96 61.05
57.32 57.23 56.80 56.35 56.46 56.37 55.99 55.87 55.82 56.15 56.14 55.74 55.70 55.86 55.63 55.76 55.69 55.86 56.26 56.08 55.77 55.07 55.16 55.67 56.39 57.27 51.70 42.58 52.59 55.88 58.77 64.58 63.90 61.14 59.03 56.87 54.57 53.93 51.64 53.07 53.00 56.12 56.05 56.37 60.94 60.62 60.52
57.01 56.90 56.28 56.18 56.54 56.63 56.42 56.03 55.56 55.37 55.20 55.18 55.53 55.45 55.37 55.31 55.66 55.73 55.71 54.97 55.15 54.98 55.25 55.96 56.67 56.22 52.67 46.83 54.57 55.35 59.70 60.04 61.78 59.58 55.41 57.41 57.38 53.36 53.48 52.53 56.31 55.82 52.26 54.19 54.27 58.98 59.37
57.41 56.79 56.38 56.62 56.66 56.40 56.46 56.20 55.91 55.91 55.59 55.30 55.26 55.22 55.36 55.34 55.34 55.12 54.51 53.89 54.22 54.85 56.18 56.78 57.46 55.64 47.62 57.08 56.36 54.08 54.46 53.55 57.32 59.38 58.74 56.70 57.27 54.50 53.18 55.20 53.15 49.85 48.16 45.54 52.54 55.14 60.40
57.55 57.48 57.08 56.84 56.70 56.56 56.33 56.31 56.22 55.81 55.52 55.13 55.01 55.13 55.13 54.85 54.54 54.02 53.27 53.23 54.27 56.54 56.65 58.80 54.49 52.54 48.83 62.66 57.45 57.20 54.69 54.33 55.09 56.46 57.44 60.11 54.14 51.38 51.48 48.14 44.67 45.42 43.06 45.18 48.69 54.35 59.54
57.67 57.54 57.05 56.93 56.73 56.59 56.38 56.42 56.19 55.82 55.39 55.11 54.96 54.82 54.61 54.33 53.61 53.05 52.42 52.78 53.50 55.95 58.10 58.95 59.01 49.63 52.86 53.36 59.04 56.59 55.13 55.57 54.90 55.28 54.46 54.87 50.61 47.52 45.46 43.34 39.50 42.26 42.99 45.11 46.63 51.25 56.14
57.70 57.18 56.52 56.54 56.58 56.43 56.27 56.24 56.18 55.98 55.53 55.12 54.79 54.53 54.32 53.77 53.07 52.01 50.22 45.92 46.78 45.17 52.50 51.03 50.59 52.16 53.67 56.04 60.19 56.51 56.32 55.21 55.19 51.16 46.95 48.98 44.88 45.15 45.86 46.59 47.35 47.02 45.76 45.70 49.55 52.33 54.52
56.61 56.27 56.07 56.51 56.44 56.24 56.22 56.08 56.07 55.83 55.50 55.18 54.53 54.36 54.05 53.44 52.43 51.46 48.41 45.96 48.20 47.79 41.27 49.02 49.97 52.43 55.23 55.88 53.93 57.39 57.38 52.17 50.57 47.16 47.24 45.68 43.98 47.42 50.07 49.06 48.09 47.25 45.87 46.03 49.22 52.17 54.62
56.14 56.21 56.32 56.12 56.16 56.10 56.07 55.83 55.54 55.22 55.01 54.69 54.34 54.07 53.50 52.87 51.74 48.21 44.49 44.94 50.40 49.55 39.18 44.41 48.86 48.72 49.01 51.78 50.74 52.89 54.66 52.37 49.23 46.89 47.07 44.55 46.31 50.75 50.39 49.00 47.39 46.24 45.08 46.11 46.32 50.38 54.07
56.23 56.02 55.65 55.63 55.61 55.63 55.38 55.10 54.63 54.63 54.62 54.48 54.24 54.03 53.13 51.78 45.36 45.99 46.27 49.80 50.66 49.82 35.44 41.10 43.94 47.43 48.97 50.18 47.48 55.05 57.81 53.58 50.67 47.70 48.39 46.60 50.10 49.52 48.98 48.39 47.86 42.71 49.74 49.39 49.00 46.56 43.37
55.70 55.63 55.19 55.21 55.26 54.96 54.55 54.42 54.30 54.44 54.28 54.15 54.03 53.42 52.13 51.32 44.38 44.33 48.43 49.76 50.46 43.90 31.65 48.78 47.17 51.63 48.50 47.10 48.66 50.82 56.73 53.66 49.88 48.64 47.09 45.29 47.95 47.54 47.98 48.87 49.96 46.63 50.28 50.03 49.78 47.05 43.66
55.34 54.91 54.54 54.66 54.57 54.43 54.20 54.11 54.07 53.93 53.97 53.97 53.54 52.54 51.60 47.27 44.62 46.81 49.17 48.61 44.43 36.46 31.36 44.51 49.06 45.98 44.75 45.05 47.16 51.46 53.36 54.03 52.82 49.69 49.39 47.66 50.77 50.16 49.87 50.99 51.04 51.10 47.65 48.09 46.82 45.91 39.73
54.63 53.91 53.95 54.23 53.98 53.87 53.58 53.48 53.62 53.44 53.40 53.04 52.17 50.90 49.94 49.49 42.52 47.21 48.42 44.11 33.77 30.35 44.94 45.43 43.75 45.34 43.20 43.35 45.49 45.88 50.68 49.52 46.98 40.81 43.50 47.33 48.74 49.51 49.85 46.27 48.59 46.91 41.02 38.33 37.69 39.69 38.79
53.63 54.10 54.06 53.81 53.64 53.64 53.50 53.54 53.31 53.19 52.93 52.07 50.26 49.65 48.74 48.67 47.38 47.68 44.84 37.00 28.48 39.59 40.17 45.11 43.27 44.53 42.88 43.76 44.21 45.82 43.88 47.48 48.67 42.59 40.14 41.58 40.24 46.34 49.29 48.03 44.20 43.26 43.26 39.93 33.37 34.89 38.58
53.78 53.90 53.79 53.77 53.54 53.50 53.56 53.42 52.97 52.84 52.44 51.29 49.65 44.48 44.65 44.37 48.40 46.56 39.20 30.81 31.93 38.02 42.76 41.32 41.78 39.54 39.96 44.03 42.72 43.71 43.41 44.05 48.09 47.47 40.30 37.89 40.87 47.77 49.51 49.97 49.08 45.60 39.67 45.43 38.26 38.50 37.45
53.21 53.10 53.30 53.46 53.29 53.31 53.37 53.17 52.82 52.72 52.14 50.79 45.36 41.34 42.34 48.46 48.30 43.85 35.50 33.09 35.90 42.77 43.45 43.04 36.00 39.46 36.61 39.60 40.33 40.83 40.13 46.11 46.55 49.12 48.41 43.28 37.86 45.18 48.99 49.51 49.53 46.18 46.63 40.72 35.75 35.09 35.51
52.51 52.23 52.72 53.09 52.96 53.03 53.00 53.05 52.76 52.54 51.68 50.53 42.16 36.64 43.58 46.85 44.83 39.23 32.47 33.21 39.60 43.97 45.06 41.36 39.24 38.55 39.81 39.35 40.50 39.72 40.94 45.20 47.69 47.93 48.72 46.45 41.94 43.49 45.90 44.73 45.16 45.31 43.28 39.00 40.93 39.95 37.47
52.20 52.88 52.86 52.80 52.86 52.76 52.78 52.78 52.12 51.75 50.52 46.38 38.80 32.06 43.60 47.48 33.00 33.98 35.15 37.58 42.50 42.33 45.03 43.11 43.42 42.23 40.76 41.46 39.96 40.60 40.85 43.81 49.19 48.41 43.65 46.25 43.55 41.21 44.20 47.48 49.71 49.29 45.60 42.45 41.22 36.56 39.60
52.53 52.70 52.74 52.74 52.72 52.80 52.76 52.26 51.60 51.07 50.54 42.19 36.80 35.35 43.54 40.90 28.09 30.84 36.00 38.69 40.98 40.43 39.37 39.85 39.82 41.26 42.22 38.92 36.40 40.89 41.96 48.17 47.07 45.99 43.45 46.02 44.18 40.24 39.09 43.16 43.48 43.94 46.76 46.29 38.83 38.75 40.49
52.32 52.12 52.10 52.47 52.70 52.82 52.74 52.07 51.46 51.11 50.62 42.99 36.34 31.36 34.18 36.68 39.15 33.75 32.82 35.64 35.63 42.02 40.71 41.64 39.10 41.35 38.94 36.31 38.59 36.72 40.34 44.48 45.82 46.39 51.12 45.11 39.97 40.24 40.88 42.88 44.03 42.11 45.75 46.14 44.54 42.12 41.20
51.82 51.82 51.95 51.93 52.01 52.37 52.55 52.11 51.58 50.98 50.47 42.68 36.17 32.18 34.28 29.39 33.23 34.44 35.35 35.21 34.46 34.51 39.58 39.64 37.09 37.94 36.99 32.16 35.49 36.77 39.95 40.75 43.34 47.43 43.31 39.37 33.20 39.09 43.08 46.45 47.48 46.53 45.87 46.65 43.96 44.63 42.26
51.76 51.88 51.91 52.16 52.45 52.68 52.49 52.26 51.82 51.14 50.24 41.37 37.52 37.07 37.10 33.70 32.97 31.82 34.14 33.46 33.80 35.31 36.13 34.77 34.92 38.08 36.65 33.86 36.10 34.83 37.38 36.56 36.40 40.50 38.88 38.57 34.07 38.56 40.21 46.53 47.57 46.47 47.95 48.24 47.45 47.09 45.85
51.63 51.76 51.82 52.26 52.59 52.41 52.39 52.26 51.82 51.03 48.19 39.40 41.59 43.67 39.65 35.74 31.15 28.54 30.17 33.19 34.06 37.03 38.22 39.62 38.13 36.85 35.73 38.39 40.22 41.92 41.30 40.82 40.05 37.13 37.55 35.95 34.52 35.19 33.35 43.28 45.87 43.13 47.36 47.66 47.42 47.83 47.38
51.82 51.55 51.72 51.99 52.20 52.20 52.08 52.16 51.94 51.42 48.99 42.94 41.83 43.75 37.90 31.98 32.30 32.51 34.05 34.86 34.85 36.49 35.68 37.96 38.51 36.56 39.78 44.13 43.75 40.76 40.27 40.44 41.05 41.01 42.75 37.80 36.62 35.07 34.68 38.13 36.21 44.20 51.25 50.56 47.81 49.31 49.29
51.63 51.42 51.63 51.74 51.76 51.74 51.75 51.45 51.77 51.84 51.40 46.16 45.55 43.79 39.01 32.53 34.56 34.51 34.99 34.68 35.96 36.06 34.96 37.16 40.05 41.03 42.06 40.43 34.02 31.84 33.39 37.17 39.58 41.41 42.94 44.06 40.21 35.86 34.12 34.36 41.09 46.79 49.07 48.41 45.78 45.66 53.67
51.40 51.52 51.50 51.82 51.80 51.74 51.72 51.77 51.87 52.01 51.35 45.49 44.43 45.30 42.69 35.23 33.31 37.30 34.34 34.96 31.37 31.51 33.77 37.32 40.99 41.62 39.94 37.12 34.22 26.22 27.01 33.45 36.41 40.54 45.15 44.95 44.09 40.04 38.70 35.70 35.28 42.52 51.84 55.61 52.75 47.71 57.21
51.36 51.49 51.59 51.86 51.74 51.93 51.92 51.90 51.74 51.69 51.46 46.28 44.00 46.01 42.98 35.60 37.96 37.39 33.70 32.41 35.22 33.56 32.39 35.18 38.18 37.49 39.18 34.87 30.91 29.42 29.04 36.48 32.31 35.72 38.29 39.85 39.70 38.20 39.74 39.78 41.69 51.81 54.79 55.66 45.51 45.68 56.35
51.70 51.91 51.84 51.44 51.55 51.78 51.72 51.60 51.56 51.44 51.09 46.00 42.93 45.31 43.06 38.22 38.71 39.84 39.83 37.37 36.46 34.94 33.07 35.09 36.04 36.68 33.34 33.58 32.75 32.15 30.73 33.66 33.09 38.25 39.37 39.13 39.24 40.53 41.02 40.32 39.34 51.26 53.83 48.93 51.26 58.28 60.07
51.71 51.87 51.83 51.78 51.29 51.38 51.30 51.28 51.32 51.02 51.11 49.59 40.72 45.00 46.60 42.27 40.74 43.36 43.60 43.93 42.23 41.36 35.94 35.88 37.35 35.55 38.13 35.52 36.12 36.37 32.99 35.71 34.25 33.37 44.36 39.37 42.37 41.30 42.02 43.36 48.17 50.26 53.74 59.42 58.69 57.61 58.81

GFSGBSN_sfc_wetblb_015.txt.gz
Wetbulb
56.56 56.75 56.47 56.45 56.46 56.26 55.83 55.75 55.71 56.00 55.46 55.30 55.09 55.12 55.09 55.20 55.19 55.28 55.39 55.46 55.38 55.33 55.40 55.80 56.02 56.45 53.01 47.83 48.25 53.53 72.00 72.11 69.15 63.18 59.02 55.67 52.13 50.99 47.60 49.45 52.78 56.05 57.17 56.76 58.52 60.09 64.38
56.82 56.69 56.63 56.48 56.17 56.07 55.87 55.87 55.74 55.59 55.64 55.63 55.65 55.76 55.73 55.73 55.79 55.40 55.72 55.68 55.36 54.70 55.08 55.87 56.17 56.17 49.36 39.42 50.71 54.61 54.63 64.94 63.93 61.63 58.57 55.89 53.48 52.45 49.87 49.99 50.70 53.94 54.72 55.03 55.59 55.38 64.02
56.97 56.78 56.73 56.51 56.22 56.11 56.07 56.09 56.06 55.86 55.45 55.63 55.71 55.79 55.75 55.75 56.04 55.90 55.53 54.89 54.83 54.45 55.14 56.03 56.40 54.58 51.57 44.58 52.04 54.25 56.97 58.30 61.50 60.47 55.76 57.22 55.88 52.42 50.88 49.39 53.89 53.71 51.18 51.82 52.78 53.69 61.02
57.53 57.04 56.88 56.57 56.45 56.62 56.43 56.21 56.38 56.49 56.12 55.78 55.52 55.56 55.64 55.51 55.64 55.37 54.53 53.65 54.01 54.88 56.52 56.89 57.27 53.68 44.01 54.10 54.74 52.35 52.08 49.88 58.37 58.68 55.69 56.12 56.54 52.38 50.98 53.19 52.11 48.03 47.01 44.59 50.63 52.51 55.44
57.88 57.35 56.93 56.79 56.65 56.61 56.32 56.36 56.45 56.44 55.95 55.65 55.55 55.49 55.25 55.27 54.84 54.22 53.15 53.04 54.23 56.44 57.30 58.12 53.54 50.49 45.28 60.23 56.08 55.15 53.11 51.33 51.01 53.80 56.68 60.31 53.94 50.05 50.18 47.55 43.32 43.65 42.49 44.25 47.53 51.85 57.03
56.43 56.37 56.45 55.81 56.17 56.55 56.26 56.28 56.18 55.95 55.65 55.45 55.18 55.01 54.75 54.61 53.97 53.15 52.32 52.94 52.97 56.07 58.27 58.27 58.00 47.55 50.53 50.46 58.23 56.16 53.60 53.48 53.06 52.61 53.46 53.03 48.53 44.54 43.23 42.31 39.30 41.51 41.68 42.91 44.94 49.66 55.45
56.00 55.89 55.64 55.48 55.65 56.08 56.11 56.01 55.69 55.31 55.20 55.14 54.85 54.58 54.38 53.97 53.35 51.93 50.22 46.42 44.81 43.63 49.51 47.84 49.05 49.48 51.06 54.06 57.82 55.37 53.29 52.03 51.92 50.49 46.38 48.37 45.45 41.39 43.92 44.72 46.16 45.57 43.91 44.16 47.18 50.81 52.03
55.80 55.53 55.30 54.83 55.37 55.31 55.31 55.23 55.02 54.95 54.85 54.77 54.52 54.17 54.05 53.50 52.28 51.70 46.65 42.48 45.94 44.39 38.80 47.05 47.33 48.82 52.83 53.15 49.83 52.15 54.10 48.39 48.55 45.00 46.32 43.77 43.31 47.15 49.00 47.60 46.59 45.52 43.98 44.11 46.90 49.74 49.77
54.93 55.14 54.81 54.94 54.96 54.92 54.77 54.53 54.36 54.32 54.38 54.38 54.15 53.87 53.33 52.75 51.56 46.93 43.94 44.12 48.10 44.22 36.80 42.79 46.28 46.19 47.19 50.13 48.00 49.43 52.30 50.14 47.56 45.66 44.89 43.35 44.55 48.84 48.46 46.88 45.29 43.28 42.89 44.75 44.42 47.83 49.20
55.20 55.49 54.81 54.51 54.49 54.47 54.22 54.05 54.01 53.93 53.95 53.78 53.79 53.46 52.64 51.53 44.25 44.84 44.58 47.57 47.41 46.85 33.82 40.46 42.43 45.49 47.41 49.62 46.02 53.02 56.01 51.49 48.15 46.64 45.55 43.74 48.05 47.88 46.62 45.96 46.24 40.04 46.61 47.41 46.16 44.09 40.20
54.74 54.50 54.05 54.23 53.94 53.91 53.77 53.78 53.66 53.44 53.38 53.46 53.38 52.86 51.36 50.71 43.31 42.80 45.69 47.62 48.91 41.30 30.88 48.07 44.28 49.53 46.81 46.18 46.84 48.66 55.91 52.06 47.53 46.50 45.86 43.70 46.01 46.06 44.86 46.77 47.16 45.63 48.57 47.33 47.22 43.69 40.35
53.65 53.44 53.54 53.72 53.61 53.75 53.76 53.56 53.56 53.40 53.23 53.27 52.80 51.63 50.97 46.64 43.49 45.57 47.20 46.60 41.78 35.07 29.79 43.29 46.27 43.48 43.11 44.32 45.60 49.64 50.52 52.86 51.82 47.89 46.68 47.13 49.37 48.86 47.19 49.00 49.24 49.91 46.28 44.25 43.54 41.41 36.88
53.33 53.23 53.19 53.47 53.64 53.77 53.44 53.35 53.42 53.15 52.93 52.44 51.46 50.17 49.35 48.65 40.89 44.89 46.39 41.67 32.73 28.81 42.80 42.18 40.22 42.48 41.54 41.65 43.70 46.08 47.57 47.40 44.80 41.91 42.27 45.11 47.57 47.10 49.06 45.56 46.91 45.84 40.09 35.05 33.14 34.85 37.06
52.95 53.43 53.55 53.38 53.23 53.06 53.17 53.23 53.09 52.89 52.64 51.85 49.87 49.16 47.44 47.47 45.36 45.99 41.93 35.24 26.56 37.64 37.06 42.49 41.80 41.79 39.94 42.12 41.87 43.14 46.35 45.21 48.67 42.98 42.62 40.10 38.60 46.83 47.62 46.22 44.21 42.21 42.04 33.29 29.96 31.33 37.28
52.92 52.91 53.07 53.03 53.04 52.98 52.98 52.96 52.65 52.43 52.17 51.33 49.34 44.32 41.87 43.82 47.06 44.34 36.82 28.23 30.57 35.10 41.22 40.26 40.67 37.50 37.82 40.96 40.77 41.19 38.99 45.65 48.43 44.44 40.90 38.76 40.54 46.73 50.06 48.04 48.08 42.35 40.70 44.28 35.79 34.48 34.21
52.34 52.46 52.89 53.01 53.00 52.90 52.96 52.86 52.49 52.25 51.99 50.85 44.34 41.15 39.95 46.31 45.70 41.00 34.21 30.56 33.02 40.97 41.72 41.54 34.87 38.05 34.45 37.42 38.02 38.12 38.40 42.61 43.41 47.56 44.03 41.39 36.46 42.83 47.47 48.72 47.64 46.20 44.99 39.10 32.99 33.34 33.37
52.11 52.27 52.36 52.82 52.80 52.77 53.02 52.98 52.45 51.92 51.36 50.27 39.36 34.97 41.48 44.51 41.68 36.90 29.51 30.96 37.62 42.44 43.29 39.41 37.01 36.28 37.14 37.26 38.74 37.04 38.81 43.37 46.16 45.22 45.86 40.67 38.72 41.33 43.46 41.87 42.50 40.92 42.79 37.59 38.66 36.66 35.57
52.02 52.36 52.86 52.82 52.69 52.86 52.88 52.86 51.91 51.27 50.11 45.06 36.16 30.43 41.75 43.60 32.08 30.33 29.78 33.91 40.68 40.44 41.92 40.26 40.46 39.04 37.66 38.61 36.55 37.35 38.66 41.84 46.64 45.67 40.66 42.21 34.89 38.97 41.49 44.91 47.96 46.07 44.09 39.44 38.08 35.36 35.70
52.63 52.76 52.92 52.92 52.90 52.90 52.90 52.38 51.66 50.80 50.46 41.30 34.44 32.76 41.75 39.90 28.37 28.61 32.62 36.34 39.34 37.84 38.02 38.02 37.71 39.11 39.60 36.64 33.84 38.72 39.54 45.60 46.02 44.26 41.24 42.46 35.17 32.93 35.75 39.68 41.92 42.02 44.02 43.73 41.89 37.36 40.58
52.47 52.34 52.26 52.78 52.84 52.80 52.82 52.11 51.34 50.88 50.45 41.63 35.42 30.68 33.44 35.01 34.88 32.16 30.61 32.13 34.24 40.59 39.09 38.89 37.65 39.17 37.08 34.85 36.72 35.45 37.96 43.84 44.25 44.41 49.42 41.64 33.65 34.53 33.34 36.29 41.14 40.05 43.85 45.53 42.58 39.16 41.32
51.89 52.20 52.33 52.20 52.47 52.74 52.96 52.40 51.66 50.79 50.27 41.24 34.45 29.96 32.57 28.88 31.54 31.61 32.26 32.50 33.55 33.13 39.14 39.45 34.96 36.20 35.14 30.10 33.67 34.13 38.37 39.24 42.40 45.20 41.34 36.84 31.24 34.57 37.87 41.15 42.55 43.24 43.31 45.14 42.01 43.81 41.21
51.86 52.11 51.97 52.22 52.86 52.65 52.63 52.49 51.91 50.99 49.66 42.09 35.87 33.82 36.53 34.13 34.73 30.82 30.83 31.60 32.58 33.33 34.98 34.90 34.28 35.58 34.65 31.63 33.63 32.37 35.03 35.42 36.05 39.07 37.03 35.76 32.98 34.77 35.73 42.03 43.55 42.60 44.69 45.78 45.57 45.41 44.27
51.69 51.74 51.86 51.99 52.35 52.70 52.51 52.23 52.15 50.80 47.31 38.48 41.14 39.22 39.05 36.15 34.13 31.71 29.41 31.04 32.25 34.88 37.23 38.41 36.37 33.78 32.95 35.55 38.71 38.86 39.43 38.71 38.31 36.03 34.01 34.29 32.53 31.97 30.09 38.48 39.30 38.63 44.07 45.62 46.40 46.19 45.75
51.57 51.65 51.67 51.95 52.20 52.12 51.97 52.15 52.09 51.33 48.04 43.25 41.64 42.65 37.49 32.16 33.26 32.92 33.92 33.99 33.21 34.17 33.58 36.82 37.33 33.34 37.77 41.42 40.33 38.48 36.54 37.60 39.10 38.29 38.73 33.80 32.83 32.41 30.45 34.14 31.59 42.52 47.41 48.85 47.09 46.73 46.46
51.33 51.63 51.73 51.67 51.99 52.02 52.10 52.06 52.22 51.74 50.82 44.28 44.27 43.41 39.15 32.30 34.45 33.91 34.11 33.57 34.73 34.60 33.33 34.07 37.40 39.19 39.88 37.17 31.74 30.15 30.15 31.41 35.15 38.62 38.41 38.97 36.11 31.54 30.04 30.96 38.04 44.22 47.55 47.02 45.78 44.85 49.60
51.17 51.27 51.42 51.42 51.48 52.01 52.12 52.22 51.94 52.09 51.28 43.86 42.04 42.50 40.87 35.34 33.52 36.81 33.56 34.80 31.43 32.35 32.60 35.56 39.58 39.83 37.57 34.02 31.39 26.12 24.66 30.67 31.27 36.29 40.23 39.20 39.59 36.84 32.42 31.02 32.02 40.46 49.33 53.08 50.68 43.70 55.45
51.28 51.42 51.36 51.59 51.50 51.67 51.81 51.90 51.92 51.76 51.14 44.52 42.12 42.78 42.57 36.64 38.43 37.47 33.24 31.50 35.38 32.49 31.23 32.70 35.13 35.58 36.78 32.85 27.15 26.49 27.19 34.44 28.66 31.92 32.28 34.78 38.48 34.57 34.67 32.88 38.76 47.03 53.92 53.92 41.94 43.66 55.57
51.32 51.28 51.38 51.34 51.29 51.42 51.59 51.63 51.64 51.51 51.28 45.09 42.31 44.25 41.07 38.53 37.87 40.19 40.15 36.52 36.31 35.52 31.95 32.55 33.27 35.19 31.69 32.11 31.53 29.32 29.19 32.35 30.98 34.01 34.55 35.87 36.36 36.65 36.18 35.82 34.55 53.07 53.76 49.65 52.53 56.18 58.58
51.67 51.79 51.70 52.04 51.42 51.46 51.48 51.61 51.45 51.53 51.40 49.61 43.77 44.29 45.57 42.05 38.13 41.50 42.14 42.81 41.33 40.36 37.30 36.06 33.82 33.49 35.52 31.91 32.54 33.27 31.36 33.83 31.33 29.89 38.66 34.89 40.41 39.79 40.56 41.23 47.21 51.55 53.19 57.70 57.19 56.36 58.12

GFSGBSN_sfc_wetblb_018.txt.gz
Wetbulb
57.16 57.03 56.97 56.90 56.82 56.59 56.35 56.41 56.54 56.75 56.34 55.93 55.95 55.87 55.68 55.53 55.57 55.77 55.69 55.87 55.81 55.18 55.37 55.63 56.21 56.33 52.02 46.25 45.74 66.18 72.20 70.32 72.27 64.68 63.99 60.16 61.94 57.39 51.86 53.63 58.73 56.85 58.35 57.90 59.71 58.34 61.16
57.54 57.58 57.21 57.06 56.59 56.24 56.06 56.14 56.17 56.39 56.43 56.29 56.30 56.15 56.21 56.21 56.03 55.95 56.07 55.87 55.58 54.90 55.15 55.57 56.18 55.98 47.03 37.29 48.90 53.12 66.45 66.45 65.04 60.61 56.61 55.23 54.99 53.36 49.37 48.32 52.51 52.63 55.03 56.98 54.59 54.14 59.02
57.50 57.09 56.81 56.78 56.52 56.20 56.14 56.04 56.11 56.00 56.08 55.91 56.11 56.14 56.05 56.05 55.76 55.87 55.78 55.10 54.67 54.38 55.24 56.19 56.57 53.82 49.82 42.06 50.24 52.19 61.25 60.09 61.31 59.68 55.18 55.56 54.34 53.56 50.57 48.01 51.59 51.99 49.93 51.65 52.19 52.46 58.66
56.56 56.40 56.36 56.04 55.75 56.03 56.04 55.89 55.61 55.76 55.65 55.53 55.38 55.63 55.76 55.59 55.48 55.30 54.34 53.59 54.27 55.19 56.53 57.57 57.28 52.17 42.01 51.09 52.99 51.82 50.70 51.69 61.02 58.29 55.13 57.56 54.92 50.80 48.92 51.00 50.38 46.63 45.68 43.86 50.09 52.80 57.95
56.27 56.13 55.80 55.73 55.42 55.58 55.82 55.59 55.11 55.34 55.15 55.25 55.23 55.19 55.19 55.09 54.66 53.90 52.78 52.87 55.02 58.35 58.07 58.24 51.96 48.56 43.23 58.15 53.82 52.63 50.61 49.14 54.94 56.61 55.81 58.66 54.02 49.38 48.37 45.51 42.84 42.44 41.33 43.60 46.79 50.87 54.27
55.99 55.66 55.48 54.87 54.56 55.24 55.18 54.99 54.71 54.91 54.66 54.70 54.58 54.47 54.45 54.35 53.73 52.70 51.85 53.30 53.64 57.57 56.80 56.56 56.45 46.04 49.92 49.64 55.65 56.44 51.48 52.16 49.85 51.60 52.27 52.72 47.53 44.36 41.81 41.97 38.03 40.37 40.68 42.31 44.54 48.57 54.24
55.14 55.29 55.14 54.36 54.02 54.31 54.18 54.26 54.12 54.28 54.37 54.41 54.10 53.96 53.80 53.55 52.72 51.60 49.88 44.41 42.65 41.85 43.94 48.29 47.80 48.11 50.79 52.35 54.60 52.96 52.39 50.46 51.74 49.26 44.82 47.11 43.11 41.24 40.91 43.53 45.44 45.12 43.22 43.76 46.01 48.89 49.35
54.91 55.18 54.70 53.83 53.66 53.51 53.34 53.46 53.45 53.66 53.90 54.06 53.88 53.67 53.45 52.72 51.82 51.45 45.05 43.08 42.35 41.77 37.12 45.19 44.66 46.65 52.10 50.78 48.15 50.39 52.39 47.04 46.98 43.81 45.87 42.17 42.99 45.82 46.64 45.87 45.56 44.49 42.72 42.91 45.32 48.63 46.33
54.19 53.76 53.65 53.81 54.06 54.11 53.94 54.02 53.92 53.92 53.77 53.59 53.53 53.20 52.72 51.95 51.35 45.38 42.46 42.29 45.98 42.63 35.05 41.48 44.72 45.14 46.11 48.57 46.44 47.50 49.97 47.73 44.89 43.83 44.16 43.59 44.09 49.24 48.19 44.98 43.85 41.88 42.42 42.49 43.51 46.32 46.42
53.81 54.16 54.38 53.99 53.99 53.82 53.92 53.84 53.77 53.63 53.65 53.41 53.47 53.08 52.19 50.96 42.65 43.61 41.58 45.16 45.23 44.82 32.01 39.39 40.88 44.71 47.13 47.47 43.98 51.42 51.81 49.51 46.24 44.97 43.75 42.65 46.81 47.28 44.96 45.03 45.08 38.26 45.10 46.32 45.29 42.24 39.04
53.80 53.83 53.91 53.60 53.47 53.47 53.67 53.43 53.32 53.36 53.14 53.20 53.18 52.77 51.20 50.38 42.81 40.97 42.41 45.85 46.24 38.78 29.84 46.57 41.65 48.02 46.23 44.47 45.26 46.79 53.85 49.94 45.53 44.65 44.76 42.90 44.29 44.62 44.05 44.89 45.99 44.13 47.09 45.49 45.19 41.99 39.73
53.38 52.94 52.75 52.72 52.67 53.06 53.18 53.03 53.05 52.99 53.02 52.89 52.61 51.81 50.99 45.89 42.48 44.03 45.39 44.77 39.58 34.70 29.01 42.04 43.81 41.74 41.80 42.77 44.03 47.59 49.67 51.46 49.76 46.08 44.83 45.86 47.50 47.77 45.88 47.30 47.59 48.10 45.10 42.13 40.83 38.98 34.92
52.71 52.64 52.62 52.65 52.98 53.14 52.99 52.83 52.91 52.73 52.50 52.14 51.22 50.01 49.14 47.82 40.02 44.22 44.74 39.39 31.30 28.00 41.46 40.04 38.76 41.00 40.20 40.00 41.92 44.05 44.85 45.71 43.60 39.14 38.98 43.83 46.23 45.62 47.23 43.90 44.76 44.86 40.16 33.25 32.28 33.15 36.19
52.69 52.86 53.12 53.28 53.12 53.07 52.93 52.99 52.87 52.65 52.15 51.38 49.66 49.00 45.87 46.44 45.36 43.92 40.12 34.25 24.44 36.09 34.79 40.95 40.85 40.37 37.73 40.33 40.43 41.99 42.59 43.93 45.12 42.97 39.67 39.56 36.88 45.68 46.64 44.76 42.31 41.23 39.48 33.21 29.08 29.54 35.45
52.42 53.11 53.06 53.14 52.89 52.99 52.89 52.85 52.52 52.32 51.77 50.81 49.20 42.24 41.03 42.92 45.94 42.41 35.93 26.22 28.13 32.26 39.40 38.20 39.01 36.26 36.58 39.60 38.96 39.37 38.13 42.45 45.89 42.64 40.13 38.15 39.67 46.61 47.31 46.62 47.38 40.14 40.01 41.92 34.28 33.41 32.55
51.77 52.82 52.83 53.14 52.97 53.01 52.87 52.81 52.46 52.28 51.68 50.30 42.85 40.01 38.38 44.58 43.00 39.87 33.23 28.71 31.08 39.35 40.37 39.21 32.91 36.74 33.05 36.03 36.53 36.44 36.97 41.64 41.87 45.11 42.23 39.56 36.56 42.86 48.00 47.41 46.20 43.00 43.42 37.76 31.98 30.56 29.29
51.75 52.63 52.93 53.22 53.14 52.99 53.07 53.10 52.42 51.99 51.24 49.77 37.80 33.86 39.92 44.22 40.99 35.39 25.73 28.81 34.77 40.58 41.28 36.88 35.02 34.63 35.08 35.01 36.56 35.32 37.10 41.63 43.87 44.05 44.08 38.41 36.63 37.79 42.59 42.49 44.05 40.23 38.83 36.21 38.54 34.09 31.36
52.15 52.79 53.08 53.18 52.99 53.10 53.14 52.85 52.07 51.43 50.09 43.78 36.64 29.14 40.29 41.23 30.36 29.52 28.88 32.33 39.04 38.18 40.07 38.15 38.49 37.10 35.90 37.35 35.26 35.91 36.96 39.90 44.94 44.61 39.25 40.21 33.12 35.54 39.06 42.21 47.11 47.74 43.95 39.09 37.67 33.96 32.87
52.54 52.87 53.26 53.12 52.87 53.14 53.18 52.77 51.79 50.86 50.16 41.99 36.35 36.07 40.50 38.36 25.42 26.52 32.94 34.02 36.89 37.45 37.04 36.07 35.58 37.33 37.90 35.11 31.95 37.37 38.22 44.21 43.56 42.27 40.46 40.43 32.95 30.88 33.93 39.05 41.08 39.35 43.65 42.07 40.15 36.16 37.70
51.79 52.21 52.30 52.89 53.04 53.31 53.14 52.48 51.65 50.79 50.36 40.68 37.65 30.51 32.73 37.85 32.26 28.59 29.02 29.34 31.85 39.65 38.86 38.31 36.31 37.31 35.59 33.74 35.08 33.71 36.91 42.18 43.28 43.22 47.99 41.42 32.17 31.74 30.84 33.55 38.34 37.87 41.02 41.68 41.92 39.27 40.17
51.73 52.21 52.11 52.19 52.85 53.06 53.14 52.49 51.79 50.90 49.91 41.17 33.57 28.66 34.52 28.72 29.52 32.91 28.24 29.82 31.88 31.44 36.82 38.81 36.22 34.29 32.90 28.64 32.11 32.78 36.36 37.59 40.98 44.04 40.24 36.58 31.51 32.85 35.44 39.10 40.06 40.26 40.89 42.13 39.37 42.34 39.57
51.96 51.70 51.83 51.84 52.65 53.18 53.16 52.74 52.11 51.03 48.82 40.44 36.35 34.56 36.26 33.78 35.40 33.17 30.38 27.55 31.30 32.27 33.51 33.37 34.40 35.40 34.52 29.61 31.62 30.49 33.50 33.20 34.26 37.91 34.71 34.57 32.12 32.67 33.59 39.68 40.28 38.69 41.83 43.17 43.02 42.52 41.73
51.64 51.70 51.89 51.78 51.90 52.75 52.94 52.58 52.23 51.09 46.72 37.55 39.68 40.99 38.65 34.98 34.78 31.47 28.76 31.47 31.63 33.12 35.11 37.57 36.28 33.04 31.99 34.65 37.62 37.34 36.64 36.61 36.54 34.27 32.99 32.26 31.72 30.60 29.06 36.73 37.03 35.54 40.78 42.72 43.45 43.86 43.97
51.60 51.56 51.81 51.85 51.86 51.84 52.71 52.85 52.29 51.50 47.98 43.55 42.52 42.56 37.12 31.84 32.59 32.57 33.77 33.97 32.67 33.49 32.44 35.42 36.62 33.42 36.57 39.54 38.95 36.08 34.02 33.88 35.47 35.87 36.47 31.82 31.35 31.11 29.09 32.14 28.37 38.63 44.36 47.47 44.92 46.15 46.15
51.66 51.68 51.74 51.75 51.89 51.75 51.88 52.44 52.58 51.91 50.36 42.02 41.11 40.95 38.88 32.55 33.87 33.28 33.79 34.25 33.55 34.00 32.49 33.42 36.24 36.89 38.35 37.00 30.74 28.18 27.64 29.17 33.50 36.84 36.02 37.27 31.53 29.69 28.90 29.00 35.71 40.52 45.72 47.19 45.29 44.63 47.48
51.49 51.47 51.60 51.72 51.83 51.62 51.82 51.87 52.15 51.99 51.13 42.96 40.67 41.48 41.50 35.35 31.76 36.36 33.50 34.28 30.92 30.32 31.21 33.98 37.51 38.05 36.55 32.95 29.06 22.69 23.27 26.65 28.83 33.79 36.63 35.00 36.88 31.48 29.15 28.23 28.78 39.14 48.71 52.79 50.89 41.27 53.64
51.32 51.49 51.62 51.64 51.76 51.89 52.17 52.07 51.97 51.82 51.19 44.65 42.16 42.04 42.04 36.26 37.79 37.60 33.87 32.51 35.78 34.91 32.18 33.69 35.24 34.14 35.31 34.51 29.04 24.67 24.64 31.98 26.42 28.55 28.28 29.55 31.47 29.32 30.92 30.54 35.13 44.59 51.08 54.94 41.57 44.25 55.69
51.65 52.03 52.07 52.02 51.74 51.89 52.00 51.98 51.84 51.87 51.93 46.42 43.34 43.59 43.40 38.52 37.23 38.00 39.66 36.57 35.98 35.34 30.93 33.98 32.34 32.99 32.45 31.22 31.18 29.15 27.20 29.80 28.33 31.77 30.72 30.13 29.94 30.01 31.15 30.59 29.59 48.96 51.94 49.60 52.17 55.65 56.32
51.70 51.90 51.92 52.09 52.23 52.04 52.00 52.14 52.27 52.33 52.00 50.37 43.72 43.84 45.61 40.97 39.70 42.48 42.01 42.41 40.87 39.48 37.21 37.59 35.87 31.60 32.81 29.93 32.86 30.68 30.68 32.44 32.58 26.96 35.30 29.69 36.50 35.24 36.26 36.03 43.49 50.43 50.04 55.15 56.47 55.14 56.06

GFSGBSN_sfc_wetblb_021.txt.gz
Wetbulb
57.73 57.30 57.23 57.16 57.15 56.88 56.44 56.49 56.65 56.56 56.07 55.64 55.57 55.76 55.61 55.68 55.71 55.68 56.09 56.09 56.26 55.55 55.64 56.04 56.13 56.25 54.09 49.95 47.56 66.99 70.99 70.91 74.60 71.26 68.23 66.83 64.88 63.54 59.75 62.50 62.81 62.97 62.13 62.49 62.88 62.61 61.31
56.77 56.75 56.76 56.33 56.11 55.72 55.81 55.91 55.68 55.75 55.54 55.50 55.61 55.92 55.99 55.91 55.74 55.66 56.08 55.76 55.47 54.74 55.22 55.90 55.87 55.44 50.22 41.49 51.30 60.82 65.87 71.05 71.48 69.26 66.96 67.19 65.81 64.77 60.19 55.51 60.00 60.42 59.49 56.76 59.02 59.84 58.51
56.57 56.41 56.23 55.31 55.28 55.15 55.23 54.95 54.86 54.85 54.65 54.67 55.07 55.35 55.40 55.40 55.44 55.62 55.37 54.71 53.85 54.62 55.46 55.83 56.26 54.15 50.17 46.22 53.24 56.80 66.57 68.13 70.10 66.46 65.10 65.37 65.08 63.59 57.22 52.97 56.91 55.81 51.81 54.58 55.59 56.63 56.47
56.20 55.88 55.52 54.31 54.50 54.53 54.40 54.22 54.25 54.05 54.19 54.14 54.39 54.57 54.79 54.77 54.87 54.66 53.94 53.27 54.20 58.06 57.13 56.21 57.05 53.68 46.45 52.96 54.85 52.60 61.80 61.50 68.45 66.13 63.35 64.00 61.68 62.11 54.85 54.96 53.44 52.13 52.38 49.38 54.56 55.69 58.16
55.41 55.47 55.29 54.29 53.88 54.10 53.76 53.70 53.82 53.87 54.43 54.45 54.35 54.37 54.66 54.47 54.30 53.46 52.49 53.03 55.25 58.86 58.92 58.03 53.63 51.88 45.96 58.83 51.77 52.89 55.10 57.98 62.36 63.01 60.21 60.56 58.52 55.79 53.85 50.84 48.98 50.26 48.34 49.32 52.07 55.85 58.92
55.30 55.37 54.30 54.12 53.95 53.86 54.36 54.36 54.26 54.35 54.49 54.41 54.38 54.16 54.18 53.83 53.31 52.28 51.95 52.53 55.13 57.78 57.02 57.22 54.67 48.24 50.30 50.41 55.82 53.68 53.57 59.94 57.08 57.66 56.09 55.27 54.53 52.15 51.38 49.20 43.37 46.08 46.87 49.36 50.41 54.08 55.91
54.23 54.10 54.20 54.11 53.91 53.80 53.99 53.93 53.62 53.96 54.20 54.28 54.20 54.01 53.76 53.29 52.44 51.31 50.53 50.27 48.22 47.44 47.41 52.05 52.48 50.01 52.87 54.64 59.19 55.10 52.58 52.57 55.28 54.80 49.63 53.21 48.88 47.21 49.29 49.75 49.50 48.67 48.58 49.03 51.86 54.20 55.49
54.24 54.11 54.02 53.66 53.36 53.32 53.22 53.33 53.45 53.63 54.08 54.20 53.85 53.56 53.48 52.88 51.82 51.34 49.19 46.27 43.98 44.97 40.32 47.53 46.04 49.06 54.00 53.61 50.29 53.67 53.32 49.17 49.92 47.88 51.20 49.21 46.64 50.38 51.32 50.14 48.97 48.03 47.43 48.83 50.96 52.54 52.00
53.71 53.51 53.41 53.20 53.07 53.00 53.16 53.23 53.58 53.50 53.58 53.52 53.56 53.15 52.72 52.08 51.29 48.32 46.22 45.79 49.04 48.33 40.67 44.84 46.74 47.15 48.80 50.64 48.75 51.51 51.76 50.58 48.97 47.64 47.79 47.55 49.20 51.89 50.06 48.86 47.30 47.49 46.64 48.18 49.32 50.56 51.79
53.16 53.68 53.64 53.43 53.41 53.53 53.52 53.50 53.56 53.39 53.29 53.11 53.23 52.90 51.87 50.99 47.38 46.20 45.21 47.92 48.85 48.05 39.34 44.17 44.24 47.41 48.91 50.74 47.55 53.63 54.35 52.33 49.56 47.29 48.37 48.45 51.86 49.97 49.10 48.23 48.61 44.84 49.16 49.04 48.99 48.57 46.67
52.45 53.53 53.56 53.49 53.57 53.40 53.42 53.40 53.46 53.17 53.05 52.92 52.90 52.30 50.88 50.34 46.29 44.61 46.72 49.09 49.57 45.73 34.20 46.67 44.20 50.98 50.21 49.04 49.03 49.67 54.38 52.70 48.72 48.43 49.23 47.40 48.85 48.34 47.96 48.69 50.37 46.97 50.00 49.00 49.65 48.83 48.46
52.37 52.54 52.57 52.97 52.79 53.21 53.37 53.07 53.11 53.02 52.92 52.70 52.34 51.22 50.61 47.96 47.09 48.00 48.63 48.49 46.20 38.38 33.32 44.32 45.40 44.62 45.46 47.38 47.35 49.66 50.72 54.52 53.42 49.40 50.17 49.75 51.81 51.65 50.68 51.69 51.78 52.41 50.00 49.82 49.16 48.72 42.94
52.35 52.05 52.58 52.74 52.90 53.23 53.07 53.07 53.00 52.80 52.53 52.06 50.98 49.85 49.32 49.15 44.29 49.10 47.79 45.57 37.78 33.98 44.35 41.55 42.36 44.88 44.12 43.99 45.47 47.35 47.44 48.14 47.53 44.14 44.82 48.31 48.38 50.91 52.32 48.90 50.99 50.58 47.94 42.87 41.13 41.32 41.82
51.92 52.24 53.07 53.36 53.25 53.31 53.27 53.09 53.13 52.74 52.25 51.24 49.47 48.82 47.57 47.98 49.62 47.65 46.72 40.18 31.89 37.89 38.52 43.23 43.26 43.99 42.02 43.77 44.35 44.99 46.32 45.72 50.69 48.58 45.89 43.75 41.74 48.93 50.83 49.90 47.57 48.31 47.85 42.85 38.29 40.17 42.90
51.68 52.94 53.36 53.27 53.39 53.44 53.29 53.23 52.88 52.45 52.00 50.61 49.07 46.80 46.17 48.07 48.31 47.40 43.24 32.57 34.23 36.66 39.27 38.76 41.79 40.66 41.12 42.92 43.00 43.60 45.01 46.19 49.48 49.89 45.70 44.17 44.19 50.22 51.23 51.30 50.91 47.67 45.72 49.60 44.14 43.61 42.73
52.74 52.81 53.32 53.54 53.56 53.44 53.35 53.23 52.86 52.50 51.83 50.23 45.77 42.53 43.73 47.52 47.12 46.49 39.57 32.11 35.71 40.42 41.08 41.07 36.28 39.88 37.73 40.24 41.42 42.41 43.41 44.22 46.18 48.09 48.93 48.10 44.27 49.58 50.50 52.00 51.41 49.09 50.97 43.67 44.95 38.93 38.39
52.60 52.64 53.21 53.81 53.56 53.35 53.52 53.37 52.90 52.33 51.08 48.51 43.62 39.60 45.70 47.50 46.43 42.09 33.36 32.83 35.54 41.16 41.82 39.27 38.01 37.36 38.90 38.33 40.68 40.29 41.00 43.29 45.05 46.36 48.46 47.08 45.97 44.99 50.12 47.76 47.30 46.50 46.45 47.63 47.39 45.22 40.88
52.37 53.03 53.38 53.48 53.31 53.48 53.66 53.25 52.44 51.39 49.92 46.94 41.55 35.39 46.16 45.87 36.91 36.85 33.13 34.47 37.99 38.61 42.21 39.89 40.64 39.77 38.64 39.87 39.44 40.10 40.46 42.36 45.52 47.23 44.04 45.60 45.61 44.67 45.95 50.69 52.15 50.63 48.69 48.22 43.73 42.57 44.48
52.89 52.86 53.15 53.17 53.25 53.48 53.56 52.82 51.93 50.82 49.51 46.42 37.22 37.16 45.88 45.35 30.72 31.72 34.96 34.87 36.87 37.99 38.58 38.98 37.27 39.71 41.39 39.34 37.05 39.90 41.30 44.96 45.21 46.70 44.19 45.81 43.39 42.43 44.15 47.52 48.65 48.38 49.90 49.52 49.39 48.79 44.65
52.14 52.29 52.35 52.76 53.13 53.26 53.35 52.71 51.78 51.00 50.03 46.03 39.78 33.61 39.29 40.27 38.68 33.29 31.55 32.56 33.35 39.33 37.98 39.05 38.50 39.53 38.38 38.17 40.40 37.91 39.56 43.00 44.61 46.60 48.02 46.55 42.85 43.33 42.76 44.57 45.27 44.43 46.04 49.05 48.04 45.16 45.17
52.22 52.12 52.21 52.42 52.74 52.93 53.29 52.80 52.04 51.27 49.46 46.89 40.55 35.41 36.88 32.14 34.55 35.32 35.40 32.97 32.73 32.50 37.00 38.78 36.01 36.67 34.69 33.95 36.47 36.79 39.10 40.80 43.62 45.12 44.82 44.86 39.82 41.60 42.35 42.90 43.41 43.47 44.01 45.42 45.39 47.53 45.82
52.03 52.18 52.07 52.14 52.62 52.97 52.93 52.80 52.24 51.47 48.17 45.61 38.67 36.73 38.51 34.61 36.64 35.20 33.51 32.42 32.34 33.73 34.23 33.39 35.10 34.99 35.10 32.90 34.84 34.27 36.73 38.79 38.38 42.64 41.67 43.39 39.44 41.40 39.38 42.47 43.11 42.04 44.35 44.98 45.57 46.16 46.42
52.01 52.20 52.30 52.31 52.20 52.21 52.45 52.65 52.11 51.02 48.08 43.93 43.85 44.07 38.96 36.04 34.75 33.67 33.71 33.30 33.29 35.49 36.54 37.58 36.25 34.06 33.46 36.23 38.62 40.18 41.19 41.04 40.41 38.06 38.72 40.00 40.65 39.26 36.39 41.37 41.87 39.12 43.73 45.06 46.19 47.97 47.82
51.77 52.01 52.05 52.16 52.31 52.26 52.31 52.74 52.53 51.74 49.37 47.58 46.51 43.99 37.64 31.82 33.92 32.58 34.43 35.07 33.84 35.17 33.19 36.77 37.64 35.46 38.78 43.13 42.49 42.16 40.98 40.23 40.21 39.91 40.99 38.66 39.03 39.82 36.21 38.82 32.36 44.42 49.16 49.86 48.87 49.66 50.35
51.65 51.76 51.99 51.99 52.24 52.28 52.37 52.25 52.47 52.15 51.09 47.98 47.35 43.66 39.27 32.88 34.70 34.41 34.90 34.17 35.22 35.52 35.20 35.40 38.33 40.92 42.70 40.23 35.71 33.40 35.55 36.23 37.82 39.28 40.29 41.20 39.40 35.59 33.37 35.60 40.50 42.75 46.43 50.04 50.29 49.07 55.12
51.46 51.59 51.65 51.88 51.93 52.05 52.10 52.21 52.24 52.12 51.40 49.11 47.91 47.51 42.57 36.32 34.47 37.61 34.77 34.80 31.47 32.09 33.60 36.19 41.03 43.38 41.89 39.49 35.53 28.31 28.43 31.99 32.29 37.11 41.42 40.97 41.08 36.83 35.74 31.61 31.82 43.41 49.38 54.36 55.01 45.31 57.23
51.29 51.52 51.71 51.71 51.80 51.99 52.18 52.38 52.54 52.49 52.02 49.97 47.55 47.89 43.40 36.50 39.30 39.40 35.20 34.15 36.38 34.53 32.49 34.80 36.70 37.41 41.72 34.82 30.26 29.35 29.96 35.51 30.23 31.11 34.55 35.35 35.71 32.83 33.65 33.29 38.61 46.20 50.81 57.31 46.06 47.81 58.09
51.93 52.03 52.24 52.32 51.96 51.84 52.26 52.32 52.58 52.66 52.54 50.39 47.16 47.87 45.42 39.37 39.44 40.69 40.99 37.27 38.08 36.47 31.98 35.74 35.73 37.08 36.62 32.82 31.55 30.71 30.66 35.42 33.77 35.57 34.74 34.97 34.11 33.34 34.13 31.65 29.81 47.24 49.60 46.51 55.11 58.56 59.48
51.91 51.99 52.06 52.10 52.43 52.46 52.36 52.30 52.51 53.07 52.88 52.29 44.78 46.58 47.33 42.31 39.98 44.81 44.56 45.06 43.42 42.05 37.89 38.16 36.54 36.39 38.11 34.87 35.05 33.92 33.28 35.30 34.19 29.97 40.04 33.13 37.45 38.33 37.63 37.58 45.72 49.16 50.52 56.35 58.68 58.07 59.35

GFSGBSN_sfc_wetblb_024.txt.gz
Wetbulb
57.03 56.57 56.45 55.46 55.00 55.82 55.49 55.31 55.08 54.97 55.05 55.07 54.96 54.97 55.21 55.15 55.22 55.36 55.80 56.10 55.70 55.26 55.56 55.93 56.38 56.25 57.16 52.75 51.12 63.62 69.69 68.75 70.71 66.90 65.23 65.03 64.69 63.46 60.22 62.89 64.12 64.06 63.78 64.09 64.82 64.40 63.93
56.05 56.18 55.52 54.80 54.93 54.91 54.63 54.55 54.70 54.63 54.60 54.60 54.61 55.09 55.24 55.38 55.35 55.40 55.79 55.55 55.00 54.57 55.26 55.98 56.08 56.20 54.31 47.17 55.83 56.43 63.87 65.39 68.23 66.82 65.71 65.47 64.63 64.59 61.53 61.56 62.50 63.82 64.30 63.41 60.54 61.02 62.41
56.02 56.09 54.86 54.44 54.27 54.48 54.28 54.37 54.33 54.51 54.35 54.43 54.83 55.19 55.29 55.27 55.48 55.59 55.25 54.37 53.93 54.64 57.04 58.58 56.52 56.48 53.23 51.79 55.23 56.92 64.52 67.13 69.36 68.18 64.65 65.65 66.07 64.31 61.57 60.37 60.30 62.53 58.70 58.04 58.50 59.80 59.41
55.87 55.06 54.53 54.51 54.29 54.18 54.21 54.17 54.24 54.30 54.47 54.83 54.79 55.14 55.30 55.34 55.26 54.85 53.90 53.28 53.96 57.67 58.66 57.05 57.41 56.62 52.08 57.30 58.47 58.59 63.71 66.37 70.11 69.18 65.99 66.78 66.37 65.06 61.10 58.80 56.26 55.97 56.38 53.71 59.05 60.02 59.40
54.40 54.51 54.59 54.12 54.08 54.07 54.14 53.89 53.85 54.45 54.62 54.68 54.76 54.80 54.89 54.72 54.36 53.59 52.62 53.32 56.01 59.21 57.86 57.99 56.64 55.43 52.16 58.48 52.47 55.67 63.99 62.12 66.90 66.49 66.29 65.47 64.79 60.77 60.54 55.91 53.18 54.08 52.31 54.46 56.93 59.77 59.75
54.20 53.94 54.05 54.08 53.90 53.67 54.04 54.10 54.06 54.26 54.23 54.31 54.17 54.25 54.14 53.96 53.32 52.59 52.11 53.48 57.66 58.93 59.09 59.38 57.53 51.23 53.50 52.39 55.81 54.30 62.44 60.58 63.63 63.40 59.80 58.84 57.97 53.56 55.09 54.09 48.61 51.28 51.69 54.36 54.94 58.59 58.62
54.23 54.14 53.93 53.73 53.49 53.42 53.82 53.85 53.61 54.01 54.01 54.11 53.88 53.73 53.46 53.03 52.70 51.77 52.61 55.05 54.30 54.42 53.32 55.07 56.76 54.14 54.82 56.42 58.95 53.69 56.61 59.01 61.75 60.18 52.85 54.78 50.73 48.61 50.93 53.20 53.75 54.26 53.52 53.30 55.75 58.91 57.21
53.69 53.61 53.56 53.53 53.31 53.18 53.33 53.42 53.69 53.78 53.82 53.88 53.67 53.48 53.11 52.47 51.88 51.63 54.47 50.36 47.11 47.28 43.40 50.48 50.60 53.25 58.35 57.70 54.68 53.82 56.75 55.30 54.32 52.74 54.24 52.10 48.95 52.23 53.18 52.59 52.08 52.38 51.41 52.50 55.83 57.20 55.98
52.71 53.41 53.28 53.50 53.49 53.40 53.34 53.55 53.75 53.79 53.71 53.67 53.52 53.17 52.53 51.79 51.55 53.02 51.60 49.15 53.15 52.28 44.95 49.30 51.82 51.22 52.40 55.02 53.13 53.92 53.42 54.81 53.20 51.57 51.42 50.13 51.52 53.32 51.77 51.74 50.69 50.93 50.58 51.73 52.66 55.67 56.18
52.95 53.05 52.70 53.65 53.77 53.91 53.98 53.79 53.65 53.67 53.48 53.30 53.28 52.82 51.94 50.46 51.76 51.89 50.69 52.92 54.09 52.77 43.17 47.15 48.05 50.94 52.69 54.35 51.17 57.50 53.86 54.10 52.18 51.02 51.68 51.41 54.06 52.00 51.31 50.31 51.30 48.64 52.33 52.00 52.06 52.11 50.27
52.67 52.65 52.92 53.71 53.74 53.82 53.79 53.69 53.54 53.44 53.34 53.30 53.21 52.10 50.99 50.17 51.10 49.35 50.73 53.53 53.62 51.20 36.86 49.64 48.41 54.39 53.25 52.27 54.60 52.88 57.44 52.17 49.71 50.81 52.21 50.09 50.98 50.92 50.15 50.84 52.40 49.71 52.12 51.42 51.22 50.55 51.49
52.79 52.43 52.94 53.42 53.40 53.82 53.79 53.52 53.52 53.42 53.28 53.07 52.53 51.23 50.59 51.97 52.74 52.11 53.49 53.37 51.83 41.44 36.09 46.81 48.07 47.53 48.10 50.77 51.79 54.19 54.13 54.55 53.74 51.63 52.66 51.97 54.37 53.36 52.67 53.43 53.28 53.31 51.00 50.53 50.88 50.10 46.18
52.23 52.33 53.10 53.23 53.61 53.81 53.61 53.50 53.44 53.24 52.99 52.44 51.03 49.78 51.06 51.99 48.49 53.19 52.94 50.30 39.95 36.96 46.64 44.85 45.83 47.91 48.06 48.10 49.69 50.57 50.58 50.17 49.65 46.70 47.48 50.54 51.18 53.30 54.03 51.63 53.42 52.21 49.75 45.09 43.64 44.01 44.42
52.47 52.84 53.37 53.84 53.73 53.57 53.63 53.63 53.46 53.22 52.69 51.50 49.42 48.48 51.67 52.02 53.34 52.91 50.59 43.73 34.16 40.86 42.36 46.81 45.87 46.74 45.60 48.57 48.17 49.05 49.47 48.60 51.63 51.19 49.33 46.59 44.69 50.81 53.74 52.44 50.78 50.75 49.97 45.56 41.51 42.76 45.28
52.54 53.19 53.67 53.98 53.63 53.73 53.79 53.65 53.07 52.67 52.13 50.55 48.84 51.89 51.33 51.89 53.00 52.77 45.86 36.22 37.03 40.33 42.32 41.69 44.56 44.11 46.20 47.25 47.30 47.96 48.39 49.22 50.87 52.76 48.88 47.85 47.85 52.56 53.22 53.89 53.63 50.83 48.61 51.77 47.68 48.91 46.52
52.82 52.78 53.29 53.88 53.69 53.69 53.81 53.48 52.93 52.40 51.75 50.40 49.67 48.97 49.10 52.59 52.83 50.27 42.50 35.79 39.40 42.22 42.90 43.48 40.05 43.71 43.01 44.82 45.25 46.71 47.78 49.24 51.23 53.28 54.80 52.00 48.02 51.96 52.16 53.76 53.70 52.72 53.67 47.07 48.07 43.04 42.56
52.59 52.76 53.38 53.61 53.49 53.50 53.85 53.69 52.78 52.03 51.16 50.26 49.26 45.00 49.64 52.38 51.75 45.21 36.93 36.97 39.13 42.83 43.45 40.83 40.47 40.71 43.12 43.10 44.81 45.85 46.56 46.86 49.48 52.22 52.61 52.64 51.22 50.67 52.39 50.32 49.69 50.19 49.86 50.45 50.19 48.28 44.87
52.12 53.06 53.45 53.39 53.36 53.48 53.63 53.52 52.46 51.39 50.06 49.43 47.18 40.22 50.12 51.59 42.23 42.16 37.68 38.57 39.45 40.91 43.71 42.88 42.92 41.54 42.03 43.16 43.61 44.52 45.02 46.87 48.40 50.46 49.01 52.80 51.16 48.62 49.28 53.15 53.86 52.71 51.04 51.09 46.70 46.73 48.10
52.58 53.06 53.08 53.22 53.24 53.30 53.55 53.32 52.26 51.19 50.54 49.39 43.60 44.10 50.98 49.19 35.90 36.62 39.76 39.12 40.21 39.91 39.63 40.14 40.00 42.58 43.63 42.28 40.68 43.56 45.25 47.12 48.11 49.83 49.81 52.18 48.81 46.32 48.13 51.19 53.17 51.15 51.92 52.36 51.65 51.56 49.01
52.27 52.26 52.28 53.00 53.22 53.30 53.30 52.88 52.17 51.39 50.56 49.64 44.23 38.81 44.25 45.38 45.14 38.63 36.55 37.14 36.92 41.32 39.52 40.57 38.80 41.97 41.41 41.03 44.16 42.00 43.47 45.75 47.26 47.77 48.55 49.06 50.19 48.77 46.48 48.93 51.20 49.37 50.76 51.98 51.08 48.28 48.76
52.33 52.24 52.37 52.46 52.84 53.02 53.32 52.76 52.29 51.54 50.03 49.64 45.11 40.16 40.57 36.16 38.17 37.73 37.78 37.89 34.98 34.05 39.94 41.26 36.15 36.60 35.82 36.99 40.32 40.16 42.76 44.81 46.17 47.81 48.47 49.17 46.89 48.13 50.77 48.36 48.73 50.65 50.09 51.09 50.42 51.23 48.95
52.27 52.35 52.42 52.54 52.52 52.77 53.06 53.03 52.66 51.48 49.90 47.73 41.26 40.36 43.07 37.77 39.11 38.05 36.83 36.19 34.90 35.63 36.45 36.19 35.30 35.19 36.26 34.99 35.81 36.01 39.89 42.76 42.85 45.98 46.08 47.73 45.73 46.65 46.27 47.77 47.27 46.61 48.99 49.98 51.00 52.01 51.82
52.01 52.14 52.43 52.52 52.46 52.62 52.73 53.16 52.92 51.69 49.16 46.65 48.28 47.37 43.07 38.10 37.70 37.21 36.55 34.48 34.94 36.96 39.37 39.55 38.41 37.21 36.21 37.78 40.34 42.52 44.38 44.59 44.71 43.13 43.37 44.34 45.20 44.20 43.45 47.21 46.68 44.10 47.95 49.06 50.20 51.71 51.59
51.68 51.95 52.25 52.35 52.46 52.42 52.56 52.99 52.82 52.52 50.98 49.63 47.57 46.32 40.13 35.39 36.64 35.16 36.35 36.26 34.89 35.50 33.87 39.19 40.23 37.53 41.28 45.93 45.52 45.22 44.41 43.95 44.06 44.18 45.39 42.90 43.39 44.26 43.19 44.94 37.68 48.67 53.36 52.29 50.55 51.76 53.07
51.53 51.76 51.93 52.08 52.33 52.36 52.50 52.38 52.79 52.47 52.00 49.24 49.91 46.67 41.28 35.55 37.42 37.90 36.68 36.15 37.67 37.49 36.30 38.83 41.01 43.53 46.01 43.28 39.44 36.89 38.54 39.02 40.79 42.78 43.42 45.00 43.34 40.84 39.08 40.40 45.69 47.34 48.67 49.42 49.92 50.44 54.13
51.65 52.07 52.05 51.97 52.14 52.58 52.27 52.49 52.79 52.78 51.96 50.05 49.11 50.01 45.48 37.28 37.32 39.81 37.37 37.58 35.88 35.99 36.89 38.47 43.56 46.37 44.60 40.88 37.62 31.84 33.08 35.25 36.00 38.28 43.88 44.69 44.54 41.22 40.92 36.86 37.15 46.83 50.79 54.68 53.61 47.97 55.70
51.49 51.99 52.35 52.07 52.09 52.27 52.69 52.83 52.66 52.98 52.33 50.75 48.13 49.70 45.43 38.53 40.37 41.32 36.90 36.67 39.53 38.17 36.12 38.75 39.49 40.58 43.85 37.63 34.29 33.50 32.97 38.25 33.76 35.42 37.85 38.28 40.01 37.65 38.41 37.76 42.56 49.29 52.78 57.11 45.92 52.07 59.97
52.04 52.18 52.43 52.54 52.58 52.45 52.64 52.60 52.93 53.11 53.30 51.67 48.37 48.67 44.81 39.66 41.69 44.63 44.04 40.66 39.51 38.40 35.11 38.65 38.26 39.93 39.94 35.20 35.03 37.18 35.08 38.78 37.04 39.27 38.19 37.73 36.56 36.86 38.36 36.78 35.10 48.98 48.95 47.43 54.61 59.06 59.43
52.02 52.11 52.36 52.31 52.62 52.60 52.37 52.61 52.80 53.21 53.56 52.84 47.70 48.62 48.67 42.79 41.48 47.36 47.77 47.25 45.65 44.13 39.80 39.61 38.91 39.45 43.27 38.67 40.48 39.17 36.50 38.70 37.24 33.93 42.79 36.14 40.29 39.47 41.38 41.06 48.40 50.43 50.50 53.37 54.42 54.98 58.35

GFSGBSN_sfc_wetblb_027.txt.gz
Wetbulb
56.67 55.77 55.29 54.98 55.19 55.16 55.05 55.16 55.14 55.11 55.03 55.05 54.92 55.11 55.57 55.41 55.40 55.68 55.99 56.20 55.68 55.06 55.32 55.97 56.26 56.70 57.30 54.94 53.79 67.22 73.06 70.23 63.85 64.32 61.18 63.92 64.02 65.00 62.03 62.80 64.28 62.92 64.44 65.69 66.48 65.61 64.60
56.29 55.23 55.21 55.11 54.98 54.91 54.77 54.71 54.80 54.63 54.46 54.64 54.95 55.63 55.68 55.74 55.91 56.07 56.05 55.58 55.16 54.76 55.29 56.42 57.14 56.65 56.15 51.68 59.89 60.88 64.30 64.30 63.92 64.77 61.33 63.80 63.63 65.71 64.03 62.67 62.51 64.16 64.57 65.04 65.10 64.55 64.11
55.03 55.22 54.96 54.88 54.79 54.61 54.39 54.33 54.46 54.37 54.40 54.28 54.82 55.32 55.50 55.44 55.71 55.57 55.36 54.62 54.29 55.79 57.93 58.67 59.12 57.23 56.18 56.34 59.50 57.93 61.28 63.15 66.46 65.43 60.95 64.02 64.56 64.51 64.62 61.45 63.83 63.85 61.05 63.56 64.34 62.48 61.83
54.72 54.62 54.72 54.60 54.44 54.18 54.16 54.08 54.22 54.09 54.42 54.49 54.40 54.70 55.08 55.31 55.13 54.74 54.17 53.59 54.16 58.12 58.01 58.28 58.98 57.74 55.27 62.33 63.57 58.30 61.93 63.32 66.42 67.43 64.94 65.02 64.98 63.78 63.43 63.39 61.74 60.06 60.81 58.14 61.47 61.68 61.91
54.67 54.58 54.43 54.49 54.09 54.03 54.30 54.20 53.96 54.59 54.85 54.67 54.69 54.81 54.71 54.65 54.40 53.49 52.66 53.19 55.24 58.52 57.20 58.24 58.56 57.73 55.94 61.13 57.30 60.50 59.98 62.16 65.56 67.09 66.93 65.66 64.30 62.08 62.07 58.67 55.89 56.46 53.88 55.97 58.51 61.96 61.16
54.38 54.25 54.26 54.21 54.00 54.35 54.49 54.60 54.55 54.67 54.62 54.48 54.37 54.37 54.19 53.96 53.44 52.57 52.19 53.03 57.80 57.75 59.83 61.17 60.72 54.68 57.06 55.90 58.77 58.33 59.70 62.54 64.26 64.75 63.42 62.16 61.39 58.34 58.86 57.13 50.84 52.74 53.42 55.72 56.19 60.14 60.60
53.98 54.20 53.91 53.98 53.95 53.94 54.05 53.96 53.71 54.20 54.46 54.39 54.31 53.98 53.75 53.42 52.66 51.87 53.57 56.99 55.09 56.43 59.08 56.90 57.19 56.07 57.88 59.67 59.26 56.57 58.37 61.25 63.35 62.45 57.40 59.99 56.11 54.54 54.89 58.22 57.60 56.41 55.33 54.56 57.74 60.57 58.93
53.60 53.46 53.42 53.78 53.69 53.70 53.71 53.98 54.19 54.29 54.45 54.39 54.16 53.96 53.48 52.76 51.99 51.97 54.89 51.61 50.49 51.04 45.73 51.55 51.73 52.26 58.00 59.50 55.79 55.15 60.13 56.91 57.78 57.01 57.65 54.99 52.84 56.13 56.85 55.24 55.40 55.49 54.73 54.92 57.20 58.91 59.18
53.52 53.17 53.41 53.99 54.15 54.38 54.58 54.41 54.31 54.18 54.12 53.96 53.98 53.56 52.78 51.85 51.74 54.82 53.75 51.89 55.17 54.55 46.41 48.50 52.07 51.59 52.52 58.15 55.89 56.43 55.87 56.03 55.65 56.40 55.44 52.07 53.03 55.07 53.13 52.16 51.82 53.10 52.92 54.22 54.59 57.48 58.66
53.45 53.57 54.17 54.15 54.24 54.50 54.43 54.37 54.24 54.10 53.98 53.83 53.73 53.34 52.18 51.06 51.84 53.43 52.25 54.08 55.39 54.91 43.12 47.00 50.40 52.33 53.75 55.24 54.22 59.43 55.73 55.35 55.78 55.20 56.77 53.75 55.48 53.24 52.16 51.17 52.20 49.67 53.72 54.16 54.05 54.19 51.95
53.16 53.47 54.23 54.28 54.48 54.50 54.29 54.14 54.22 54.04 53.81 53.71 53.50 52.66 51.09 49.48 53.34 52.06 52.45 54.24 55.08 52.94 36.48 50.72 50.77 56.53 54.89 52.10 55.11 55.60 57.53 55.16 53.14 53.19 55.30 52.89 52.81 52.45 51.42 51.66 53.29 51.36 54.34 52.95 53.34 52.93 53.57
52.89 53.51 53.83 54.00 53.92 54.19 54.12 54.04 54.00 53.56 53.46 53.32 52.60 51.60 50.69 53.14 53.95 53.12 54.02 53.53 53.21 42.03 36.54 48.08 50.52 49.96 50.87 51.58 53.27 56.65 55.95 55.12 56.66 53.76 54.44 53.89 56.13 54.57 54.03 54.54 54.26 54.84 52.78 52.61 52.48 51.27 47.68
53.21 53.54 53.61 53.87 54.00 54.22 54.06 54.02 53.56 53.17 52.76 52.16 51.15 49.67 50.69 53.39 49.57 53.50 53.80 50.34 40.24 36.07 47.75 47.16 47.45 50.60 50.28 50.36 50.95 53.96 52.78 49.12 49.32 47.45 48.60 51.97 52.99 54.93 55.32 53.00 54.49 53.14 50.70 45.63 44.33 44.85 45.10
53.38 53.47 53.83 54.37 54.12 54.02 54.16 54.08 53.46 52.86 52.22 51.28 49.63 48.87 53.48 53.81 53.83 53.36 51.53 43.88 33.78 41.49 43.40 47.50 46.71 47.55 46.50 50.70 51.03 52.26 51.74 50.42 50.65 50.57 49.29 48.02 46.77 52.62 54.66 53.51 52.14 51.96 50.98 46.47 42.19 43.07 45.68
53.38 53.57 53.97 54.10 53.94 53.94 54.02 53.89 53.44 52.60 51.87 50.78 48.99 54.89 53.89 52.60 53.58 52.95 46.67 37.20 37.77 41.64 43.49 42.27 44.81 45.72 46.40 49.40 50.66 51.27 51.01 50.86 51.62 51.47 48.24 49.40 49.23 54.76 54.89 54.94 54.96 52.14 49.70 52.80 49.49 50.22 47.76
52.84 53.14 53.85 54.09 53.82 53.79 53.79 53.73 53.24 52.70 51.72 50.27 51.77 51.94 52.01 53.19 54.18 51.14 43.85 37.73 39.11 42.99 42.87 42.86 39.49 45.22 44.16 47.58 48.14 49.44 50.05 52.69 52.49 53.49 55.58 53.46 49.89 54.14 54.15 55.35 54.99 54.35 54.32 48.23 49.45 45.34 45.05
53.36 53.17 53.50 53.98 53.75 53.67 53.84 53.73 53.30 52.54 51.52 50.06 51.95 46.91 51.60 53.58 53.25 46.57 36.75 38.39 39.61 43.40 43.88 41.15 40.01 40.30 40.96 41.68 44.36 48.47 49.51 51.10 52.63 53.47 55.26 54.23 53.20 52.82 54.62 51.84 51.18 51.56 51.58 51.78 51.36 49.80 46.84
53.09 53.37 53.72 53.66 53.63 53.84 53.86 53.56 52.95 51.81 50.42 50.57 50.22 43.39 52.45 53.11 43.54 42.60 37.40 40.34 40.77 42.08 44.32 42.51 43.46 42.71 40.88 41.93 41.07 45.17 48.57 49.60 50.36 52.54 51.42 54.47 52.81 49.91 51.51 54.34 55.32 54.39 52.39 53.01 48.04 48.91 49.75
53.06 53.56 53.62 53.62 53.74 53.92 53.96 53.38 52.68 51.31 50.94 50.23 47.03 46.99 52.97 50.35 38.61 39.58 41.33 40.12 41.84 41.36 41.04 40.91 40.02 41.59 43.67 41.23 39.08 42.28 45.94 50.30 50.03 51.85 51.52 55.05 51.33 48.23 50.81 52.50 54.05 52.05 53.07 53.90 53.17 52.67 50.66
53.08 53.04 53.07 53.52 53.82 53.96 53.84 53.34 52.58 51.79 51.18 49.83 47.50 42.34 46.03 46.83 45.30 40.82 38.81 38.70 37.68 42.11 40.68 41.89 41.29 42.62 40.63 40.82 43.30 42.01 42.64 47.92 49.47 49.85 51.18 52.44 51.65 50.34 49.00 51.69 52.77 50.42 51.80 52.77 52.83 49.97 50.39
52.88 52.88 53.17 53.19 53.60 53.82 53.82 53.30 52.85 52.14 51.26 50.09 46.73 43.34 44.15 38.97 41.02 41.30 41.23 39.30 37.51 36.24 41.21 42.24 38.99 38.79 38.10 36.30 39.91 37.95 42.64 45.95 49.23 51.05 51.79 51.91 48.88 51.73 52.66 53.74 53.78 52.17 51.28 51.92 51.34 52.78 50.21
52.59 52.57 52.76 53.14 53.60 53.84 53.90 53.49 53.11 52.50 50.96 49.19 43.08 41.21 43.82 40.87 41.11 40.74 40.37 38.39 37.52 38.32 39.16 38.34 37.76 39.00 39.44 37.06 37.84 35.66 40.17 41.92 43.35 47.93 48.64 51.63 47.31 51.16 50.59 52.79 51.57 50.62 53.13 52.64 52.49 52.66 53.10
52.23 52.54 52.52 53.21 53.58 53.74 53.66 53.45 53.15 52.62 50.40 45.68 48.06 47.92 44.04 41.03 39.79 38.37 37.87 39.03 38.28 38.70 41.01 41.44 40.25 38.73 38.23 39.86 43.15 44.97 45.03 46.02 45.38 43.93 45.23 46.96 47.95 48.82 46.77 51.23 50.64 47.32 51.53 52.92 53.58 54.25 54.04
52.55 52.31 52.39 52.63 53.04 53.52 53.47 53.45 53.11 52.76 51.43 49.45 47.45 45.20 40.47 37.39 39.41 39.12 39.42 39.20 38.50 39.55 38.24 41.03 42.14 40.46 43.21 46.86 46.66 46.51 45.77 45.26 45.40 45.94 47.65 44.98 46.47 47.77 45.88 49.24 42.04 51.53 55.48 54.63 53.31 54.66 55.82
52.39 52.18 52.49 52.52 53.18 53.08 53.25 53.62 53.47 52.84 52.34 49.80 49.22 44.67 40.95 37.65 40.36 40.57 39.78 39.22 39.65 40.55 40.16 41.42 42.78 44.83 47.06 44.78 40.24 39.02 40.08 41.10 42.71 44.23 45.33 47.17 45.16 44.19 43.37 45.43 48.78 50.76 53.32 53.13 52.08 52.14 55.86
52.39 52.66 52.95 52.60 52.56 53.24 52.85 53.11 53.42 53.18 52.51 50.93 49.26 49.16 43.43 38.08 38.96 42.48 40.31 40.97 37.44 38.67 39.92 41.78 45.84 47.26 45.21 41.24 39.04 34.10 34.57 38.80 38.90 40.73 45.78 45.87 46.61 42.71 44.26 42.09 42.48 50.38 53.29 54.77 55.41 49.36 56.57
52.26 52.49 52.68 52.76 52.61 52.89 53.08 52.76 53.37 53.70 53.01 51.54 49.48 50.12 44.76 38.06 42.38 43.42 39.93 39.58 42.40 40.30 37.63 39.98 41.78 42.67 45.53 39.45 35.80 35.70 34.90 41.16 37.21 38.75 39.55 40.56 42.05 39.83 41.05 41.01 46.46 53.13 55.63 56.44 47.25 53.18 61.46
52.23 52.56 52.64 52.83 52.78 52.64 52.60 52.93 53.44 53.44 53.57 52.36 50.36 50.71 45.63 40.43 41.30 45.66 46.58 41.24 42.74 40.65 36.62 41.49 41.24 42.74 40.56 37.33 37.16 37.42 36.54 41.14 39.53 41.76 41.12 40.31 39.32 39.79 41.44 39.77 39.07 52.51 52.00 50.17 53.84 57.21 57.81
52.29 52.50 52.56 52.58 52.79 52.55 52.41 52.92 53.17 53.67 53.79 53.47 48.63 50.20 49.81 43.54 42.67 49.28 49.59 50.11 48.75 46.51 41.99 42.47 41.74 41.70 41.41 40.06 41.12 40.70 38.11 39.99 39.62 35.88 44.72 38.71 43.23 41.36 42.91 43.85 51.13 53.14 52.40 54.39 54.62 54.68 56.34

GFSGBSN_sfc_wetblb_030.txt.gz
Wetbulb
55.84 56.00 55.69 55.49 55.17 54.99 54.88 55.01 54.99 55.11 54.88 54.92 55.04 55.60 55.86 55.91 55.39 55.59 55.96 56.28 55.82 55.25 55.58 56.04 56.27 56.57 56.22 53.73 53.65 61.94 72.85 71.37 64.67 58.81 59.23 59.38 61.69 63.64 61.93 63.06 63.83 62.03 63.86 64.91 62.31 64.51 63.70
55.34 55.54 55.43 55.34 55.00 54.86 54.77 54.73 54.88 54.81 55.13 55.06 55.42 55.84 55.78 55.78 56.06 56.08 55.97 55.60 55.46 54.93 56.55 58.10 57.32 56.90 54.28 50.72 62.56 63.13 65.86 64.27 60.08 58.24 59.39 59.76 61.19 64.64 64.07 63.07 61.86 63.47 63.74 63.78 64.39 65.42 64.32
55.39 55.32 55.32 55.07 54.87 54.50 54.51 54.51 54.60 54.49 54.69 54.96 55.58 55.70 55.57 55.62 55.89 55.77 55.46 54.93 54.42 55.00 57.79 59.78 59.01 57.32 54.22 54.28 63.29 60.84 62.22 64.24 61.87 60.16 57.98 60.31 62.13 62.44 64.48 62.52 64.62 62.75 59.92 62.58 63.59 64.33 62.50
55.17 54.94 55.03 54.92 54.80 54.64 54.67 54.58 54.68 55.19 55.34 55.32 55.54 55.52 55.50 55.53 55.31 54.88 54.50 53.83 54.14 55.65 59.73 59.20 60.14 57.79 52.67 63.40 62.76 62.10 58.37 61.42 62.43 63.69 61.36 61.53 63.01 62.06 62.15 64.51 63.05 59.89 59.85 56.83 62.35 63.61 62.64
54.69 54.65 54.55 54.58 54.66 55.09 55.22 55.26 55.20 55.20 54.95 55.01 55.11 55.15 55.09 54.83 54.52 53.90 53.08 53.15 54.41 57.28 59.01 58.67 58.34 56.26 55.00 64.79 60.54 62.15 59.71 57.38 61.68 64.28 63.80 62.88 61.99 59.44 60.21 58.61 57.37 57.89 53.94 56.10 58.89 62.97 61.49
54.47 54.13 54.28 54.53 54.65 55.16 55.10 55.20 55.15 55.01 55.13 55.00 55.02 54.82 54.68 54.29 53.77 52.88 52.22 53.69 57.97 57.96 58.76 60.45 60.68 55.40 57.51 57.36 60.51 61.15 61.78 59.15 59.98 61.89 61.41 60.87 59.76 56.01 56.45 55.74 51.31 53.41 54.09 55.59 56.59 60.64 60.43
54.42 54.09 54.33 54.39 54.39 54.82 55.20 55.19 55.37 55.23 55.21 55.04 54.80 54.43 54.22 53.79 52.92 52.09 53.02 55.73 51.48 55.03 53.09 52.90 56.54 55.15 57.69 61.23 61.43 58.78 60.70 57.28 60.07 60.66 56.53 59.52 55.71 52.99 54.26 56.59 57.19 57.29 55.44 53.86 56.74 60.05 59.11
54.05 53.86 54.26 54.36 55.08 55.27 55.29 55.11 54.84 54.96 54.90 54.69 54.40 54.24 53.78 53.06 52.26 52.13 53.26 51.45 50.20 50.93 45.30 50.51 51.23 51.44 55.98 60.38 56.42 57.48 59.87 54.46 56.70 55.37 58.55 56.83 53.41 56.83 57.28 57.16 56.30 56.22 54.84 54.09 56.18 58.52 58.35
53.71 53.74 54.76 55.07 55.23 55.09 54.90 54.81 54.77 54.59 54.40 54.16 54.18 53.68 53.06 52.26 51.92 54.99 53.87 52.19 54.08 53.62 45.40 46.47 49.56 49.87 51.18 54.06 53.61 56.32 57.10 55.05 54.48 55.00 56.79 54.38 55.88 57.95 56.63 55.87 53.65 55.19 54.21 54.12 54.18 56.61 58.45
53.89 54.80 54.97 55.07 55.03 54.82 54.63 54.81 54.65 54.50 53.93 53.75 53.52 53.17 52.27 51.02 52.04 54.22 51.70 52.97 53.65 53.42 40.75 44.21 48.60 50.66 51.21 52.02 50.73 59.37 57.57 55.35 55.70 53.69 57.20 56.12 57.90 55.78 55.33 53.95 54.92 50.91 56.35 55.27 54.86 54.00 50.70
54.71 54.68 54.85 54.78 54.72 54.68 54.71 54.60 54.54 53.91 53.52 53.31 53.17 52.42 51.36 49.92 52.00 51.75 51.37 52.95 53.05 52.03 32.34 50.28 50.74 57.05 53.71 49.38 52.75 53.75 60.06 55.44 53.83 53.32 55.65 55.04 54.65 53.87 52.06 53.58 54.37 51.17 54.06 53.77 53.57 53.07 52.93
54.27 54.27 54.44 54.54 54.50 54.67 54.42 54.19 54.07 53.54 53.25 53.10 52.63 51.57 50.64 53.84 54.55 53.58 53.18 52.68 51.26 40.08 32.68 47.09 51.99 50.90 50.74 50.02 50.19 54.80 56.30 56.47 57.73 54.00 54.97 56.00 59.11 55.65 53.89 54.20 53.69 54.02 52.15 52.22 52.05 51.20 47.97
54.16 54.01 54.02 54.64 54.57 54.30 54.03 54.03 53.85 53.33 53.04 52.46 51.36 50.13 50.13 54.23 50.36 53.02 52.77 49.21 38.33 33.64 44.79 43.79 44.83 47.50 48.01 49.53 48.62 50.01 52.68 52.09 49.41 47.25 50.19 53.28 55.04 56.99 55.67 52.71 53.97 52.61 49.93 45.24 44.41 44.74 44.25
53.46 53.94 54.37 54.61 54.40 54.05 54.13 54.11 53.78 53.27 52.77 51.82 50.02 48.76 54.10 55.29 53.91 52.89 50.61 43.12 32.80 38.97 39.74 44.43 44.15 44.43 44.41 48.96 50.21 49.22 50.40 50.25 50.65 50.78 49.88 47.96 46.39 53.71 55.00 52.95 51.74 50.92 49.89 45.99 41.18 42.67 44.41
53.72 54.08 54.33 54.53 54.10 53.99 54.09 53.93 53.39 52.82 52.16 51.08 49.42 55.07 54.78 55.09 53.18 53.48 46.81 37.34 34.12 39.11 41.12 40.38 42.03 41.61 43.54 46.90 46.62 49.89 49.29 50.30 51.37 51.25 48.82 48.64 48.57 54.64 54.95 54.78 54.43 51.32 48.49 52.08 47.82 48.77 45.80
53.78 53.73 53.89 54.39 54.20 53.99 54.11 53.93 53.45 52.86 51.99 50.44 50.02 51.76 52.85 54.61 53.25 51.04 43.60 37.58 39.79 42.91 42.38 41.48 37.14 39.61 36.21 40.19 41.50 44.11 48.60 52.47 51.96 52.39 53.55 51.99 48.13 53.08 53.99 55.55 54.50 53.15 54.26 47.71 48.92 43.66 43.66
53.75 53.78 53.74 54.29 53.95 54.16 54.26 54.09 53.35 52.78 51.75 50.49 51.49 48.82 52.68 54.39 52.99 46.93 39.18 39.13 41.35 43.67 43.84 40.46 38.41 37.27 38.37 37.34 39.76 41.30 45.69 51.34 51.59 53.42 53.90 51.61 51.12 51.10 53.89 51.94 50.83 51.43 51.29 50.86 50.43 49.08 45.26
53.66 53.90 54.16 54.26 54.16 54.14 54.40 54.13 53.21 52.15 50.67 50.38 50.04 44.92 53.65 53.15 43.62 43.71 39.95 41.18 41.60 42.38 44.96 42.41 41.82 40.30 38.70 38.87 37.80 38.78 42.47 46.25 51.31 50.90 50.15 52.96 49.93 48.09 51.34 54.97 55.20 53.54 51.98 52.59 47.95 47.91 49.61
53.55 54.14 54.15 54.29 54.28 54.49 54.36 53.83 52.95 51.81 51.42 49.36 46.61 48.67 53.81 50.58 39.32 39.66 42.11 40.93 41.43 41.20 41.80 40.81 39.92 41.56 41.42 38.14 35.01 39.32 41.16 47.13 49.58 49.39 48.72 51.61 50.00 46.76 48.74 52.95 54.47 52.13 52.59 53.12 52.80 51.67 50.17
53.27 53.60 53.80 54.02 54.16 54.24 54.03 53.56 52.90 52.20 51.94 50.07 47.17 42.16 47.53 46.88 46.06 42.02 39.72 38.86 39.06 43.64 41.95 42.31 40.82 42.60 40.18 37.75 39.79 36.95 39.10 45.14 48.29 49.19 54.85 52.67 49.61 49.68 47.32 50.60 53.74 51.10 51.54 52.85 52.08 49.06 49.76
53.11 53.07 53.10 53.55 53.92 54.02 54.10 53.76 53.02 52.50 51.78 50.29 46.68 43.15 44.63 38.70 41.36 42.03 41.57 40.48 37.33 37.67 41.37 42.09 39.81 39.80 38.73 34.87 36.31 36.97 40.05 41.88 45.10 51.02 50.00 51.85 47.94 50.83 51.56 53.38 53.86 51.70 51.12 51.87 51.48 53.10 50.16
52.81 53.26 53.40 53.61 53.86 53.91 54.20 53.95 53.46 52.90 51.68 48.77 42.76 41.96 44.13 41.52 43.22 41.70 40.80 39.00 38.51 39.09 39.13 37.80 38.31 40.04 40.04 36.06 36.99 35.35 38.46 39.78 39.18 44.87 45.74 49.64 47.06 50.98 50.01 52.79 53.15 51.48 52.16 52.12 52.06 52.10 52.80
52.61 52.70 52.84 53.09 53.78 53.78 53.85 53.87 53.35 52.80 51.98 47.35 48.37 45.11 42.79 40.12 41.56 39.62 40.25 40.15 38.99 41.22 41.72 41.85 40.04 39.45 38.28 39.51 42.47 42.89 43.59 43.29 43.25 42.19 43.20 45.47 46.50 46.95 45.80 51.24 51.54 49.13 52.46 52.47 52.70 53.55 53.22
53.00 52.67 52.78 53.06 53.06 53.45 53.63 53.67 53.42 53.10 52.24 51.44 48.56 44.57 38.45 35.53 39.18 39.69 40.87 41.52 40.32 40.77 38.72 41.33 42.57 40.34 43.36 46.88 45.52 44.60 43.77 43.77 44.29 44.80 46.23 43.37 44.54 46.04 44.74 48.76 41.72 52.24 56.44 55.60 53.80 54.20 55.35
53.10 52.90 52.72 53.11 52.72 53.22 53.51 53.49 53.59 53.50 52.67 52.89 50.11 44.02 39.41 35.78 39.82 40.98 41.26 41.54 42.53 42.46 41.13 41.95 43.58 45.66 46.99 44.28 39.27 37.11 38.28 40.27 41.80 44.34 44.37 46.60 44.55 42.95 43.26 44.50 49.45 51.91 54.39 53.87 53.04 53.54 56.79
52.81 52.94 53.13 52.90 52.86 52.93 52.95 52.80 53.42 53.41 52.88 53.89 50.35 48.26 43.09 36.92 37.30 42.15 40.76 41.72 38.66 40.23 40.65 42.31 45.93 48.21 46.07 40.77 37.27 33.13 32.61 38.81 37.28 39.91 45.80 45.58 46.62 42.72 43.92 41.81 41.24 50.80 55.20 56.79 56.62 49.76 60.46
52.77 52.90 53.06 53.02 52.78 52.80 52.93 53.32 53.61 53.69 53.17 53.64 50.50 49.71 44.55 37.74 40.94 42.38 38.83 39.95 43.40 41.92 39.17 41.99 42.82 43.23 44.89 38.03 35.26 34.67 34.53 40.86 37.57 37.58 38.98 40.03 41.71 40.05 41.52 41.54 47.39 51.98 55.02 56.89 48.55 50.28 59.44
52.71 52.76 52.84 53.07 52.59 52.36 52.96 53.23 53.46 53.71 53.66 53.28 50.69 50.76 45.51 40.72 41.20 44.47 45.27 41.88 42.60 42.90 37.99 42.46 41.18 42.39 41.13 36.94 37.07 36.92 35.80 39.84 39.89 41.66 40.24 40.16 38.38 38.96 41.81 40.72 39.13 52.16 53.43 50.54 54.92 56.33 56.91
52.59 52.61 52.70 52.61 52.70 52.69 52.98 53.31 53.44 53.64 53.85 53.48 48.64 51.36 49.91 44.00 42.72 47.83 47.13 48.49 47.96 47.32 43.43 43.70 41.05 41.69 42.10 38.38 40.01 39.20 37.06 39.17 38.65 35.39 45.11 39.69 43.97 41.38 43.18 44.11 54.18 53.18 52.59 54.42 55.21 54.80 54.89

GFSGBSN_sfc_wetblb_033.txt.gz
Wetbulb
55.84 55.80 55.80 55.61 55.61 55.32 54.91 55.01 55.22 55.65 55.34 55.15 55.48 56.13 56.46 56.28 56.34 56.13 56.30 56.39 56.02 55.38 55.78 56.68 57.81 56.54 54.01 49.56 50.20 59.88 73.04 72.85 65.25 61.93 55.89 53.44 53.61 57.30 55.56 60.49 62.36 60.95 62.51 63.09 63.69 63.09 62.27
55.56 55.69 55.46 55.29 54.99 55.20 55.12 54.91 55.07 55.52 55.67 55.68 55.97 56.13 56.13 56.05 56.24 56.30 56.26 55.91 55.65 54.88 55.60 57.46 58.99 56.13 50.93 44.91 59.52 60.11 64.66 65.57 62.59 58.15 55.08 54.29 55.19 58.77 59.05 60.07 60.51 62.12 63.46 62.04 63.47 63.11 63.23
55.31 55.27 55.16 55.08 55.02 55.14 55.20 55.24 55.38 55.56 55.71 55.74 55.94 56.01 55.95 55.91 55.96 56.07 55.69 55.17 54.87 54.67 55.45 58.04 59.24 56.40 51.45 47.79 59.70 60.91 62.43 60.91 59.47 57.06 53.22 55.51 57.88 56.26 60.06 59.51 63.69 62.47 59.54 63.19 62.50 62.76 62.77
54.97 54.83 54.87 54.92 55.06 55.49 55.72 55.79 55.87 55.86 55.83 55.87 55.90 55.79 55.63 55.67 55.53 55.13 54.61 54.03 54.45 55.25 56.07 59.40 59.34 55.97 48.86 58.78 58.68 57.48 58.71 60.71 58.89 57.80 55.76 56.62 58.75 55.88 55.70 60.47 61.09 59.01 58.80 54.52 61.03 62.31 63.11
54.62 54.59 54.83 54.97 55.44 55.80 55.57 55.77 55.73 55.69 55.42 55.32 55.10 55.17 54.99 54.93 54.62 54.16 53.14 53.16 55.95 58.18 57.00 58.23 55.73 53.64 49.11 62.86 57.46 59.50 59.48 59.13 59.25 58.09 57.81 58.88 57.04 53.70 54.37 53.75 52.52 54.59 51.07 52.22 54.92 60.86 61.37
54.43 54.42 54.80 54.94 55.22 55.77 55.55 55.51 55.57 55.46 55.22 55.00 54.69 54.49 54.38 54.20 53.68 53.04 52.50 53.70 56.83 56.16 58.47 59.49 58.77 50.63 54.33 53.11 58.71 59.81 60.00 58.26 57.53 56.77 57.30 55.36 53.67 50.53 51.73 50.23 45.42 49.06 50.22 51.60 52.75 57.85 59.43
54.20 54.47 54.89 54.84 54.96 55.53 55.41 55.38 55.38 55.44 55.11 54.89 54.55 54.09 53.81 53.54 53.01 52.10 50.71 48.39 46.56 46.71 48.71 42.78 44.84 48.93 47.83 57.47 58.05 58.94 59.58 57.65 54.38 55.11 51.95 54.74 49.64 46.97 49.66 51.61 52.75 54.31 53.66 52.18 55.10 58.09 56.93
54.37 54.59 54.87 54.75 55.41 55.30 55.22 55.24 55.26 55.11 54.97 54.61 54.17 53.80 53.39 52.95 52.23 51.73 50.48 46.92 45.88 46.87 40.77 47.16 47.67 47.92 50.06 51.50 49.06 53.96 59.77 53.78 50.22 49.53 53.42 51.77 48.37 52.79 54.43 53.63 52.38 52.89 52.27 52.46 54.92 56.64 56.29
54.31 54.59 54.96 55.32 55.14 55.06 54.87 54.89 54.84 54.72 54.27 54.07 53.95 53.45 52.95 52.12 51.66 52.55 50.35 47.31 50.38 48.73 40.33 43.38 46.29 46.38 47.27 48.34 46.99 49.31 55.00 54.64 49.02 49.34 51.35 49.95 52.41 56.47 55.44 52.54 50.83 50.86 50.52 51.61 51.76 54.57 54.89
54.92 55.08 55.06 55.08 54.99 54.85 54.83 54.56 54.48 54.44 53.99 53.62 53.64 53.23 52.27 50.83 49.70 49.79 49.34 50.25 50.32 49.32 34.97 41.14 43.49 47.54 47.96 48.30 45.82 52.91 55.01 54.33 51.39 48.18 52.09 52.30 56.01 54.92 53.69 52.32 52.21 47.57 53.89 54.15 53.71 51.45 46.10
55.06 54.98 54.92 54.81 54.83 54.81 54.50 54.35 54.23 53.90 53.55 53.47 53.45 52.83 51.20 50.48 47.25 48.39 51.01 50.26 50.10 46.87 27.23 45.28 45.90 53.68 49.53 45.00 47.23 48.79 54.34 53.04 49.59 49.23 51.83 50.95 53.78 53.32 51.75 52.68 54.33 51.16 54.21 53.23 53.37 50.66 46.59
54.73 54.60 54.70 54.88 55.01 54.68 54.21 54.12 53.96 53.53 53.32 53.08 52.54 51.64 50.94 50.22 50.19 52.12 52.13 50.23 47.66 34.12 29.71 41.26 44.49 43.32 42.89 44.98 47.84 48.89 50.60 53.69 53.78 50.07 51.41 52.44 58.32 56.10 54.66 55.56 55.62 55.95 52.73 49.62 51.13 48.71 42.19
54.21 54.76 54.82 54.85 54.74 54.49 54.12 54.10 53.86 53.37 52.99 52.46 51.31 50.17 49.48 51.50 47.43 52.78 52.30 46.49 33.42 29.01 42.06 39.36 38.81 41.05 40.60 42.28 45.22 46.71 45.71 47.37 45.93 42.52 43.56 50.30 51.57 56.45 56.06 52.16 53.89 52.45 46.90 39.47 38.19 40.39 39.57
54.68 54.77 54.77 54.56 54.41 54.29 54.19 54.27 53.80 53.28 52.56 51.63 50.20 49.32 51.63 53.85 53.62 53.46 48.60 40.44 29.45 37.74 37.33 41.95 40.46 40.16 38.24 40.77 40.58 41.95 43.42 44.21 50.00 47.18 45.32 44.24 42.80 51.25 56.01 51.53 47.99 48.80 46.80 37.44 32.70 36.06 39.21
54.78 54.77 54.60 54.39 54.35 54.17 54.23 54.19 53.76 53.16 52.23 51.01 49.85 51.28 51.80 54.28 55.14 51.11 43.41 33.24 33.42 36.99 39.88 38.08 38.26 35.90 36.35 39.38 38.79 39.43 40.00 42.65 48.45 49.16 43.58 43.91 44.54 53.24 54.67 54.74 51.94 47.38 44.11 46.16 38.86 41.54 38.08
54.63 54.65 54.68 54.54 54.51 54.35 54.25 54.14 53.59 53.10 52.24 50.63 48.03 49.16 50.76 55.27 52.33 47.33 39.74 35.59 37.41 41.17 40.92 40.04 33.57 36.81 33.11 35.97 35.47 36.60 36.74 45.19 42.63 46.25 49.98 46.56 41.13 51.44 53.62 55.25 53.29 49.32 49.27 41.91 42.76 35.14 35.37
54.30 54.46 54.62 54.54 54.45 54.39 54.43 54.27 53.69 52.98 51.92 51.00 48.58 46.08 50.31 51.79 50.43 43.87 35.92 36.73 39.11 42.00 42.36 38.07 36.48 35.21 36.00 34.63 35.91 34.82 36.96 41.37 44.82 43.16 46.15 45.30 44.38 44.47 50.62 50.01 49.29 47.21 45.96 45.99 42.65 40.85 36.08
54.21 54.31 54.37 54.29 54.19 54.17 54.45 54.15 53.47 52.23 50.96 49.06 46.59 40.99 53.57 52.68 41.02 41.17 36.82 39.24 41.01 40.18 42.82 40.71 40.42 38.20 36.30 36.86 34.74 34.75 35.79 39.37 44.27 44.29 39.20 45.40 42.01 41.34 44.28 51.58 53.67 50.38 47.55 46.86 42.58 39.13 41.53
53.93 54.05 54.23 54.21 53.98 54.29 54.31 53.84 53.02 51.89 51.36 47.65 43.18 45.32 52.82 50.36 35.86 37.07 40.15 39.83 40.94 39.64 39.62 39.27 37.71 38.79 39.38 35.94 32.91 36.30 38.02 43.59 43.52 41.81 38.77 43.43 39.13 39.07 41.53 45.31 49.47 48.70 48.96 48.32 45.59 43.85 41.75
53.82 53.93 53.91 53.97 54.03 54.13 54.00 53.63 52.80 52.20 51.87 48.61 44.99 39.51 44.39 45.49 44.18 39.40 37.71 37.50 37.34 42.45 40.69 41.03 38.76 39.55 37.76 36.03 37.74 34.57 35.97 41.05 43.20 42.83 48.48 45.79 40.96 39.11 39.23 42.71 46.41 46.76 48.96 49.07 46.65 43.81 43.91
53.03 52.99 53.07 53.82 54.01 54.03 54.09 53.61 53.26 52.64 51.82 48.79 44.85 40.87 42.37 35.59 38.19 38.83 39.98 38.98 37.16 36.64 41.13 41.20 37.42 37.73 35.27 32.46 34.17 34.42 37.08 38.37 40.87 43.60 41.99 39.53 36.50 43.11 46.50 48.74 49.68 49.89 48.92 49.19 46.89 46.43 44.64
53.14 53.04 53.39 53.68 54.01 54.07 54.09 53.67 53.37 52.75 51.77 47.12 41.58 39.26 40.67 38.24 39.66 38.76 39.45 37.80 37.51 38.67 38.65 36.79 36.07 37.75 37.23 33.26 34.54 32.74 36.20 36.56 36.11 39.57 38.14 39.56 36.19 42.73 44.09 49.55 49.58 48.85 50.15 50.27 49.47 49.24 48.49
52.89 52.94 53.08 53.19 53.56 53.62 53.80 53.53 53.28 52.77 51.68 45.29 47.87 45.63 41.13 38.54 37.43 36.55 37.41 38.53 38.62 40.39 40.78 41.06 39.17 36.86 36.43 38.44 41.23 41.12 40.90 40.64 39.94 37.96 36.31 36.75 38.57 37.93 38.40 47.59 49.47 44.29 49.68 49.77 49.99 50.87 49.76
53.04 52.67 52.81 53.13 53.15 53.76 53.76 53.70 53.08 52.97 52.38 50.50 49.22 44.80 37.73 34.00 36.09 36.30 38.15 39.65 39.24 40.02 38.08 41.25 41.29 38.05 41.62 45.24 44.01 42.87 41.47 40.79 40.74 40.45 40.87 36.76 37.51 38.07 38.94 43.33 37.12 47.15 52.65 54.49 51.02 51.76 52.06
53.08 53.22 52.94 53.06 52.98 53.19 53.08 52.74 53.27 53.26 52.86 50.70 50.97 44.21 38.42 33.61 37.18 37.13 38.43 38.90 40.65 41.36 40.38 40.55 41.95 43.36 44.28 41.46 36.29 33.24 34.53 36.12 38.30 40.92 40.23 41.21 38.56 35.16 37.00 39.55 44.09 49.19 51.09 49.98 49.27 49.81 55.13
53.01 53.10 53.45 53.14 52.85 52.51 52.53 53.18 53.47 53.82 53.17 51.77 51.34 48.49 42.24 35.26 35.69 39.93 37.49 38.86 36.47 38.54 38.79 40.63 44.82 46.13 44.45 38.40 34.67 29.14 28.17 32.67 34.91 37.21 42.07 41.51 41.75 38.16 38.46 37.29 38.10 42.75 49.87 54.40 54.05 45.95 54.78
53.08 53.16 53.26 52.93 52.69 52.54 53.28 53.45 53.60 53.76 53.18 51.99 50.96 49.13 43.90 36.69 39.64 40.92 38.92 38.67 41.56 39.65 37.66 40.03 41.19 40.89 43.02 35.80 31.96 31.22 31.32 38.91 33.33 34.41 34.76 36.94 37.76 36.22 37.57 38.21 42.40 47.76 51.24 54.68 45.47 45.61 53.32
52.77 52.81 52.81 52.60 52.48 52.79 53.28 53.55 53.55 53.67 53.74 52.70 50.42 50.51 45.37 39.88 41.03 43.16 43.59 41.54 41.43 40.71 37.32 40.57 38.81 39.79 39.13 34.64 34.39 33.85 33.86 35.90 35.21 38.27 33.82 36.39 35.79 35.01 38.27 37.81 36.12 48.80 49.30 45.91 49.75 50.83 51.75
52.50 52.52 52.23 52.88 52.69 53.06 53.14 53.39 53.55 53.61 53.67 53.39 48.68 51.37 50.39 43.97 42.70 46.65 46.44 47.04 46.03 45.31 42.06 42.65 39.88 39.35 40.47 36.55 36.64 36.22 33.43 37.14 35.56 32.26 40.02 34.94 38.18 36.49 39.26 40.39 46.49 48.67 47.87 50.87 51.48 50.61 50.06

GFSGBSN_sfc_wetblb_036.txt.gz
Wetbulb
55.67 55.69 55.56 55.33 55.23 55.19 55.37 55.39 55.55 55.76 55.74 55.58 55.63 56.31 56.39 56.43 56.30 56.50 56.59 56.20 55.82 55.64 55.73 55.96 57.41 57.26 53.03 48.03 48.21 58.30 70.10 70.74 64.90 60.79 56.00 53.40 50.28 51.74 52.29 56.71 59.95 60.13 61.73 63.97 65.31 65.03 62.74
55.24 55.26 55.24 55.38 55.18 55.14 55.17 55.21 55.28 55.50 55.53 55.65 55.99 55.86 55.82 55.94 56.13 56.36 56.30 55.97 55.65 55.20 55.50 55.82 58.07 56.57 49.65 43.02 55.77 58.24 62.74 64.47 60.30 58.75 55.27 53.22 51.05 52.44 54.00 55.39 57.75 61.11 61.46 62.31 63.66 62.64 61.08
55.07 55.07 55.34 55.43 55.19 55.17 55.16 55.14 55.10 55.34 55.24 55.48 55.78 55.65 55.51 55.54 55.68 56.07 55.69 55.06 55.00 55.65 56.12 55.93 58.96 55.55 50.25 46.66 55.05 56.56 59.44 61.01 59.93 57.72 53.74 54.79 53.60 54.20 54.21 55.05 58.61 58.73 57.93 60.47 61.74 62.00 61.56
54.92 55.08 55.35 55.23 55.16 55.15 55.36 55.27 55.68 55.76 55.77 55.65 55.68 55.60 55.32 55.34 55.24 54.92 54.55 53.99 54.73 57.83 57.44 56.17 60.09 55.47 46.95 56.94 57.20 55.97 55.84 55.62 60.41 58.69 54.49 55.72 54.14 51.86 51.39 54.32 53.61 56.04 56.66 53.29 60.45 62.39 62.56
54.71 54.94 55.21 55.12 55.04 55.76 55.57 55.60 55.56 55.69 55.38 55.30 55.10 55.05 54.87 54.78 54.40 53.96 52.89 53.31 55.74 58.41 57.97 59.15 54.11 52.34 47.29 60.66 56.37 56.82 56.66 56.26 56.54 55.40 54.10 56.46 52.24 49.82 50.90 47.43 44.98 49.53 47.35 51.14 55.68 62.22 61.60
54.85 55.02 55.12 55.03 54.81 55.46 55.41 55.37 55.47 55.48 55.26 55.02 54.75 54.67 54.49 54.12 53.50 52.77 52.37 53.62 55.18 57.45 58.19 58.35 57.81 48.90 50.99 51.03 53.24 53.82 57.11 58.29 55.06 53.51 52.37 51.24 47.89 44.97 47.35 43.28 40.42 44.61 47.13 49.81 52.03 56.30 59.92
54.61 54.89 54.84 54.89 54.80 55.53 55.31 55.22 55.18 55.18 55.08 54.77 54.59 54.32 54.05 53.52 52.85 51.96 50.12 45.18 42.80 39.83 42.66 39.33 41.53 48.46 47.72 49.87 51.29 52.17 55.63 56.64 56.39 51.78 46.79 49.41 44.81 42.41 45.29 47.24 48.55 50.14 50.05 50.20 53.70 57.06 54.82
54.60 54.79 54.88 54.76 55.01 55.32 55.18 55.20 55.03 54.93 54.71 54.51 54.24 53.83 53.50 52.98 51.98 51.75 47.86 40.82 41.56 43.65 36.61 44.39 45.02 44.75 46.86 47.67 44.20 47.31 53.32 51.62 49.94 47.74 49.57 46.94 44.43 48.17 50.71 49.74 49.24 49.71 48.00 50.03 54.51 56.78 52.92
54.57 54.59 54.62 55.20 55.18 55.07 55.05 54.66 54.52 54.42 54.25 53.95 53.89 53.50 53.00 51.82 51.41 48.21 45.77 45.47 46.83 42.16 34.38 40.92 44.02 43.86 44.35 44.65 43.84 44.55 48.41 51.37 48.59 45.89 48.11 47.10 49.42 52.93 51.42 49.72 48.32 48.05 46.62 48.40 50.16 54.00 53.10
54.37 55.08 55.10 55.20 55.09 55.13 54.72 54.56 54.42 54.27 53.95 53.84 53.71 53.07 52.29 51.34 46.13 45.72 46.15 48.40 46.17 43.69 30.46 37.98 42.77 45.77 46.20 46.41 42.59 50.68 49.38 49.39 50.23 45.79 47.34 47.67 53.14 51.68 50.63 49.44 49.96 44.59 51.08 51.23 51.09 48.94 45.19
54.52 55.10 55.26 55.01 55.05 55.03 54.72 54.37 54.37 54.21 53.76 53.23 53.02 52.19 51.27 50.66 43.36 44.40 47.96 48.21 49.63 41.69 25.20 43.03 42.71 49.17 45.71 43.26 45.57 46.77 51.53 48.84 46.30 47.53 45.73 46.33 49.37 50.38 48.81 50.56 52.64 48.53 51.76 50.45 50.67 47.19 43.84
54.87 55.05 54.80 54.94 55.05 54.74 54.50 54.33 54.19 53.76 53.41 52.96 52.29 51.12 51.04 47.04 44.51 47.37 48.79 49.29 41.30 31.66 26.79 39.12 42.68 40.89 39.69 42.68 43.86 46.04 46.12 48.86 50.90 47.25 47.94 47.37 54.11 53.02 52.20 53.91 54.68 54.44 50.96 49.32 49.20 45.05 39.79
54.44 54.41 54.63 54.87 54.76 54.64 54.29 54.07 53.88 53.51 52.83 52.15 50.89 49.97 49.74 49.84 42.80 46.71 48.07 41.34 29.74 25.37 39.84 36.97 36.09 39.01 37.88 38.77 40.60 41.43 40.70 40.37 38.78 38.38 41.66 46.55 47.46 52.09 55.30 51.28 53.47 52.08 45.17 40.18 38.01 38.60 38.86
54.29 55.07 55.05 54.84 54.64 54.58 54.35 54.37 53.92 53.35 52.58 51.47 49.76 49.28 49.39 50.44 48.03 48.09 42.99 34.82 25.60 35.65 33.90 38.54 37.83 37.64 35.37 38.46 38.94 39.49 37.85 35.04 43.10 39.07 39.80 40.35 39.25 47.70 52.85 51.04 50.05 49.53 46.74 39.69 34.26 33.59 39.59
54.39 54.75 54.78 54.64 54.43 54.47 54.37 54.15 53.66 52.98 52.22 51.01 49.50 45.84 45.69 48.81 50.94 46.97 37.29 27.53 27.65 32.16 37.12 36.07 35.89 32.60 33.66 38.03 37.92 37.14 36.09 36.28 40.53 40.30 33.40 37.71 40.90 49.94 52.15 53.95 53.89 46.56 45.62 45.00 36.79 35.87 35.08
54.12 54.43 54.46 54.58 54.47 54.29 54.21 54.00 53.64 53.23 52.37 50.88 45.22 42.77 44.15 50.87 48.04 41.04 33.83 31.23 32.30 37.95 38.62 37.44 30.27 33.39 29.86 33.34 34.51 34.20 35.13 40.15 39.26 42.11 41.77 37.11 35.20 46.97 49.60 53.15 53.30 50.55 47.67 40.12 35.97 31.87 30.66
53.69 53.81 54.23 54.46 54.31 54.19 54.07 54.11 53.74 52.99 51.95 50.74 41.33 39.15 46.50 51.81 43.66 36.63 28.53 29.30 35.30 41.00 41.14 36.04 33.25 31.83 32.56 32.21 35.13 33.46 34.58 38.25 41.75 40.47 41.26 38.29 35.83 41.41 45.23 47.81 47.35 45.92 45.62 41.59 41.98 36.75 34.38
53.57 54.09 54.11 54.31 54.07 54.01 54.21 53.96 53.35 52.20 50.88 47.21 39.85 35.38 46.99 50.08 35.87 32.43 29.54 34.27 40.51 38.13 40.42 37.65 37.66 36.51 33.66 34.18 34.44 34.30 33.86 37.05 42.56 41.72 36.18 40.07 37.20 33.95 41.17 46.48 49.74 51.29 44.86 43.65 40.37 35.41 35.94
53.68 54.03 54.09 54.07 53.92 54.05 54.03 53.60 52.91 51.97 51.38 46.64 38.58 38.09 46.67 43.38 30.08 31.05 35.12 38.79 39.26 37.02 36.39 37.34 35.50 36.60 35.11 33.27 32.04 35.42 36.34 41.57 42.89 40.51 37.86 39.83 36.19 30.10 36.29 40.04 44.50 43.84 48.80 45.50 40.55 39.27 37.98
53.44 53.46 53.57 53.79 53.95 53.87 53.90 53.41 52.71 51.92 51.73 44.01 38.22 33.71 38.45 39.29 38.13 33.33 32.85 34.56 35.71 42.08 39.33 38.99 36.80 35.53 32.69 31.35 36.17 34.35 35.12 39.48 41.38 40.70 43.21 42.61 31.92 31.74 30.18 37.08 42.01 41.06 45.27 46.45 45.13 40.53 40.04
53.26 52.97 53.10 53.48 53.64 53.52 53.70 53.37 52.72 51.89 51.59 43.91 37.65 33.58 37.21 32.26 34.65 35.16 33.74 35.56 36.06 35.48 39.28 39.10 34.75 36.17 31.27 26.11 32.10 33.90 36.15 37.38 39.36 42.04 40.21 37.60 28.33 32.79 36.63 40.37 42.77 43.61 45.92 47.93 43.95 44.51 42.45
53.04 52.84 52.97 53.42 53.42 53.50 53.62 53.49 53.16 52.17 51.23 41.93 36.47 34.46 36.81 37.12 36.81 34.99 35.41 35.08 36.34 37.10 38.00 35.06 34.01 36.27 33.19 28.24 32.72 31.17 35.12 35.29 35.16 38.35 36.32 37.45 28.57 32.85 33.74 44.85 46.07 45.42 48.23 48.48 47.09 47.00 44.32
52.92 52.80 52.80 53.24 53.62 53.81 53.42 53.53 53.16 52.32 50.63 43.28 41.15 40.73 39.96 37.98 35.40 33.64 34.51 35.74 35.67 38.97 39.95 40.85 38.57 35.52 33.40 35.61 38.90 39.23 40.08 39.51 38.34 36.43 35.06 33.91 30.02 29.19 30.77 41.85 46.24 41.92 45.46 47.76 47.53 47.49 47.71
53.35 52.94 52.92 53.05 53.23 52.97 52.53 52.89 53.16 52.88 51.76 48.47 46.44 44.47 38.15 33.88 36.44 36.47 37.29 37.71 37.51 38.55 37.04 40.15 39.56 35.07 39.30 41.58 40.87 39.58 39.62 39.19 39.08 38.62 39.09 33.91 29.88 29.94 31.36 38.25 36.06 43.01 48.40 49.25 50.27 50.06 50.08
53.51 53.16 52.90 52.86 52.92 52.49 52.71 53.06 53.27 53.55 52.91 49.40 48.58 44.87 39.01 33.44 36.83 37.43 37.89 38.66 38.10 39.04 39.01 39.91 40.71 40.88 40.78 37.29 31.30 30.08 31.95 34.21 36.45 38.64 38.30 38.88 33.23 28.63 31.38 35.46 40.91 43.13 44.51 45.53 44.67 45.80 49.13
53.43 53.55 53.26 52.67 52.48 52.71 52.98 53.37 53.57 53.70 53.23 51.00 49.60 48.27 41.33 35.81 35.24 39.62 38.18 38.22 36.32 37.38 38.01 39.35 42.56 42.74 42.73 33.43 30.52 27.85 27.39 32.50 34.14 37.38 39.49 38.81 38.81 31.09 32.06 33.39 34.37 40.45 46.49 52.65 51.69 40.67 49.17
53.25 53.27 52.98 52.52 52.56 52.87 53.27 53.68 53.72 53.90 53.33 51.23 49.43 48.83 43.50 36.55 39.34 40.43 37.65 37.12 39.41 38.56 36.61 38.91 38.88 37.93 40.20 35.41 31.76 31.84 31.03 36.98 32.09 33.61 32.76 33.94 35.35 34.24 35.48 36.93 39.32 44.77 47.15 51.79 40.27 42.16 49.83
52.84 52.73 52.36 52.23 52.50 52.91 53.24 53.39 53.76 53.84 53.86 52.11 49.59 49.90 45.04 39.57 40.99 43.62 43.71 40.97 41.24 40.20 36.20 39.57 38.71 36.19 34.80 32.95 32.81 32.48 32.48 34.27 33.95 36.29 35.19 34.82 33.92 33.03 36.97 35.19 34.69 47.33 46.48 40.01 44.58 48.40 48.69
52.63 52.24 52.03 52.40 52.63 52.75 53.16 53.45 53.78 53.96 53.94 53.15 47.77 51.02 50.28 43.77 42.66 46.67 46.50 47.38 46.00 45.04 41.69 41.29 36.46 34.53 38.80 32.68 34.41 34.80 32.75 35.32 33.55 31.07 39.59 33.38 37.00 35.50 37.06 38.12 44.63 48.40 46.28 47.97 48.21 47.65 49.51

GFSGBSN_sfc_wetblb_039.txt.gz
Wetbulb
55.58 55.53 55.66 55.60 55.26 55.25 55.16 55.25 55.24 55.56 55.47 55.51 55.55 55.89 56.25 55.99 55.75 55.87 56.02 56.09 55.93 55.80 55.79 55.80 55.85 57.05 51.86 44.52 45.55 55.49 70.24 65.59 64.47 59.12 55.48 52.99 51.29 51.91 50.52 54.13 57.78 59.41 62.05 63.24 65.03 64.91 64.68
55.21 55.51 55.59 55.49 55.19 55.16 55.17 55.09 55.18 55.27 55.32 55.44 55.59 56.05 56.05 55.96 56.19 56.27 56.27 55.87 55.43 55.40 56.15 55.72 56.01 56.88 48.56 39.88 51.64 56.60 61.95 61.77 60.15 56.71 52.82 51.47 51.39 53.13 52.37 53.00 56.38 59.59 60.81 61.61 62.49 62.35 62.14
55.10 55.29 55.39 55.36 55.14 54.93 54.96 54.96 55.08 55.27 55.37 55.49 55.83 55.81 55.69 55.77 55.89 55.97 55.66 55.08 54.98 56.37 58.58 55.98 57.05 55.11 49.32 46.01 55.22 55.87 57.47 58.04 60.02 56.27 51.73 53.42 51.97 53.00 51.13 52.18 56.89 56.51 55.23 56.36 59.16 60.96 60.61
55.03 55.24 55.26 55.29 55.05 55.12 55.04 54.93 54.99 55.32 55.33 55.39 55.36 55.70 55.47 55.49 55.55 55.02 54.33 54.02 55.01 58.06 56.94 57.03 59.25 54.97 46.68 55.66 56.17 56.87 54.22 53.40 59.39 56.95 53.08 53.59 52.42 51.39 49.58 53.08 51.45 52.11 51.54 47.52 56.45 59.98 61.41
54.84 54.94 55.02 54.93 54.76 54.94 55.15 55.01 54.89 55.43 55.22 55.14 55.11 55.21 55.06 55.05 54.62 54.04 53.11 53.70 55.72 58.64 59.09 59.25 53.40 50.41 46.10 59.54 53.57 53.91 55.00 53.60 57.03 55.51 54.47 56.38 50.47 46.32 48.99 46.37 43.05 44.38 43.41 49.24 52.95 59.70 60.28
54.86 54.83 54.78 54.76 54.64 55.04 55.35 55.17 55.29 55.32 55.08 54.88 54.57 54.39 54.41 54.12 53.62 53.06 52.47 53.94 54.83 58.25 57.70 57.81 56.85 45.48 47.68 45.59 48.14 49.64 52.61 56.31 54.07 54.23 51.50 49.28 46.02 42.03 42.05 41.37 39.71 41.17 44.56 47.37 49.22 55.11 59.68
54.75 54.62 54.76 54.71 54.53 54.99 55.35 55.18 55.14 55.12 54.94 54.73 54.34 54.06 53.67 53.28 52.92 52.20 50.08 42.37 40.20 38.19 40.60 36.96 39.79 44.44 45.09 47.53 49.57 47.88 48.88 52.59 53.02 49.15 43.11 45.89 40.95 39.89 42.40 45.73 46.44 47.25 48.01 48.78 52.24 55.94 55.34
54.48 54.50 54.78 54.69 54.66 54.96 54.94 54.79 54.89 54.77 54.73 54.34 54.02 53.52 53.24 52.49 52.19 52.05 46.03 41.65 42.24 41.91 35.02 42.97 43.19 42.67 45.06 45.20 43.27 46.61 49.11 48.10 49.70 44.38 46.51 42.81 40.36 44.78 46.42 46.72 46.33 45.49 44.39 46.32 51.45 54.41 52.26
54.54 54.61 54.70 54.74 55.08 55.07 55.07 54.67 54.50 54.50 54.16 53.87 53.63 53.21 52.53 51.82 51.31 47.42 43.27 43.52 44.53 40.53 32.98 39.20 42.62 43.11 44.14 43.28 42.76 45.24 48.00 46.08 44.75 46.21 45.61 43.55 45.56 48.76 47.52 45.58 44.52 44.53 43.54 45.38 47.69 51.55 52.57
54.55 54.72 55.04 54.84 54.97 54.93 54.79 54.56 54.30 54.22 53.79 53.52 53.34 52.88 51.73 51.29 45.18 43.82 44.43 45.40 46.01 42.66 29.32 37.11 40.70 43.64 43.98 45.29 41.75 48.97 49.74 46.18 44.92 44.40 47.14 45.44 50.04 48.85 45.88 45.73 46.63 41.28 48.16 49.14 48.66 48.36 42.19
54.67 54.68 54.98 55.08 55.01 54.95 54.73 54.34 54.23 54.07 53.60 53.27 52.98 52.21 51.05 50.55 41.66 42.22 45.60 46.01 45.16 40.61 23.50 41.95 40.57 46.90 42.91 41.43 42.95 44.80 49.78 46.50 42.09 42.06 42.61 44.37 46.82 47.19 45.82 46.80 49.21 45.68 49.40 48.40 48.53 44.24 42.19
54.44 54.31 54.40 54.31 54.33 54.73 54.50 54.11 53.99 53.80 53.48 53.08 52.34 51.18 50.81 46.20 43.28 44.94 46.90 43.81 40.51 30.85 24.91 37.74 40.52 39.33 38.80 40.30 41.76 44.43 44.53 47.22 47.28 43.23 44.50 44.05 48.84 49.46 49.14 51.26 51.23 51.52 47.78 46.33 44.82 42.00 39.12
54.44 54.31 54.39 54.39 54.42 54.48 54.15 53.85 53.91 53.35 53.02 52.34 51.02 49.88 49.35 49.44 41.26 45.90 45.27 39.69 29.64 24.56 37.97 34.51 33.83 36.94 35.52 36.86 38.69 39.85 38.83 39.80 36.21 33.55 35.34 42.82 44.52 48.17 51.23 48.05 50.29 49.72 43.18 34.95 35.03 34.94 38.27
54.17 54.22 54.34 54.68 54.30 54.21 54.03 53.97 53.85 53.34 52.82 51.69 49.73 48.96 48.30 50.22 47.71 46.88 40.33 34.57 24.59 33.56 31.74 35.94 35.76 35.29 33.24 36.88 36.60 38.09 35.61 33.93 40.21 37.76 33.74 31.49 36.63 45.60 48.69 48.61 47.08 47.18 44.98 36.31 30.62 33.57 39.65
53.96 54.18 54.32 54.28 54.23 54.11 54.01 53.87 53.58 53.15 52.42 50.89 49.25 43.82 44.62 46.92 48.94 43.78 36.95 26.47 27.14 30.04 35.16 34.61 33.87 30.04 30.75 35.88 34.66 35.12 33.78 34.29 39.63 39.33 32.86 31.58 33.45 42.42 49.39 50.03 51.25 45.95 44.45 46.10 36.82 32.46 35.24
53.70 53.78 53.92 53.89 54.15 54.01 53.97 53.89 53.44 53.16 52.34 50.72 43.51 39.83 42.04 48.84 45.21 39.58 32.96 29.93 30.12 37.09 37.27 35.25 28.09 31.36 27.59 31.19 31.55 31.76 32.19 37.98 37.86 40.22 40.85 36.23 30.04 39.49 45.91 49.82 50.77 49.51 48.72 40.78 36.25 32.10 31.70
53.57 53.34 53.52 53.89 54.07 54.03 53.93 53.87 53.48 53.00 51.81 50.24 39.56 37.42 44.97 49.07 41.48 34.99 27.88 28.29 34.02 39.34 39.69 34.15 31.22 29.83 29.80 29.50 32.02 31.19 32.30 37.45 39.89 38.59 40.24 38.27 35.16 36.11 42.33 43.07 43.91 45.12 44.75 44.80 43.70 36.70 36.44
53.65 53.56 53.74 53.97 53.97 53.97 54.05 53.81 53.24 52.13 50.84 45.44 36.86 30.71 44.68 43.37 34.71 30.50 28.23 32.99 39.57 36.48 39.00 36.52 35.73 33.46 30.76 32.67 30.84 31.37 32.94 36.13 41.71 41.07 35.34 38.43 36.86 33.86 37.01 43.27 44.82 48.72 44.42 40.66 43.13 36.76 33.59
53.93 53.77 53.97 53.87 53.78 53.83 53.99 53.48 52.71 51.57 51.04 46.20 37.97 34.78 44.25 42.80 30.05 29.35 33.15 36.40 38.11 36.13 36.20 36.28 34.91 35.05 33.46 31.72 28.03 33.64 35.52 40.86 42.06 38.75 36.38 38.30 36.22 27.66 33.83 37.82 43.45 41.22 47.62 43.58 42.92 38.06 36.51
53.13 53.26 53.00 53.46 53.62 53.62 53.87 53.42 52.47 51.66 51.32 42.06 38.48 32.02 36.50 36.93 36.32 30.97 31.90 33.68 35.31 42.12 39.67 38.37 36.31 35.38 31.44 30.63 32.21 30.71 33.78 38.94 40.75 39.67 43.42 42.24 35.57 28.94 27.77 31.71 36.22 35.96 40.16 45.67 42.27 36.92 38.79
53.01 52.83 52.69 52.93 53.24 53.42 53.85 53.29 52.79 52.09 51.44 42.81 35.69 31.43 34.94 29.27 31.81 32.28 34.60 34.33 34.94 35.30 40.24 39.82 34.21 34.36 30.75 25.69 28.10 29.02 33.92 36.89 38.72 41.11 39.43 37.96 30.49 30.15 32.19 34.13 35.12 35.72 37.29 40.25 39.95 42.63 40.95
53.09 52.70 52.68 52.97 53.26 53.32 53.24 53.37 52.86 52.00 50.39 40.91 35.62 34.34 34.41 36.24 37.35 34.46 34.87 33.18 34.64 35.92 36.75 36.12 35.17 36.84 36.98 27.59 29.31 27.99 32.07 33.70 34.68 37.75 35.89 37.67 31.46 30.44 29.89 36.43 36.06 35.90 41.99 44.53 44.65 44.05 42.53
53.08 53.04 53.07 53.19 53.17 52.50 52.45 52.86 53.01 52.17 49.93 42.90 40.77 42.00 40.08 38.21 36.82 35.35 34.89 36.46 36.21 37.98 39.70 40.34 38.50 36.64 33.68 34.62 36.44 35.59 35.87 38.06 37.93 36.23 34.29 34.01 31.88 27.25 25.72 37.30 41.00 38.53 41.51 44.55 45.39 45.10 44.41
52.82 53.10 53.19 53.07 52.91 52.18 52.53 52.90 53.19 52.91 51.72 47.94 46.16 44.75 38.67 34.57 36.98 36.69 37.56 38.08 37.30 38.48 36.22 39.18 40.03 35.86 38.75 41.39 39.72 36.46 35.76 37.32 38.03 37.66 38.28 34.17 31.59 27.87 25.59 34.21 35.20 40.00 45.55 46.43 46.21 46.19 47.22
52.98 52.98 52.98 52.59 52.16 52.82 53.17 53.21 53.35 53.56 52.92 49.54 48.73 45.37 40.08 33.74 37.25 37.60 38.43 38.32 38.76 39.10 38.17 39.29 40.73 41.26 41.41 39.15 29.99 27.23 30.90 34.30 34.31 37.23 36.72 37.29 33.37 27.08 26.04 32.98 40.16 41.65 43.32 42.12 41.06 42.57 47.21
52.92 53.21 52.55 51.98 52.63 52.98 52.94 53.35 53.60 53.87 53.26 50.96 49.34 49.01 42.02 36.89 36.01 39.70 37.86 38.42 36.11 36.03 37.08 38.78 42.16 41.41 40.11 36.93 30.49 27.27 26.60 32.64 30.77 34.08 37.95 37.47 36.31 33.28 27.87 34.35 33.13 39.54 44.49 46.98 48.19 38.41 47.46
52.59 52.48 52.28 52.53 52.52 52.84 53.09 53.48 53.69 53.78 53.50 51.24 49.55 49.00 43.22 37.23 39.99 40.45 38.03 37.26 39.30 37.28 34.06 38.16 37.95 37.41 39.76 34.49 30.46 30.20 29.75 34.24 32.07 31.19 31.64 33.88 34.56 30.79 31.16 36.79 38.70 43.13 45.53 47.58 36.00 38.15 47.15
52.72 52.16 52.30 52.26 52.59 52.82 53.15 53.41 53.76 53.89 53.91 51.67 48.84 49.73 45.34 39.87 41.24 43.45 44.02 41.27 41.12 39.80 35.72 37.01 33.68 36.33 34.65 31.96 31.58 31.39 31.03 33.35 33.52 34.06 34.30 33.14 32.49 34.38 37.54 35.89 34.10 45.45 44.97 38.47 40.60 46.61 47.31
52.29 51.91 52.14 52.24 52.74 52.94 53.00 53.52 53.91 53.99 53.85 52.19 46.78 50.83 50.31 44.03 42.97 46.93 46.55 47.24 46.04 46.04 42.23 41.03 38.97 37.49 36.53 33.99 34.46 34.30 33.22 35.22 32.92 28.39 38.11 32.84 34.83 34.53 36.41 36.91 44.33 47.55 46.27 45.37 45.56 44.32 45.51

GFSGBSN_sfc_wetblb_042.txt.gz
Wetbulb
55.52 55.50 55.58 55.48 55.31 55.11 55.09 55.36 55.52 55.45 55.55 55.70 55.57 55.86 56.06 55.93 56.12 56.41 56.75 56.46 56.14 56.00 56.04 56.09 55.78 56.92 50.63 41.97 43.94 54.83 66.41 64.69 62.76 62.20 60.06 55.19 56.07 51.12 53.45 57.53 57.48 60.40 62.03 63.17 64.81 64.47 63.36
55.24 55.30 55.34 55.40 55.11 54.90 54.82 55.16 55.38 55.38 55.18 55.14 55.46 55.75 55.85 55.95 56.28 56.43 56.63 56.45 55.34 55.77 56.68 56.44 56.08 56.31 46.96 37.68 49.89 56.74 61.77 60.76 60.76 57.86 55.12 52.99 55.88 53.11 51.82 53.15 56.15 59.80 60.55 61.22 61.88 61.54 62.15
55.16 55.16 55.31 55.27 54.98 54.88 55.10 55.10 55.07 55.09 54.92 54.86 55.14 55.48 55.52 55.58 55.98 56.08 55.75 55.42 54.78 56.67 58.39 56.89 57.52 54.58 47.73 45.70 54.99 55.93 56.86 58.59 57.28 55.79 51.82 51.58 52.91 53.57 50.84 49.99 55.54 58.13 54.49 55.75 55.84 59.41 59.65
55.03 55.09 55.11 55.02 54.93 54.90 54.81 54.87 54.84 54.81 54.90 55.16 54.89 55.17 55.25 55.22 55.28 55.14 54.52 54.35 55.01 57.60 57.08 57.93 58.73 52.89 44.35 55.03 55.29 56.07 53.68 52.55 58.77 56.32 51.66 52.60 51.57 50.03 48.07 51.64 49.74 49.82 52.65 46.67 54.51 56.88 59.53
54.76 54.85 54.91 55.01 54.85 54.91 55.06 54.76 54.65 54.76 55.17 54.99 55.02 54.84 54.78 54.60 54.34 53.78 53.16 53.53 55.74 58.72 58.55 59.32 52.73 47.13 43.37 57.48 49.74 47.81 49.39 51.18 56.04 55.21 55.18 56.20 49.29 45.06 47.76 44.89 42.27 43.11 43.45 47.29 52.33 57.89 58.86
54.56 54.76 54.85 54.97 54.69 54.85 55.20 55.17 55.15 55.09 54.99 54.83 54.54 54.26 53.97 53.95 53.37 52.79 52.43 53.68 59.55 58.22 57.76 57.70 55.87 42.48 45.57 44.01 46.96 48.12 48.94 55.19 54.81 53.64 52.01 48.42 44.22 40.34 40.00 40.84 36.65 40.49 41.32 46.06 49.23 54.00 57.21
54.83 54.93 55.07 54.97 54.85 54.98 55.06 54.97 55.03 55.03 54.76 54.56 54.33 53.84 53.50 53.25 52.66 52.16 50.08 41.57 39.76 38.83 40.27 35.11 38.71 40.74 44.24 45.86 48.00 48.61 48.61 50.12 51.96 48.66 42.88 44.08 39.09 38.50 41.58 44.14 45.43 45.63 46.00 47.17 50.76 54.84 55.25
55.03 54.95 54.93 54.88 54.66 54.53 54.67 54.91 54.80 54.72 54.62 54.48 53.90 53.60 53.14 52.56 52.21 52.01 45.92 41.28 42.06 42.44 35.30 40.84 41.93 41.28 43.68 43.93 42.47 47.16 49.93 46.55 47.52 43.08 43.90 40.22 37.93 43.19 43.90 43.32 44.19 44.24 41.58 43.39 49.23 54.89 53.05
54.89 54.68 54.73 54.65 54.61 55.03 55.07 54.76 54.47 54.35 54.07 53.78 53.66 53.29 52.45 51.90 51.67 46.14 43.08 42.40 43.86 39.64 32.50 38.13 40.98 41.19 43.34 41.64 42.24 43.86 46.48 45.17 41.83 43.20 43.01 38.81 41.99 46.22 44.55 42.68 41.14 41.74 41.28 42.27 45.34 50.93 53.12
54.72 54.67 54.79 54.71 54.76 54.86 54.86 54.33 54.15 54.08 53.80 53.53 53.39 53.08 51.83 50.90 44.49 42.46 41.40 44.48 45.28 41.45 29.27 35.81 38.80 42.38 44.03 43.33 39.25 47.55 47.44 45.33 42.74 41.50 44.85 42.73 47.61 46.01 43.17 42.14 43.05 35.94 45.30 46.82 45.71 44.87 41.25
54.60 54.63 54.85 54.97 54.80 54.68 54.39 54.25 54.06 53.86 53.57 53.45 53.22 52.37 50.98 50.10 40.87 41.50 43.48 44.38 41.49 39.01 23.03 40.45 38.70 45.65 42.29 39.28 40.69 42.44 48.00 45.26 40.65 41.09 40.39 41.43 44.34 44.73 43.38 43.02 45.04 41.42 45.98 45.41 46.02 43.01 41.09
54.47 54.35 54.33 54.26 54.08 54.37 54.25 53.90 53.88 53.70 53.51 53.14 52.36 51.20 50.75 45.65 42.37 44.69 45.26 42.90 39.16 30.24 24.08 36.04 38.95 37.86 36.92 38.56 40.46 42.74 43.56 47.00 45.94 41.95 42.04 41.87 46.13 45.19 46.72 48.64 47.09 48.34 44.91 43.65 42.87 40.65 37.54
54.39 54.20 54.08 54.03 53.99 54.19 54.06 53.76 53.70 53.41 53.02 52.53 51.19 49.94 48.55 48.65 43.29 44.52 44.11 38.53 28.81 24.04 36.22 33.08 32.15 34.99 33.94 35.28 37.12 38.03 38.37 37.17 34.36 31.43 33.10 39.25 42.01 44.62 47.03 43.37 47.34 46.76 42.33 32.70 31.95 33.03 36.38
54.00 54.10 54.36 54.25 54.10 54.02 54.06 54.00 53.74 53.23 52.78 51.68 49.83 48.68 46.70 49.38 47.45 46.01 39.14 33.79 23.11 32.18 30.13 34.00 33.62 32.84 31.44 35.05 34.33 36.15 33.67 33.96 38.79 36.20 32.24 30.59 32.94 42.45 46.16 43.91 42.86 44.53 42.56 34.17 28.62 30.35 37.08
54.02 54.01 54.17 54.04 53.92 54.00 54.00 53.88 53.41 53.00 52.25 51.14 48.89 41.35 43.03 45.57 46.53 41.13 36.87 25.67 25.88 28.25 33.66 32.87 32.18 29.04 29.14 34.04 32.95 32.95 31.73 33.58 38.01 37.67 31.63 29.67 31.96 41.06 44.22 45.92 47.20 42.88 41.41 44.10 35.61 31.73 33.27
54.09 53.84 53.97 53.84 53.92 54.08 53.94 53.82 53.33 53.15 52.20 50.77 41.77 37.44 40.72 47.32 43.14 39.36 33.23 29.35 29.25 35.72 35.70 34.26 27.24 29.85 25.88 29.10 29.60 29.20 29.60 35.86 36.73 39.82 38.78 36.02 30.13 37.56 41.75 45.91 46.66 46.53 47.73 39.57 36.14 33.00 27.98
54.17 53.95 53.62 53.53 54.02 53.94 53.94 53.78 53.35 52.79 51.72 49.70 37.95 34.32 43.69 46.67 39.67 34.34 28.11 26.86 32.70 38.51 38.52 34.13 30.88 28.86 29.72 28.52 30.91 29.71 30.63 35.91 38.98 38.24 38.55 36.07 35.14 33.90 39.02 39.48 41.11 42.43 44.45 43.74 42.48 37.32 35.48
53.99 54.13 53.84 53.98 53.61 53.72 53.84 53.72 53.09 51.97 50.71 45.73 35.26 28.45 41.37 43.05 34.12 29.60 27.45 31.57 38.23 35.29 38.11 35.92 34.87 32.96 30.88 32.01 28.90 29.86 31.09 35.25 41.59 40.47 34.87 38.67 36.00 31.35 33.61 41.61 43.86 40.61 41.90 42.91 41.23 36.26 33.88
53.85 53.82 53.70 53.39 53.51 53.68 53.94 53.61 52.72 51.48 51.04 46.19 36.97 37.05 42.89 41.51 29.06 28.44 32.16 34.87 37.08 35.50 35.14 35.03 33.84 34.78 32.62 30.10 26.43 31.89 34.18 40.14 41.89 39.27 35.78 37.32 32.67 28.90 30.06 36.89 39.13 38.57 43.03 43.11 39.37 43.31 40.25
53.31 53.29 52.96 53.31 53.51 53.70 53.70 53.20 52.14 51.43 51.23 41.79 38.13 30.90 35.10 35.89 33.49 29.13 32.43 32.47 33.85 41.05 39.34 39.69 36.38 35.25 31.29 28.37 30.20 28.75 32.16 39.03 41.05 39.23 42.86 41.28 34.83 31.37 26.20 30.65 33.80 31.81 35.91 42.62 40.08 40.57 41.79
53.14 53.21 53.31 53.31 53.33 52.90 53.33 52.93 52.47 51.57 50.51 42.18 34.67 30.37 36.94 29.55 30.69 35.25 35.54 33.65 33.45 34.68 39.63 40.08 36.34 35.95 33.62 25.36 26.31 28.19 32.20 33.78 38.70 40.97 39.51 36.21 31.59 33.09 33.12 33.90 34.21 33.44 34.16 36.40 35.63 38.86 41.07
52.77 52.48 52.90 52.90 52.78 52.64 52.69 52.93 52.84 51.92 49.67 39.24 35.03 33.90 34.40 35.58 36.09 35.37 35.43 34.66 34.03 35.76 36.39 35.79 35.57 36.92 36.19 33.50 32.74 29.09 30.69 29.44 31.45 37.03 36.68 37.77 30.69 34.51 29.96 33.27 33.61 32.26 36.67 37.74 38.49 40.93 41.26
52.64 52.42 52.48 52.65 52.54 52.63 52.97 52.89 53.23 52.42 49.86 43.01 41.74 42.51 40.38 37.88 36.50 34.70 35.51 36.15 36.01 38.25 38.19 39.52 39.30 37.41 36.38 36.42 37.60 35.49 34.34 33.98 34.66 34.58 34.38 34.46 33.23 29.84 24.08 33.57 34.66 31.56 37.24 41.64 43.82 44.82 43.45
52.72 52.54 52.71 52.49 52.27 52.93 53.22 53.39 53.45 53.11 51.62 47.70 46.00 44.61 39.20 34.42 36.21 36.64 37.81 38.54 37.54 38.39 36.79 38.52 39.55 37.12 39.92 42.51 40.23 38.96 35.17 34.81 34.74 35.03 37.08 33.38 32.93 31.68 26.36 29.57 30.68 39.24 45.06 46.91 44.17 43.74 46.07
52.73 52.87 52.42 52.19 52.79 53.12 53.10 53.26 53.45 53.47 52.95 49.36 48.80 45.56 40.60 34.31 37.61 37.99 38.62 38.12 38.79 39.04 38.44 38.98 40.00 42.45 41.41 37.24 33.59 25.51 26.02 28.49 30.64 35.22 36.35 36.67 33.79 29.35 25.29 27.71 38.67 41.26 42.16 41.52 40.78 41.46 44.97
52.54 52.41 51.85 52.52 52.70 52.73 53.22 53.37 53.55 53.84 53.01 50.62 49.36 48.96 42.69 37.44 36.83 40.11 38.60 39.21 36.00 35.53 36.89 38.08 40.95 41.35 39.97 36.54 33.23 27.20 23.46 30.14 29.26 31.48 37.32 36.84 36.06 31.58 30.19 28.13 34.38 38.40 42.96 46.44 45.63 37.83 45.54
52.29 51.81 52.33 52.37 52.83 53.03 53.55 53.72 53.82 53.94 53.40 51.02 49.23 49.10 43.67 37.95 40.75 40.84 38.54 37.99 39.79 37.88 34.40 36.88 38.81 37.16 39.27 34.15 30.23 28.59 27.81 32.01 29.09 30.01 30.80 32.16 32.35 27.96 30.58 31.11 37.89 42.05 45.03 45.53 37.80 37.60 45.03
52.19 51.83 51.90 52.40 52.83 53.10 53.47 53.59 53.86 54.12 54.00 50.68 46.76 49.41 45.69 40.62 41.62 42.69 44.08 41.77 41.59 39.96 34.31 38.31 34.70 36.50 35.98 32.68 31.76 30.30 30.53 32.55 32.73 33.29 33.11 32.53 31.48 33.80 35.39 36.48 35.13 45.55 43.11 37.98 40.78 44.48 44.46
51.52 51.39 52.09 52.53 52.92 53.06 53.53 53.76 54.15 54.08 53.74 50.62 46.34 50.90 50.12 44.29 42.95 46.02 46.98 47.57 45.89 45.84 43.10 40.51 36.93 38.84 38.72 34.69 34.69 34.35 32.73 33.56 32.91 29.27 37.58 31.54 34.54 32.19 34.16 35.91 40.66 46.07 42.74 44.07 44.91 43.89 44.34

GFSGBSN_sfc_wetblb_045.txt.gz
Wetbulb
55.64 55.62 55.70 55.67 55.34 55.61 55.60 55.65 55.60 55.50 55.54 55.50 55.56 55.53 55.84 55.82 55.77 56.15 56.38 56.36 56.25 56.30 56.69 57.09 56.37 56.38 54.17 47.98 47.11 57.19 66.41 65.10 64.14 64.32 63.07 58.66 59.85 59.06 55.25 59.56 61.45 61.86 63.36 64.73 65.67 65.74 65.64
55.38 55.55 55.69 55.64 55.46 55.48 55.47 55.39 55.30 55.29 55.14 55.26 55.35 55.64 55.70 55.83 55.86 55.97 55.87 55.43 55.32 55.81 57.68 57.69 56.07 56.67 52.00 44.33 54.54 58.39 62.51 62.62 62.37 63.39 60.90 60.24 57.99 60.31 58.02 59.77 58.59 61.05 62.70 63.78 63.99 64.57 64.93
55.14 55.24 55.47 55.52 55.38 55.26 55.08 55.04 55.05 55.03 55.00 54.98 55.38 55.59 55.47 55.53 55.10 55.14 55.21 54.55 54.88 56.56 58.10 57.21 57.65 55.60 50.94 50.05 57.43 58.74 58.64 61.19 62.10 62.35 59.02 59.33 60.73 58.30 57.22 54.08 59.82 60.13 57.52 58.52 60.09 61.31 61.85
54.88 55.23 55.41 55.55 55.41 55.16 54.84 54.79 54.68 55.19 55.00 55.08 55.14 55.12 55.45 55.35 55.01 54.71 54.18 53.68 54.67 57.06 57.44 58.06 58.66 55.68 50.15 56.99 58.89 55.84 57.37 58.63 61.48 61.84 57.12 57.92 58.88 58.92 54.14 55.54 53.36 52.66 54.30 49.01 58.04 60.72 61.56
55.18 55.13 55.42 55.54 55.32 55.05 54.86 54.82 54.70 55.16 55.31 55.09 55.13 55.01 54.91 54.87 54.43 54.10 53.32 53.71 55.73 58.42 58.78 59.19 56.05 53.35 45.19 57.49 50.33 52.04 51.74 54.30 59.00 60.89 57.07 57.10 55.97 53.16 53.49 51.19 49.65 51.00 46.60 48.63 53.35 60.62 61.86
55.28 55.25 55.29 55.22 55.18 54.98 55.25 55.27 55.11 55.11 55.17 54.92 54.68 54.51 54.31 54.08 53.56 53.07 52.80 54.26 60.31 59.35 58.68 58.59 55.89 48.05 48.14 45.63 49.44 50.92 53.65 59.38 56.56 55.00 52.56 51.95 52.84 49.17 49.05 48.11 42.24 46.50 46.97 51.38 51.69 59.03 60.41
55.25 55.39 55.24 55.20 54.96 54.90 55.13 55.09 54.93 54.96 54.78 54.78 54.53 54.06 53.81 53.38 52.90 52.28 51.55 49.99 47.30 47.07 47.63 43.44 43.84 43.84 46.15 49.01 50.44 50.20 52.58 56.88 55.48 51.30 45.47 49.69 45.71 44.13 46.50 48.42 48.68 50.05 49.91 49.31 54.32 58.94 59.17
55.16 55.14 55.09 54.88 54.75 54.58 54.60 54.70 54.69 54.75 54.73 54.49 54.14 53.93 53.36 52.59 52.42 52.36 49.96 48.08 46.97 47.54 42.65 44.50 44.19 44.74 47.38 47.50 46.04 47.79 53.03 51.32 52.57 48.23 47.83 45.43 42.92 47.46 47.85 47.05 47.91 47.32 48.01 49.12 53.85 55.34 58.45
54.87 54.82 54.87 54.72 55.05 55.08 54.94 54.59 54.30 54.24 54.22 54.03 53.85 53.38 52.63 51.94 51.79 50.44 48.62 48.10 49.90 46.72 41.57 42.72 44.93 45.28 46.02 47.96 45.13 45.47 49.75 48.36 48.61 48.06 47.86 45.56 46.49 48.70 46.57 45.36 44.41 46.05 45.34 48.09 48.69 51.91 55.63
54.74 54.78 55.00 54.62 54.68 54.75 54.59 54.44 54.24 54.24 53.95 53.71 53.56 53.21 51.92 51.04 49.12 47.58 47.24 49.33 50.10 47.69 39.22 40.18 42.62 44.56 46.50 46.58 42.91 48.69 50.63 48.04 46.55 46.03 48.64 48.14 51.04 47.11 45.87 45.05 45.78 42.50 47.01 47.59 49.00 48.58 48.48
54.55 54.68 54.80 54.90 54.76 54.39 54.52 54.38 54.16 53.97 53.68 53.42 53.31 52.55 51.33 50.13 48.36 47.76 47.82 50.54 47.16 45.71 30.75 41.55 41.95 48.08 46.45 43.57 44.31 44.66 50.92 48.72 43.96 44.86 45.82 46.85 48.23 48.06 46.71 46.27 47.47 44.76 47.75 46.20 46.57 47.53 48.27
54.43 54.24 54.30 54.19 53.97 54.16 54.28 53.99 53.91 53.69 53.46 53.34 52.82 51.62 50.93 49.22 47.99 49.63 50.27 47.92 46.43 37.83 29.65 37.59 41.52 40.31 40.74 42.92 43.10 44.82 46.69 49.36 48.16 44.49 45.92 45.78 48.76 48.74 50.30 51.29 48.61 48.98 47.23 47.30 46.98 45.13 40.52
54.51 54.32 54.23 54.09 53.90 54.24 54.01 53.77 53.75 53.40 53.20 52.73 51.50 50.23 49.49 50.56 47.99 51.82 50.07 45.89 37.11 31.77 39.14 35.71 36.70 39.18 39.15 38.37 39.30 40.82 41.36 41.11 39.63 36.52 38.49 41.42 43.48 47.79 49.73 47.34 49.94 48.83 46.10 40.63 38.74 38.66 37.43
54.63 54.60 54.76 54.59 54.20 54.11 53.93 53.85 53.79 53.32 52.97 52.00 50.15 48.55 48.86 51.47 51.80 49.78 47.07 42.60 31.52 34.82 35.25 39.15 38.15 37.94 35.73 38.16 38.04 38.76 38.53 38.05 41.51 40.59 39.02 36.32 35.35 44.27 45.79 47.83 46.71 47.21 46.55 41.07 35.57 37.62 39.81
54.59 54.93 54.64 54.51 53.97 54.05 53.83 53.93 53.46 53.01 52.59 51.22 48.91 46.72 49.42 51.09 50.31 48.13 45.97 35.54 34.75 35.41 37.82 36.91 36.73 34.48 34.64 37.36 37.27 37.03 37.41 38.16 39.43 40.77 36.22 36.18 35.55 43.98 44.91 46.48 46.79 46.89 44.39 49.06 43.67 44.46 42.05
54.08 54.30 54.11 54.14 53.81 53.79 53.87 53.85 53.38 52.95 52.31 51.02 45.33 44.09 47.84 50.28 47.61 47.76 43.23 35.41 36.66 39.51 39.79 38.73 33.36 35.70 32.30 34.49 34.56 35.47 35.09 39.72 38.95 41.30 42.61 38.25 30.79 39.77 43.08 45.34 48.30 46.84 50.35 43.51 44.60 37.13 36.31
53.91 54.05 53.55 53.28 53.77 53.77 53.95 54.11 53.28 52.64 51.67 49.90 43.78 42.86 48.42 49.36 46.98 43.73 37.33 36.26 36.83 41.70 41.63 38.06 35.81 34.82 35.37 34.26 35.71 34.75 34.99 39.03 41.49 40.33 41.57 39.45 35.70 34.44 39.65 40.72 43.74 46.11 44.37 47.27 47.54 45.34 39.84
53.24 53.67 53.67 53.63 53.54 53.70 53.89 53.69 52.47 51.58 50.60 48.40 42.54 38.13 48.75 48.29 42.20 38.72 37.49 36.82 39.00 40.07 42.08 40.07 39.53 38.05 35.95 35.98 34.81 34.71 34.46 37.36 43.01 42.56 36.94 40.54 35.90 30.43 33.96 40.42 43.48 42.86 41.41 46.37 43.89 42.63 45.74
53.05 53.18 53.32 53.75 53.85 53.57 53.67 53.19 52.19 51.15 50.45 47.05 39.57 40.10 48.29 48.07 36.70 36.21 37.73 37.06 38.69 39.34 39.97 39.26 37.66 39.09 39.04 36.13 32.23 35.57 36.82 41.89 43.21 41.25 38.79 40.50 34.30 28.41 31.63 38.32 42.58 40.30 43.30 44.10 47.42 48.26 45.58
52.62 52.65 53.10 52.95 52.81 53.18 53.19 52.95 52.02 51.38 50.27 47.30 42.43 37.86 42.06 42.37 40.36 35.92 32.55 34.81 35.85 41.21 40.67 41.22 39.40 39.19 36.51 34.79 36.94 34.06 35.49 40.79 43.26 41.94 43.84 42.11 35.83 31.89 27.99 33.05 38.69 36.21 40.48 41.80 43.71 43.85 45.26
52.07 52.81 52.48 52.68 52.91 52.93 53.07 53.09 52.42 51.86 49.64 47.43 41.37 37.64 38.55 35.42 37.35 36.11 36.02 35.04 34.70 35.32 40.44 41.36 38.58 37.52 35.78 32.70 33.09 33.33 36.21 37.71 41.73 43.21 41.99 40.11 31.77 34.11 35.05 36.17 35.65 35.70 36.16 38.01 37.91 43.67 45.43
52.59 52.45 52.28 52.70 52.87 52.95 53.15 53.52 53.20 52.21 48.46 45.06 41.51 40.01 39.50 38.55 37.67 36.41 35.67 34.89 34.47 35.93 36.57 35.68 35.46 37.49 37.82 35.30 35.54 33.86 36.06 37.06 36.38 40.23 39.41 40.03 32.29 34.57 31.96 35.30 35.59 34.59 37.66 38.77 39.62 41.34 44.85
52.82 52.88 52.25 52.60 52.78 53.17 53.38 53.66 53.42 52.64 50.64 45.77 42.86 43.40 41.42 38.22 36.97 35.43 35.99 36.29 36.53 38.58 38.87 39.46 38.82 34.27 34.77 37.29 39.74 41.56 42.04 41.26 39.53 37.78 37.52 36.51 33.35 31.07 27.93 34.64 35.14 33.24 37.48 39.34 41.39 45.48 46.28
52.78 52.74 52.18 52.78 53.11 53.19 53.27 53.23 53.48 53.06 51.70 49.55 46.92 45.23 39.79 34.87 36.52 36.74 38.07 38.62 38.14 38.41 36.82 39.06 40.35 37.45 39.99 44.88 43.65 43.04 41.88 40.81 40.14 39.58 40.72 35.06 33.58 32.93 28.34 31.03 25.88 40.67 48.45 45.21 46.83 46.91 49.44
52.69 52.42 52.45 52.82 52.84 52.86 53.27 53.48 53.66 53.63 52.64 50.19 49.43 46.00 41.60 35.82 38.18 38.34 38.11 37.94 39.39 39.97 37.76 38.08 40.56 43.29 45.25 41.32 36.55 33.25 31.89 33.88 35.96 38.60 38.78 39.41 35.14 30.31 27.21 29.23 33.58 42.66 45.23 46.14 47.48 43.47 47.79
52.26 52.13 52.49 52.61 52.88 53.29 53.44 53.56 53.85 53.73 52.89 51.85 50.23 49.86 43.98 38.61 38.08 41.01 38.74 39.08 36.46 35.98 36.82 38.35 43.28 45.11 43.21 38.95 35.30 28.69 26.46 30.45 29.92 33.07 38.98 38.37 38.02 32.12 29.54 27.38 29.00 40.05 44.78 48.42 49.01 42.50 46.13
52.09 52.15 52.18 52.49 52.88 53.40 53.58 53.79 53.76 53.85 53.10 52.47 50.96 50.47 44.79 39.48 42.17 41.93 39.07 38.65 40.91 38.42 34.92 38.27 39.27 39.87 41.70 35.99 32.22 30.46 29.80 31.92 29.74 29.01 29.95 32.31 32.48 28.45 29.04 27.91 31.14 42.13 46.36 48.22 41.96 41.11 45.16
51.74 51.99 52.12 52.62 52.94 53.44 53.58 53.71 53.93 54.06 54.01 53.03 50.73 50.91 47.01 42.01 44.12 44.53 44.07 41.94 41.37 40.78 35.25 39.23 38.42 38.81 37.48 33.40 33.52 32.81 31.96 33.60 33.04 33.23 32.78 30.83 30.12 29.24 30.60 28.40 26.71 42.81 45.52 41.68 44.11 45.51 46.16
51.51 51.87 52.18 52.43 53.09 53.71 53.79 54.06 54.08 53.87 53.99 51.73 49.58 51.71 51.05 45.11 45.22 48.38 48.30 48.16 46.82 46.14 43.08 41.56 39.74 38.69 39.45 34.79 35.68 35.17 33.05 35.06 34.32 30.43 37.20 32.28 33.22 32.69 33.38 33.22 38.05 43.58 44.04 47.11 47.26 45.21 45.42

GFSGBSN_sfc_wetblb_048.txt.gz
Wetbulb
56.06 56.33 56.47 56.34 56.20 56.14 55.83 55.88 55.83 55.93 55.85 55.95 56.09 56.11 56.24 56.14 56.00 56.29 56.54 56.50 56.31 56.17 56.93 57.97 57.23 56.81 57.30 53.28 50.11 59.15 68.35 67.32 64.76 66.30 65.51 62.80 61.35 60.43 57.42 59.40 60.85 61.82 64.42 66.31 65.96 66.62 66.63
55.92 56.06 56.29 56.42 56.30 55.99 55.78 55.62 55.65 55.78 55.71 55.89 56.33 56.33 56.27 56.21 56.25 56.10 55.99 55.78 55.44 55.79 58.12 58.55 57.03 57.59 56.65 48.92 58.02 59.46 63.44 63.71 63.19 65.57 64.87 62.66 61.16 60.82 57.83 57.10 58.10 59.92 61.83 64.91 65.49 66.97 66.33
55.66 55.91 56.10 56.11 56.17 55.90 55.47 55.43 55.70 55.59 55.43 55.74 55.99 55.95 55.96 55.92 55.57 55.41 55.20 54.75 54.98 56.80 58.37 57.87 58.00 58.75 53.88 50.24 57.25 58.50 60.24 62.93 64.24 63.64 62.10 61.84 60.97 59.65 57.47 56.11 60.18 59.91 59.06 61.03 62.87 64.66 64.98
55.78 55.84 55.90 55.98 55.70 55.58 55.48 55.34 55.47 55.67 55.80 55.58 55.86 55.87 55.63 55.72 55.45 54.74 54.33 54.15 55.24 57.37 57.59 58.28 58.85 59.80 51.13 55.84 58.42 55.57 58.04 62.28 64.15 65.02 62.78 63.00 61.67 59.46 56.49 57.35 54.44 54.59 55.25 54.66 61.12 63.01 64.72
55.80 55.73 55.73 55.77 55.53 55.70 55.76 55.50 55.43 55.58 55.47 55.51 55.39 55.45 55.25 55.17 54.79 54.23 53.64 54.56 57.73 58.64 59.04 59.49 59.71 56.67 48.78 57.19 52.78 55.32 55.71 59.32 61.32 61.93 60.71 61.68 60.14 57.83 57.78 52.45 50.48 51.76 49.18 52.04 56.94 63.49 63.97
55.63 55.54 55.58 55.49 55.20 55.32 55.55 55.52 55.23 55.27 55.26 55.10 54.91 54.69 54.50 54.32 53.66 53.25 53.03 54.37 59.95 59.26 59.83 60.06 57.89 51.99 50.66 48.58 51.94 54.91 59.11 61.56 58.97 60.04 55.09 55.10 55.42 52.61 52.85 50.97 46.26 48.50 48.79 52.64 53.33 61.14 63.54
55.54 55.51 55.55 55.32 55.06 54.92 55.18 55.05 54.97 54.82 55.06 54.99 54.73 54.38 54.09 53.76 53.22 52.77 53.76 55.94 55.32 50.90 51.62 47.91 48.08 47.77 48.56 52.00 53.68 54.67 57.59 59.26 58.77 57.98 51.32 52.27 49.65 47.88 50.03 51.76 51.40 51.53 51.93 51.48 55.93 60.47 61.05
55.47 55.28 55.25 55.04 54.93 54.87 54.52 54.40 54.31 54.18 54.65 54.54 54.32 54.07 53.90 53.22 52.52 52.64 55.16 52.15 50.15 51.28 46.86 48.42 48.09 48.63 50.20 51.22 48.52 51.42 57.87 55.72 53.37 50.94 52.77 49.69 46.56 51.01 52.58 51.49 50.67 49.87 50.84 52.60 55.35 58.03 60.43
55.28 55.20 55.03 54.84 54.86 54.70 54.65 54.48 54.54 54.48 54.39 54.11 54.23 53.94 53.29 52.22 52.51 55.61 52.70 51.25 55.20 53.45 47.08 46.36 48.47 48.01 48.52 50.98 47.26 47.69 52.89 52.58 53.44 50.47 49.80 48.36 49.94 51.45 50.05 49.12 48.18 49.20 48.42 49.72 52.12 55.26 57.57
55.08 55.27 55.37 54.78 54.78 54.57 54.56 54.42 54.48 54.37 54.23 54.09 54.05 53.82 52.54 50.95 52.20 54.22 52.42 53.98 56.17 54.43 44.15 43.86 45.97 47.01 48.66 49.63 46.06 50.16 52.20 50.91 50.76 50.94 51.82 49.81 52.18 49.77 48.74 47.88 48.83 46.48 50.22 49.42 49.32 51.27 50.34
55.36 55.42 55.01 55.06 55.04 54.59 54.21 54.31 54.39 54.25 54.09 54.00 53.88 53.14 51.70 50.32 54.53 52.84 53.59 56.54 54.62 50.90 35.03 44.13 44.99 50.36 48.73 46.40 46.66 47.17 52.30 50.11 47.47 48.70 50.91 49.81 50.38 50.35 48.87 49.26 50.69 48.33 50.96 49.37 48.73 48.02 51.23
55.22 55.14 54.90 54.93 54.42 54.42 54.33 54.11 54.17 54.03 53.96 53.80 53.21 52.09 51.13 54.95 55.93 54.42 56.17 54.95 51.15 41.91 34.55 40.98 44.32 43.27 43.93 45.59 45.42 46.75 47.93 50.98 50.61 46.48 50.10 50.40 52.75 51.68 52.21 53.06 52.09 51.60 50.22 49.58 49.47 47.64 42.39
55.00 55.00 55.05 54.94 54.56 54.21 54.07 54.13 54.03 53.90 53.41 52.84 51.65 50.53 51.15 55.57 53.30 56.13 56.10 50.78 41.30 36.96 42.85 39.96 40.92 42.83 42.65 41.94 42.77 43.64 44.27 44.75 44.43 40.79 42.85 46.81 48.11 51.86 52.89 50.99 53.59 51.48 48.75 43.57 42.31 42.11 41.11
54.78 55.00 55.26 54.93 54.39 54.11 54.13 54.27 54.07 53.70 52.80 51.82 50.14 49.11 50.75 54.99 56.33 55.46 53.64 46.03 36.14 39.93 40.26 42.77 41.82 41.66 40.20 41.71 42.11 41.73 41.91 42.43 44.44 44.52 43.27 40.95 39.85 47.03 49.07 50.14 50.05 49.90 49.37 45.49 40.68 41.73 43.14
54.44 54.58 54.90 54.40 54.13 54.03 54.07 54.05 53.72 52.81 52.17 51.26 49.65 55.56 56.09 54.75 55.17 55.37 49.31 39.86 39.87 40.46 41.84 40.63 41.12 39.57 40.21 41.01 40.99 40.89 41.00 41.97 43.14 44.47 40.24 40.98 40.23 47.31 47.70 49.71 50.76 49.76 47.47 51.71 48.09 49.45 46.27
54.07 54.05 54.16 54.05 54.09 54.00 54.05 53.90 53.14 52.29 52.01 50.90 51.41 53.50 51.25 55.24 54.25 52.29 45.92 38.96 41.37 43.38 43.08 42.46 38.63 40.49 38.13 39.79 38.99 40.01 39.69 43.47 41.84 43.66 44.88 42.71 37.14 42.73 44.98 47.34 49.68 49.80 53.01 46.69 47.38 41.22 40.91
53.65 53.69 53.81 53.77 54.05 53.98 53.99 53.74 52.95 52.13 51.50 50.66 51.36 48.91 51.93 55.42 52.72 49.08 42.47 43.55 42.21 44.64 44.55 41.59 40.43 40.05 40.01 39.30 39.74 39.97 39.52 42.23 43.76 42.73 44.49 43.31 39.35 40.54 41.83 41.86 44.29 47.31 46.73 48.53 49.77 47.66 43.50
53.56 53.44 53.58 54.03 53.17 53.82 54.05 53.64 52.67 51.62 50.29 50.99 50.67 44.84 52.94 55.40 48.77 48.50 44.91 42.15 40.56 43.68 44.82 43.40 42.95 42.12 40.69 40.83 39.56 39.81 38.88 40.96 45.09 44.62 39.63 43.60 40.93 37.19 39.31 43.48 45.02 44.67 46.44 48.61 44.72 44.78 47.81
53.01 52.63 53.05 52.84 53.52 53.50 53.86 53.35 52.39 51.42 50.36 51.27 48.16 48.10 53.64 54.14 44.33 43.51 43.44 42.04 42.59 42.79 43.05 42.37 41.22 42.37 43.47 40.63 37.11 39.72 39.83 42.96 44.86 43.38 40.82 43.18 38.79 34.12 36.82 40.72 43.36 41.37 44.30 47.03 48.31 48.81 46.16
52.49 52.68 53.21 53.02 53.25 53.48 53.60 53.31 52.50 51.63 50.74 51.41 48.87 45.56 48.78 48.78 45.57 39.72 37.57 39.61 39.89 43.81 43.04 43.90 43.17 44.01 41.41 39.77 41.51 37.90 38.78 41.79 44.34 44.04 44.35 42.92 39.20 36.67 34.02 37.66 40.20 39.22 42.23 45.42 46.60 43.70 45.55
52.53 52.82 52.60 52.85 53.17 53.52 53.70 53.68 52.97 52.02 51.04 51.09 48.65 43.87 44.30 38.83 40.15 40.45 40.19 39.04 36.15 36.49 42.54 43.48 40.99 40.60 39.32 36.47 38.40 37.54 39.09 40.20 42.83 44.54 44.47 42.60 36.16 38.45 39.01 39.39 39.40 38.87 38.61 41.16 42.03 44.55 42.66
52.71 52.88 52.64 52.86 53.39 53.52 53.64 53.98 53.53 52.46 51.38 51.90 46.08 44.16 43.18 39.70 39.83 40.47 39.57 39.12 37.66 37.61 37.74 37.14 37.80 39.21 38.95 37.05 39.19 36.67 38.54 39.35 39.18 43.14 41.11 42.58 36.53 38.19 36.29 39.32 39.06 37.06 38.66 39.45 41.23 42.85 44.32
53.00 53.13 52.74 53.17 53.48 53.44 53.40 53.66 53.60 52.59 51.61 49.97 47.11 45.18 44.10 38.82 38.85 39.13 38.52 37.45 37.71 39.29 39.92 40.89 39.56 37.67 35.70 38.72 40.98 42.69 43.72 43.48 42.38 41.29 40.54 39.06 38.02 35.96 32.25 37.57 37.30 33.88 38.15 39.81 41.09 44.21 45.21
53.10 52.44 52.96 53.21 53.25 53.35 53.49 53.72 53.82 52.90 52.19 51.45 48.29 46.69 42.29 40.35 41.82 39.39 39.64 41.30 38.64 40.53 37.91 40.84 41.79 39.38 42.92 46.91 46.55 45.07 44.33 43.96 43.91 42.81 43.94 39.73 37.29 36.90 32.99 35.52 26.31 38.15 43.32 43.54 42.42 44.09 47.47
52.71 52.69 52.94 53.04 53.29 53.41 53.74 53.82 53.82 53.22 52.71 53.01 51.40 47.64 43.83 38.56 40.34 39.79 39.87 39.79 41.14 40.89 39.66 41.16 42.14 44.82 47.07 44.00 37.59 36.15 36.49 37.05 39.70 42.30 40.75 42.01 37.84 32.72 30.37 30.65 35.21 38.11 41.95 44.65 42.36 42.99 47.40
52.50 52.46 52.71 53.06 53.39 53.50 53.62 53.91 53.87 53.39 52.91 54.72 54.06 52.77 46.10 41.07 41.33 42.37 39.68 41.64 37.83 38.51 40.45 41.44 46.32 48.44 45.34 40.39 37.02 31.45 30.95 33.23 32.03 36.19 43.08 39.77 41.12 35.04 33.48 27.04 24.97 37.35 37.89 40.88 48.09 40.31 52.81
52.29 52.23 52.62 53.08 53.21 53.50 53.88 53.98 53.85 53.99 53.09 54.17 53.34 54.22 47.15 45.25 48.18 45.36 40.60 39.55 42.06 40.19 37.61 41.85 43.50 41.90 43.47 37.22 33.87 33.56 32.47 34.57 30.18 31.30 32.85 35.45 36.42 31.33 30.97 29.72 32.95 39.45 39.67 41.39 35.57 43.96 51.72
51.96 52.09 52.79 53.00 53.22 53.60 53.86 53.85 54.07 54.14 53.80 53.64 53.07 53.79 50.02 46.26 47.26 48.00 46.87 44.59 42.72 42.61 37.96 40.73 42.31 41.60 38.44 35.07 35.19 34.72 33.30 34.90 32.58 34.75 33.52 32.88 31.23 30.76 32.29 28.65 26.17 41.18 38.41 37.04 46.20 48.05 46.80
51.88 52.23 52.81 52.91 53.18 53.68 53.88 54.30 53.95 54.05 54.15 52.71 50.87 53.96 53.41 46.65 49.15 51.89 51.59 51.74 49.34 48.42 44.44 45.28 42.76 41.45 40.51 36.29 37.40 35.96 34.21 36.45 35.11 31.81 35.75 31.55 35.11 33.29 33.48 34.86 40.71 39.57 39.09 46.60 47.08 46.58 46.23

GFSGBSN_sfc_wetblb_051.txt.gz
Wetbulb
56.59 56.72 57.03 56.84 56.78 56.59 56.23 56.44 56.26 56.71 56.39 56.59 56.70 56.91 56.91 56.67 56.33 56.57 56.82 56.72 56.58 56.48 56.82 58.37 58.59 57.75 58.18 56.47 54.08 60.16 68.72 68.39 67.63 63.46 65.99 65.00 62.48 62.07 58.51 60.19 62.89 62.89 63.69 66.39 67.34 67.57 67.01
56.38 56.52 56.69 56.66 56.59 56.16 56.07 55.95 55.98 56.06 56.11 56.33 56.69 56.68 56.47 56.45 56.40 56.32 56.29 56.08 55.82 55.91 57.35 59.70 58.85 58.09 59.20 52.74 58.38 59.68 64.26 66.20 64.93 61.39 65.06 65.09 62.43 63.23 60.18 59.63 59.79 61.68 63.12 65.22 67.35 66.34 66.70
56.45 56.47 56.45 56.51 56.17 56.03 55.72 55.60 55.37 55.48 55.55 55.64 56.35 56.27 56.23 56.14 55.63 55.71 55.59 55.10 55.64 56.55 58.92 58.90 58.54 59.42 57.94 53.18 58.27 59.70 63.22 62.93 62.39 62.82 64.12 65.16 64.17 61.80 59.77 57.55 59.63 60.19 58.91 61.34 65.67 66.99 64.27
56.36 56.38 56.36 56.23 55.93 55.76 55.56 55.27 55.17 55.50 55.53 55.60 55.68 56.02 55.98 55.78 55.39 54.96 54.66 54.58 56.73 58.48 57.99 58.86 59.82 62.66 53.60 56.88 59.38 57.21 60.17 63.35 65.02 66.16 66.25 64.70 63.93 60.66 59.94 59.32 56.22 56.54 58.07 57.40 63.55 65.38 65.97
56.32 56.27 56.16 55.97 55.94 55.97 55.94 55.71 55.55 55.60 55.51 55.50 55.61 55.57 55.67 55.56 55.28 54.53 53.98 54.15 58.88 59.31 59.63 60.42 61.53 61.23 51.70 58.26 54.46 56.95 58.45 61.20 63.66 64.71 63.94 64.10 61.94 58.29 58.65 54.09 52.87 52.70 51.29 54.22 57.55 64.77 64.22
56.09 56.04 55.93 55.91 55.57 55.69 55.80 55.58 55.17 55.21 55.38 55.28 55.07 55.03 55.13 54.97 54.25 53.59 53.33 53.65 59.75 59.55 60.67 62.30 60.43 54.68 52.64 51.09 54.18 56.66 59.32 61.48 60.70 61.69 59.15 59.30 57.82 55.16 55.47 53.69 47.35 48.97 50.44 53.71 54.91 61.89 63.42
55.96 55.87 55.73 55.51 55.39 55.59 55.58 55.31 54.89 55.00 55.10 55.09 54.97 54.82 54.68 54.39 53.61 52.68 54.27 57.72 57.60 56.02 55.31 50.92 51.50 50.58 50.85 54.13 55.85 56.54 61.43 60.66 61.07 59.01 52.52 55.52 52.58 50.24 53.55 54.97 54.04 52.84 51.82 52.32 56.30 60.65 61.29
55.91 55.74 55.44 55.21 55.10 55.23 55.15 54.78 54.89 54.77 55.05 55.07 54.92 54.72 54.37 53.90 52.96 52.50 55.58 53.92 52.64 53.79 49.30 51.17 50.77 51.30 52.41 53.82 50.55 54.16 59.95 56.68 55.49 53.77 55.53 52.32 49.13 53.58 54.60 54.04 52.75 52.17 51.12 52.70 55.64 59.66 62.11
55.90 55.66 55.28 55.07 55.21 55.25 55.02 54.99 54.93 54.98 54.90 54.86 54.58 54.45 53.80 52.98 52.33 54.25 54.80 53.09 57.03 56.43 49.46 49.69 50.85 50.13 50.62 52.63 49.63 49.64 54.88 56.43 54.01 52.90 54.09 51.77 51.95 53.66 52.94 52.36 51.15 51.24 50.55 51.92 54.41 57.43 59.73
55.90 56.14 55.83 55.57 55.43 55.30 55.07 54.89 54.78 54.76 54.63 54.55 54.35 54.10 53.18 51.73 51.92 56.16 54.37 56.58 57.64 56.39 46.26 46.48 47.42 49.33 50.61 51.43 48.39 51.65 53.03 53.76 53.30 51.86 51.64 51.85 54.24 52.13 51.52 50.46 51.98 49.59 52.78 51.76 52.34 54.62 52.21
55.97 56.00 55.76 55.77 55.47 55.08 54.70 54.57 54.64 54.70 54.49 54.25 54.04 53.12 51.90 50.48 56.60 54.81 55.44 57.66 56.62 54.59 37.45 47.07 47.73 52.22 50.52 48.78 49.26 49.30 52.62 51.97 49.69 50.71 53.37 50.94 50.88 50.77 49.95 50.77 52.37 50.65 53.67 51.63 50.61 50.44 52.20
55.63 55.37 55.15 55.30 54.77 54.47 54.49 54.41 54.55 54.35 54.15 53.71 53.16 52.15 51.44 56.12 57.95 56.26 57.66 57.27 54.00 43.34 36.69 43.74 47.01 46.03 46.71 47.58 47.83 49.06 49.00 51.30 52.41 49.73 51.57 52.10 55.58 53.48 52.56 53.29 53.33 54.00 52.08 51.99 51.21 49.34 44.78
55.74 55.11 54.89 54.95 54.53 54.48 54.31 54.41 54.25 53.86 53.18 52.48 51.53 50.36 51.73 57.48 55.21 57.84 57.67 54.02 43.49 38.74 46.61 43.36 44.04 45.69 45.40 45.31 46.05 46.22 46.67 46.77 45.11 42.49 43.56 47.77 49.49 53.74 54.31 51.65 53.95 52.66 50.28 45.07 44.07 43.73 42.81
55.01 54.75 54.96 55.07 54.66 54.39 54.31 54.41 53.94 53.22 52.54 51.67 50.09 49.16 53.97 56.09 57.36 57.20 55.69 48.45 39.15 43.18 43.50 45.99 44.52 44.50 43.11 45.23 45.82 44.86 45.14 44.68 47.70 47.15 44.93 43.59 42.39 48.28 52.46 51.22 51.15 51.31 50.44 46.41 41.78 43.59 45.08
54.56 54.25 54.61 54.72 54.48 54.39 54.25 53.79 53.29 52.83 52.29 51.25 49.61 57.01 57.73 56.47 57.05 56.75 51.13 42.93 42.73 44.42 45.08 43.21 44.53 42.33 43.51 44.49 43.83 44.09 45.02 44.82 46.75 46.93 43.36 42.98 43.58 49.82 50.84 51.96 52.50 51.34 49.03 52.43 48.43 50.41 47.91
54.53 54.10 53.94 54.46 54.34 53.91 53.67 53.70 53.45 52.87 52.38 50.93 54.68 54.64 53.36 56.52 57.52 54.17 47.94 42.30 44.87 46.62 45.79 45.09 41.43 44.38 42.06 44.09 42.44 43.74 44.56 46.48 45.30 46.40 47.82 46.06 42.39 47.98 48.51 50.50 51.46 50.69 54.12 48.13 48.21 42.57 42.74
54.14 54.08 53.53 53.90 54.27 54.03 54.26 54.01 53.37 52.67 51.72 50.65 54.21 51.58 54.85 58.18 56.65 51.05 45.42 47.15 46.72 48.38 47.34 45.13 43.90 43.75 44.10 43.24 43.61 43.50 43.47 45.50 45.99 45.66 46.45 46.08 44.25 44.21 46.04 44.95 45.08 46.09 46.37 49.54 50.33 48.72 43.98
53.28 53.04 53.69 53.82 54.06 54.21 54.36 54.09 53.12 51.92 50.90 52.58 54.82 49.40 56.65 58.05 49.73 52.29 47.63 46.50 42.05 47.13 48.10 45.95 46.17 44.80 43.96 44.48 43.19 42.86 42.81 45.42 47.40 46.53 43.34 45.45 43.57 40.84 42.97 46.91 47.41 46.75 46.84 47.47 44.94 45.80 49.12
53.11 52.97 53.70 53.80 53.96 54.36 54.44 54.02 53.09 51.83 51.44 53.16 52.44 52.96 57.14 56.74 45.50 48.19 47.32 46.02 46.23 45.77 46.21 45.65 44.61 46.32 46.37 42.27 39.53 43.04 43.86 47.12 46.45 45.24 43.55 45.72 42.09 37.83 40.39 44.26 46.29 43.34 45.59 48.42 49.44 48.99 47.62
53.09 53.44 53.73 53.75 54.09 54.48 54.52 54.08 53.00 52.30 52.02 52.84 52.55 49.09 52.36 51.71 50.10 46.60 45.22 43.85 43.67 46.92 45.68 46.27 45.31 45.80 43.97 41.88 44.27 41.39 42.39 44.30 45.16 45.86 45.75 44.74 42.59 40.79 38.21 41.55 43.32 42.71 42.93 45.29 46.95 44.43 46.13
53.05 53.42 53.63 53.52 53.70 54.16 54.72 54.15 53.25 52.47 52.05 52.68 52.64 47.26 48.30 46.17 45.80 46.45 45.98 44.45 41.43 40.90 45.69 46.23 42.99 42.40 42.18 39.74 40.82 40.04 43.28 43.82 45.08 46.18 45.58 44.36 38.12 41.06 41.82 42.49 42.29 41.56 42.39 43.72 43.41 45.35 43.71
53.45 53.34 53.44 53.58 53.93 54.20 54.28 54.25 53.84 52.80 51.72 54.06 49.79 48.83 50.57 46.67 45.47 45.22 43.65 40.39 39.56 39.65 39.66 40.74 40.01 41.69 42.54 38.87 39.82 38.96 39.51 42.10 42.12 44.32 43.31 44.14 37.61 39.65 39.34 42.35 41.77 39.89 41.77 42.29 42.23 42.81 45.30
53.51 53.17 53.64 53.68 53.85 53.95 54.17 54.49 54.23 52.96 51.98 51.68 52.21 51.85 49.52 41.22 44.01 42.00 40.60 40.55 40.44 42.65 43.30 44.20 42.38 41.11 39.76 42.29 44.79 46.56 47.32 46.01 44.32 43.95 42.79 42.08 39.92 38.00 35.15 41.33 40.59 36.78 40.79 41.64 42.54 43.81 43.17
53.22 53.27 53.68 53.60 53.73 54.05 54.14 54.34 54.33 53.43 52.46 54.48 52.72 52.22 46.96 43.76 44.50 42.13 41.52 42.29 41.92 41.89 40.51 43.27 44.56 41.09 45.07 48.92 48.25 47.78 46.51 46.09 45.81 44.39 44.95 41.17 40.85 40.31 35.23 37.84 28.73 40.90 45.12 44.18 42.58 43.89 45.29
52.90 53.14 53.28 53.49 53.82 53.99 54.06 54.45 54.32 53.22 53.01 55.40 54.95 51.18 46.87 43.25 44.27 42.58 41.53 42.72 43.03 43.65 42.30 43.20 44.31 46.42 48.49 46.43 40.72 38.68 40.30 39.60 42.43 44.60 44.16 44.70 41.97 36.93 32.57 33.31 37.70 40.15 42.50 41.95 40.97 40.22 46.94
52.85 52.85 53.20 53.54 53.83 54.00 54.15 54.30 54.04 53.18 53.08 55.15 55.23 53.49 51.01 45.97 45.37 45.83 44.22 43.96 41.01 42.34 44.12 43.71 47.83 49.71 48.19 43.25 38.24 32.79 33.77 35.54 36.42 38.30 44.08 43.62 43.80 37.16 36.12 30.11 27.77 39.80 44.09 46.52 44.38 37.32 47.51
52.71 52.72 53.16 53.59 53.66 54.08 54.16 53.97 54.28 53.77 53.32 53.09 53.88 56.36 53.07 48.49 50.22 48.04 45.01 44.24 44.45 43.95 39.76 44.96 45.24 44.29 46.53 38.17 34.97 34.91 34.51 37.07 32.93 32.94 35.38 36.94 38.77 33.17 35.50 32.08 36.22 43.43 44.11 44.99 32.51 38.90 49.07
52.54 52.56 53.06 53.37 53.53 54.10 54.00 54.09 54.25 54.39 53.88 53.80 55.75 58.23 52.37 51.27 51.63 51.22 49.58 45.51 46.89 45.53 41.26 45.95 43.87 44.17 40.46 36.64 36.25 35.98 35.06 36.64 33.26 35.39 36.27 35.80 34.60 33.86 34.38 31.64 29.23 44.28 43.08 36.30 43.81 43.29 41.82
52.14 52.29 52.81 53.28 53.19 54.14 53.89 54.22 54.08 54.35 54.46 53.21 52.45 57.64 56.54 49.30 52.02 54.93 54.53 53.94 51.39 50.26 48.38 47.09 44.43 42.85 41.60 37.82 37.88 36.78 34.88 37.08 35.26 31.79 38.16 34.59 38.49 35.72 37.27 36.94 43.93 44.37 42.29 44.24 42.62 42.34 43.44

GFSGBSN_sfc_wetblb_057.txt.gz
Wetbulb
57.61 57.42 57.36 57.27 57.28 57.27 56.44 56.08 56.08 56.39 56.29 56.03 56.15 56.35 56.46 56.82 56.89 56.99 57.11 56.95 56.69 56.63 57.49 57.60 58.48 59.42 54.45 51.19 53.12 63.42 71.15 70.14 66.04 61.38 55.72 57.27 60.29 59.54 57.10 59.16 60.17 59.16 60.47 62.71 65.32 65.75 66.80
57.35 57.29 57.01 57.09 56.91 56.71 56.38 55.96 55.73 55.98 55.81 55.85 55.99 56.50 56.84 56.62 56.83 56.91 57.13 56.53 56.01 56.16 58.63 58.85 60.19 58.99 51.73 50.41 57.55 62.60 66.02 65.17 61.79 58.97 55.84 58.54 62.28 62.90 59.67 59.19 57.62 59.92 60.03 60.08 62.41 65.89 66.72
57.24 57.16 56.86 56.75 56.74 56.38 56.06 55.69 55.45 55.63 55.46 55.59 56.06 56.61 56.65 56.69 56.45 56.43 56.29 55.81 55.33 55.96 59.30 59.85 60.46 57.69 55.71 55.39 57.70 56.84 56.66 63.75 61.68 58.82 54.16 59.67 64.29 62.24 59.64 56.53 59.91 57.25 53.75 56.30 57.90 63.09 64.43
57.46 57.02 56.81 56.60 56.46 56.57 56.28 55.65 55.64 55.70 55.91 55.74 56.01 56.18 56.34 56.22 56.14 56.05 55.66 54.99 54.75 56.15 59.64 59.27 59.77 57.01 53.91 61.59 54.66 55.95 55.69 58.50 63.29 59.91 56.62 60.06 63.88 62.10 57.97 58.70 57.45 52.53 50.61 47.02 55.57 60.35 64.52
57.70 57.37 56.57 56.21 56.13 56.36 56.39 56.11 55.53 55.73 55.78 55.91 55.95 55.97 56.01 55.93 55.76 55.25 54.19 54.09 55.49 57.16 59.94 60.04 56.28 54.36 53.06 59.41 53.05 54.21 54.03 56.51 60.00 60.09 57.91 59.16 59.76 57.78 56.96 51.24 48.43 49.91 42.82 46.67 50.97 57.00 63.41
58.02 57.55 56.79 56.29 55.80 56.28 56.24 56.00 55.68 55.50 55.61 55.81 55.72 55.52 55.42 55.21 54.76 53.91 53.32 53.97 56.93 55.63 58.85 59.98 58.86 51.21 55.94 52.58 52.39 54.75 54.96 55.99 57.84 56.60 55.69 55.28 56.62 51.52 50.68 45.72 41.36 45.00 44.18 45.82 47.52 54.30 62.08
58.18 57.11 56.42 56.15 55.81 56.39 56.22 55.76 55.38 55.39 55.67 55.54 55.32 55.17 54.78 54.46 54.05 53.07 51.03 50.62 50.99 48.95 51.12 51.36 51.44 53.40 53.35 52.45 53.75 53.26 56.30 55.27 57.82 55.86 50.77 55.15 49.15 46.94 48.42 50.05 50.61 50.30 49.08 47.54 49.48 53.33 58.47
58.19 57.02 56.20 55.99 56.27 56.18 55.86 55.48 55.31 55.20 55.34 55.38 55.17 54.66 54.21 53.78 53.12 52.47 50.76 48.27 49.19 49.13 44.89 52.69 54.25 53.46 51.60 50.91 49.49 53.77 57.53 50.59 53.56 49.57 53.16 49.72 47.17 52.65 54.25 53.07 51.31 49.67 48.05 47.76 51.17 52.39 52.30
57.66 56.92 56.29 56.20 56.16 55.89 55.53 54.92 54.95 55.09 55.09 55.01 54.70 54.26 53.60 52.86 52.39 52.20 50.74 51.62 53.94 52.57 43.93 48.68 50.12 49.65 48.33 48.71 48.02 50.59 53.65 54.41 51.95 49.81 51.50 46.81 49.80 54.60 53.29 51.65 48.99 48.57 46.46 47.76 47.82 50.81 54.64
57.30 56.79 56.51 55.92 55.95 55.53 55.10 54.95 54.99 54.85 54.78 54.44 54.30 54.05 53.17 51.94 49.71 51.31 51.45 54.28 53.74 53.09 38.22 45.19 46.08 48.10 49.41 48.35 45.41 52.49 51.65 49.74 50.12 48.78 50.20 48.93 53.10 51.58 50.63 49.46 49.54 42.76 50.38 50.71 49.34 46.14 40.83
56.91 56.29 55.85 55.68 55.53 55.16 54.99 54.80 54.70 54.46 54.19 54.05 54.07 53.47 52.00 50.80 47.60 48.55 53.98 53.29 52.25 49.81 30.82 46.58 46.01 50.81 48.16 44.84 46.86 47.71 51.78 47.92 44.79 46.30 46.77 46.57 48.98 49.86 49.17 49.29 50.23 47.14 51.21 49.26 49.23 44.90 42.62
56.41 55.75 55.38 55.35 55.14 55.07 54.72 54.38 54.22 54.05 54.13 53.97 53.47 52.53 51.50 52.29 49.66 51.20 54.35 54.06 50.95 37.37 33.40 43.97 47.14 45.51 44.05 45.00 46.58 48.93 48.74 48.80 48.65 45.51 46.24 46.06 50.80 50.56 50.80 52.94 51.93 51.92 48.68 47.13 45.96 42.63 37.86
55.60 55.24 54.99 55.00 54.91 54.62 54.08 53.93 54.05 54.03 53.68 53.17 52.23 50.86 49.91 52.77 50.64 55.56 53.51 49.62 37.31 33.05 46.44 42.44 42.34 44.28 43.53 43.36 44.97 44.72 44.83 42.47 39.17 34.54 36.74 44.45 46.41 49.49 51.45 47.75 49.37 47.99 41.77 34.82 34.21 36.27 36.72
55.56 55.33 55.02 54.85 54.58 54.28 54.16 54.24 54.15 53.87 53.29 52.46 50.86 49.69 52.57 55.11 55.14 54.23 50.87 43.00 34.13 43.27 41.86 45.21 44.56 43.32 41.52 44.51 43.50 45.07 42.17 39.88 44.53 41.89 37.65 36.18 36.23 43.87 49.59 47.77 44.78 44.62 42.37 35.90 31.52 33.89 37.83
55.36 54.87 54.47 54.73 54.67 54.36 54.30 54.38 54.07 53.76 52.88 51.80 50.17 54.49 53.77 56.07 56.93 52.05 45.43 37.06 38.92 42.48 44.92 43.64 42.95 39.24 39.62 42.21 41.52 42.63 40.82 40.79 43.43 44.17 35.51 36.31 38.40 47.15 48.59 50.44 49.77 44.87 41.25 44.86 38.54 42.32 36.93
54.99 54.80 54.77 54.63 54.66 54.50 54.54 54.38 54.11 53.70 52.55 51.20 49.25 51.90 54.00 55.88 53.98 50.26 42.85 39.46 43.58 46.57 46.50 45.72 39.93 42.44 39.37 42.53 40.38 40.39 40.37 44.24 44.45 46.21 44.33 40.16 34.01 42.59 46.58 48.59 49.80 46.21 47.07 38.87 39.67 32.15 31.93
54.68 54.81 54.75 54.73 54.64 54.64 54.75 54.68 54.23 53.25 51.96 51.09 51.45 50.53 54.67 57.37 55.13 47.91 40.27 44.39 46.49 49.13 48.48 44.25 42.33 41.21 41.56 41.28 42.35 41.68 42.16 44.35 46.18 45.64 44.89 39.42 35.76 38.05 42.69 41.05 40.85 42.48 39.96 40.88 40.15 38.71 34.21
54.73 54.77 54.63 54.02 54.66 54.87 55.01 54.66 53.83 52.41 51.27 51.72 52.22 47.50 55.51 56.44 46.91 49.08 44.60 45.83 46.83 47.00 48.93 46.96 46.43 44.68 42.32 42.66 40.66 40.67 41.24 44.10 47.61 46.08 41.28 42.29 35.87 32.27 37.06 43.78 45.60 43.83 39.07 38.86 34.41 35.17 38.74
54.93 54.75 54.49 54.43 54.87 55.15 55.07 54.40 53.42 52.47 52.24 49.35 48.86 51.08 55.44 55.06 43.46 44.46 47.15 45.94 46.13 44.90 44.85 44.51 44.04 44.56 44.39 40.96 37.29 42.08 43.29 47.44 47.45 44.97 40.60 40.97 34.93 29.83 33.09 37.07 41.60 40.43 41.05 38.04 38.02 36.30 35.03
54.89 54.65 54.60 54.93 55.05 55.24 55.05 54.48 53.50 52.86 52.53 50.09 49.85 46.60 50.29 51.03 49.10 44.94 43.76 43.44 42.75 46.44 44.77 45.58 44.47 44.86 41.84 39.01 41.19 39.42 41.75 46.02 47.41 46.08 49.40 44.99 34.79 31.95 28.95 33.77 38.87 37.42 40.42 41.79 36.61 31.09 33.35
54.31 54.16 54.49 55.01 55.24 55.28 55.25 54.68 53.93 53.05 52.43 50.75 51.42 45.60 48.63 41.86 43.76 44.55 44.42 42.47 40.81 40.10 44.49 45.11 43.29 41.85 39.28 35.08 37.63 37.70 41.40 42.91 45.56 48.02 44.57 39.48 31.68 35.08 37.36 39.46 39.92 39.31 39.34 40.76 38.39 37.84 32.35
54.16 54.24 54.51 54.85 55.26 55.48 55.36 55.01 54.56 53.23 51.92 52.58 46.75 46.03 48.11 44.74 46.46 44.41 42.83 40.85 40.83 41.29 42.34 40.64 40.23 41.63 41.56 36.07 37.81 36.00 38.44 38.75 38.06 41.89 40.22 40.45 33.26 35.47 34.75 39.26 39.34 37.81 40.22 41.24 41.20 41.38 40.32
54.01 53.95 54.00 54.45 55.14 55.34 55.38 55.29 54.82 53.17 52.46 52.25 53.31 53.38 48.95 44.69 44.01 41.83 40.79 42.14 42.37 43.57 44.01 44.41 43.28 41.37 39.66 41.37 43.84 42.99 42.90 41.87 40.76 38.32 37.74 37.62 35.20 33.31 29.55 37.06 37.18 33.08 38.00 39.90 41.09 42.78 40.75
54.03 53.81 53.85 54.30 54.57 55.04 55.36 55.52 55.23 54.27 52.88 52.89 52.92 51.99 47.90 41.48 42.83 42.10 43.56 44.27 43.32 43.49 41.73 44.32 45.18 41.46 44.51 47.87 46.97 45.21 43.83 42.88 42.54 40.74 40.46 37.10 35.76 36.67 29.57 32.44 24.17 36.70 43.07 43.69 42.01 43.01 43.96
53.84 53.40 53.60 54.10 54.53 54.88 55.56 55.93 55.96 55.09 53.60 54.10 54.03 51.52 48.38 42.89 45.50 45.07 45.07 44.02 45.21 45.33 43.49 44.55 45.71 47.39 47.91 45.14 38.25 35.70 37.66 38.53 40.37 41.84 40.91 41.94 36.45 31.88 26.29 27.93 33.22 37.14 40.12 39.87 37.87 37.76 44.05
53.37 53.29 53.46 54.01 54.16 54.78 55.51 55.77 55.89 55.53 54.13 54.87 54.76 55.62 51.52 46.77 43.86 47.45 45.86 45.52 41.69 41.25 43.25 45.18 48.52 49.18 46.49 40.57 37.65 33.06 30.16 33.23 32.95 36.06 41.39 40.33 39.71 36.87 33.21 25.45 23.78 34.17 42.04 44.67 42.56 32.34 43.94
53.19 53.06 53.13 53.72 54.06 54.44 55.26 55.59 55.77 56.12 55.15 53.24 55.16 57.57 53.35 49.02 49.12 49.62 44.28 43.83 46.70 43.99 41.51 43.85 44.82 44.21 45.23 37.29 34.34 31.43 31.54 36.28 29.55 30.52 31.68 32.76 33.94 31.40 32.91 32.08 34.30 39.26 41.80 46.02 33.20 32.97 43.19
52.75 52.63 52.69 53.43 53.73 54.09 55.11 55.33 55.67 55.71 55.86 53.39 55.80 57.80 53.21 49.98 50.79 52.26 51.10 48.46 47.26 45.88 41.32 44.91 44.24 43.53 40.45 35.67 34.21 33.51 32.44 34.12 33.05 34.02 33.18 32.05 31.27 32.29 32.91 31.28 26.88 41.12 40.65 35.77 39.15 41.06 41.68
52.69 52.46 52.30 53.33 53.56 53.66 54.57 55.36 55.89 55.53 55.50 54.24 53.96 58.13 57.19 51.54 50.90 55.15 55.71 55.35 53.71 51.35 47.06 46.51 44.22 43.05 41.97 39.30 38.34 37.42 33.86 35.95 34.11 29.41 37.18 30.55 35.65 32.03 32.70 33.00 39.51 41.62 40.00 41.72 41.76 39.89 40.30

GFSGBSN_sfc_wetblb_060.txt.gz
Wetbulb
57.62 57.58 57.50 57.22 57.12 56.85 56.56 56.18 56.10 56.09 55.78 55.93 56.32 56.48 56.67 56.75 56.90 57.07 57.16 56.98 56.70 56.48 56.72 58.68 58.31 59.32 53.58 48.97 49.01 62.87 70.68 69.45 66.43 59.60 53.76 53.85 55.81 56.37 52.92 56.99 59.51 57.13 59.44 62.13 64.11 66.21 64.55
57.64 57.55 57.26 57.06 56.99 56.56 56.26 55.94 55.81 55.67 55.54 55.73 56.13 56.32 56.58 56.54 56.53 56.72 56.64 56.31 55.94 55.94 56.48 59.63 59.71 59.27 49.63 47.84 60.69 64.62 65.30 65.12 61.56 57.77 54.58 53.67 56.98 60.73 57.84 57.09 56.50 59.22 58.58 58.54 66.11 64.46 64.13
57.82 57.63 57.30 56.87 56.84 56.47 56.04 55.86 55.76 55.59 55.56 55.54 56.04 56.43 56.35 56.51 56.38 56.41 56.01 55.53 55.28 55.67 56.38 60.02 59.91 57.32 52.16 51.47 59.58 64.24 64.09 61.07 60.09 58.47 52.78 55.21 57.23 56.81 59.50 55.76 59.65 58.79 54.01 53.45 61.20 65.26 64.19
58.38 57.79 57.28 56.97 56.76 56.47 56.28 55.77 55.52 55.42 55.45 55.54 55.62 55.78 56.08 55.86 55.80 55.61 55.50 54.72 54.75 55.91 56.65 59.91 60.13 55.19 49.12 62.13 60.48 56.91 61.90 61.05 60.99 58.34 55.41 55.53 57.67 57.09 58.18 59.71 55.84 51.26 48.48 44.33 54.27 64.17 64.92
58.85 58.15 57.20 56.77 56.75 56.64 56.50 55.92 55.27 55.75 55.71 55.89 55.87 55.75 55.61 55.56 55.58 55.01 54.01 53.92 55.12 56.87 57.97 60.38 53.71 51.54 50.24 62.33 51.90 52.71 53.00 52.98 60.19 56.71 55.88 57.57 54.39 53.08 55.12 50.14 45.56 46.96 42.74 45.10 48.25 57.89 62.59
59.22 58.28 57.19 56.64 56.18 56.47 56.42 56.14 55.66 55.35 55.73 55.74 55.62 55.39 55.33 55.09 54.64 53.82 53.25 53.52 54.54 56.30 58.22 59.50 57.88 48.59 52.56 53.19 51.10 52.84 52.64 57.13 57.62 56.55 54.83 52.72 49.38 46.73 47.73 44.77 38.54 42.34 42.93 43.18 44.84 49.79 60.52
59.05 58.36 57.27 56.42 56.06 56.14 56.06 55.49 55.09 55.12 55.52 55.54 55.41 54.95 54.82 54.48 53.78 52.98 51.01 47.46 46.11 46.26 49.28 47.14 48.90 50.66 52.22 53.25 52.05 50.45 53.86 52.83 55.33 52.13 46.40 50.38 46.32 44.21 47.54 48.12 48.51 47.23 45.69 45.30 49.29 52.52 51.62
58.61 57.70 56.82 56.28 55.72 55.63 55.01 54.60 54.65 54.97 55.09 55.21 54.93 54.62 54.33 53.88 53.11 52.31 49.28 43.78 47.33 46.79 42.10 50.16 52.43 52.89 54.72 52.29 47.63 49.80 53.66 48.94 51.76 47.45 49.92 47.58 44.55 50.42 52.84 51.19 49.67 48.05 45.60 45.26 48.75 51.63 50.20
57.79 57.13 56.85 56.11 55.93 55.73 55.24 55.25 55.09 55.05 54.91 54.82 54.78 54.37 53.90 53.17 52.25 50.02 47.14 47.97 52.27 48.07 40.45 45.93 48.59 48.34 49.68 47.06 46.00 47.05 52.85 50.75 50.18 47.64 48.35 45.14 48.75 53.50 52.60 50.32 48.75 46.43 43.80 45.80 45.81 49.35 58.30
57.24 56.04 56.15 55.71 55.56 55.44 55.29 55.17 54.87 54.74 54.62 54.54 54.52 54.29 53.23 51.94 47.89 46.18 47.31 51.08 50.13 48.56 34.66 40.96 43.63 46.98 46.96 47.30 43.14 50.89 50.67 48.66 47.84 47.33 48.48 47.54 52.86 50.90 49.67 48.90 48.19 40.38 47.82 48.79 48.63 43.92 41.03
56.18 56.09 55.81 55.48 55.42 55.09 54.91 54.52 54.64 54.54 54.52 54.50 54.41 53.72 52.28 51.08 43.65 44.35 49.81 50.08 50.79 45.87 28.75 45.31 42.76 48.84 45.79 43.28 44.83 46.73 49.86 46.67 43.32 43.92 43.39 43.97 46.76 48.01 47.93 48.38 49.62 46.60 50.02 47.39 46.85 42.12 39.70
55.96 55.57 55.19 54.84 54.82 55.09 54.62 54.37 54.35 54.37 54.29 54.21 53.80 52.76 51.64 48.45 45.60 47.71 49.85 50.46 45.85 34.90 30.54 41.56 44.77 43.41 42.33 42.25 44.08 47.18 47.34 47.13 46.68 43.25 42.64 43.04 47.73 46.65 47.31 51.08 51.34 51.47 46.62 44.13 41.59 39.55 34.42
55.50 55.01 54.53 54.47 54.87 54.93 54.58 54.43 54.37 54.09 53.99 53.50 52.22 51.01 49.99 51.01 44.69 48.91 48.56 44.33 34.29 29.20 43.06 40.28 39.81 41.11 40.31 40.19 42.15 43.42 42.95 39.64 37.51 33.31 33.47 41.05 43.16 45.57 48.54 44.23 47.27 45.83 38.92 33.05 33.02 32.72 33.04
55.67 55.24 55.01 54.95 54.82 54.78 54.72 54.76 54.46 53.97 53.54 52.29 50.61 49.75 49.83 51.67 48.41 49.46 44.58 39.23 31.18 40.39 39.25 42.68 40.99 40.26 38.37 40.84 40.48 43.05 40.19 37.43 40.84 37.62 33.75 33.43 34.25 41.40 46.07 44.33 43.49 41.58 39.68 34.15 29.72 30.27 34.03
55.40 55.16 55.09 54.80 54.47 54.54 54.78 54.70 54.35 53.70 52.90 51.82 50.02 47.87 48.34 50.83 52.06 47.22 40.79 32.68 32.71 38.83 43.74 42.20 40.93 37.54 38.01 41.35 40.02 39.91 39.28 38.34 41.50 39.88 34.12 32.65 35.67 44.73 46.11 44.60 45.96 42.74 38.79 41.36 35.61 34.22 34.31
55.12 55.04 55.09 54.71 54.09 54.74 54.94 54.64 54.27 53.58 52.77 51.49 45.36 46.13 47.59 53.89 51.05 44.57 38.21 36.96 38.58 44.80 45.23 43.15 36.58 39.23 35.43 38.60 38.53 37.91 38.10 42.64 42.10 44.00 39.64 36.14 32.67 38.89 44.36 44.93 45.90 44.47 45.17 38.37 35.20 29.66 29.32
54.81 55.15 54.61 54.54 54.20 54.67 55.13 54.94 54.15 53.20 52.35 51.29 47.72 45.82 50.23 51.29 49.50 42.51 37.05 38.51 43.86 46.41 46.65 41.71 38.89 37.58 37.54 36.86 38.23 37.14 38.45 42.45 44.68 43.77 42.06 36.75 33.19 35.77 39.99 36.87 36.05 37.60 37.09 38.07 37.27 35.79 31.41
54.81 55.03 54.39 54.14 54.93 54.99 55.21 54.82 53.87 52.58 51.31 48.65 45.48 41.99 51.75 51.14 42.44 40.41 36.09 39.96 44.98 43.17 45.00 42.82 42.89 40.67 38.40 38.99 37.12 37.41 38.16 41.11 46.06 43.90 38.32 37.56 32.36 29.92 34.84 40.55 42.37 39.71 36.73 34.38 32.44 31.76 33.80
55.25 55.09 54.85 55.11 55.07 55.45 55.47 54.62 53.57 52.32 51.15 44.80 43.65 44.71 51.43 50.03 35.76 35.76 39.86 42.59 43.45 41.99 41.72 41.24 40.49 40.92 39.92 36.54 34.15 39.11 41.09 46.15 46.31 42.98 38.94 38.34 30.86 27.62 32.11 34.29 38.79 36.91 38.60 35.59 33.14 30.92 30.54
54.87 54.89 54.95 55.05 55.29 55.58 55.37 54.56 53.55 52.65 52.07 46.02 44.38 39.34 43.44 43.50 41.28 38.99 36.52 38.30 38.78 45.15 42.92 42.99 40.41 39.64 37.32 35.00 35.44 35.70 37.95 43.54 45.19 45.87 50.78 42.09 30.56 29.49 26.02 30.02 35.18 34.43 37.95 38.93 32.42 27.77 29.34
54.34 54.32 54.41 54.99 55.45 55.62 55.47 54.94 53.85 52.89 51.99 47.28 42.95 39.18 41.52 37.01 39.01 39.69 40.60 39.62 38.97 37.67 41.86 41.79 39.53 39.02 35.15 30.75 33.12 33.48 36.55 37.84 42.13 46.10 41.62 36.28 28.90 30.89 31.78 36.77 37.55 36.99 37.35 38.48 34.65 33.28 29.99
54.07 54.16 54.59 55.11 55.50 55.56 55.66 55.21 54.60 53.13 51.71 46.48 41.21 40.74 42.38 38.38 40.28 40.07 38.34 36.54 38.72 39.15 39.29 37.61 37.57 39.94 38.15 32.86 33.39 32.34 34.55 33.07 33.09 37.71 37.33 36.42 31.29 32.81 31.99 37.59 37.59 35.78 38.26 39.00 38.68 38.77 37.83
53.78 54.07 53.91 54.55 55.34 55.54 55.80 55.43 54.88 53.32 51.02 46.05 47.55 46.57 42.23 39.48 38.06 36.11 35.92 37.40 39.94 40.15 41.34 43.09 41.82 38.17 36.87 38.80 40.57 38.86 37.72 36.93 36.22 33.37 32.68 33.83 32.32 29.79 25.14 34.35 34.53 30.30 35.34 37.52 38.14 39.19 37.58
53.82 53.78 53.63 54.40 54.69 55.56 55.84 55.72 55.39 54.27 51.69 47.80 47.03 45.95 40.18 36.03 38.47 38.57 42.22 43.05 42.04 40.55 38.03 42.75 42.40 37.95 42.18 44.68 42.73 39.44 36.69 37.03 37.99 37.81 34.39 32.26 32.10 30.72 27.07 30.33 21.84 32.55 39.66 40.56 38.66 40.47 40.97
53.62 53.58 53.44 54.21 54.56 55.08 55.99 56.03 55.87 54.94 53.44 48.99 49.09 46.92 42.98 35.98 40.74 41.95 42.33 41.45 40.58 40.12 39.82 43.12 43.32 42.85 42.68 40.21 33.97 31.41 32.59 33.22 36.14 37.44 35.66 35.51 31.68 27.42 27.70 23.80 30.16 35.60 37.68 37.41 36.05 35.44 42.31
53.49 53.14 53.16 53.72 54.36 54.67 55.95 56.30 56.26 55.35 53.73 49.72 49.93 50.11 46.28 40.33 38.67 46.22 41.74 40.80 36.40 35.27 38.92 43.01 44.39 43.65 41.74 36.16 32.23 26.17 26.96 30.09 29.53 33.14 36.11 36.24 35.72 31.31 31.10 25.54 22.27 32.61 38.26 41.83 41.40 29.83 39.83
53.18 52.94 52.98 53.35 54.07 54.45 55.33 55.77 56.29 55.87 54.41 49.33 49.09 50.59 48.00 42.90 42.57 43.34 39.97 39.20 41.56 38.27 36.25 38.59 40.01 40.36 40.08 31.41 32.42 29.73 30.41 35.34 22.88 27.91 29.47 30.00 30.48 28.28 31.38 29.19 32.90 36.92 39.66 42.76 28.82 30.72 39.36
53.19 52.86 52.48 53.14 53.72 54.05 54.82 55.69 56.18 55.85 55.47 50.13 49.21 51.92 47.76 43.23 45.42 47.81 47.96 43.39 42.51 40.06 36.18 39.22 37.74 37.99 35.08 29.33 32.02 31.71 30.88 32.92 30.65 33.10 32.35 30.76 27.67 29.10 29.00 28.77 25.84 39.71 39.33 33.50 36.57 38.78 39.75
53.04 52.82 52.46 52.94 53.41 53.89 54.22 55.26 55.78 55.52 55.23 53.23 47.50 52.40 51.76 46.21 45.79 50.31 52.00 51.95 48.73 46.55 42.01 40.44 38.28 37.96 37.59 34.05 34.42 30.56 32.10 33.97 32.08 27.06 37.50 28.61 31.09 28.14 32.46 28.89 36.86 37.98 37.70 39.66 40.49 38.91 38.98

GFSGBSN_sfc_wetblb_063.txt.gz
Wetbulb
58.18 57.99 57.57 57.30 57.09 56.83 56.33 55.94 55.92 55.51 55.28 55.86 56.20 56.31 56.49 56.70 56.82 57.04 57.02 56.70 56.42 56.30 56.49 57.13 58.68 58.67 52.41 47.52 47.73 62.58 67.56 70.65 66.07 55.86 52.13 51.34 53.60 53.71 52.00 55.15 57.43 56.72 58.96 60.18 61.84 62.51 63.83
58.67 58.34 57.83 57.33 56.92 56.60 56.11 55.92 55.75 55.28 55.06 55.72 56.01 56.06 56.20 56.36 56.43 56.46 56.44 56.18 55.66 55.78 56.11 57.15 59.68 58.80 48.17 42.85 57.80 66.26 63.14 64.78 61.33 55.41 52.40 53.78 54.39 57.33 55.14 54.76 54.79 58.95 59.22 58.17 61.40 62.89 63.23
59.29 58.72 57.77 57.42 56.91 56.52 56.00 55.80 55.55 55.06 55.00 55.46 55.78 55.84 55.91 55.88 56.00 55.96 55.65 55.18 55.08 55.35 56.17 57.22 59.98 56.45 50.45 47.26 59.63 64.78 62.50 60.27 58.40 55.49 51.69 52.20 56.22 56.66 57.55 55.89 58.72 57.83 54.44 55.16 62.33 62.26 62.50
59.85 59.14 58.14 57.38 56.65 56.31 56.08 55.74 55.31 54.99 55.13 55.34 55.48 55.62 55.62 55.52 55.50 55.25 54.95 54.70 54.36 55.61 56.31 57.97 60.93 53.73 48.78 59.03 59.68 61.93 61.19 58.93 58.69 55.43 52.96 53.99 56.00 54.16 55.14 58.46 54.96 49.55 47.47 43.59 59.69 62.22 64.10
60.17 59.16 58.06 57.04 56.38 55.98 55.93 55.46 54.74 54.78 55.39 55.47 55.20 55.10 55.02 54.78 55.10 54.85 53.83 53.81 55.02 57.05 57.47 59.87 52.06 49.74 49.34 61.23 56.54 56.42 61.61 56.47 56.77 55.64 55.02 56.85 54.48 51.22 52.15 49.18 44.38 45.26 41.67 44.34 50.76 63.09 62.34
59.87 58.79 57.61 56.90 56.05 55.75 55.68 55.01 54.77 55.23 55.57 55.52 55.44 55.42 55.13 54.95 54.60 53.87 53.16 53.13 54.72 57.23 58.52 58.39 57.16 47.69 50.77 51.27 50.22 51.03 55.69 58.11 57.33 54.34 53.33 51.22 47.85 44.77 45.13 43.74 39.08 41.35 42.19 42.25 43.99 58.54 60.16
58.80 57.88 56.66 56.38 55.71 55.34 54.95 54.77 55.03 54.94 55.14 55.30 55.19 54.85 54.83 54.52 54.09 53.00 50.45 45.26 43.67 43.31 49.77 45.34 45.00 48.15 51.60 53.47 50.93 50.21 51.63 55.62 54.11 51.64 45.49 47.48 43.19 40.78 44.93 47.48 48.76 46.44 44.24 43.70 46.94 50.50 47.89
57.49 56.36 56.20 55.72 55.31 54.95 54.93 54.94 54.91 54.96 54.91 55.15 54.85 54.77 54.46 54.19 53.32 52.44 48.95 42.14 44.18 45.26 40.66 48.82 51.17 51.56 53.46 52.31 47.54 48.38 52.38 48.37 49.90 45.29 47.15 45.82 41.94 48.40 51.95 50.15 48.04 46.62 44.16 43.21 47.19 50.08 47.24
55.59 55.86 55.47 55.31 54.94 55.02 55.24 55.07 54.85 54.75 54.87 54.79 54.70 54.56 54.17 53.38 52.29 48.74 44.74 45.95 49.28 46.39 39.32 44.29 47.42 47.83 47.83 50.37 46.23 44.99 49.54 49.22 48.77 46.55 46.43 43.53 47.85 52.32 51.34 49.32 47.36 43.63 42.40 43.23 44.78 47.69 57.35
55.96 55.69 55.42 55.14 54.78 55.00 55.11 54.97 54.83 54.79 54.68 54.72 54.77 54.56 53.56 51.54 46.16 44.08 45.35 47.73 48.72 46.35 33.96 39.17 41.85 46.92 46.69 46.34 41.84 48.84 52.45 48.81 46.28 46.59 47.36 45.91 50.88 50.68 48.24 47.76 47.48 40.09 47.51 48.34 46.63 42.45 37.98
55.88 55.71 55.41 55.02 55.00 55.22 55.05 54.85 54.77 54.81 54.66 54.60 54.54 53.83 52.35 51.01 43.81 44.65 48.01 47.66 46.69 44.75 27.37 43.57 41.64 47.52 43.53 42.44 43.65 45.61 48.39 46.08 43.37 43.43 45.01 44.42 45.11 47.45 46.23 46.69 48.34 45.46 49.21 46.56 45.35 41.04 37.45
55.64 55.09 54.60 54.82 54.84 54.58 54.72 54.62 54.72 54.54 54.56 54.20 53.87 52.89 51.60 47.50 43.97 46.62 48.67 45.64 44.98 34.39 29.93 39.97 42.85 41.43 41.38 41.32 42.86 45.43 45.86 46.51 45.06 42.11 41.19 42.08 45.74 45.87 46.58 49.35 49.63 50.53 45.82 42.20 39.25 37.49 33.02
55.36 55.05 54.82 54.67 54.21 54.55 54.48 54.64 54.72 54.44 53.95 53.50 52.45 51.12 49.93 49.89 44.19 46.34 46.24 43.47 33.54 28.82 41.49 39.45 37.66 39.67 38.60 38.55 40.77 41.58 41.64 38.40 36.48 32.61 31.88 39.23 41.12 43.77 46.56 42.14 44.71 43.91 38.10 32.75 31.37 31.04 32.26
55.17 55.04 55.00 54.99 54.08 54.14 54.62 54.85 54.72 54.10 53.51 52.49 50.75 49.53 49.74 50.62 46.00 47.98 43.43 38.54 29.94 38.79 37.56 41.38 39.76 39.27 37.83 38.81 38.50 41.15 38.47 35.52 40.61 36.37 32.34 31.82 32.67 40.01 44.62 41.39 40.63 39.91 39.00 33.09 28.34 28.92 33.25
55.34 55.26 54.58 53.84 53.60 53.49 54.57 54.77 54.44 53.83 53.26 52.07 50.06 46.94 46.80 48.83 50.82 45.13 41.36 32.26 31.49 36.68 42.05 40.43 39.61 36.59 36.95 40.10 39.13 38.43 37.64 37.04 39.78 38.59 31.69 31.51 33.83 42.65 44.33 43.00 42.28 40.22 37.65 39.26 33.07 31.15 33.11
55.10 54.96 54.81 53.72 53.96 54.58 55.03 54.74 54.38 53.85 53.09 51.46 46.26 46.03 46.77 51.37 48.87 44.18 39.82 36.07 36.87 42.71 42.91 41.42 34.83 37.33 33.65 36.92 36.87 36.32 36.05 40.67 40.14 42.21 37.41 34.23 31.55 36.85 42.24 43.28 42.52 39.33 42.57 36.24 33.59 28.78 27.98
54.70 54.73 55.03 54.66 54.93 55.13 55.27 55.01 54.28 53.61 52.49 50.84 47.16 44.07 48.97 48.48 47.57 42.11 34.34 35.24 40.88 44.28 44.82 39.61 36.65 35.69 35.20 34.95 36.23 34.56 36.57 40.77 43.15 42.07 40.14 34.25 32.45 35.30 37.99 35.88 35.19 35.82 33.62 32.38 34.24 32.91 29.72
54.87 54.99 54.65 54.85 55.03 55.27 55.50 54.91 54.12 52.92 51.20 47.57 45.19 39.77 52.09 48.50 39.71 35.80 33.33 38.06 43.11 41.54 43.25 41.67 40.57 38.35 36.30 35.86 34.97 35.81 37.02 39.67 44.98 41.64 36.89 36.21 30.42 30.00 32.05 38.63 41.83 39.72 33.22 30.56 29.19 29.83 30.98
54.97 54.91 53.98 54.83 55.15 55.42 55.37 54.74 53.73 52.25 51.37 44.44 43.49 43.00 49.53 47.78 35.52 33.32 37.40 40.43 41.96 40.33 39.48 39.65 37.79 38.95 38.08 34.41 32.41 36.45 39.22 43.31 45.35 42.99 38.81 37.91 29.86 26.34 27.68 32.87 36.86 34.87 36.47 32.89 29.90 27.01 26.73
54.71 54.49 54.35 54.85 55.33 55.62 55.45 54.68 53.51 52.55 51.74 46.90 41.93 37.70 42.35 42.27 38.24 36.55 34.42 36.97 36.96 44.00 41.43 41.00 38.74 37.89 35.58 33.33 34.15 33.44 35.88 40.86 43.23 43.99 49.63 40.45 28.52 28.00 24.79 28.19 32.94 32.44 35.97 36.21 30.97 27.38 27.96
54.04 54.16 53.85 54.85 55.48 55.66 55.76 54.93 54.13 52.67 51.49 45.96 40.25 37.46 39.35 34.39 36.81 37.71 38.14 38.22 37.79 36.50 40.37 40.18 38.55 37.25 32.80 30.38 31.53 31.82 35.16 36.45 40.46 42.70 40.06 34.90 28.24 30.13 30.47 34.33 35.60 34.89 35.93 36.78 32.65 31.63 28.79
53.79 54.16 53.76 54.53 55.24 55.60 55.92 55.39 54.60 52.97 51.12 45.53 40.83 39.42 39.99 36.73 37.74 37.23 36.47 34.77 37.39 37.75 37.91 37.06 36.63 38.10 36.87 32.06 32.11 29.98 33.22 32.17 31.56 36.79 34.09 34.71 29.95 30.53 30.54 35.40 35.60 33.87 36.61 37.40 37.10 36.95 36.28
53.73 54.05 53.92 54.10 54.89 55.64 56.04 55.60 54.85 53.10 50.30 44.75 44.53 44.09 40.03 38.00 36.06 34.83 34.78 36.83 38.69 38.48 40.67 41.93 40.51 36.66 35.50 37.37 39.79 38.83 37.86 36.20 33.74 31.89 31.56 31.95 30.09 28.01 24.46 32.41 32.80 28.28 33.79 35.65 36.08 37.52 36.28
53.58 53.68 53.42 54.18 54.79 55.18 56.00 55.94 55.31 53.87 51.00 46.42 45.04 43.80 38.73 35.32 37.20 37.18 40.69 41.84 40.61 39.48 37.64 40.36 41.06 36.87 40.75 42.44 40.36 38.22 36.05 34.67 37.11 34.35 32.23 31.14 29.91 28.19 24.58 28.02 18.94 30.44 37.75 39.26 37.55 39.78 40.22
53.41 53.35 53.26 54.03 54.44 54.85 56.03 56.39 56.11 54.44 53.12 49.07 47.26 45.19 39.86 34.85 38.90 40.28 40.96 39.29 39.23 39.42 38.82 41.41 42.37 41.28 40.59 38.52 32.76 30.72 30.38 31.35 33.97 35.07 33.97 32.35 30.39 25.84 23.38 20.62 28.75 34.07 35.88 34.72 33.83 34.48 38.94
53.08 53.19 53.00 53.62 54.26 54.57 55.55 56.26 56.25 54.95 53.34 49.20 48.07 47.53 44.44 38.08 37.28 44.23 39.88 39.08 35.20 34.23 37.46 40.21 42.69 41.44 39.81 34.38 30.01 24.89 22.38 27.84 28.67 31.47 33.02 34.05 32.62 28.75 28.13 22.43 21.98 31.64 37.29 40.29 39.24 30.45 38.15
52.77 52.84 52.57 53.19 53.91 54.38 54.86 55.57 56.12 55.65 54.01 48.67 48.62 48.59 46.33 41.45 42.46 40.76 38.60 38.58 39.58 36.50 34.84 36.64 39.66 38.99 37.60 29.50 24.29 21.28 26.54 34.51 20.19 25.29 25.82 26.05 26.25 23.76 30.32 30.38 31.17 36.16 38.22 40.48 29.22 29.75 37.62
52.84 52.76 52.42 52.61 53.13 54.11 54.37 54.83 55.57 55.59 55.28 49.21 48.63 49.54 46.07 41.52 43.48 46.16 46.53 42.47 41.39 38.11 35.09 37.84 36.90 35.88 33.01 27.58 24.17 30.50 29.92 32.13 28.09 32.42 26.33 27.91 24.94 18.37 28.09 25.56 20.52 38.43 37.70 30.40 34.18 37.69 39.46
52.53 52.59 52.74 51.67 52.36 53.52 54.05 54.63 55.25 55.35 55.25 51.07 47.04 49.62 49.63 45.19 44.00 47.99 50.46 51.42 48.04 45.74 40.47 38.10 35.65 35.71 35.54 30.85 30.62 32.65 31.60 33.83 30.30 17.60 37.34 28.92 27.93 23.83 27.53 26.56 34.58 37.34 36.30 40.96 41.44 39.04 38.66

GFSGBSN_sfc_wetblb_066.txt.gz
Wetbulb
59.69 59.14 58.62 57.94 57.20 56.91 56.45 56.15 55.96 55.64 55.24 55.72 56.18 56.42 56.44 56.44 56.67 56.69 56.84 56.69 56.21 56.20 56.25 56.67 57.55 58.54 51.25 45.25 46.12 62.71 66.40 66.79 64.57 54.41 51.25 52.00 54.35 53.07 52.12 54.31 56.49 55.40 58.73 59.84 61.09 60.46 62.42
60.57 59.59 58.99 57.95 57.07 56.76 56.33 55.89 55.59 55.34 55.15 55.57 55.86 55.94 55.98 55.98 56.11 56.28 56.04 55.79 55.52 55.54 56.00 56.55 57.82 58.33 46.71 39.20 54.56 63.85 64.98 63.71 57.89 52.80 50.43 53.26 54.17 55.89 53.56 53.59 55.13 58.20 58.56 58.04 57.94 57.56 61.90
61.23 59.68 59.02 58.02 56.99 56.57 56.01 55.73 55.37 55.00 55.18 55.47 55.39 55.44 55.66 55.74 55.64 55.76 55.51 55.08 55.00 55.19 55.79 56.66 59.19 56.39 48.74 44.19 59.49 63.01 62.64 58.03 56.24 53.58 49.99 51.22 56.63 54.96 55.47 54.38 58.01 56.77 53.10 54.12 54.76 61.22 61.11
60.87 59.52 58.92 57.35 56.48 56.19 55.81 55.29 54.99 55.06 55.20 55.06 55.18 55.09 55.22 55.34 55.42 55.19 54.97 54.54 54.38 55.66 55.93 56.93 60.39 52.78 47.62 56.36 60.54 60.40 59.28 57.28 57.66 52.97 52.26 52.05 55.26 53.27 53.03 56.63 53.22 48.31 46.62 43.58 56.57 61.02 62.98
59.63 58.86 57.73 56.70 56.27 55.61 55.18 55.04 55.02 55.20 55.21 55.00 54.88 54.84 54.95 54.88 54.89 54.83 53.93 53.50 55.84 57.77 57.31 59.78 51.49 49.32 47.58 60.80 56.10 59.12 59.09 56.00 55.44 54.15 53.22 56.12 52.10 49.13 50.50 47.95 44.84 44.74 41.28 43.34 47.47 61.56 61.92
58.53 57.36 56.41 56.11 55.64 55.18 54.97 54.83 54.51 54.52 55.32 55.28 55.32 55.17 55.11 55.11 54.76 53.50 52.41 52.76 56.06 58.10 58.30 58.50 56.74 46.53 49.42 50.97 50.78 56.12 58.82 57.81 54.81 53.33 51.50 49.17 45.69 43.49 43.99 43.47 40.06 41.25 41.42 41.42 43.48 58.55 59.69
56.17 55.46 55.95 55.66 55.36 55.18 54.65 54.46 55.03 54.84 55.08 55.30 55.32 55.11 54.97 54.77 54.24 52.45 49.82 44.92 41.87 41.62 49.63 44.12 43.60 48.33 48.63 52.55 52.32 48.57 56.05 54.94 53.65 50.46 43.90 45.52 41.41 39.39 42.59 46.60 47.91 45.79 43.70 43.08 45.91 51.08 48.35
55.90 55.89 55.61 55.52 54.89 54.56 54.89 55.09 55.12 55.00 54.98 55.01 55.11 54.83 54.74 54.32 53.39 52.35 48.07 41.94 42.89 44.31 40.13 48.07 50.43 50.29 52.08 51.10 47.75 47.42 55.62 49.80 49.50 44.81 45.81 43.15 38.60 45.67 48.82 49.20 47.61 45.56 43.19 42.35 46.56 49.12 45.93
55.36 55.36 55.35 54.93 54.36 54.44 55.20 55.38 55.21 55.15 55.03 55.05 55.05 54.74 53.95 53.47 52.58 48.00 42.62 43.82 46.96 45.11 38.24 43.06 46.28 46.96 47.21 49.40 46.63 44.56 49.38 49.42 47.79 45.10 44.48 41.34 46.22 50.14 50.35 48.42 46.10 42.99 41.51 42.12 43.59 47.65 51.04
55.88 55.83 55.22 54.25 54.24 54.46 54.72 54.99 55.09 55.09 54.95 54.93 54.87 54.70 52.96 51.85 45.34 43.70 44.31 46.80 46.34 45.25 33.40 38.31 40.72 46.07 46.22 46.03 41.01 48.01 50.61 49.96 46.83 44.84 46.06 44.97 49.19 49.79 47.48 47.00 47.12 37.89 47.08 47.51 46.14 42.10 36.74
55.80 55.61 54.46 54.21 54.84 54.65 54.59 54.83 54.97 54.97 54.81 54.79 54.62 53.62 52.13 50.67 43.43 44.17 47.56 46.22 44.17 43.65 26.40 42.32 40.96 46.91 42.47 41.52 43.33 44.55 47.21 46.30 43.92 44.04 45.38 43.88 46.17 46.68 45.29 46.54 48.03 45.50 48.00 46.49 45.00 40.12 36.41
55.52 54.90 54.38 54.47 54.42 53.95 54.40 54.48 54.76 54.64 54.64 54.60 53.83 53.02 51.35 46.77 43.47 45.96 46.93 44.07 43.78 33.83 28.67 38.96 41.32 40.24 40.40 40.32 41.89 44.61 44.72 45.62 44.04 41.22 40.60 43.45 44.28 47.17 48.29 49.68 49.16 49.07 44.60 39.92 37.77 36.31 32.15
55.46 55.23 54.60 54.28 54.57 54.21 54.12 54.52 54.70 54.54 54.16 53.73 52.29 51.15 49.74 49.23 43.05 45.01 44.97 42.90 32.87 28.97 40.49 38.52 36.59 38.15 38.18 38.03 40.36 41.56 40.08 37.27 34.88 32.11 32.18 38.22 40.21 42.81 45.11 40.89 43.35 43.06 37.97 31.36 30.16 30.28 31.60
55.57 55.50 54.32 54.49 54.23 54.63 54.81 55.13 54.75 54.34 53.77 52.78 50.87 49.37 49.26 49.83 46.84 46.96 42.90 38.63 29.15 38.29 37.27 40.09 38.83 39.79 37.20 38.72 39.35 40.17 38.07 35.00 39.67 34.87 30.73 32.04 31.94 38.75 43.15 39.81 38.62 39.31 38.39 32.37 28.11 27.50 32.40
55.69 55.40 54.17 54.08 54.57 54.97 55.01 54.99 54.56 54.20 53.49 51.97 49.97 46.36 45.69 48.32 49.91 44.01 41.08 31.17 30.74 37.47 41.03 39.43 37.91 35.88 35.80 38.51 37.73 37.16 35.30 35.65 37.97 36.77 31.16 30.84 32.37 40.94 42.89 41.83 41.00 38.20 35.86 38.02 32.58 29.48 31.26
55.46 55.02 54.35 54.13 54.97 55.13 55.23 54.93 54.52 54.20 53.17 51.59 46.15 45.16 45.65 48.92 47.33 44.53 38.58 34.23 36.60 42.64 42.79 40.87 34.35 35.83 32.63 35.40 35.28 34.55 34.47 39.10 39.01 40.71 35.98 32.89 31.28 36.26 41.06 41.79 40.77 38.63 39.03 34.69 32.69 28.70 27.56
54.84 54.61 54.57 54.66 55.05 55.17 55.51 55.27 54.58 53.86 52.57 50.69 46.36 42.56 48.03 46.66 45.85 41.12 32.29 33.36 39.43 43.36 44.12 40.10 38.25 36.32 34.36 33.42 35.00 33.41 34.92 39.32 42.02 40.76 38.81 32.84 32.96 33.49 37.02 34.31 32.57 35.25 32.69 31.73 33.12 31.48 29.69
54.69 54.67 54.36 54.39 55.17 55.35 55.62 55.27 54.34 52.93 51.25 47.80 43.88 39.09 49.35 47.31 39.10 33.06 32.13 35.95 41.60 39.70 41.39 39.67 39.57 37.69 35.46 34.59 33.15 34.46 34.76 36.97 43.36 40.58 36.39 35.36 32.43 30.45 30.62 37.15 39.30 36.84 32.57 29.75 31.55 30.58 28.60
54.79 54.52 54.48 54.40 55.33 55.64 55.64 55.07 53.77 52.42 51.20 45.42 42.33 40.71 46.83 45.84 34.62 32.12 36.10 38.87 40.52 39.01 38.08 37.99 36.95 37.17 36.04 31.92 31.50 35.25 36.91 41.76 42.36 42.77 37.70 35.95 28.65 25.21 27.99 32.05 35.37 33.89 34.90 30.41 28.74 27.00 26.31
54.49 54.30 54.10 54.12 55.44 55.74 55.66 54.77 53.69 52.52 51.46 46.36 40.06 36.75 40.61 40.68 36.37 35.41 33.80 35.47 35.55 42.50 39.73 39.71 37.45 36.78 34.54 32.85 33.73 32.34 34.77 40.02 41.24 42.59 48.29 39.58 28.11 27.97 26.03 28.23 31.57 31.89 35.02 35.03 30.10 27.31 27.34
53.98 54.24 53.98 54.26 55.34 55.68 55.78 55.05 53.85 52.54 51.30 44.63 39.50 36.29 37.15 33.53 36.00 36.17 36.21 36.38 36.73 35.37 39.13 39.26 36.98 35.75 32.38 29.13 30.92 31.36 34.49 35.63 39.36 41.80 38.43 33.75 29.04 28.92 30.44 34.44 34.93 34.12 34.76 35.61 31.90 31.79 29.68
53.65 53.97 53.68 53.98 55.23 55.64 56.00 55.37 54.13 52.81 50.97 45.04 40.96 38.05 37.08 34.69 35.85 36.20 36.08 34.70 35.88 36.78 36.96 36.59 35.35 36.90 36.17 31.18 30.47 28.82 32.48 31.08 30.74 36.09 32.65 32.89 29.54 30.32 28.89 34.52 34.26 33.04 35.50 36.47 35.99 36.03 34.88
53.50 53.91 53.44 53.79 54.97 55.68 56.22 55.62 54.34 52.79 49.54 44.14 42.88 41.64 39.35 36.96 34.38 33.25 33.92 35.13 37.26 37.28 39.64 40.99 39.33 35.81 35.37 36.64 38.22 36.64 35.99 33.91 31.57 30.28 30.86 30.64 28.70 25.91 22.24 31.19 30.97 27.34 32.26 34.27 35.49 36.79 35.85
53.23 53.62 53.64 53.81 54.95 55.30 56.20 56.04 54.83 53.68 50.10 46.15 43.73 41.71 38.35 34.63 36.37 36.21 38.99 39.96 39.01 38.05 36.80 39.19 39.90 35.89 39.32 40.35 39.20 37.13 35.75 35.05 35.97 33.70 30.19 30.06 28.15 26.37 23.60 24.34 18.03 28.88 36.97 37.64 37.02 38.73 38.36
53.11 53.39 53.50 53.87 54.62 55.06 56.05 56.47 55.64 54.32 52.68 48.34 45.47 43.84 38.44 34.54 37.53 38.97 38.92 37.72 37.59 38.09 37.76 40.13 40.90 39.49 38.58 37.07 31.84 29.33 28.65 29.96 32.49 33.36 32.91 31.26 29.33 25.15 21.77 17.91 27.14 32.95 34.86 33.69 32.80 33.69 37.56
52.73 53.13 53.06 53.48 54.26 54.61 55.20 56.03 56.05 54.89 53.00 48.53 46.30 45.71 42.00 36.82 36.44 42.74 38.82 37.91 34.52 33.26 36.26 38.87 41.09 40.18 37.92 31.94 28.97 23.87 20.23 27.99 27.37 30.26 31.15 32.28 31.06 27.74 23.10 22.49 21.76 31.01 36.82 39.10 38.15 30.54 36.92
52.51 52.73 52.78 52.84 53.72 54.56 54.78 55.35 55.63 55.58 53.83 48.87 47.60 46.63 45.47 39.74 41.25 40.41 37.69 37.58 37.98 35.07 34.14 34.56 36.83 37.15 35.31 26.97 22.88 19.97 18.96 33.88 19.63 22.96 25.20 24.04 25.30 24.03 26.46 25.70 29.73 35.28 37.71 40.26 27.79 29.27 37.01
52.46 52.63 52.74 52.42 52.55 54.05 54.40 54.83 55.16 55.16 55.25 49.69 48.15 47.94 45.52 40.75 41.76 45.75 44.93 41.12 39.66 37.14 34.65 37.02 35.25 34.49 31.35 25.48 23.69 29.50 28.73 31.82 27.80 26.64 25.42 22.85 19.06 17.88 28.50 25.25 19.18 38.17 36.77 30.95 33.47 36.71 38.36
52.30 52.71 52.57 52.41 51.64 53.35 53.93 54.52 54.91 55.05 54.99 50.12 46.04 47.80 48.35 45.03 42.91 46.27 48.23 48.62 47.12 44.84 39.38 36.06 34.89 34.15 34.16 29.97 28.61 30.50 31.36 32.92 28.42 17.54 30.76 25.80 26.28 22.46 25.21 24.74 33.34 37.43 35.87 38.49 39.19 38.20 39.21

GFSGBSN_sfc_wetblb_069.txt.gz
Wetbulb
61.54 60.51 59.82 58.80 57.92 57.11 56.70 56.38 56.11 55.68 55.50 56.03 56.24 56.15 56.24 56.17 56.15 56.50 56.73 56.72 56.45 56.31 56.23 56.53 56.81 58.42 55.57 50.27 49.27 64.60 66.04 69.75 64.05 60.21 58.39 58.52 58.44 59.25 56.71 60.31 60.75 60.67 61.53 62.77 63.24 62.78 63.49
61.27 60.22 59.58 58.54 57.47 56.52 56.40 55.92 55.66 55.52 55.63 55.67 55.23 55.08 55.36 55.82 55.88 56.11 56.04 55.80 55.52 55.62 55.82 56.39 56.68 58.01 52.51 44.79 59.06 63.98 63.92 66.38 61.73 57.23 57.11 60.08 59.24 61.00 59.21 59.77 59.49 60.82 60.52 60.46 60.67 60.06 62.33
60.62 59.97 59.17 57.51 56.38 56.24 55.60 55.50 55.46 55.48 55.29 55.00 55.19 55.33 55.37 55.50 55.68 55.82 55.52 54.63 54.56 55.10 55.65 56.33 57.78 56.60 50.69 48.01 63.29 64.16 63.44 61.92 61.07 56.54 55.31 58.44 62.95 59.98 59.84 57.94 60.71 59.70 56.63 56.82 61.52 62.72 62.65
59.49 58.04 56.91 56.06 56.13 55.74 55.42 55.53 55.08 54.66 54.52 54.81 54.90 55.08 55.32 55.40 55.50 54.67 54.03 53.45 54.25 56.20 56.24 56.82 59.53 56.81 50.47 58.58 63.57 63.52 61.76 59.27 58.31 57.46 56.41 56.81 60.82 59.51 58.42 59.90 57.01 55.01 53.42 52.91 60.83 63.43 63.93
56.74 55.86 55.96 56.02 55.68 55.36 55.07 54.70 54.58 54.71 54.76 54.88 54.74 55.19 54.93 54.76 54.40 53.95 52.93 53.08 57.78 58.17 57.71 59.80 56.67 54.35 50.67 61.76 59.98 62.07 60.53 56.66 57.48 57.04 56.92 56.65 57.89 57.11 56.54 55.53 53.93 52.12 51.30 50.92 52.39 64.01 63.38
56.01 56.28 56.20 55.68 55.28 54.72 54.50 54.67 54.69 54.50 54.54 54.82 55.30 55.68 55.29 54.54 54.21 53.10 52.49 52.77 56.31 59.32 59.44 58.98 57.71 51.84 53.59 53.55 57.83 59.96 61.30 58.70 55.73 54.92 53.06 52.20 52.35 52.75 53.40 53.93 48.36 49.77 49.54 49.65 51.67 60.21 62.24
56.07 55.62 55.33 55.08 54.75 54.50 54.40 54.79 54.69 54.66 54.66 54.60 55.53 55.37 55.13 54.13 53.43 52.24 51.73 53.31 48.73 49.21 54.46 48.82 48.77 49.87 50.66 54.76 56.41 58.19 59.74 58.18 56.29 53.22 48.06 50.08 49.02 47.97 52.71 54.65 52.65 51.60 50.45 49.64 51.39 56.71 55.69
55.87 55.52 55.14 54.77 54.57 54.55 54.55 55.17 55.44 55.13 55.11 55.21 55.37 55.23 54.03 53.43 52.61 51.94 50.82 49.68 49.08 49.69 46.08 50.17 51.76 51.81 53.81 54.57 49.52 55.43 59.86 53.54 53.37 48.24 49.97 46.90 45.34 50.50 53.94 54.64 51.84 51.64 50.02 49.67 51.48 52.96 52.91
55.32 55.20 54.81 54.56 54.98 55.10 54.66 54.91 55.31 55.23 55.23 55.25 55.12 54.25 53.78 52.58 52.54 50.55 47.64 49.93 51.31 51.15 45.86 46.46 49.77 49.75 50.60 53.22 49.40 50.55 56.13 54.52 52.31 49.50 48.17 45.05 47.34 51.19 52.61 51.92 50.83 50.98 50.68 49.48 49.42 51.81 56.03
55.04 54.88 54.85 55.02 55.36 54.42 54.59 54.53 54.91 55.13 55.10 55.02 54.60 54.25 52.89 51.43 48.77 49.08 49.77 51.40 50.95 50.92 42.02 42.71 45.60 49.22 50.42 52.01 46.22 52.19 55.49 54.86 52.10 50.13 49.57 48.75 51.78 50.71 52.46 51.85 52.83 49.70 52.20 51.71 50.23 49.51 46.30
55.12 54.84 55.19 55.26 55.18 54.88 54.17 54.51 54.99 55.23 55.12 54.84 54.66 53.27 51.78 50.88 49.00 49.99 51.04 51.78 49.98 49.00 33.09 44.95 45.47 50.90 48.73 46.89 48.07 48.45 52.36 51.79 49.79 50.16 50.79 48.31 50.35 50.00 50.94 52.17 53.70 51.62 52.93 51.74 50.71 49.48 47.26
56.07 55.06 54.81 55.15 54.84 54.84 54.88 55.10 55.21 54.96 54.68 54.39 53.50 51.99 51.07 49.37 49.09 51.57 51.18 50.13 49.55 40.68 32.66 42.15 44.77 45.01 45.56 45.97 46.30 48.13 48.39 49.93 48.77 48.36 49.88 49.52 50.52 53.75 54.00 53.74 53.51 53.93 49.50 47.60 47.17 47.64 43.30
55.82 55.37 54.76 54.64 55.32 54.96 54.86 55.00 55.00 54.82 54.02 53.38 51.94 50.67 50.55 50.20 49.82 51.38 51.63 50.11 40.64 35.85 44.41 41.20 41.26 43.18 43.76 42.36 44.30 45.27 45.11 44.30 42.94 42.33 44.41 44.26 45.46 47.90 50.53 49.57 51.52 51.34 48.61 42.51 41.38 41.34 42.53
55.81 55.68 54.55 54.83 54.66 55.06 55.12 55.20 55.00 54.68 53.49 52.28 50.40 49.71 51.25 52.72 53.73 52.57 50.52 46.83 35.99 39.96 40.71 44.77 43.08 44.09 41.36 43.35 43.11 44.00 43.52 42.01 44.38 41.65 41.33 43.00 40.58 44.24 46.76 46.97 46.84 48.70 48.70 43.64 37.73 39.00 42.68
55.84 55.48 54.41 54.20 54.82 55.19 55.37 55.21 54.84 54.52 53.27 51.72 49.81 53.22 52.98 53.45 53.10 51.27 49.76 39.61 37.45 39.68 42.50 41.81 43.32 41.42 41.31 42.82 43.43 43.11 42.05 41.47 43.09 43.26 40.82 40.53 39.49 44.83 45.47 46.26 47.16 45.52 44.69 48.18 43.03 42.06 43.18
55.54 54.91 54.59 54.26 54.90 55.10 55.37 55.29 54.94 54.29 53.30 51.42 53.73 52.62 52.29 51.94 52.38 51.74 46.09 38.07 41.13 43.49 43.70 43.46 39.17 41.13 39.29 40.61 41.53 41.80 40.97 44.01 42.63 44.21 43.72 41.84 39.30 42.61 43.98 45.94 46.80 46.94 46.57 43.48 44.76 38.65 38.57
55.06 54.63 54.44 54.22 54.96 55.27 55.51 55.63 54.82 54.01 52.55 50.69 52.21 51.07 53.21 52.40 52.34 47.78 40.35 40.36 42.54 45.30 44.62 42.04 39.97 39.65 39.39 39.93 40.99 39.59 39.08 43.50 44.00 44.31 44.02 42.20 42.25 41.08 44.11 41.26 40.54 44.92 44.04 43.47 45.37 43.38 41.21
54.81 54.64 54.54 54.32 54.94 55.43 55.65 55.55 54.47 52.92 51.05 50.56 50.99 46.74 53.94 52.63 45.71 42.44 40.81 41.64 42.10 43.48 44.90 43.44 42.76 40.03 39.06 39.87 39.89 39.99 39.31 41.55 44.64 45.90 40.74 41.55 41.03 37.45 39.12 42.68 43.31 43.37 40.67 41.09 43.42 41.15 41.76
54.85 54.66 54.26 54.48 55.08 55.73 55.77 55.19 54.11 52.26 51.02 53.10 49.04 47.57 53.65 51.72 41.43 40.97 42.50 41.84 43.29 42.83 42.20 42.00 40.31 41.42 41.36 38.61 38.45 40.25 41.09 43.78 44.74 46.41 42.86 43.23 38.56 36.14 37.70 41.23 42.71 40.96 41.96 40.83 39.56 41.72 38.79
54.48 54.34 54.42 54.36 55.07 55.73 55.79 55.10 53.77 52.16 51.44 50.47 48.16 44.17 47.87 46.78 43.09 42.56 40.59 40.38 40.05 44.14 42.61 43.07 41.54 42.31 40.72 39.22 40.97 38.52 39.69 42.60 43.74 45.92 47.16 44.72 39.30 38.30 37.56 37.82 40.63 38.86 40.29 41.61 41.38 41.22 38.75
54.00 54.23 54.14 54.34 55.25 55.87 56.00 55.19 53.99 52.37 51.29 51.51 47.07 43.17 43.50 40.90 42.55 42.06 42.15 41.05 39.48 38.88 43.01 43.79 41.18 40.38 39.12 37.57 38.21 37.82 39.92 41.51 43.87 44.39 44.08 44.19 38.83 38.99 39.48 39.91 40.32 39.67 39.22 40.14 39.88 40.38 39.76
53.66 54.05 54.09 54.05 55.01 55.85 56.04 55.61 54.33 52.68 50.61 50.53 47.62 44.93 44.27 42.53 41.58 42.90 40.96 40.15 39.86 40.70 41.66 40.18 39.68 41.06 41.61 38.34 38.82 37.42 39.64 40.23 38.77 43.32 41.35 42.24 38.11 39.32 36.57 39.20 39.43 37.84 39.16 39.56 39.67 40.23 40.62
53.60 53.74 54.01 54.07 54.71 55.67 56.22 55.94 54.72 52.81 51.48 51.28 48.70 47.26 48.24 40.71 41.72 42.15 41.50 41.24 40.71 42.42 43.52 44.26 42.12 41.70 40.81 41.28 43.48 43.83 43.50 42.26 41.91 40.63 39.93 40.04 39.32 37.00 33.61 37.15 37.14 34.55 37.78 38.84 40.35 42.47 41.91
53.25 53.56 53.82 53.91 54.64 55.05 55.85 56.22 55.29 53.68 51.61 52.71 50.24 48.39 46.97 41.62 43.40 42.27 42.75 43.15 42.17 42.48 41.42 43.90 44.89 42.40 43.59 45.78 45.49 44.68 43.82 43.14 43.03 40.83 40.53 39.55 39.18 38.48 34.61 35.20 27.76 37.22 41.41 40.64 40.92 41.22 43.06
53.08 53.18 53.37 53.49 54.11 54.95 55.40 56.30 56.16 54.43 52.18 53.12 51.56 50.03 47.67 42.96 43.85 42.97 42.95 42.65 43.12 44.18 43.71 43.86 44.43 45.56 45.98 44.05 40.53 37.67 38.86 39.22 39.23 39.98 40.59 40.89 39.89 35.54 33.38 32.10 34.11 36.36 38.57 38.29 38.72 37.49 40.31
52.92 52.87 53.20 53.12 53.80 54.35 55.13 55.63 56.04 55.19 52.44 53.97 52.17 51.03 49.61 45.42 43.80 45.99 43.55 43.29 42.36 42.59 43.03 43.93 45.96 46.02 44.67 42.26 39.71 33.64 33.11 33.36 34.15 35.82 39.93 40.18 40.81 39.33 35.44 30.38 29.16 37.05 39.45 42.03 42.17 35.93 40.36
52.61 52.48 52.79 53.04 53.06 53.84 54.89 55.22 55.65 55.72 53.78 54.56 53.54 52.29 52.04 47.74 47.22 46.94 44.78 44.29 44.32 42.75 42.99 43.15 44.32 43.90 43.33 39.19 36.15 34.64 33.09 35.05 32.17 31.95 33.54 36.28 37.74 35.55 35.65 33.93 36.24 40.74 40.86 43.36 34.15 36.15 40.92
52.56 52.73 52.66 52.90 52.54 52.91 53.97 54.80 55.05 55.33 55.27 54.36 53.18 53.15 52.20 48.91 48.69 48.63 48.94 46.23 44.62 45.34 43.39 43.53 42.81 42.00 40.79 36.71 36.08 34.29 34.20 34.71 32.97 33.66 34.26 34.52 34.45 34.29 33.50 31.17 29.44 42.90 40.26 37.06 40.35 41.79 41.87
52.44 52.48 52.54 52.63 52.25 52.10 53.12 54.23 54.70 55.04 55.18 51.69 52.51 52.30 52.97 51.48 49.54 50.59 52.19 52.65 51.77 50.99 46.87 44.12 43.36 42.25 42.61 38.15 37.07 37.00 35.32 35.30 34.46 33.24 37.71 33.30 37.15 35.96 36.52 37.02 40.92 43.66 42.44 44.17 43.50 41.58 42.42

GFSGBSN_sfc_wetblb_072.txt.gz
Wetbulb
61.60 60.73 60.02 58.83 57.87 56.51 56.51 56.03 55.86 56.01 56.17 56.02 55.60 55.57 55.85 56.17 56.02 56.56 56.77 56.70 56.42 56.39 56.32 56.64 57.29 58.01 58.83 53.97 51.23 65.48 66.33 66.80 65.38 65.49 61.93 60.77 59.98 59.72 59.12 61.80 64.40 62.57 64.44 65.02 64.94 63.77 63.83
60.23 59.59 58.33 57.24 56.27 56.40 56.10 55.86 56.04 55.81 55.42 55.36 55.32 55.17 55.77 55.84 56.00 56.19 56.16 55.54 55.14 55.20 55.98 56.58 57.03 58.02 56.16 49.08 62.55 64.33 63.10 65.08 63.62 62.27 59.85 60.66 59.04 60.37 58.76 60.25 61.42 63.98 64.03 63.56 63.14 61.86 62.94
58.11 57.17 56.46 56.85 56.49 56.12 55.87 55.60 55.33 55.35 55.37 55.34 55.49 55.29 55.21 55.39 55.74 55.53 55.37 54.63 54.32 54.76 55.67 56.62 57.48 58.74 54.25 51.52 64.36 63.43 66.10 63.85 62.59 60.92 58.65 61.00 61.83 59.97 60.33 58.68 62.56 62.59 60.18 62.16 62.63 62.93 63.69
56.39 56.83 56.43 56.20 55.96 55.37 55.18 55.24 55.30 55.27 55.24 55.33 55.33 55.50 55.38 55.26 55.31 55.15 54.43 53.75 54.57 57.18 56.57 56.96 58.85 59.36 53.17 60.00 65.21 63.02 64.73 63.24 60.80 61.36 60.01 61.66 63.59 60.65 59.35 62.10 60.26 59.06 59.84 57.50 62.24 63.22 64.77
56.65 56.18 55.90 55.88 55.56 55.23 55.31 55.35 55.29 55.27 55.39 55.13 54.97 55.25 55.35 55.01 54.80 54.80 53.55 53.61 57.95 58.49 57.88 59.19 59.90 58.26 52.86 62.59 61.39 61.33 61.70 59.96 59.50 59.40 59.90 59.95 61.88 58.94 59.08 56.25 54.97 56.96 54.81 56.69 59.09 64.22 64.51
56.61 55.93 55.82 55.71 55.35 55.36 55.19 55.33 55.28 55.26 55.41 54.96 55.41 56.00 55.57 54.71 54.32 53.85 52.93 53.12 57.33 60.31 60.94 60.93 59.94 54.19 56.47 54.96 61.22 61.10 61.60 60.13 57.15 56.83 55.29 55.51 57.30 55.01 55.93 53.89 49.23 52.37 54.61 57.17 56.06 62.60 64.00
56.01 55.80 55.70 55.37 55.11 55.35 55.55 55.41 55.57 55.67 55.96 56.02 55.97 55.73 55.16 54.98 53.49 52.73 53.64 58.04 55.04 55.32 55.82 52.51 51.73 51.80 55.15 58.30 62.27 59.47 61.12 58.91 57.63 55.61 51.34 53.24 51.68 49.46 52.75 55.29 56.35 55.82 56.21 55.70 56.09 62.40 60.37
55.75 55.42 55.46 55.13 55.56 55.35 55.27 55.00 55.38 55.54 55.39 55.67 55.81 55.52 55.06 54.32 53.22 52.57 55.73 53.86 52.85 53.26 49.65 54.33 54.28 53.40 55.38 57.01 53.72 57.30 61.06 56.55 54.23 49.74 52.46 50.36 48.62 53.21 55.74 56.60 56.21 55.46 55.07 55.08 55.24 56.66 57.72
55.83 55.19 55.06 55.57 55.69 55.59 55.37 54.96 55.22 55.33 55.56 55.73 55.66 55.24 54.14 53.26 52.50 53.59 54.77 53.43 55.93 55.32 50.01 50.01 52.59 52.73 53.66 54.98 52.93 55.84 58.42 55.98 53.70 50.14 50.28 48.87 50.45 54.18 55.15 55.79 54.94 55.00 54.19 55.24 54.43 55.42 56.60
55.79 54.98 55.13 55.55 55.75 55.65 55.46 55.43 55.68 55.60 55.62 55.42 55.24 54.55 53.20 52.22 50.91 57.01 54.21 55.70 56.98 55.51 46.75 45.95 48.82 51.42 53.26 54.91 50.04 58.25 59.11 55.65 53.42 51.78 50.77 49.80 52.62 51.32 53.29 54.33 55.54 52.43 56.17 55.02 54.37 53.17 50.92
56.12 55.48 55.01 55.64 55.55 55.68 55.59 55.56 55.64 55.50 55.30 55.36 54.79 53.52 51.98 49.70 56.49 55.30 54.65 57.82 56.71 54.06 37.92 46.78 48.44 54.37 54.49 51.68 51.05 53.68 59.05 55.60 52.20 52.52 52.99 49.89 50.01 50.48 51.94 54.27 56.59 54.01 56.79 55.43 54.81 54.01 52.97
56.50 55.40 55.43 55.57 55.41 55.63 55.50 55.34 55.42 55.10 55.06 54.87 53.71 52.25 51.19 54.28 56.99 55.72 57.04 56.81 53.47 45.07 36.53 44.38 47.84 48.71 49.02 49.29 49.94 52.66 53.44 54.39 55.15 52.80 53.95 52.50 54.53 53.77 55.01 57.54 57.51 57.67 54.76 53.95 53.91 53.67 47.70
56.16 55.57 54.88 55.26 55.35 55.32 55.26 55.34 55.48 54.79 54.67 53.98 52.27 51.18 51.55 56.24 55.28 58.87 59.09 53.99 44.92 41.40 46.77 43.22 44.38 48.44 48.00 46.61 47.93 49.97 49.20 49.00 49.12 47.08 47.76 50.01 51.82 55.16 57.06 55.10 57.34 56.04 52.56 46.26 44.93 45.47 45.96
56.29 55.84 54.87 54.85 55.06 55.24 55.46 55.56 55.48 54.71 54.14 52.78 50.91 50.19 55.12 57.73 59.03 58.88 56.26 49.73 40.54 42.93 44.15 47.47 46.29 46.80 44.84 46.95 47.00 48.56 48.60 47.16 48.30 48.50 49.32 45.57 43.91 51.44 54.30 55.01 53.13 53.49 52.83 47.51 41.94 43.38 46.36
56.36 55.55 54.93 55.10 55.06 55.26 55.60 55.48 55.22 54.63 53.74 52.17 50.04 59.34 58.78 57.78 58.52 57.86 53.14 44.82 42.55 43.64 45.99 45.14 46.10 43.62 44.40 45.69 46.73 47.38 47.25 45.87 46.96 48.29 46.43 46.93 44.54 48.57 49.18 50.73 51.78 52.57 50.32 53.98 48.32 49.27 47.67
55.90 55.23 55.19 54.92 55.12 55.32 55.68 55.48 55.08 54.47 53.36 51.84 60.60 59.09 56.37 58.06 58.29 56.77 51.40 41.90 45.14 47.07 46.92 47.36 43.17 44.35 42.38 44.18 44.71 45.82 45.51 47.36 46.27 48.11 49.38 48.02 43.60 47.52 47.45 49.82 50.54 51.24 54.03 47.74 48.63 43.31 42.55
55.54 54.97 55.16 55.13 55.22 55.52 55.73 55.62 54.95 54.00 52.54 51.37 58.74 54.93 56.93 57.85 57.32 54.75 46.75 45.09 46.26 48.77 47.96 45.90 44.37 43.99 43.24 44.16 45.01 44.50 43.74 46.32 47.24 47.18 48.79 48.03 47.59 45.30 48.23 47.22 47.97 48.51 48.40 49.72 50.71 49.11 45.13
55.27 55.00 55.26 55.14 55.20 55.70 55.89 55.66 54.53 53.04 51.25 51.68 56.90 52.34 57.58 58.32 52.13 51.40 46.47 46.25 44.33 47.62 48.96 46.37 46.21 45.97 44.61 44.71 44.35 43.41 42.78 44.63 48.28 49.30 44.44 47.14 46.96 43.81 45.34 46.70 48.06 48.76 48.69 50.12 46.38 46.50 48.91
55.33 55.12 55.24 55.02 55.24 55.83 55.99 55.26 54.00 52.69 51.59 58.46 54.67 52.93 57.72 56.97 47.98 46.32 46.98 45.77 47.10 46.99 46.90 46.40 45.19 46.25 46.05 44.54 42.13 44.72 44.73 45.94 48.30 48.99 47.19 46.04 44.57 41.39 42.16 45.49 47.18 46.84 47.66 48.47 49.09 49.98 48.20
54.78 54.52 54.84 55.20 55.49 56.03 55.91 55.24 53.92 52.81 51.82 56.95 54.48 49.00 51.84 53.03 52.31 48.31 45.60 44.45 43.57 47.18 46.40 47.06 46.04 47.52 46.43 44.92 46.96 43.95 43.90 45.82 47.32 48.91 47.86 48.90 44.56 41.43 40.80 43.41 47.04 44.44 44.78 46.76 48.13 46.42 47.96
54.40 54.34 54.55 55.05 55.43 56.09 56.15 55.38 54.16 53.07 51.79 56.51 53.00 47.65 49.03 46.15 46.79 46.89 47.08 44.93 42.82 42.40 46.37 47.21 44.70 44.63 44.54 43.44 44.45 43.72 45.28 46.27 47.60 47.88 49.00 49.49 44.33 44.63 43.45 43.89 44.78 44.44 43.81 44.28 45.97 47.32 46.45
54.05 53.95 54.43 54.74 55.41 56.07 56.21 55.60 54.75 53.28 51.53 57.27 52.26 51.45 50.90 48.30 47.56 46.94 44.52 44.52 43.57 44.34 45.18 43.52 43.58 44.70 45.59 43.57 44.11 42.94 45.22 46.92 45.05 48.09 47.69 48.07 44.49 45.80 42.38 43.56 44.06 42.62 43.44 43.56 43.84 44.92 46.85
53.84 53.82 54.21 54.37 54.90 55.85 56.25 55.89 55.14 53.28 53.43 55.24 56.36 54.38 52.46 44.32 46.71 47.85 45.56 44.49 43.86 46.20 46.70 46.84 45.53 45.28 43.82 44.34 47.05 47.84 48.25 47.24 47.28 46.14 44.55 45.50 45.73 43.44 41.10 42.44 41.74 39.52 43.85 43.43 44.61 46.04 46.64
53.68 53.43 53.74 54.02 54.58 55.22 56.19 56.05 55.68 54.08 52.87 58.95 56.41 55.43 53.16 45.69 47.38 46.25 45.84 45.95 45.36 46.41 44.99 46.83 47.72 46.44 46.65 50.30 49.77 48.95 47.88 47.29 46.93 46.77 47.42 43.86 43.99 44.56 43.70 41.15 33.71 42.82 46.32 45.79 45.47 45.89 47.90
53.55 53.08 53.35 53.73 54.27 54.98 55.59 56.20 56.01 54.87 53.00 59.26 59.36 55.69 53.78 47.56 47.83 46.55 46.35 46.12 47.21 47.91 46.94 46.84 47.84 48.89 50.98 48.73 45.50 42.22 42.87 43.03 43.46 44.96 46.10 47.40 44.83 41.09 38.49 38.42 40.05 40.83 43.31 43.68 44.29 43.20 46.04
53.51 52.79 52.99 53.53 53.73 54.08 55.15 55.72 56.16 55.36 53.61 59.80 58.26 58.83 55.28 50.89 48.25 48.47 46.96 47.37 47.51 46.61 46.29 47.06 50.47 51.30 50.00 48.19 46.38 38.63 40.46 40.24 39.24 40.89 46.85 44.51 46.86 42.97 39.98 36.19 33.93 43.24 44.24 46.60 46.72 41.07 46.11
53.61 52.56 52.70 53.05 53.17 53.26 54.23 55.48 55.68 55.79 54.41 57.52 58.60 58.86 57.11 53.07 51.85 51.24 50.15 49.15 49.76 47.98 48.06 47.59 48.09 47.79 49.12 47.41 43.18 41.89 40.70 40.43 38.02 37.59 39.03 41.60 42.62 39.45 39.86 38.18 41.84 45.25 45.19 47.58 37.62 41.46 46.72
53.81 52.64 52.70 52.80 52.88 52.49 53.51 54.82 55.22 55.32 55.36 55.85 57.86 59.53 57.00 53.71 53.32 52.74 52.50 50.55 50.52 51.27 48.69 48.49 47.15 46.78 46.03 42.14 43.36 41.81 41.62 40.31 38.06 39.42 39.38 39.54 39.32 39.82 41.10 37.76 34.47 47.65 45.02 41.72 46.29 47.23 46.73
54.00 52.53 52.64 52.66 52.58 51.78 52.80 53.59 54.75 55.08 55.28 53.85 57.99 59.32 58.91 55.59 54.52 56.35 56.11 56.20 55.03 54.38 52.89 50.46 47.72 46.22 48.93 46.00 45.67 44.45 41.76 42.21 40.43 39.43 43.02 38.30 42.98 43.06 41.79 43.48 46.04 49.04 47.17 48.53 47.41 46.86 46.54

GFSGBSN_sfc_wetblb_075.txt.gz
Wetbulb
59.45 59.09 57.69 57.14 57.03 56.70 56.51 56.38 56.40 56.25 56.10 56.02 56.04 56.03 56.01 56.49 56.63 56.84 56.97 56.95 56.56 56.21 56.26 57.03 57.58 58.38 59.39 55.97 54.72 68.03 66.06 66.75 63.90 66.53 63.61 61.31 60.80 62.98 61.68 64.06 66.06 65.04 65.47 66.43 66.09 65.79 66.22
57.08 56.97 57.28 57.22 56.94 56.49 56.08 55.93 55.95 56.11 56.08 56.23 55.86 55.86 55.93 55.95 56.04 56.43 56.48 56.17 55.61 55.54 55.80 56.51 57.44 57.98 57.61 51.55 62.46 65.67 62.83 60.38 61.84 65.26 63.11 61.81 61.38 63.55 60.52 61.48 64.29 66.93 66.36 65.35 65.53 64.67 64.43
57.26 57.02 56.84 56.79 56.42 56.18 55.83 55.91 55.97 56.24 56.03 56.08 56.02 55.94 55.87 55.89 56.05 56.19 55.84 55.26 55.09 55.55 56.17 56.74 57.74 59.24 56.75 54.44 63.57 64.10 62.03 59.49 62.79 64.37 61.30 62.18 62.00 59.77 60.78 59.88 64.42 65.05 63.70 64.18 63.68 63.49 62.95
57.14 56.60 56.44 56.40 56.17 56.21 56.00 56.12 56.09 55.95 55.74 55.72 55.83 55.56 55.46 55.87 56.11 55.84 55.43 54.52 55.14 58.00 58.22 57.51 58.23 59.97 56.61 59.55 64.41 63.48 64.88 61.67 63.18 64.16 61.74 62.18 62.32 61.09 59.75 62.51 61.50 61.54 62.88 59.70 63.06 63.71 65.51
56.69 56.47 56.46 56.18 56.22 56.01 56.01 56.03 55.93 55.71 55.71 55.76 55.71 55.95 55.76 55.60 55.77 54.82 54.02 53.96 56.12 58.07 58.65 58.22 59.84 60.47 54.37 63.85 61.01 64.28 64.62 59.58 60.77 61.76 61.74 61.95 61.44 59.51 59.33 57.07 56.89 58.88 56.57 57.96 60.22 63.73 64.33
56.75 56.11 56.26 56.10 56.05 56.34 56.28 55.92 55.85 56.08 56.05 56.39 56.34 56.20 55.35 55.22 55.41 54.31 53.59 53.43 57.01 58.91 60.44 62.27 61.08 55.67 58.44 55.98 60.14 61.46 63.86 61.71 58.67 58.84 57.86 57.19 57.25 56.76 56.73 55.45 50.96 53.43 55.35 57.72 58.64 61.82 63.79
56.56 56.23 55.93 55.73 55.85 56.21 56.22 55.96 55.86 56.02 56.15 56.20 56.38 56.20 55.99 55.64 54.07 53.22 54.15 59.43 58.01 57.82 57.31 55.83 54.39 55.11 55.11 59.64 61.99 59.71 61.16 60.07 58.25 56.53 52.78 54.89 52.45 51.87 54.12 55.47 55.26 56.11 56.06 55.66 59.24 62.75 61.98
56.74 55.97 55.82 55.69 56.33 56.21 56.14 56.32 56.25 56.18 55.98 56.34 56.23 55.93 55.75 54.62 53.43 53.08 56.30 57.09 55.11 55.89 52.27 56.32 54.85 54.80 57.62 60.75 56.18 58.38 61.70 55.89 55.01 51.49 53.49 52.41 50.22 55.20 55.91 55.57 54.71 55.67 54.98 56.55 58.83 61.64 61.64
56.14 56.09 55.88 56.02 55.97 56.19 56.31 56.20 56.07 56.05 56.03 56.11 55.93 55.33 54.21 53.75 53.11 54.42 58.30 55.73 58.60 57.92 51.93 52.69 54.72 53.71 55.38 58.36 55.17 55.78 59.08 57.56 54.10 52.09 51.82 50.93 52.01 55.16 54.08 54.42 54.30 56.23 55.83 57.00 56.40 57.61 60.50
56.69 56.41 55.93 55.89 55.99 56.07 56.12 56.01 56.05 55.93 55.91 55.69 55.01 54.61 53.61 52.67 50.59 58.81 55.83 57.82 58.98 58.05 48.61 48.30 50.86 52.96 55.81 55.54 52.89 58.78 59.80 57.45 54.76 51.26 51.55 51.80 54.15 52.80 53.17 54.33 56.67 53.41 56.70 57.34 56.24 55.62 52.28
56.96 56.54 56.09 55.85 55.91 56.06 55.97 55.81 55.87 55.85 55.70 55.26 54.79 53.93 52.66 50.41 57.99 56.16 56.95 59.05 58.65 56.69 40.01 48.85 50.65 56.86 55.59 53.06 54.00 55.95 59.19 57.07 52.88 52.78 53.13 50.45 51.01 51.44 52.23 54.93 57.17 54.40 56.72 56.11 57.21 54.88 55.00
57.12 56.70 56.14 55.81 55.82 55.86 55.73 55.64 55.70 55.46 55.08 54.80 54.18 52.74 52.12 56.30 58.57 58.23 58.98 59.45 56.71 45.68 39.04 46.14 50.08 49.79 51.18 52.85 51.85 55.58 54.87 57.76 56.67 54.22 55.11 53.28 55.02 53.63 53.12 56.23 57.93 58.32 56.60 55.88 55.99 54.79 49.33
57.00 56.07 55.72 55.44 55.69 55.53 55.44 55.62 55.62 55.00 54.75 54.16 52.89 51.83 53.47 60.10 57.39 60.52 59.70 56.29 46.32 42.47 48.67 45.31 47.33 49.60 50.27 49.64 49.96 52.09 52.09 51.08 49.81 48.40 49.43 52.32 52.69 54.49 54.92 54.11 58.15 57.76 54.90 48.60 47.35 47.66 47.53
56.75 56.34 56.10 55.67 55.45 55.44 55.62 55.76 55.70 55.20 54.51 53.26 51.30 50.34 57.08 60.34 61.46 60.66 58.27 51.28 41.68 45.50 46.79 48.93 48.38 49.51 47.28 48.95 49.08 50.11 50.22 48.45 51.55 52.15 50.76 47.74 46.29 52.04 54.91 55.37 54.88 55.50 54.49 48.82 43.52 44.93 47.58
56.67 56.06 55.84 55.61 55.45 55.50 55.66 55.72 55.26 54.81 53.88 52.38 50.23 60.47 61.22 61.64 61.24 60.44 54.83 44.98 45.17 46.79 47.97 47.39 47.98 46.45 46.43 47.86 48.21 49.51 49.35 48.72 50.69 52.03 47.64 48.83 48.17 54.66 54.56 57.40 57.46 54.45 52.13 55.48 50.86 51.60 48.74
56.47 55.85 55.66 55.75 55.52 55.54 55.89 55.62 55.12 54.53 53.54 51.79 60.88 59.93 58.30 60.90 61.20 58.56 52.64 43.98 47.53 49.77 49.82 49.70 45.08 46.89 43.98 46.24 46.74 47.39 48.47 50.13 49.01 50.90 52.55 50.48 46.11 51.55 52.10 53.39 55.22 53.81 56.56 50.88 51.44 45.66 44.89
56.11 55.50 55.67 55.85 55.53 55.62 56.07 55.91 55.04 54.18 52.77 51.61 59.54 56.61 59.00 61.16 60.49 55.47 47.13 48.07 48.73 50.72 51.20 49.25 46.52 45.90 46.21 46.41 46.66 46.56 46.90 49.01 49.81 50.33 51.91 50.91 50.48 48.91 50.92 49.70 50.00 51.31 51.50 53.28 53.24 50.74 47.09
56.18 55.62 55.77 55.73 55.67 55.71 56.19 55.75 54.63 53.11 51.51 49.66 58.27 53.25 59.47 59.81 52.91 53.14 49.11 49.41 46.44 50.08 51.53 49.44 50.00 47.42 46.24 47.43 46.84 46.18 46.39 48.71 50.59 51.45 47.26 50.10 49.47 46.68 47.82 51.82 52.20 52.36 51.71 52.71 48.56 48.57 50.34
56.02 55.39 55.72 55.87 55.83 56.09 56.15 55.44 54.14 52.75 52.02 59.99 55.98 53.98 59.18 58.45 49.00 48.83 49.67 48.06 49.69 49.14 49.76 48.88 48.02 48.98 49.89 45.83 45.23 46.75 47.09 48.89 50.86 51.04 49.92 50.58 47.48 44.09 45.34 48.39 51.26 49.56 51.50 52.29 52.40 52.09 50.03
55.76 55.02 55.28 55.67 55.89 56.31 56.11 55.42 54.08 52.89 52.57 57.25 54.78 50.86 53.62 55.98 54.99 50.32 47.66 46.67 45.71 48.93 48.73 49.98 49.46 50.41 49.40 46.44 48.75 46.51 45.71 47.96 49.90 51.11 49.36 51.88 48.18 46.46 42.54 45.85 49.41 47.74 48.90 50.56 50.83 48.13 49.46
55.34 54.54 54.92 55.29 55.87 56.29 56.11 55.60 54.51 53.24 52.65 57.90 54.77 50.12 52.53 48.65 49.02 49.61 49.26 47.66 45.07 44.95 48.21 49.53 47.71 48.26 48.98 46.74 46.99 46.27 48.40 48.09 49.07 49.91 51.38 51.44 43.99 47.22 46.67 47.05 48.70 48.87 48.45 48.18 48.36 50.24 48.41
55.40 54.55 54.61 55.03 55.49 56.27 56.35 55.79 54.94 53.49 52.05 58.31 54.69 54.13 52.63 51.62 50.27 48.99 46.39 47.10 45.95 46.80 48.06 46.03 45.81 46.16 48.16 47.89 48.83 47.19 48.38 49.22 48.59 50.37 50.17 51.27 45.93 46.39 43.81 46.00 46.16 44.96 46.59 46.74 48.07 49.06 50.22
55.21 54.04 54.29 54.77 55.11 55.89 56.35 56.03 55.28 53.35 54.38 57.31 59.14 57.40 54.35 47.94 49.41 49.25 47.19 46.66 46.14 48.66 48.64 49.33 48.41 48.29 46.48 47.52 49.87 51.24 52.11 51.82 51.50 50.23 48.35 49.23 47.82 46.40 42.22 45.21 43.52 40.99 45.45 46.56 47.50 48.98 50.43
54.98 53.59 53.76 54.34 54.80 55.37 56.20 56.31 55.73 54.32 53.30 60.90 58.35 57.75 54.09 48.05 49.55 48.24 47.42 48.12 47.71 49.03 47.46 49.28 50.35 48.96 49.26 52.42 51.63 50.86 49.99 49.96 49.26 49.46 50.72 48.45 48.21 47.62 43.66 45.80 36.37 44.59 48.79 48.44 47.32 48.93 52.13
55.17 53.43 53.30 53.75 54.27 54.63 55.64 56.46 56.42 55.18 53.73 61.12 61.23 58.09 55.01 50.84 49.58 48.68 48.36 48.16 49.60 50.32 49.17 49.12 49.39 51.02 53.20 51.64 48.12 45.02 45.10 45.46 46.16 47.44 47.81 49.45 48.40 44.55 41.49 42.33 44.57 44.94 46.11 45.50 46.48 45.54 50.16
55.57 53.32 52.81 53.25 53.82 53.94 54.96 55.97 56.36 55.67 53.96 60.99 60.75 62.08 57.29 54.23 50.13 50.63 49.20 50.13 49.85 48.77 49.12 49.07 51.96 54.67 52.70 50.12 48.39 41.93 42.07 43.06 42.44 43.97 48.38 47.39 49.23 45.33 43.69 39.27 37.80 45.58 48.19 50.23 49.87 43.53 49.88
55.93 53.34 52.39 52.94 53.41 53.32 54.29 55.44 55.87 56.08 54.87 57.70 60.88 62.89 58.98 53.81 53.50 53.49 52.41 52.13 52.19 50.66 50.16 50.10 50.10 49.83 51.95 50.00 46.03 44.58 43.72 44.44 40.82 40.92 42.36 43.77 44.76 42.01 43.07 41.25 45.02 48.83 48.62 49.74 39.95 44.19 50.43
55.90 53.72 52.24 52.48 53.05 52.74 53.49 54.33 55.39 55.60 55.83 56.49 60.52 62.50 59.20 55.02 55.15 54.20 54.06 53.05 52.59 52.58 49.59 51.11 49.31 49.40 48.22 45.53 46.36 45.60 43.53 44.91 42.60 44.66 43.73 44.01 42.43 42.35 43.78 41.61 38.72 50.41 48.07 44.44 49.68 51.59 51.00
55.90 54.12 52.32 52.33 52.80 52.28 52.66 53.43 54.71 55.22 55.65 54.97 59.99 62.53 61.91 57.39 57.01 57.96 57.15 58.18 56.87 56.42 54.62 51.93 51.07 48.64 50.57 48.71 48.73 48.11 44.95 46.08 44.01 41.65 46.82 41.76 46.22 44.04 45.15 45.23 50.90 51.65 50.26 52.93 52.80 51.39 49.94

GFSGBSN_sfc_wetblb_078.txt.gz
Wetbulb
57.75 57.73 57.84 57.37 57.18 56.68 56.43 56.25 56.39 56.39 56.45 56.56 56.53 56.27 56.29 56.36 56.49 56.86 57.05 57.19 56.88 56.59 56.63 56.79 57.49 58.33 58.44 56.46 54.48 66.65 68.60 67.91 59.25 62.94 65.63 62.99 59.48 62.13 61.54 63.90 66.67 62.67 65.11 66.55 66.67 68.83 67.92
57.51 57.46 57.16 56.96 56.90 56.54 56.29 56.13 56.09 56.15 56.15 56.13 56.21 56.28 56.03 56.01 56.10 56.52 56.62 56.40 56.05 56.04 56.35 56.96 57.26 58.09 55.72 52.34 62.42 66.23 60.94 58.08 58.88 62.89 65.24 62.73 59.81 63.60 63.02 63.08 65.26 66.46 64.84 65.31 65.63 64.82 66.48
57.53 57.30 57.11 56.84 56.61 56.28 56.09 56.09 55.99 56.17 55.99 55.98 55.75 56.26 55.79 55.72 56.42 56.33 56.10 55.82 55.43 55.81 56.86 57.69 57.64 58.21 56.70 55.60 62.87 64.70 61.23 57.47 59.94 62.57 62.45 63.04 62.21 61.89 61.91 59.56 64.97 65.29 64.02 64.69 64.27 64.16 64.46
57.16 56.80 56.69 56.58 56.51 56.70 56.64 56.39 56.45 56.59 56.26 56.19 56.11 56.30 56.40 55.96 56.13 56.06 55.69 55.39 54.98 56.50 59.24 59.08 58.47 58.09 54.80 60.95 62.94 62.37 61.14 58.32 60.30 63.00 64.45 63.37 62.92 60.07 59.12 60.96 61.38 61.06 62.45 59.13 63.06 62.99 64.87
57.48 56.67 56.39 56.32 56.44 56.22 56.67 56.47 56.18 56.45 56.45 56.49 56.39 56.36 56.12 55.79 55.61 55.89 55.02 54.73 55.29 59.78 59.35 59.50 57.19 57.41 54.92 63.18 59.23 61.99 62.77 58.46 59.99 62.68 63.21 61.74 60.59 58.02 58.65 55.58 56.16 58.32 55.86 57.45 58.60 62.98 64.23
57.66 56.90 56.57 56.35 56.63 56.69 56.69 56.64 56.68 56.70 56.73 56.59 56.34 55.76 55.94 55.52 54.99 54.65 54.30 54.03 57.77 58.30 58.80 59.64 60.90 55.70 57.36 56.60 58.73 61.99 63.64 60.98 58.88 59.68 58.54 57.80 57.05 54.89 55.64 54.26 49.74 53.44 54.86 57.63 57.59 61.33 62.93
57.09 56.63 56.52 56.29 56.59 56.66 56.78 56.93 56.85 56.43 56.35 56.57 56.70 56.41 56.04 55.43 54.47 53.85 54.17 58.79 56.20 57.03 58.37 55.21 55.58 56.17 56.57 60.37 60.92 60.32 62.42 58.85 58.40 57.32 53.08 55.78 51.98 50.15 53.54 55.03 55.57 56.32 55.52 55.17 60.33 61.89 61.03
57.06 56.88 56.40 56.07 56.43 56.33 56.45 56.87 56.62 56.22 56.31 56.64 56.24 55.93 55.55 55.16 54.46 53.79 54.30 58.16 55.40 56.43 51.43 56.95 56.63 56.02 57.92 59.91 55.58 57.29 61.23 55.75 54.53 51.38 54.08 52.67 49.39 53.64 55.89 55.79 54.36 54.11 53.47 54.59 58.58 61.34 62.72
57.17 56.73 56.54 56.43 56.42 56.55 56.60 56.47 56.43 55.97 56.04 55.82 55.57 55.65 54.93 54.26 53.55 53.47 57.35 57.71 58.47 57.68 51.04 54.37 55.62 54.36 56.08 59.42 55.98 55.47 57.74 56.60 52.94 51.31 51.42 50.14 51.53 54.19 54.74 53.98 52.81 52.69 52.36 55.07 56.73 57.51 61.30
57.62 57.27 56.82 56.55 56.46 56.38 56.31 56.31 56.19 55.89 55.62 55.27 55.35 54.88 54.22 52.94 49.78 58.85 56.87 57.98 58.60 57.91 47.55 49.89 51.25 53.80 55.59 57.54 54.67 59.04 59.44 56.02 53.98 50.97 52.07 50.92 54.13 52.35 52.42 52.33 53.36 50.96 55.94 56.80 57.49 56.03 52.02
57.69 57.53 56.83 56.53 56.24 56.29 56.05 56.05 56.01 55.41 55.28 55.10 55.36 54.46 53.54 51.40 56.33 56.71 57.80 58.43 58.88 56.00 39.18 49.87 50.98 57.33 55.39 52.99 54.30 55.64 59.53 56.70 53.41 51.96 52.09 50.13 51.41 51.28 50.44 52.29 54.93 53.85 57.08 56.21 56.82 55.50 54.23
57.80 57.37 56.72 56.44 56.28 56.13 55.93 55.62 55.84 55.43 55.22 55.36 55.11 54.10 52.84 55.46 56.97 58.47 58.33 58.69 56.93 45.22 39.24 46.82 51.10 50.06 50.99 52.51 52.68 56.00 55.57 58.00 56.97 53.48 53.52 51.66 54.56 53.44 52.61 54.64 56.57 57.97 56.37 54.90 55.53 54.62 48.56
57.86 57.23 56.53 56.46 56.13 55.95 55.68 55.64 55.80 55.56 55.31 54.91 53.84 52.60 52.92 59.72 56.81 60.23 59.32 55.87 46.03 41.07 50.59 46.07 46.65 49.42 49.50 49.75 50.54 52.72 52.25 50.90 49.76 47.42 48.54 52.02 52.38 52.65 54.30 52.06 55.78 56.04 54.14 47.52 46.37 47.46 47.06
58.08 57.01 56.38 56.21 55.96 55.76 55.70 56.02 55.80 55.37 54.87 53.76 51.86 51.29 55.35 59.13 62.00 60.75 58.18 51.61 40.77 45.85 44.95 50.14 48.86 48.75 47.46 50.14 49.75 50.62 50.38 48.50 52.30 51.49 49.79 47.92 45.82 52.63 54.62 52.02 51.97 53.93 53.56 48.56 42.59 43.91 46.87
58.14 56.91 56.24 56.03 55.90 55.66 55.86 55.84 55.58 54.97 54.32 52.96 50.88 59.60 58.38 62.46 62.57 60.61 54.93 46.45 42.07 43.98 48.98 48.03 47.47 46.23 46.60 48.67 48.88 48.93 49.61 49.59 51.09 52.17 47.86 47.42 48.24 54.24 54.42 54.23 54.73 53.67 51.77 55.81 50.43 50.97 47.76
58.22 56.73 56.04 56.03 56.05 55.90 55.84 55.86 55.42 54.99 54.12 52.61 58.00 59.64 60.40 59.93 61.47 59.72 51.17 44.87 48.08 49.80 50.15 50.21 45.47 47.27 44.33 46.26 46.56 47.66 47.89 51.16 50.24 52.56 53.31 50.48 46.80 52.72 53.04 54.50 55.76 53.70 56.49 50.19 51.18 44.14 43.30
57.98 56.53 55.86 56.17 56.07 55.94 56.23 55.91 55.38 54.42 53.17 52.29 58.06 56.11 59.78 59.43 59.41 54.70 47.75 47.86 49.34 50.92 51.09 49.45 48.47 47.10 46.30 46.80 47.38 47.41 46.85 50.13 51.30 51.05 52.46 51.42 50.78 49.31 52.91 51.13 51.25 52.99 52.19 52.23 52.17 50.93 46.45
57.78 56.20 55.76 56.03 56.03 56.07 56.39 55.89 55.05 53.56 52.00 50.45 58.75 52.48 59.37 58.53 52.56 52.66 48.90 49.56 47.24 50.56 50.78 49.75 50.23 49.41 48.16 48.83 46.45 46.73 45.70 48.14 51.50 51.47 48.31 51.10 49.02 46.65 48.42 52.41 54.05 53.92 52.53 52.49 48.88 48.46 50.63
57.65 56.10 55.74 55.81 55.99 56.29 56.41 55.60 54.48 53.05 52.69 56.94 56.34 53.67 58.66 58.40 47.80 49.97 49.93 48.59 50.32 50.20 49.96 48.87 48.43 48.16 50.24 47.47 45.66 48.29 47.63 50.15 51.43 51.01 49.71 51.39 47.00 44.68 45.89 49.43 51.58 49.37 51.53 52.16 52.12 52.35 50.44
57.54 56.06 55.51 55.82 56.03 56.23 56.29 55.46 54.24 53.39 53.00 56.06 56.29 50.79 53.69 55.22 53.44 50.45 48.28 47.20 46.36 48.95 49.51 51.22 50.35 50.53 47.79 46.65 48.15 47.45 47.28 48.85 50.73 51.45 52.16 53.16 46.84 46.17 40.22 44.75 49.10 47.52 49.60 51.40 50.47 47.31 48.65
57.24 55.33 54.90 55.64 56.07 56.35 56.33 55.68 54.42 53.48 53.09 56.95 55.70 49.85 52.91 48.40 49.15 49.84 50.19 48.11 45.77 45.90 48.21 49.74 49.03 49.28 48.09 45.58 45.59 45.17 48.63 48.31 49.76 49.74 50.51 50.29 44.91 47.36 48.40 48.35 48.03 48.93 48.59 49.76 48.64 50.03 48.34
57.18 55.28 55.08 55.28 55.83 56.07 56.35 56.09 55.09 53.71 52.24 58.61 53.49 52.94 53.67 51.56 51.05 50.23 46.81 47.26 46.81 47.57 49.09 46.49 46.48 46.97 48.63 46.49 46.57 45.64 48.71 48.71 46.89 50.19 49.18 50.57 45.88 48.08 45.57 48.12 47.12 46.19 48.84 48.72 49.37 49.41 50.42
57.16 55.12 54.32 54.83 55.42 55.71 56.21 56.17 55.56 53.99 53.77 57.73 58.37 57.90 55.09 49.14 50.68 48.81 47.01 47.19 46.92 48.97 48.69 50.07 49.45 48.60 47.22 49.44 51.32 52.41 52.96 52.85 50.52 50.38 49.19 48.51 46.67 44.95 42.57 46.75 46.00 42.53 46.28 47.04 47.80 49.86 51.77
57.07 55.36 54.02 54.20 54.73 55.11 55.91 56.25 55.99 54.81 53.50 58.97 58.68 58.69 54.52 49.00 49.37 48.11 47.99 48.78 48.77 49.84 48.21 50.20 51.58 49.85 50.83 52.50 52.18 51.11 50.31 49.86 50.12 50.66 51.55 48.64 48.65 46.86 43.07 44.43 36.34 46.51 50.64 49.42 47.81 49.98 53.60
57.25 55.98 53.92 53.75 54.26 54.60 55.18 56.27 56.64 55.62 54.30 58.18 60.72 58.80 55.44 50.20 49.64 48.90 48.63 48.77 49.99 51.07 49.71 49.45 49.97 51.87 53.72 52.07 48.02 44.68 44.83 45.60 46.85 47.84 48.47 49.53 47.59 44.02 41.36 37.67 43.52 46.23 47.58 47.40 46.44 47.27 53.53
57.25 56.17 53.91 53.48 53.79 54.13 54.70 55.72 56.62 55.79 54.54 57.65 61.40 61.68 58.70 52.86 50.71 51.59 49.55 50.70 49.99 49.27 49.67 49.36 52.24 54.39 53.23 50.54 47.66 41.94 39.87 44.52 42.29 45.07 48.73 48.61 48.92 45.66 43.75 39.39 37.00 45.18 48.19 50.51 50.20 43.44 52.21
56.90 56.47 53.98 53.09 53.40 53.92 54.19 54.97 55.97 56.30 55.11 55.50 60.23 63.41 59.97 54.52 54.06 53.33 52.23 52.10 51.98 50.70 50.05 50.71 50.32 50.45 52.61 49.25 45.02 44.53 43.53 45.88 41.71 42.03 42.87 43.31 44.36 42.11 42.59 41.27 44.16 49.51 49.32 50.43 40.68 43.59 51.94
56.12 56.40 54.32 52.87 53.04 53.78 53.43 54.27 55.09 55.84 56.05 55.50 60.72 62.80 59.52 56.73 55.87 54.65 54.39 53.11 52.73 52.81 49.73 51.53 49.84 50.25 49.01 45.69 46.15 46.45 43.92 46.29 43.36 45.62 45.30 43.48 42.79 43.04 43.02 41.15 39.59 51.19 49.14 44.60 50.15 52.44 51.38
55.78 56.40 54.61 52.59 53.11 53.74 53.30 53.72 54.55 55.20 55.76 55.29 58.76 62.98 62.27 57.34 57.05 58.62 57.20 57.81 56.95 57.01 54.45 52.47 50.87 50.96 51.19 48.73 48.34 48.59 45.27 46.11 44.58 41.23 47.87 42.88 46.23 45.77 45.59 46.13 52.31 52.20 51.78 54.20 53.90 52.07 51.58

GFSGBSN_sfc_wetblb_081.txt.gz
Wetbulb
57.91 57.53 57.27 57.15 56.90 56.87 56.55 56.33 56.31 56.22 56.61 56.37 56.22 56.11 56.07 56.10 56.15 56.33 56.55 56.78 56.49 56.26 56.78 57.18 57.55 57.77 56.01 51.79 52.08 63.82 70.48 69.60 62.57 58.41 58.92 62.74 61.06 57.05 56.21 61.14 65.19 61.45 62.70 66.12 67.66 66.97 67.01
57.44 57.13 57.02 56.95 56.77 56.42 56.21 55.97 56.24 56.05 56.03 55.97 55.77 55.79 55.82 55.63 55.90 56.44 56.45 56.24 56.08 56.28 56.31 56.96 57.90 57.84 52.87 45.89 63.93 64.72 61.54 59.13 54.62 55.34 58.91 63.28 60.79 58.56 58.82 60.90 63.52 62.83 62.65 62.98 66.19 65.53 66.12
57.84 57.39 56.66 56.70 56.47 56.15 56.06 56.66 56.46 56.30 56.46 56.37 56.48 56.58 56.21 56.03 56.01 56.33 56.18 56.01 56.11 56.09 56.24 57.58 58.47 57.03 52.01 51.18 63.66 62.16 58.04 52.50 52.62 56.15 60.66 64.28 63.85 56.44 58.67 58.32 63.14 64.73 59.16 61.99 64.17 65.83 64.61
58.32 57.34 56.36 56.38 56.74 56.14 56.85 56.65 56.45 56.60 56.55 56.53 56.51 56.70 56.20 56.14 56.05 55.87 55.60 55.72 55.58 56.09 57.46 59.63 58.74 55.07 48.97 58.49 59.18 61.11 58.03 54.04 55.46 57.07 62.10 62.54 61.20 56.99 54.74 57.72 57.57 60.61 60.14 55.12 61.47 63.43 66.17
58.08 57.16 56.84 56.45 56.25 56.90 56.96 56.96 56.97 57.24 56.85 56.08 56.01 55.91 55.97 55.90 55.53 55.10 54.92 55.02 55.57 57.15 59.89 60.31 54.17 51.96 50.70 61.99 56.60 59.04 58.38 54.88 53.31 56.84 58.94 62.89 58.37 53.39 54.68 50.54 47.96 52.46 49.44 54.81 58.29 63.89 64.32
58.07 57.23 56.79 56.70 56.90 57.07 56.92 57.07 57.21 57.09 56.04 55.87 56.14 55.83 55.81 55.32 55.02 54.56 54.24 54.24 55.38 56.38 57.73 58.03 56.36 49.66 54.38 55.40 56.22 58.18 59.10 57.00 54.35 55.75 57.31 56.30 51.71 48.45 48.99 46.09 41.38 47.68 49.73 52.33 54.98 59.65 63.27
58.29 57.41 57.11 56.75 56.45 56.96 56.98 57.19 57.15 56.89 56.10 55.93 55.88 55.85 55.23 55.47 55.10 54.22 52.85 54.21 50.47 51.27 55.51 49.83 51.04 54.74 56.20 58.74 58.58 56.89 60.36 57.66 56.16 54.26 49.01 51.99 46.40 44.00 47.71 50.47 51.69 52.46 52.28 52.63 58.47 61.11 58.53
58.43 57.43 57.28 56.91 56.90 56.77 56.79 56.89 56.70 56.05 56.05 55.79 55.45 55.04 54.79 54.82 54.43 54.00 51.20 52.09 56.23 51.29 46.66 55.79 54.70 55.45 57.46 57.40 53.30 57.41 59.74 52.43 51.93 48.17 50.99 47.81 44.58 50.65 52.59 53.08 52.33 51.16 48.67 51.07 57.92 62.12 59.42
58.59 57.92 57.55 57.07 56.79 56.66 56.74 56.62 56.45 55.49 55.36 55.34 55.17 54.94 54.25 54.59 53.28 50.20 52.07 54.85 58.70 53.29 45.15 50.09 54.93 54.16 53.51 56.11 53.39 53.82 56.60 53.90 50.10 48.48 49.16 45.81 49.10 53.60 51.17 51.17 50.81 49.31 46.62 48.82 54.22 57.92 60.44
58.35 57.61 57.35 56.99 56.78 56.64 56.52 56.26 56.27 56.03 55.38 55.25 55.51 54.72 54.06 53.29 50.45 54.48 53.79 57.06 57.67 54.44 40.10 47.22 50.38 52.71 53.43 55.03 52.62 57.41 57.20 54.66 50.83 47.64 49.08 47.90 51.73 51.06 49.38 49.01 50.10 43.61 51.33 52.20 56.31 53.34 49.56
58.20 57.79 57.09 56.71 56.74 56.64 56.28 55.99 55.95 55.99 55.99 55.77 55.83 55.36 54.29 52.30 50.22 51.58 55.72 54.31 54.00 51.47 33.65 50.09 49.63 55.53 52.18 49.67 52.90 54.04 57.24 53.92 49.41 49.06 47.98 46.28 48.06 48.04 47.70 49.00 51.24 48.30 52.30 53.18 55.46 51.11 50.72
58.10 57.89 57.12 56.71 56.70 56.38 56.01 55.60 55.89 55.83 55.93 55.81 55.30 54.58 53.42 52.22 51.76 53.75 57.23 57.55 52.77 40.21 36.41 47.18 49.73 48.53 47.64 49.60 51.03 53.81 54.56 55.27 54.21 50.97 49.92 49.14 52.38 50.00 49.39 51.40 51.71 53.34 51.34 52.50 53.27 51.34 45.44
58.49 58.01 56.88 56.25 56.42 56.13 55.69 55.73 55.72 55.60 55.36 54.74 53.79 52.61 51.68 55.84 53.31 58.68 58.08 52.56 40.89 37.29 48.82 46.38 45.28 47.30 46.50 47.22 48.76 49.79 50.03 47.80 45.13 40.07 42.08 48.48 48.83 49.94 51.42 47.11 50.32 49.55 45.73 40.12 39.21 40.43 43.52
58.97 57.74 56.45 55.94 55.93 55.99 55.91 55.89 55.68 55.36 54.82 53.83 52.05 51.34 52.57 56.13 57.20 58.89 56.16 49.41 38.55 43.88 44.54 50.12 49.26 46.13 44.06 47.29 47.81 49.86 48.18 44.79 49.14 47.49 43.17 41.45 40.83 48.92 50.31 47.44 46.36 47.23 45.46 40.95 35.72 37.43 41.89
58.94 57.80 56.37 55.72 55.89 55.95 55.91 55.89 55.48 55.08 54.37 52.99 50.82 55.17 56.10 58.01 58.24 57.68 52.11 40.98 41.52 43.69 47.53 47.02 47.10 43.08 43.26 47.00 46.79 47.06 46.47 46.04 47.92 48.67 41.26 43.53 44.17 51.93 52.25 50.68 48.64 46.75 45.18 49.45 43.78 42.77 39.75
58.90 57.98 56.37 55.82 55.95 55.89 55.93 55.93 55.54 55.10 54.09 52.90 52.40 54.55 55.21 60.94 60.98 56.96 48.18 43.25 46.34 49.38 48.88 49.11 43.96 45.02 42.18 45.48 45.05 44.53 45.40 48.89 49.41 51.09 49.01 45.30 40.76 48.72 52.65 52.38 50.57 46.90 51.08 43.78 43.27 37.34 38.00
58.82 57.86 56.33 55.76 55.79 55.89 56.13 56.09 55.36 54.53 53.38 52.27 54.58 52.41 58.18 58.91 58.96 52.11 44.50 45.86 48.79 50.24 49.23 47.34 45.76 45.10 45.39 44.68 46.54 45.66 44.89 48.11 49.19 48.89 48.61 45.05 43.02 46.65 49.98 45.34 44.90 47.71 45.66 46.76 44.70 43.20 38.43
58.71 57.63 56.26 55.64 55.71 55.97 56.23 56.11 54.92 53.57 52.11 51.56 55.77 49.77 60.27 55.23 49.50 50.74 46.39 47.11 47.70 48.95 50.77 48.20 47.83 47.04 45.94 46.50 45.02 44.61 45.21 47.08 49.67 49.20 44.72 47.76 43.32 40.52 43.92 50.14 50.72 47.61 47.67 48.04 40.57 39.70 44.38
58.43 57.81 56.20 55.46 55.59 56.22 56.19 55.77 54.47 53.12 52.66 52.69 51.74 53.56 55.94 55.84 46.06 46.45 47.64 47.66 48.16 47.51 48.08 48.67 47.55 47.16 47.53 45.49 43.76 46.45 47.34 49.47 50.58 49.31 44.67 45.46 41.22 37.19 42.22 46.17 46.29 44.11 47.54 44.51 44.15 43.38 43.19
58.35 57.92 56.29 55.54 55.74 56.08 56.01 55.46 54.43 53.58 52.91 51.81 52.74 48.56 52.35 52.80 50.61 47.21 46.22 45.92 45.58 48.03 47.86 48.80 49.00 48.81 45.20 43.88 44.71 43.51 45.72 48.41 49.93 48.87 54.83 50.90 42.66 39.16 37.30 42.21 44.28 41.98 45.42 46.63 42.93 37.98 44.41
57.96 57.80 56.17 55.44 55.58 55.94 55.95 55.46 54.75 53.84 52.83 52.58 53.76 46.82 50.66 44.37 46.18 46.38 47.39 47.18 45.57 44.89 48.53 48.28 47.97 48.23 46.54 42.34 43.73 42.47 47.17 47.41 48.90 51.20 47.85 44.07 38.93 41.34 45.48 47.31 46.18 44.67 45.14 46.82 43.51 43.05 44.29
57.93 57.66 56.17 55.28 55.56 55.88 55.97 55.79 55.12 54.06 52.46 57.25 50.29 49.46 52.24 48.01 50.11 49.55 45.70 44.89 45.24 45.86 46.72 45.91 45.55 47.17 48.62 43.66 44.23 43.41 45.54 45.71 43.39 46.52 42.25 44.43 39.86 42.93 40.79 46.40 45.86 43.79 45.82 47.41 47.25 50.21 50.06
57.57 57.46 56.09 55.13 55.20 55.43 55.73 55.73 55.52 54.17 52.87 56.71 56.67 56.90 53.68 49.28 48.51 45.84 44.50 45.39 45.90 49.40 48.23 48.74 48.53 47.60 46.66 47.53 50.13 50.22 49.16 48.32 47.66 44.16 44.35 42.27 41.10 39.51 35.43 45.03 45.06 39.14 43.63 44.44 49.15 51.94 50.11
57.57 57.78 56.47 54.87 54.89 55.09 55.47 55.85 55.95 54.88 53.42 53.23 57.78 56.16 52.59 48.44 47.20 46.18 47.51 48.70 47.87 48.54 47.31 48.81 49.97 48.03 48.99 50.04 48.58 45.91 47.22 46.69 46.90 45.94 45.83 42.08 41.94 40.01 35.42 39.93 32.13 42.62 48.69 47.82 46.26 51.47 52.04
57.05 57.68 56.79 54.97 54.67 54.94 55.25 55.76 56.20 55.62 54.23 53.65 57.72 55.82 54.92 49.09 48.40 48.01 48.16 47.92 49.07 49.06 48.23 47.95 49.16 49.62 50.64 48.53 43.03 40.14 39.21 39.37 43.29 45.13 42.17 43.54 41.21 37.64 34.87 33.83 39.58 44.38 46.78 44.73 44.01 46.83 52.90
56.41 57.50 57.12 54.99 54.23 54.39 54.74 54.98 55.86 55.83 54.57 55.01 57.05 60.63 56.39 52.22 47.91 51.13 49.21 51.41 47.13 46.91 47.38 48.03 50.39 50.79 49.81 46.10 44.66 37.38 36.25 40.58 40.74 42.37 42.75 43.71 42.88 38.98 38.76 35.74 31.39 40.78 46.56 49.80 48.53 41.07 52.41
55.55 56.79 57.40 55.44 53.85 53.77 54.47 54.65 55.52 56.14 54.96 54.08 56.08 61.88 57.45 53.24 52.94 53.24 50.43 50.04 51.06 49.36 46.96 48.38 48.08 47.47 48.46 44.15 41.13 39.60 38.81 45.67 37.37 39.82 39.30 37.87 38.22 35.63 36.88 35.55 41.20 45.99 47.67 49.30 38.58 41.20 48.86
54.94 55.71 56.93 55.82 53.65 53.51 54.31 54.24 54.75 55.31 55.77 54.72 56.21 61.19 57.13 54.10 55.56 55.25 54.96 52.94 51.49 51.22 46.94 48.56 47.14 47.86 44.74 40.87 42.65 42.42 40.32 42.29 39.02 41.10 39.62 38.84 36.89 35.88 36.96 33.94 32.81 49.04 47.63 42.48 46.18 47.54 48.29
54.43 55.64 56.57 55.79 53.51 53.78 54.02 54.01 54.44 54.59 55.30 55.28 56.50 62.45 61.74 55.20 55.55 58.88 57.41 59.21 57.27 55.71 51.76 49.49 48.03 48.60 47.39 44.52 44.43 45.21 41.91 41.62 41.04 35.88 43.27 35.87 42.10 38.45 40.15 39.81 46.88 49.30 48.32 49.48 49.75 47.73 48.41

GFSGBSN_sfc_wetblb_084.txt.gz
Wetbulb
57.56 57.13 56.78 56.72 56.42 56.31 56.10 55.91 55.96 56.06 56.06 56.41 56.21 55.96 56.10 55.95 56.15 56.19 56.38 56.46 56.17 55.87 56.46 57.10 57.62 58.06 54.36 48.65 50.31 60.85 72.61 69.34 67.12 58.76 54.54 56.54 59.17 58.19 55.59 58.11 63.77 61.85 63.08 65.44 66.36 66.15 66.24
57.27 57.14 56.82 56.78 56.40 56.17 55.84 56.34 56.80 56.69 56.54 56.63 56.52 56.64 56.18 55.92 56.11 56.32 56.21 55.99 55.77 55.89 56.35 56.41 57.17 57.79 50.68 41.65 57.80 64.79 62.63 59.80 56.03 54.58 54.35 59.02 60.63 60.44 56.10 57.31 62.51 64.29 62.97 64.82 65.78 66.05 66.68
57.23 56.79 56.71 56.48 56.80 56.20 56.69 56.72 56.74 56.81 56.95 56.63 56.58 56.25 56.19 55.93 56.06 56.30 56.11 55.56 55.76 56.26 56.07 56.56 57.67 56.47 50.95 48.16 60.29 62.48 57.68 53.11 50.42 53.20 55.90 57.41 61.93 58.94 54.61 54.01 60.82 63.77 59.67 62.23 63.96 64.95 64.49
57.68 57.47 56.65 56.54 56.93 56.99 56.86 56.76 57.02 57.00 56.54 56.01 55.86 55.79 56.23 55.82 55.84 55.56 55.08 54.95 55.67 56.24 56.44 58.08 58.41 53.44 46.12 57.09 55.88 57.35 55.91 51.05 51.88 52.35 56.52 61.20 61.39 57.28 53.54 55.03 59.59 60.64 58.72 54.57 62.04 64.43 64.60
58.52 57.73 57.39 56.71 57.15 57.02 57.06 56.87 56.95 57.14 56.15 56.05 55.66 56.22 56.05 55.88 55.31 54.86 54.40 54.87 55.49 56.95 58.07 59.91 50.93 49.08 46.33 60.89 55.19 55.85 55.58 52.19 49.78 52.16 54.48 59.76 56.94 53.08 52.46 48.60 45.15 55.24 51.52 54.74 58.91 64.75 63.77
58.50 57.73 57.52 56.58 56.48 56.93 56.98 56.98 57.18 56.96 55.79 55.71 55.55 55.74 55.10 54.89 54.60 54.70 54.26 54.64 54.80 55.56 57.49 57.64 55.68 47.56 51.69 53.51 54.14 56.18 56.36 54.61 50.41 51.21 53.36 53.17 50.89 46.65 46.37 44.33 39.71 43.41 46.73 52.81 56.64 61.93 62.92
58.66 57.75 57.45 57.14 56.84 56.78 56.88 57.07 56.95 56.42 55.68 55.33 55.33 54.93 54.64 54.39 54.44 53.96 50.86 50.70 49.19 49.11 51.35 45.94 48.01 51.60 54.66 55.88 56.46 54.30 56.34 53.21 51.16 50.67 46.90 50.16 44.47 42.06 45.39 47.10 48.85 48.24 47.47 49.96 57.77 61.60 58.43
58.67 57.91 57.29 56.87 56.76 56.82 56.73 56.85 56.79 56.44 55.68 55.25 55.22 54.91 54.57 54.01 54.16 53.22 48.65 47.37 52.46 50.48 43.08 53.64 52.60 54.13 56.13 55.20 51.80 54.24 57.06 50.39 48.87 45.71 48.29 45.65 42.17 47.49 50.18 50.67 49.61 48.69 46.28 48.18 59.55 61.07 57.90
58.10 58.34 57.44 57.14 56.81 56.85 56.85 56.61 56.34 56.28 56.20 55.49 55.59 55.76 54.72 53.60 53.06 48.02 47.71 50.60 55.41 51.93 41.89 46.91 52.62 52.34 52.81 53.17 51.49 51.42 54.99 51.66 48.57 46.34 46.39 43.10 46.97 51.91 50.76 48.79 47.62 46.12 43.70 46.36 53.68 58.58 58.61
58.48 57.86 57.51 56.88 56.79 56.65 56.65 56.26 56.18 56.18 56.02 55.70 55.94 55.51 54.58 53.49 49.01 49.06 49.40 53.03 52.84 51.25 36.13 42.47 44.90 52.25 52.46 52.54 49.53 56.70 56.22 52.82 48.77 46.03 47.10 45.81 50.11 50.27 49.00 48.09 46.72 41.26 49.19 50.54 55.62 51.60 47.22
59.31 57.52 57.75 56.66 56.41 56.63 56.36 56.10 55.96 56.02 55.94 55.62 55.69 55.33 53.65 52.77 46.65 46.79 52.36 51.27 51.87 47.35 30.04 49.62 48.04 54.25 49.32 48.92 51.47 51.80 55.86 52.05 47.06 47.45 45.62 44.13 46.48 46.66 46.17 47.91 48.15 46.04 49.94 50.23 54.08 50.20 52.49
59.23 57.90 57.96 56.72 56.42 56.42 56.14 55.77 55.73 55.67 55.59 55.59 55.27 53.99 52.74 49.90 48.29 50.00 52.41 53.40 48.04 38.12 33.45 46.29 48.12 46.25 45.27 46.10 48.41 51.42 52.07 52.67 52.34 48.33 47.40 46.74 50.48 47.72 47.15 49.54 49.54 50.79 49.23 51.70 50.04 48.46 41.86
59.19 58.34 57.97 56.60 56.13 56.18 55.82 55.61 55.59 55.51 55.29 54.54 53.59 52.33 51.08 53.90 48.81 52.16 52.65 48.59 39.26 37.67 48.24 45.58 44.72 46.08 42.86 44.25 46.20 47.41 48.34 45.35 43.18 38.58 38.58 45.80 47.22 48.91 49.18 45.36 46.69 46.74 42.88 37.40 36.49 40.00 40.15
59.01 58.38 57.84 56.35 55.64 55.76 55.77 55.94 55.67 55.27 54.85 53.63 51.76 51.11 50.19 53.18 51.87 52.11 50.62 44.79 35.17 43.28 43.94 48.40 47.97 45.97 41.53 44.22 44.82 46.82 45.87 42.70 46.10 43.72 39.70 38.02 38.96 46.71 49.26 45.82 43.44 43.04 43.50 38.85 35.36 36.01 40.88
58.42 58.03 57.84 56.11 55.38 55.62 55.77 55.86 55.21 54.83 54.20 52.89 50.74 47.76 49.29 53.01 54.08 52.15 46.77 36.80 37.09 42.00 47.21 45.31 45.21 41.17 41.30 43.41 43.49 45.48 44.58 42.98 45.85 44.85 39.68 37.59 41.10 50.25 51.13 48.93 47.89 43.12 41.14 45.85 41.88 38.92 39.57
58.35 58.32 58.04 56.41 55.48 55.49 55.90 55.88 55.25 54.85 53.93 51.97 47.44 48.28 49.62 55.03 55.13 50.59 42.66 39.02 41.70 47.72 49.39 46.15 39.59 42.46 39.46 43.21 44.07 42.84 43.79 45.66 46.28 47.87 43.92 41.73 38.78 44.36 50.34 49.67 47.61 44.75 47.35 41.94 39.65 35.11 33.71
58.26 57.82 57.86 56.55 55.58 55.43 56.00 55.98 55.27 54.30 53.33 51.66 49.73 47.44 54.42 54.77 54.02 46.05 38.54 40.05 46.49 48.85 48.61 44.39 41.84 42.06 40.92 41.96 43.85 43.34 41.51 44.99 47.09 46.71 45.63 41.65 38.92 41.47 46.46 43.08 43.67 44.92 42.72 43.57 42.26 39.61 36.41
57.84 58.02 57.72 56.38 55.26 55.52 56.06 55.80 54.65 53.43 52.07 51.07 47.42 44.60 55.31 51.66 43.28 42.31 40.23 43.53 46.52 45.18 46.85 45.48 44.64 43.53 42.87 45.03 42.57 43.73 42.67 43.86 48.62 46.86 42.50 42.96 37.00 35.14 42.06 48.16 49.28 47.65 43.45 42.94 41.44 40.41 42.39
56.90 57.72 57.76 56.37 55.32 55.68 55.94 55.39 54.33 52.97 52.45 48.31 45.70 47.02 53.46 51.43 39.26 38.91 41.92 43.60 44.28 43.16 43.51 44.99 44.55 43.77 45.47 43.90 41.91 44.06 44.88 47.75 48.56 46.98 41.24 42.50 37.17 33.57 38.90 43.39 45.54 42.51 42.73 39.96 40.61 40.14 41.17
57.13 57.92 58.00 56.29 55.42 55.73 55.84 55.19 54.26 53.42 52.81 48.58 46.77 43.95 45.46 44.06 40.78 40.79 39.37 39.94 40.29 45.88 44.79 45.31 45.14 45.95 43.27 41.22 43.86 42.98 44.77 46.90 48.08 46.28 55.53 48.29 36.96 38.17 34.69 41.04 41.64 40.25 43.26 43.22 39.42 35.59 41.91
57.13 58.10 57.88 56.43 55.47 55.60 55.70 55.03 54.69 53.88 52.57 49.83 47.86 44.38 42.37 38.21 40.06 39.58 40.30 41.94 42.92 41.68 45.42 44.70 44.40 45.58 42.14 36.26 40.48 42.07 44.58 45.54 46.47 50.51 45.94 42.83 37.42 37.63 44.32 43.93 43.74 42.57 43.27 44.48 38.99 41.60 42.80
57.20 57.94 57.56 56.51 55.39 55.44 55.58 55.29 55.05 54.04 52.39 52.46 45.61 45.94 47.22 41.84 42.63 40.97 39.86 38.28 42.00 42.22 42.98 42.20 43.48 46.74 45.28 39.94 40.98 39.00 42.22 41.17 40.99 45.92 43.21 40.87 38.37 38.48 39.81 46.42 44.76 41.95 44.34 46.53 48.97 50.87 48.86
57.06 57.66 57.82 56.77 55.45 55.20 55.64 55.35 55.35 54.16 51.49 50.38 52.46 51.27 48.54 44.48 40.32 38.92 38.23 40.17 44.65 45.34 45.36 47.23 47.07 44.03 42.65 44.16 46.95 46.35 44.22 43.31 41.39 41.21 41.76 41.89 36.94 35.14 33.27 42.73 44.00 37.81 41.43 43.43 48.31 51.83 49.53
56.64 57.46 57.98 57.05 55.33 54.98 55.44 55.42 55.65 54.91 52.88 48.45 51.31 49.64 46.77 44.13 40.40 41.37 44.98 46.57 45.88 45.13 43.30 45.24 46.05 43.23 45.55 46.95 45.77 43.98 42.67 41.38 42.74 40.94 40.50 37.61 36.95 34.97 32.73 37.11 31.61 41.98 46.94 46.41 47.90 49.87 49.76
56.12 56.82 57.90 57.23 55.45 54.97 55.30 55.48 55.90 55.35 54.22 49.08 50.28 50.07 48.27 44.15 45.19 43.90 44.83 44.15 44.37 43.88 43.06 45.07 45.74 45.33 45.28 44.18 38.99 34.92 36.12 37.56 41.65 41.70 38.73 39.11 35.83 33.00 31.81 30.59 37.24 43.83 45.09 43.84 41.76 44.31 51.04
55.84 55.42 56.34 57.48 55.52 54.50 54.89 55.09 55.68 55.47 54.22 50.10 49.70 53.91 50.94 46.84 42.63 48.16 45.04 45.47 41.84 40.30 41.39 43.94 45.48 46.58 45.15 40.69 38.97 32.35 29.63 37.21 37.61 41.21 40.44 39.36 37.25 34.86 33.31 30.88 28.89 38.26 46.15 48.48 48.89 39.60 49.83
55.23 55.09 55.19 57.40 55.66 53.70 54.31 54.89 54.92 55.52 54.38 51.44 49.30 53.41 51.44 47.30 48.60 46.85 45.21 44.09 45.36 42.66 40.44 41.25 41.81 42.18 43.61 38.00 37.14 31.85 32.93 41.82 33.01 35.61 35.90 35.24 32.99 31.13 33.08 31.94 38.35 44.35 46.35 48.42 36.61 38.19 48.56
54.40 54.56 54.72 56.78 55.72 53.68 54.20 54.47 54.73 54.91 55.17 51.92 50.38 53.34 51.24 47.32 49.10 51.35 50.88 46.74 47.33 44.87 40.78 42.93 42.32 43.74 39.48 36.58 37.47 33.89 32.50 35.98 33.45 37.67 35.45 35.05 31.13 28.91 32.25 28.78 29.35 47.10 46.85 40.66 42.78 44.16 46.42
53.76 53.89 55.11 56.28 55.41 53.82 54.17 54.16 54.16 54.74 54.82 54.20 51.15 55.31 55.99 49.30 49.85 53.07 53.52 52.65 53.00 51.21 46.18 42.68 43.68 42.58 41.88 39.22 39.34 38.93 35.29 36.96 35.25 30.12 38.82 32.28 38.22 34.82 36.39 35.85 43.62 45.92 45.88 46.74 47.41 45.77 45.22

GFSGBSN_sfc_wetblb_087.txt.gz
Wetbulb
57.20 56.80 56.76 56.45 56.34 55.81 55.95 56.28 56.73 56.65 56.76 56.82 56.49 56.50 56.13 56.07 56.09 56.36 56.34 56.14 56.11 55.72 55.56 56.31 56.33 57.80 53.10 45.82 47.53 55.05 72.44 67.06 68.30 60.38 54.21 55.25 57.19 58.45 55.69 58.02 62.61 60.67 63.18 65.59 64.90 64.73 65.39
56.93 56.95 56.80 56.69 56.34 56.36 56.74 56.83 56.57 56.58 56.49 56.44 56.25 56.25 56.01 56.01 56.10 56.17 56.19 56.13 55.78 55.34 55.64 55.77 56.52 57.64 49.42 38.87 49.67 62.44 62.73 64.02 60.43 54.50 52.34 55.71 59.57 60.77 56.88 56.92 61.20 62.83 64.24 63.88 65.19 63.95 65.93
57.74 57.22 57.19 56.80 56.72 56.81 56.75 56.77 56.24 56.20 56.23 56.01 55.96 55.96 55.78 55.66 55.73 55.79 55.65 55.33 55.05 55.29 55.70 55.87 56.56 56.18 49.60 45.42 58.99 61.05 58.54 53.73 51.08 52.65 50.66 54.73 60.86 58.55 56.41 52.75 58.60 63.78 60.26 61.83 63.58 64.99 63.94
58.39 57.94 57.33 56.77 56.20 56.84 56.68 56.82 56.34 56.23 56.46 55.90 55.97 56.06 56.14 55.74 55.42 55.28 54.81 54.42 55.07 55.66 56.01 56.19 57.57 52.37 42.97 53.91 55.05 54.56 55.23 51.41 51.34 49.32 53.02 57.60 57.51 56.79 54.59 55.82 57.37 59.38 58.63 54.14 61.63 64.06 64.57
58.79 58.05 57.73 57.36 56.91 56.86 56.79 56.81 56.76 56.14 56.00 56.01 55.79 55.49 55.44 55.25 54.76 54.37 54.49 54.83 55.47 56.68 56.87 58.18 49.92 46.71 44.02 58.79 53.24 53.02 56.11 50.50 48.74 48.97 52.39 57.46 55.99 52.12 51.52 47.19 44.56 48.82 49.72 53.16 58.69 63.64 62.83
58.06 58.07 57.66 57.27 56.95 56.79 56.91 56.64 56.55 56.01 55.66 55.39 55.40 55.28 54.96 54.57 53.97 53.85 54.01 53.98 54.35 55.29 57.54 57.71 54.77 45.79 50.34 51.98 53.31 54.13 54.25 52.02 48.95 49.32 51.88 51.51 49.28 45.81 44.45 43.38 39.29 42.88 47.68 52.53 56.63 61.11 61.66
57.98 58.42 57.73 57.10 56.94 56.73 56.68 56.70 56.64 56.57 55.85 55.78 55.48 54.91 54.52 54.37 53.61 53.62 50.14 49.95 48.09 46.49 49.64 44.45 46.09 50.38 53.26 55.41 56.01 53.04 54.47 51.33 49.86 49.62 45.35 48.64 44.17 41.27 45.05 46.16 47.30 47.25 45.50 46.43 57.34 62.45 60.43
58.58 57.87 57.94 56.98 56.79 56.66 56.72 56.58 56.48 56.34 55.66 55.76 55.62 55.39 55.13 54.10 52.99 52.41 47.84 45.23 49.35 49.07 43.99 51.07 51.17 51.47 54.86 54.19 50.78 52.05 54.03 47.88 46.61 43.47 46.54 44.43 41.36 46.39 48.78 48.89 47.89 47.07 45.03 50.32 57.81 59.95 59.35
59.66 57.98 57.80 57.56 56.82 56.82 56.86 56.71 56.35 56.31 55.79 55.51 55.19 54.75 54.41 53.89 53.04 48.05 45.75 47.96 51.91 50.61 41.01 45.29 51.16 50.54 50.57 52.47 50.22 49.95 52.43 49.74 45.68 44.63 45.05 42.01 45.51 50.37 49.30 47.43 46.35 42.78 42.41 45.92 53.36 57.37 58.18
59.43 58.32 57.45 57.60 56.70 56.52 56.73 56.49 56.29 56.19 55.88 55.12 54.90 55.00 54.78 53.47 47.50 47.49 47.32 49.99 50.72 49.23 35.48 42.11 43.97 50.10 51.66 50.85 47.72 54.20 54.71 51.57 47.34 44.71 45.83 44.28 49.00 49.02 46.68 46.58 45.88 38.46 47.10 50.62 56.05 51.46 48.42
58.96 58.51 57.62 57.76 56.53 56.34 56.37 56.21 56.01 56.01 55.82 55.76 55.60 55.14 53.52 51.31 46.07 46.50 50.28 50.31 49.46 45.62 30.53 48.14 47.95 52.73 48.41 47.97 49.47 50.41 55.15 51.34 45.81 45.87 44.81 43.85 45.45 45.45 45.14 46.55 47.42 45.08 48.15 49.18 55.28 48.55 48.93
58.65 58.73 57.74 58.04 56.47 56.06 55.95 55.78 55.92 55.72 55.56 55.56 55.14 54.14 52.92 49.34 47.32 50.01 51.94 49.97 47.20 38.30 33.82 45.03 48.99 47.08 43.70 45.14 47.36 50.51 51.15 52.26 50.88 46.92 45.16 45.88 48.50 47.08 46.71 48.40 48.59 49.21 46.83 48.41 46.76 45.28 41.44
58.65 58.38 58.08 58.11 56.26 55.75 55.56 55.76 55.76 55.36 55.14 54.53 53.47 52.24 51.02 52.47 48.01 50.01 50.53 48.24 37.89 33.43 45.96 44.44 43.40 45.51 42.40 42.31 44.91 46.06 46.77 43.74 42.22 38.03 37.23 43.95 45.47 47.23 47.92 43.10 44.81 44.75 41.23 37.42 37.97 38.89 39.86
58.58 58.24 57.99 57.69 56.25 55.40 55.60 55.90 55.60 55.22 54.61 53.56 51.39 50.31 49.91 52.21 49.84 51.91 49.25 41.99 33.47 41.60 41.87 45.91 45.75 43.64 41.80 42.13 44.62 44.89 44.68 42.08 44.16 42.46 37.99 37.05 37.20 45.22 47.09 45.26 42.37 41.61 41.20 36.67 33.79 34.99 39.62
58.45 58.19 57.81 57.49 56.17 55.34 55.56 55.74 55.28 54.88 54.09 52.55 50.21 46.86 47.95 50.78 51.94 50.34 45.97 35.15 35.57 39.65 45.11 44.15 43.29 39.56 39.77 43.05 43.13 42.96 42.77 42.20 44.42 43.51 39.13 35.83 39.03 48.05 49.52 47.49 46.24 41.45 39.87 43.93 38.62 37.05 37.25
58.41 58.14 58.10 57.49 56.29 55.18 55.54 55.66 55.22 54.84 54.03 52.17 47.31 47.62 48.14 52.82 53.56 48.63 41.87 37.59 39.43 45.96 47.62 44.19 37.50 40.13 38.33 40.92 41.37 39.95 39.98 43.65 44.28 45.91 42.92 40.16 37.10 42.47 48.68 48.37 46.12 44.29 46.28 40.14 38.25 34.19 32.51
57.68 57.48 58.01 57.73 56.25 55.28 55.64 55.74 55.06 54.40 53.43 51.77 47.75 47.20 52.01 52.16 51.61 44.40 37.11 38.26 44.56 47.05 49.49 41.97 40.31 40.94 40.27 42.50 42.75 40.16 39.76 43.24 45.50 45.67 45.23 38.86 37.64 40.15 44.82 42.21 39.53 42.62 41.73 41.15 40.22 38.19 35.28
57.32 57.05 57.71 57.49 56.09 55.28 55.71 55.50 54.58 53.56 52.13 49.85 45.35 43.22 53.03 50.44 44.28 39.48 38.15 41.68 45.18 43.03 45.06 44.37 42.87 41.48 41.51 42.72 42.02 40.86 40.18 41.82 46.84 45.69 41.67 40.57 35.60 34.50 39.58 45.36 45.87 43.26 38.81 40.94 39.16 37.60 39.45
56.84 56.99 57.85 57.39 55.99 55.53 55.63 55.16 54.11 52.86 52.05 46.72 43.27 43.38 51.62 49.67 38.13 38.11 40.28 41.76 41.94 42.49 42.26 43.69 43.53 43.11 43.67 40.79 39.83 43.57 43.84 46.59 46.74 44.80 41.48 40.72 35.60 33.21 37.33 41.00 44.59 40.97 41.26 38.02 37.92 39.65 39.73
56.66 57.63 58.13 57.48 56.34 55.62 55.51 54.77 53.95 53.19 52.77 48.18 45.10 40.31 43.19 41.80 37.87 38.25 37.28 38.06 38.75 46.58 44.57 43.93 43.34 44.25 42.06 40.40 42.39 41.90 44.16 46.63 47.10 46.42 54.65 46.93 36.14 36.20 35.04 39.13 40.16 38.41 40.97 40.74 36.87 34.98 37.74
57.12 57.69 58.05 57.54 56.61 55.52 55.37 55.00 54.39 53.37 52.10 47.84 45.69 41.56 41.92 36.80 39.67 38.21 38.50 40.16 41.29 40.01 43.82 44.33 44.55 44.02 39.38 37.05 40.38 42.38 44.60 43.99 46.65 49.25 43.88 41.90 37.01 38.09 42.08 43.04 42.65 41.27 41.50 44.07 38.49 39.13 40.12
56.49 57.15 57.89 57.67 56.79 55.43 55.43 55.28 54.82 53.67 51.77 48.86 44.57 44.87 45.70 41.00 39.39 38.30 37.02 35.99 40.04 40.23 41.49 41.43 42.07 44.13 43.26 38.46 39.89 37.87 43.05 40.27 39.94 44.51 41.61 40.31 37.71 38.07 38.66 46.76 43.46 40.97 43.63 43.45 47.80 47.72 46.13
56.13 56.47 57.55 57.93 57.07 55.39 55.45 55.40 55.16 53.77 50.72 48.41 49.32 49.39 46.87 43.85 36.83 36.88 36.03 38.70 43.19 43.62 44.06 46.08 46.19 42.21 41.05 42.40 45.20 44.04 43.79 42.20 39.70 38.78 38.18 38.03 35.91 35.37 34.06 39.31 44.74 39.70 40.85 41.59 45.71 48.93 46.96
56.33 56.19 57.01 57.97 57.16 55.39 55.31 55.56 55.56 54.48 52.30 47.14 48.89 48.45 45.08 42.22 39.27 40.38 43.98 45.16 44.36 43.48 41.40 43.44 45.01 41.34 43.32 45.48 43.63 41.68 39.62 40.00 42.09 38.28 37.45 35.98 35.30 32.97 32.82 35.40 30.63 41.87 47.11 47.13 47.51 48.20 47.90
56.06 55.85 55.93 56.73 57.41 55.48 55.15 55.71 55.68 55.00 53.89 47.81 46.99 48.46 46.54 42.40 43.80 42.04 43.20 43.04 42.87 42.34 41.70 43.19 44.11 44.41 43.56 43.07 38.19 34.24 36.47 37.40 41.49 40.37 37.43 37.10 34.32 32.23 30.24 30.11 35.75 41.69 44.27 43.73 43.29 43.22 48.80
56.04 55.42 55.02 55.91 57.55 55.64 54.64 55.18 55.49 55.10 53.91 48.36 48.30 51.47 49.72 42.73 42.78 46.32 43.22 43.77 39.96 38.62 40.44 42.32 44.28 44.75 44.19 39.19 37.73 30.33 28.53 35.28 36.23 39.15 37.87 37.61 35.32 33.94 32.02 30.19 28.61 37.38 45.20 46.99 45.70 39.04 49.45
55.36 54.92 54.23 55.16 57.01 55.57 53.92 54.80 55.01 55.16 54.13 50.19 48.01 51.45 50.10 46.55 48.50 45.71 43.37 42.87 43.20 40.33 38.84 39.43 41.13 42.25 41.15 37.28 35.57 30.00 31.94 40.07 31.95 34.04 33.94 32.97 31.38 29.41 32.20 29.70 36.00 43.12 46.30 47.95 38.43 36.79 48.08
54.25 54.81 54.16 54.67 56.47 55.45 53.69 54.50 54.47 54.63 54.75 51.26 49.15 50.84 49.59 45.17 46.71 50.56 50.13 45.89 45.45 42.26 39.34 41.50 41.09 42.18 37.88 36.38 35.54 31.42 31.30 34.43 31.47 36.24 34.28 33.95 29.28 26.56 30.07 27.75 28.28 45.08 45.09 38.04 41.56 43.40 45.86
53.44 53.86 53.75 54.77 56.31 54.98 53.60 54.19 54.10 54.28 54.57 52.94 48.96 51.76 53.38 47.04 47.36 51.26 51.54 52.13 51.72 49.65 43.94 40.79 41.54 41.20 40.31 37.76 38.11 36.67 33.34 35.51 32.09 29.05 36.82 32.25 37.05 33.84 35.24 34.14 40.85 43.85 44.03 44.77 44.34 43.97 44.27

GFSGBSN_sfc_wetblb_090.txt.gz
Wetbulb
57.36 57.36 56.82 56.60 56.57 56.62 56.69 56.39 56.27 56.12 56.33 56.27 56.42 56.24 55.82 55.88 56.17 56.34 56.34 56.16 55.87 55.49 55.32 55.83 55.80 56.62 52.01 43.77 45.35 54.13 72.34 67.01 64.09 59.54 53.53 54.17 57.45 59.05 55.84 58.09 61.82 59.40 62.73 63.94 64.97 64.75 64.55
57.99 57.09 57.00 56.94 56.52 56.72 57.00 56.60 56.13 55.97 56.23 56.13 55.90 55.92 55.71 55.56 55.52 55.67 55.65 55.66 55.43 55.06 55.18 55.57 55.92 57.06 47.58 40.03 49.90 61.20 62.10 64.06 61.16 55.41 52.17 55.61 59.14 61.25 58.77 57.33 59.93 62.92 63.12 63.43 64.32 64.21 65.07
58.26 57.62 57.62 57.30 56.80 56.22 56.91 56.75 56.29 56.14 56.35 56.35 55.96 55.84 55.68 55.54 55.49 55.38 55.14 54.90 54.54 54.47 55.02 55.42 55.69 55.82 48.21 45.11 54.52 60.69 59.59 55.04 55.28 52.06 50.58 52.70 61.24 58.18 57.53 53.63 61.58 62.34 59.35 62.66 62.58 63.46 63.48
57.90 57.92 57.56 57.07 56.97 57.05 56.92 56.86 56.24 56.13 55.83 55.79 55.68 55.65 55.43 55.14 55.02 54.81 54.06 54.03 54.94 55.10 55.39 55.52 57.08 51.05 41.34 51.03 53.61 53.72 53.58 50.82 51.45 48.98 52.11 53.82 57.50 56.35 54.57 55.07 57.40 58.41 57.54 54.38 62.02 63.30 63.94
57.81 58.11 57.99 57.51 57.23 56.96 57.01 56.77 56.25 55.88 55.61 55.46 55.62 55.35 55.15 54.81 54.19 53.55 53.19 54.43 55.29 56.17 56.03 57.23 48.39 45.88 42.13 57.05 52.53 53.01 53.79 49.72 48.49 48.14 50.16 56.88 56.26 51.92 50.72 46.28 43.87 51.23 48.50 52.21 58.16 63.59 62.70
58.57 57.51 57.95 57.55 57.07 57.11 56.92 56.87 56.47 56.13 55.65 55.58 55.23 54.88 54.67 54.44 53.75 52.72 53.28 53.92 55.07 55.89 57.20 57.12 54.42 45.08 49.43 50.63 52.42 51.76 53.08 49.71 47.50 47.92 49.86 50.10 47.75 44.97 43.90 42.78 39.27 44.84 48.10 51.01 55.06 59.17 61.55
59.59 58.27 57.41 57.74 57.05 56.95 56.93 57.04 56.74 56.29 55.62 55.30 55.29 54.97 55.00 54.62 53.75 52.21 49.23 49.19 46.18 43.74 48.38 43.48 44.05 48.28 51.32 54.32 54.45 50.80 53.30 50.87 49.12 47.37 43.58 46.71 44.34 42.16 45.90 45.34 46.70 48.03 47.10 47.89 55.75 60.88 60.08
60.02 59.27 57.70 57.65 57.46 56.98 56.64 56.70 56.77 56.47 55.90 55.33 54.80 54.59 54.14 53.75 53.48 52.40 48.36 43.75 46.88 47.80 42.53 49.56 50.26 49.35 51.87 52.06 48.97 50.21 52.74 47.53 45.08 41.90 46.30 43.86 41.72 46.75 49.72 47.79 47.22 46.03 43.86 51.09 57.22 61.48 59.01
59.53 59.38 57.82 57.72 57.62 56.74 56.62 56.59 56.59 56.43 56.45 55.27 54.88 54.43 54.08 53.61 53.03 48.48 44.81 46.46 50.00 48.69 40.03 44.73 49.17 48.75 48.50 51.18 48.60 49.30 50.55 47.45 44.38 43.22 43.86 42.34 44.75 48.86 48.14 46.25 45.40 41.90 41.52 44.45 52.74 57.09 58.85
58.82 58.70 58.45 57.39 57.67 56.54 56.31 56.19 56.21 56.29 56.16 56.02 56.04 54.85 54.21 52.80 47.03 47.07 46.22 49.17 49.25 47.97 35.69 42.58 45.03 48.37 50.13 50.00 46.21 52.91 52.71 50.01 45.51 43.53 45.29 43.70 47.78 47.82 45.83 45.66 45.13 39.64 46.44 50.80 55.62 52.93 48.55
58.76 58.38 58.43 57.40 57.75 56.36 56.03 55.94 56.08 55.98 55.80 55.72 55.74 55.22 53.19 51.14 45.71 46.35 49.39 48.55 46.51 44.66 30.27 47.44 48.00 51.25 47.53 45.87 48.30 48.90 53.49 49.99 44.74 44.62 44.73 43.38 44.56 44.93 43.82 45.54 47.15 45.14 47.35 49.22 55.13 48.79 49.21
58.91 58.57 58.28 57.59 57.95 56.48 55.50 55.56 55.74 55.82 55.62 55.46 54.94 54.05 52.40 48.55 47.63 49.69 50.92 47.36 45.64 37.63 32.35 43.88 47.82 46.07 42.74 44.26 46.22 49.13 50.21 51.24 49.21 45.35 44.07 45.19 47.08 46.35 46.34 47.44 48.65 49.37 45.45 46.69 47.35 45.81 42.28
59.23 58.40 58.32 57.46 57.37 56.03 55.32 55.30 55.52 55.26 55.12 54.47 53.29 51.88 50.19 51.60 47.59 48.95 48.80 46.93 37.19 32.14 44.33 41.77 41.26 43.99 41.89 40.96 44.10 45.32 45.69 42.84 41.55 37.47 36.79 42.40 43.78 45.60 46.62 42.30 43.47 43.86 38.84 37.81 37.49 39.74 38.68
58.99 58.02 58.02 57.72 57.18 55.86 55.18 55.46 55.44 55.06 54.64 53.47 51.56 50.01 49.45 51.51 49.02 50.08 47.74 41.44 31.75 40.09 40.09 44.10 43.67 40.98 39.55 40.33 43.87 45.05 43.25 41.00 42.78 41.41 36.58 36.60 35.70 43.93 46.12 44.51 41.46 40.12 39.86 36.15 34.02 35.14 39.57
58.90 58.09 57.90 57.62 57.24 55.78 55.14 55.32 55.08 54.69 54.05 52.77 50.23 45.10 46.23 49.13 50.86 48.53 45.34 34.73 33.77 38.01 43.24 42.89 41.92 39.11 39.03 41.76 41.72 43.53 41.66 41.29 43.54 42.30 38.05 35.26 37.62 46.02 46.58 44.96 45.74 40.35 37.63 41.30 37.04 35.05 38.33
58.39 57.36 57.66 57.68 57.13 55.56 55.32 55.28 54.85 54.65 54.03 52.32 46.78 45.77 47.37 51.22 51.40 47.44 41.57 36.93 38.76 43.86 45.52 42.55 36.96 39.39 36.49 40.23 39.94 40.19 39.54 42.60 42.61 44.85 41.69 39.21 35.60 41.18 46.59 46.00 45.57 42.98 45.08 39.21 36.83 33.08 31.38
57.88 56.87 57.30 57.69 56.99 55.65 55.46 55.36 54.79 54.23 53.19 51.73 46.27 46.30 50.09 50.62 49.07 44.12 36.73 37.08 42.97 44.76 46.90 42.26 39.79 39.64 38.74 39.88 41.00 40.46 39.90 43.50 44.68 44.59 43.38 38.74 37.38 39.16 42.90 40.45 38.97 42.10 40.63 38.83 38.95 37.14 36.06
57.53 56.72 57.25 57.61 56.79 55.83 55.55 55.24 54.33 53.21 51.90 48.96 43.59 42.82 50.41 48.77 42.93 37.83 37.35 40.16 43.59 40.85 43.28 42.76 41.69 40.08 41.07 42.75 40.28 40.30 38.94 41.57 45.96 44.91 41.64 40.46 35.73 34.24 37.44 42.98 43.98 40.80 38.38 39.14 37.16 36.59 38.58
57.31 57.04 57.71 57.59 56.89 56.35 55.43 54.73 53.87 52.78 52.03 45.96 43.05 42.33 50.14 47.72 37.20 36.21 39.16 39.89 42.10 41.56 41.47 42.10 41.64 42.53 44.33 41.97 38.76 41.62 42.34 46.00 46.72 44.26 41.47 42.48 36.09 33.22 35.71 39.23 42.16 40.22 39.92 36.30 36.90 39.51 39.73
57.15 57.22 57.95 57.83 57.14 56.61 55.33 54.59 53.75 53.23 52.37 46.80 44.00 39.76 42.77 39.52 36.15 37.13 36.35 36.50 38.13 44.81 43.39 43.14 42.95 42.71 41.62 40.55 42.71 41.73 42.52 46.33 47.86 48.86 51.98 47.17 37.32 37.25 33.42 35.16 38.09 37.63 40.31 41.31 35.87 35.38 37.21
56.98 56.60 57.39 57.79 57.44 56.67 55.21 54.73 54.25 53.39 51.98 46.56 43.05 39.54 40.93 36.70 38.85 36.55 36.73 37.71 39.85 38.87 42.56 43.97 42.99 42.83 38.48 36.42 37.67 41.27 41.53 44.62 46.07 48.40 43.69 42.47 38.47 38.93 41.27 41.87 41.23 40.82 40.86 42.46 41.82 36.73 38.86
56.79 56.59 56.97 57.77 57.68 56.69 55.31 55.12 54.71 53.67 51.76 47.48 43.84 43.36 43.72 40.02 38.27 36.16 36.89 36.45 38.48 38.62 40.38 40.77 41.00 42.53 41.57 38.88 38.29 36.99 39.74 40.18 39.52 42.85 40.76 41.56 38.54 39.88 38.37 42.63 43.91 41.77 42.74 44.52 47.43 47.26 45.64
56.59 56.55 56.59 57.17 57.79 56.77 55.33 55.26 55.02 53.71 50.53 47.58 47.87 46.80 45.39 41.21 35.94 36.38 35.35 37.69 40.88 42.06 42.35 44.22 44.10 40.96 39.96 40.61 42.88 41.44 40.90 42.09 39.63 37.08 37.62 38.01 37.06 36.85 34.06 38.55 43.80 39.58 41.42 44.38 46.13 47.84 46.16
56.36 56.23 56.07 56.38 57.29 57.05 55.41 55.60 55.36 54.45 51.96 46.37 46.96 47.15 42.64 38.99 38.40 40.03 42.29 43.60 42.51 41.72 39.90 41.98 43.63 39.74 42.17 43.28 42.12 40.75 41.47 42.52 41.29 36.77 34.95 35.68 34.47 34.11 33.56 34.28 30.43 40.57 46.71 48.39 46.96 47.67 47.80
55.90 56.08 55.63 55.27 56.35 57.39 55.49 55.61 55.48 54.98 53.65 46.19 45.48 47.36 45.03 39.22 41.26 40.78 42.30 41.69 41.35 40.60 39.94 41.20 42.85 42.84 42.61 41.93 37.50 33.98 34.88 34.94 40.01 38.37 36.52 35.63 34.17 31.90 30.46 29.12 34.80 40.61 42.43 42.41 42.31 43.86 48.12
54.97 55.72 55.04 55.02 55.75 57.31 55.44 55.04 55.37 55.20 53.85 46.96 46.32 49.74 48.14 41.43 40.72 44.90 42.07 42.21 38.72 37.65 39.20 40.78 42.89 42.98 43.57 39.04 36.83 29.70 27.74 33.69 34.64 37.05 37.72 36.38 34.54 34.85 30.80 29.04 28.18 35.82 44.33 48.33 46.47 37.15 48.79
54.32 54.59 54.79 54.43 55.36 57.03 55.48 54.38 55.01 55.14 54.15 48.73 47.29 49.21 49.11 44.93 46.18 44.25 41.55 41.56 41.87 38.76 38.10 37.94 40.19 41.34 40.45 37.07 34.32 28.38 30.92 38.74 30.93 32.21 31.51 31.20 30.80 29.72 31.74 29.27 34.96 41.64 45.22 47.34 37.21 37.82 48.40
54.32 53.73 53.96 53.98 54.53 56.67 54.93 54.12 54.58 54.53 54.73 49.89 48.46 49.80 48.02 44.02 44.61 49.20 48.50 44.20 43.53 40.78 38.77 40.12 40.30 40.65 36.57 36.00 34.24 30.06 30.39 33.29 31.09 34.69 33.14 32.39 28.63 25.66 29.24 28.38 28.28 44.31 44.62 38.74 41.88 45.21 47.65
54.49 53.50 53.17 53.57 54.43 56.44 54.33 53.97 54.33 54.38 54.53 52.88 47.87 49.98 51.76 46.58 46.44 49.44 50.56 50.70 49.98 48.25 42.51 39.81 40.52 39.52 39.30 37.45 36.52 34.44 32.03 33.95 30.24 26.96 35.93 32.04 35.96 33.21 33.67 33.31 39.91 42.63 42.90 45.15 44.54 45.30 47.30

GFSGBSN_sfc_wetblb_093.txt.gz
Wetbulb
57.56 57.23 57.23 57.12 56.65 56.50 56.40 56.36 56.23 56.02 56.12 56.35 56.31 56.09 55.80 55.79 55.95 55.67 55.88 55.73 55.71 55.65 55.43 55.56 56.02 56.76 55.29 49.75 50.45 54.45 70.06 67.13 67.63 60.76 57.78 57.19 58.22 61.75 58.46 59.84 62.06 61.17 63.71 64.68 65.93 66.23 64.83
57.45 57.91 57.72 57.36 57.30 57.33 56.96 56.62 56.50 56.34 56.24 56.21 55.96 55.69 55.76 55.68 55.50 55.48 55.64 55.33 55.13 54.73 54.91 55.40 56.08 56.87 52.55 46.60 56.26 64.21 64.02 64.45 63.46 57.98 56.16 59.76 61.80 64.06 60.81 59.06 60.56 63.73 64.62 64.54 65.66 65.18 65.31
57.16 57.44 58.06 57.40 56.98 56.64 56.33 56.59 56.50 56.26 56.24 56.02 55.67 55.42 55.45 55.35 55.40 55.24 54.68 54.33 54.25 54.22 54.74 55.40 56.16 56.31 51.34 49.86 56.30 64.61 61.96 59.94 60.02 57.27 54.82 58.11 65.04 62.61 61.76 56.51 60.83 65.01 61.89 63.78 64.22 64.81 63.71
58.37 57.41 57.74 57.95 57.23 56.99 56.39 56.30 56.39 56.22 56.41 55.83 55.58 55.45 55.38 55.17 54.72 54.10 53.74 53.42 54.07 54.52 55.24 55.48 57.11 55.45 46.73 53.44 56.81 61.00 58.04 55.85 57.45 56.11 56.37 57.04 63.84 62.01 60.05 59.38 59.63 60.87 62.18 57.80 62.77 64.07 63.62
59.65 58.30 57.05 58.06 57.53 57.01 56.65 56.36 56.28 56.18 55.94 55.96 55.63 55.33 54.91 54.54 54.16 53.68 52.91 53.59 54.76 55.53 55.76 57.03 54.40 51.65 47.20 58.76 54.64 58.02 57.46 54.61 56.04 54.23 54.45 57.48 58.30 58.28 56.22 52.93 57.12 57.02 55.58 56.55 59.14 63.67 62.58
60.04 59.40 57.90 57.01 57.76 57.30 57.03 57.00 56.96 56.20 55.90 55.62 55.25 55.08 55.04 54.75 54.20 53.03 52.68 53.57 57.26 58.03 57.85 57.30 55.32 50.22 53.84 53.15 55.44 56.72 56.83 54.85 52.51 52.59 53.54 54.53 55.43 55.27 53.17 51.26 48.97 53.28 54.36 57.09 57.56 61.21 61.70
59.85 59.92 58.51 57.01 58.12 57.41 57.07 56.99 56.99 56.79 56.18 55.74 55.46 54.67 54.40 54.03 53.69 52.64 51.52 54.70 51.87 50.68 53.58 50.04 50.41 50.20 52.22 56.81 56.27 54.06 56.46 52.65 52.65 52.02 49.92 53.08 53.51 52.38 53.41 52.22 52.53 57.32 55.90 53.69 57.29 62.25 60.81
59.64 59.39 58.98 57.31 58.11 57.57 56.79 56.77 56.82 56.70 56.60 56.46 56.08 54.77 54.31 54.19 53.28 52.29 50.30 51.42 53.27 53.25 48.83 52.02 52.32 51.23 53.32 54.98 50.76 52.97 56.60 50.30 49.28 46.40 50.78 51.27 51.21 54.50 54.10 51.89 51.72 52.66 53.48 52.31 59.44 62.00 60.19
59.32 58.83 58.81 57.56 56.94 57.66 56.69 56.48 56.48 56.45 56.37 56.35 56.19 54.86 54.31 53.65 52.86 50.91 50.06 51.40 54.25 54.01 47.89 48.63 51.46 51.36 52.04 53.59 50.81 51.97 54.78 51.14 48.38 48.65 50.40 49.25 52.56 52.90 52.40 50.78 50.19 50.53 50.61 56.69 56.42 58.38 58.37
59.48 58.59 58.20 58.00 56.95 57.64 56.32 56.06 56.25 56.23 56.25 56.05 55.97 54.78 53.80 52.81 49.84 51.76 51.29 53.90 53.56 53.42 44.77 47.94 50.30 51.92 53.50 53.28 51.07 55.06 56.16 52.35 49.84 47.75 51.23 52.39 51.93 51.50 50.25 50.14 51.28 49.28 51.93 54.66 58.08 56.22 51.39
59.57 59.00 58.59 58.00 56.94 57.46 56.20 55.69 55.87 56.01 55.85 55.87 55.77 54.29 52.79 51.83 51.29 51.15 53.76 54.59 52.15 49.50 35.99 49.24 51.04 55.29 52.90 50.73 52.13 52.08 56.16 53.84 48.66 49.37 50.49 49.22 49.82 49.88 49.44 50.40 51.81 50.67 51.45 53.43 58.26 54.96 55.32
59.71 59.22 58.55 58.26 57.46 57.49 55.93 55.34 55.49 55.61 55.61 55.63 54.82 53.35 52.36 50.25 51.03 54.43 55.09 53.16 51.00 43.96 35.66 46.04 50.22 49.18 48.27 49.61 51.13 52.82 53.27 55.22 53.29 50.17 50.77 50.36 51.96 52.46 51.73 52.09 53.05 53.06 52.86 54.22 55.88 54.95 47.68
59.78 58.89 58.11 57.65 57.28 57.13 55.59 55.24 55.36 55.20 55.02 54.58 53.22 51.61 50.82 53.11 53.41 54.42 54.41 53.13 44.70 38.75 47.06 44.31 45.73 48.22 47.55 46.49 48.96 50.89 49.87 49.53 48.42 44.79 45.58 48.39 48.81 51.01 51.53 48.96 50.86 50.61 47.44 43.70 44.83 45.72 44.09
59.35 58.44 57.63 57.50 57.14 56.89 55.51 55.31 55.34 54.86 54.48 53.59 51.38 50.07 51.40 53.47 54.65 54.64 54.51 49.83 39.23 43.33 44.23 48.37 47.10 45.80 45.34 45.99 47.41 48.61 49.20 47.70 48.54 48.39 45.88 44.00 42.34 49.13 50.99 50.29 47.97 48.90 48.88 44.43 40.53 42.85 46.26
58.89 57.77 57.29 57.42 57.06 56.81 55.57 55.22 55.00 54.62 54.15 52.65 50.43 51.31 52.24 54.63 54.16 54.01 52.99 43.38 42.20 44.01 46.69 46.18 46.65 44.60 44.84 46.03 46.53 47.59 46.81 48.83 50.00 49.95 45.60 44.02 43.57 49.80 50.21 51.46 51.27 47.29 45.41 51.10 47.31 47.20 47.39
58.48 57.61 57.21 57.44 56.79 56.71 55.75 55.08 54.88 54.43 53.89 51.86 52.20 53.14 54.46 55.27 55.53 54.05 50.43 41.58 45.38 47.11 48.65 46.96 43.34 44.85 43.25 44.96 45.81 46.76 45.25 47.23 47.38 49.06 50.25 47.70 43.64 48.73 50.45 50.56 50.10 50.17 51.48 45.87 46.59 42.45 42.03
58.12 57.20 57.39 57.71 57.00 56.83 56.07 55.27 54.71 54.21 52.94 51.44 52.85 53.84 54.67 55.79 54.49 52.75 46.23 45.44 46.94 48.55 49.09 45.82 44.72 45.05 45.09 45.47 46.29 45.69 44.10 46.52 47.81 47.61 49.78 48.63 46.90 46.46 49.21 48.14 47.97 48.30 47.83 48.28 49.51 47.98 44.49
57.98 57.03 57.42 57.85 56.98 56.98 56.22 55.06 54.31 53.25 52.01 50.74 51.37 50.68 55.44 53.91 50.92 46.73 47.55 46.41 44.13 45.96 47.93 47.63 46.91 46.97 45.76 46.06 45.47 44.38 43.93 45.83 48.08 49.67 46.53 47.95 47.50 45.36 44.90 48.12 49.23 49.05 49.09 50.33 45.59 45.27 49.54
57.50 57.05 57.36 57.75 57.42 57.38 56.26 54.72 53.93 52.82 52.16 50.77 51.07 51.01 55.48 54.16 46.43 46.22 47.00 45.14 47.00 46.89 46.35 47.10 46.42 47.74 47.34 45.39 44.29 45.53 45.90 48.31 49.66 47.93 46.96 48.00 44.84 42.48 43.70 47.05 49.30 48.01 47.45 47.87 49.55 51.88 49.20
57.56 57.22 57.32 57.52 57.80 57.10 56.11 54.43 53.75 53.06 52.13 51.59 50.96 47.38 49.50 47.70 45.58 46.77 44.81 44.00 45.05 47.82 47.65 47.87 48.11 47.90 47.38 45.85 46.88 45.16 45.86 49.11 50.14 50.85 51.38 51.50 44.84 44.94 43.06 44.30 46.89 46.15 48.08 46.53 48.20 46.61 48.87
57.26 57.02 57.14 57.44 57.74 57.60 56.36 54.72 54.32 53.26 52.06 51.23 49.81 47.27 46.80 46.11 46.13 45.27 45.79 44.98 43.95 43.92 47.41 49.62 48.09 46.77 45.39 44.49 44.09 44.19 45.73 47.45 49.83 50.25 48.89 48.89 44.05 46.01 46.79 47.63 48.29 48.10 49.63 50.64 46.89 46.91 47.63
56.97 57.17 56.98 57.06 57.56 57.58 56.40 55.04 54.82 53.70 51.70 53.24 51.32 50.96 49.87 48.14 44.24 45.34 43.43 44.23 43.57 44.17 46.04 46.37 45.56 46.08 47.49 45.75 45.27 43.81 44.97 46.13 44.74 48.82 48.38 49.24 43.89 45.01 44.07 46.55 48.24 46.39 49.36 51.84 51.17 50.59 50.46
56.25 56.69 56.71 56.54 57.02 57.54 56.64 55.14 55.10 53.70 51.57 53.81 53.47 52.93 52.09 44.10 43.62 45.40 45.06 45.36 45.57 46.79 46.61 48.27 47.38 46.31 45.92 45.97 47.81 48.96 47.84 45.95 44.85 46.20 45.76 46.17 45.09 44.05 41.88 44.89 47.05 44.30 46.88 48.79 50.10 51.87 51.61
55.22 56.23 56.48 55.84 55.92 57.12 56.72 55.41 55.32 54.46 52.49 51.67 53.10 53.47 50.68 45.29 45.95 46.43 46.39 47.55 46.26 46.50 44.95 46.34 48.74 47.20 48.04 50.03 48.95 48.48 48.61 48.97 47.97 45.14 45.27 46.17 44.62 44.05 42.61 44.95 38.01 45.66 50.25 51.31 50.28 51.30 52.66
55.02 55.26 56.01 55.47 55.43 56.40 57.20 55.60 55.71 54.86 53.71 52.46 52.18 53.69 51.87 46.21 46.66 46.19 47.45 47.05 47.29 46.98 46.30 45.91 47.98 49.35 49.86 49.63 46.36 43.66 44.73 45.30 46.86 46.53 44.91 47.18 46.27 41.17 41.49 41.27 42.55 45.03 46.26 46.54 47.03 48.16 52.71
55.32 54.98 55.10 55.36 54.69 55.98 57.29 55.49 55.54 55.00 53.65 52.59 52.67 55.00 54.54 49.24 47.15 48.03 47.02 47.80 47.21 46.57 46.86 47.00 49.21 50.16 51.20 48.81 46.18 39.46 39.81 41.40 41.69 43.73 47.95 46.31 47.47 46.21 42.12 38.41 36.24 43.95 48.02 50.82 50.41 45.22 53.57
55.38 55.14 54.23 54.67 54.84 55.55 56.95 55.37 54.87 55.15 54.03 53.55 53.62 54.57 55.18 52.00 53.11 50.04 48.86 48.39 48.44 46.75 47.62 47.00 47.99 48.45 49.46 47.80 44.20 43.16 42.51 44.39 41.34 40.19 41.87 43.03 43.31 41.40 42.07 41.04 42.62 47.61 49.50 50.95 43.20 45.70 52.72
55.24 55.06 54.21 53.63 54.23 55.02 56.78 54.82 54.49 54.60 54.65 53.80 54.57 55.44 55.22 51.47 52.63 53.57 51.90 49.79 49.03 49.01 47.99 47.58 47.71 47.99 47.55 45.40 44.82 43.51 44.57 43.98 42.93 44.06 43.64 41.74 41.75 41.53 40.76 39.77 37.85 49.52 49.65 45.80 49.03 52.07 52.29
54.92 55.14 54.41 53.41 53.80 54.76 56.61 54.26 54.29 54.43 54.41 53.53 54.59 54.85 55.91 53.71 52.50 53.66 55.58 55.72 54.87 54.11 50.67 47.49 49.30 48.06 48.60 47.02 46.10 43.94 43.55 43.43 41.23 40.03 44.97 42.46 45.38 45.97 44.11 44.59 47.99 50.16 50.80 52.09 51.93 51.68 53.24

GFSGBSN_sfc_wetblb_096.txt.gz
Wetbulb
57.78 57.89 57.75 57.30 57.05 57.19 57.14 56.84 56.72 56.68 56.76 56.80 56.46 56.50 56.31 56.09 56.03 55.85 55.92 55.81 55.81 55.99 55.59 55.70 56.29 57.00 58.40 55.14 54.23 60.88 68.12 66.51 63.55 64.24 60.13 58.46 57.92 63.55 64.05 63.36 64.08 64.02 64.95 66.34 67.71 68.02 66.11
57.65 57.55 57.98 57.96 57.70 57.18 56.59 56.71 56.83 56.70 56.64 56.47 56.22 55.99 56.00 56.03 55.77 55.68 55.64 55.27 55.16 55.05 55.16 55.62 56.47 56.90 56.25 50.46 58.53 65.50 62.72 63.92 63.17 61.58 60.09 59.37 58.73 66.21 64.95 62.95 62.17 65.87 65.25 66.04 67.19 66.82 65.69
58.88 57.56 57.49 58.12 57.22 56.80 56.66 56.46 56.55 56.38 56.49 56.38 56.11 55.87 55.77 55.48 55.28 55.09 54.72 54.45 54.13 54.20 55.13 55.87 56.66 58.22 54.50 52.83 58.90 65.85 63.45 64.03 63.22 61.06 59.66 60.61 62.92 66.43 64.88 58.74 62.95 64.86 63.07 64.34 65.74 65.34 64.42
59.88 58.58 57.33 57.57 57.98 57.47 57.20 56.79 56.50 56.55 56.13 56.08 56.04 55.87 55.68 55.31 55.01 54.36 53.98 53.47 53.46 55.15 55.53 56.33 57.17 58.20 50.97 56.24 60.99 62.44 61.06 61.84 62.55 60.62 59.86 62.93 68.84 66.21 63.40 62.53 64.22 63.25 63.75 58.82 63.43 65.69 64.73
60.20 59.51 57.99 57.31 58.29 57.71 57.37 57.24 56.74 56.78 56.41 56.25 55.79 55.60 55.49 55.41 55.05 54.21 53.71 53.42 54.27 55.97 56.56 56.92 58.43 55.67 51.04 58.38 56.79 59.90 58.09 56.19 57.92 58.38 58.52 61.74 65.75 63.31 61.32 59.72 60.88 59.64 57.50 59.21 60.65 64.57 63.21
60.03 60.04 58.76 57.77 57.90 58.25 57.50 57.24 57.14 56.71 56.64 56.58 56.19 55.51 55.11 54.88 54.43 53.57 53.10 53.59 56.83 57.57 58.35 59.59 57.82 54.24 56.01 55.00 58.05 58.96 59.19 58.20 55.53 56.01 55.18 58.93 62.22 60.59 58.98 58.23 54.59 54.00 58.06 60.78 60.30 61.77 60.36
59.75 59.59 59.38 57.99 57.31 58.17 57.48 57.06 57.02 56.91 56.91 56.81 56.80 55.72 54.85 54.44 53.86 53.07 54.15 58.84 57.11 56.35 57.34 53.97 53.50 52.76 53.77 58.52 60.17 57.84 57.98 56.04 55.16 53.79 51.13 55.05 56.54 56.67 57.82 58.03 56.23 58.56 56.03 59.08 62.23 63.77 59.64
60.22 59.35 58.90 58.71 57.27 57.60 57.49 56.90 56.51 56.66 56.84 56.66 56.65 55.33 54.81 54.47 53.73 53.09 55.37 56.23 56.27 56.55 51.64 55.64 55.04 54.65 56.07 56.93 54.39 56.77 57.70 53.26 52.16 48.96 53.53 52.18 52.44 59.61 60.21 56.17 56.43 59.10 58.81 58.84 62.17 64.05 62.15
60.04 59.43 58.70 58.34 57.51 57.33 57.44 56.57 56.42 56.70 56.75 56.61 56.43 55.03 54.52 54.04 52.95 54.17 57.24 56.55 59.13 58.20 52.52 52.68 54.13 53.55 55.01 56.20 53.76 54.48 56.93 54.01 51.20 48.92 51.58 50.17 52.87 59.18 57.22 54.61 54.43 57.07 57.93 57.89 59.09 60.39 60.96
60.03 59.25 58.80 58.33 57.44 57.71 57.42 56.40 56.16 56.21 56.33 56.33 56.31 54.88 54.10 53.16 52.46 59.52 56.67 59.00 59.34 57.82 49.56 49.83 52.12 54.00 55.68 55.92 52.85 57.65 57.57 54.69 50.66 48.66 50.30 51.28 54.64 55.74 56.23 55.77 55.74 53.95 56.21 59.63 60.55 57.81 51.63
59.92 59.27 58.43 58.21 57.65 57.80 57.28 56.00 55.79 56.01 55.93 56.07 55.93 54.31 52.87 51.27 57.81 57.11 57.72 60.57 59.37 56.19 40.16 50.59 52.25 57.68 56.42 54.14 54.72 54.35 58.02 54.81 50.21 49.29 51.82 50.58 52.65 54.10 53.78 56.24 56.74 54.30 55.71 57.50 59.33 57.34 55.70
59.87 59.32 58.53 58.19 57.92 57.62 56.89 55.59 55.53 55.50 55.48 55.44 54.92 53.25 52.58 54.25 57.89 59.41 60.58 59.30 56.71 47.19 38.91 47.84 52.07 51.14 51.50 53.36 53.58 54.97 55.27 56.80 55.30 51.30 52.42 52.79 56.93 55.77 55.55 57.00 56.95 55.70 54.96 56.12 58.57 57.00 51.69
59.59 58.77 58.01 57.87 57.90 56.96 56.51 55.42 55.38 55.12 54.94 54.68 53.07 51.27 52.79 58.13 58.13 60.63 59.84 57.97 48.41 42.87 49.72 46.77 48.35 50.59 50.52 50.23 51.65 52.69 52.07 51.38 49.80 47.08 46.59 51.00 52.45 54.91 56.37 54.20 56.45 55.06 53.81 47.48 47.43 49.13 49.62
59.29 58.23 57.44 57.36 57.40 56.46 56.63 55.59 55.36 54.89 54.43 53.38 51.08 50.74 54.60 58.54 60.95 59.47 59.06 53.24 42.61 45.70 46.81 50.78 50.08 49.76 47.70 50.00 50.94 51.79 51.23 49.56 52.51 51.17 48.46 46.93 45.15 52.21 54.53 53.56 52.47 53.41 53.43 48.82 43.03 46.61 48.90
59.05 57.95 57.35 57.48 57.43 56.64 56.81 55.49 54.85 54.55 54.03 52.04 50.24 58.95 59.29 61.03 60.35 59.63 56.54 48.23 45.92 47.22 49.25 48.93 49.84 47.22 47.17 49.03 49.80 50.67 50.78 50.34 51.93 52.66 48.26 47.11 46.95 53.36 53.57 54.58 53.90 52.79 50.32 55.59 51.11 51.94 50.16
58.93 57.93 57.51 57.75 57.47 56.84 56.81 55.44 54.77 54.41 53.52 52.09 58.90 59.87 59.88 60.76 61.11 59.06 53.23 44.30 48.55 50.82 51.16 50.21 46.28 48.94 45.58 47.50 47.61 49.25 49.09 52.03 51.98 53.13 55.00 51.02 46.39 51.09 52.55 53.88 54.08 52.81 55.13 50.46 51.14 45.63 44.84
58.81 57.86 57.36 57.80 57.73 56.94 56.99 55.61 54.59 54.05 53.18 52.03 58.98 55.55 59.31 61.64 60.44 56.32 50.11 48.74 49.33 51.07 51.40 49.01 47.80 48.19 48.57 47.44 48.51 48.20 48.76 50.47 52.06 52.77 54.42 52.71 50.05 49.12 51.83 50.00 49.43 50.42 50.19 51.13 52.85 51.60 47.37
58.43 57.52 57.30 57.49 57.34 57.26 57.04 55.41 54.29 53.29 51.84 52.78 58.41 53.27 60.29 60.38 53.89 54.82 51.54 49.22 46.06 48.66 51.13 50.64 50.66 50.13 49.42 49.49 47.91 48.34 47.74 50.14 51.47 52.93 50.51 53.39 50.70 48.14 48.21 52.47 53.81 52.78 51.15 51.73 47.32 48.95 51.03
58.09 57.69 57.24 57.47 57.40 57.56 57.08 55.02 53.84 52.79 51.98 58.48 57.74 57.51 60.60 58.34 49.87 50.46 51.31 48.58 49.93 48.51 48.45 49.19 49.10 50.96 52.19 49.82 47.42 48.63 49.09 51.61 52.63 51.47 51.22 52.90 49.29 45.88 46.88 50.36 52.48 50.83 52.17 53.26 52.82 52.19 50.57
57.17 57.57 57.54 57.53 57.46 57.60 57.04 55.02 53.83 53.01 52.24 57.08 56.94 51.76 55.21 56.76 55.40 50.40 49.09 48.23 47.46 50.56 49.47 50.51 50.99 51.60 50.75 49.56 51.48 48.38 48.53 50.06 52.26 52.67 52.66 53.35 50.55 49.26 45.48 47.79 51.19 49.78 51.06 52.24 51.94 48.32 49.61
56.38 57.10 57.36 57.40 57.38 57.50 57.22 55.28 54.29 53.33 52.54 56.32 57.25 52.95 53.19 48.86 50.44 51.61 50.86 48.86 46.47 46.22 50.21 50.95 50.70 49.61 49.32 47.94 48.14 47.49 49.71 50.20 51.31 55.00 53.14 52.43 48.39 50.64 50.69 51.22 51.16 51.02 50.92 50.79 50.57 51.43 49.47
56.03 56.53 57.19 57.32 57.04 57.08 57.28 55.71 54.87 53.73 52.07 59.07 56.47 55.03 55.91 53.73 51.70 50.34 47.30 48.90 46.21 46.89 48.34 47.10 48.26 49.27 50.63 49.45 49.78 45.98 48.54 48.99 48.99 51.31 51.76 53.83 47.59 50.63 48.48 50.44 50.79 50.47 52.38 52.05 51.53 51.70 51.96
55.83 55.73 56.73 56.74 56.40 56.82 57.34 56.09 55.10 53.87 52.59 59.25 60.84 60.45 57.26 47.43 50.78 49.65 50.31 48.76 47.07 48.73 49.67 51.63 50.57 50.18 48.82 49.62 51.63 52.37 51.85 51.14 49.99 50.84 51.18 50.29 50.42 47.14 45.09 48.83 49.57 46.70 50.37 51.69 53.11 54.40 54.47
56.01 55.55 55.59 56.52 56.02 56.08 56.78 56.60 55.44 54.53 53.29 58.35 59.26 59.20 56.00 49.36 50.47 50.59 48.93 48.81 47.99 49.26 47.43 48.01 52.35 50.44 51.54 54.26 53.40 52.81 52.62 52.55 52.18 51.08 53.72 50.12 51.69 49.80 45.45 47.59 40.01 49.50 53.66 53.52 53.07 53.96 55.68
55.72 55.81 55.21 55.51 55.85 55.48 56.54 57.15 55.80 55.18 53.90 58.40 60.61 58.86 57.45 51.31 52.42 50.26 49.92 49.13 51.03 51.09 49.02 47.96 51.25 53.68 55.50 52.71 49.86 47.21 47.45 48.40 49.39 50.69 50.48 54.15 51.79 47.46 44.72 44.64 47.41 48.61 50.43 50.96 50.35 51.63 55.60
55.56 56.05 55.77 54.80 55.33 55.47 55.90 57.43 55.83 55.26 53.98 57.70 60.31 61.04 59.14 53.67 50.67 52.41 50.78 51.37 50.81 51.07 49.76 49.46 53.46 56.08 55.04 52.68 49.45 43.88 44.30 45.52 45.02 47.25 52.27 50.77 53.23 48.38 45.93 42.58 40.53 48.76 50.99 53.46 53.66 47.94 55.83
55.20 55.58 55.84 54.90 54.47 55.08 55.62 56.93 55.53 55.32 54.28 56.41 60.55 61.47 59.16 54.93 54.87 54.26 51.30 51.05 53.53 52.27 51.81 51.53 52.08 52.31 54.67 50.25 46.53 46.02 45.58 48.69 43.91 43.66 45.64 47.12 48.05 45.64 45.49 43.49 46.50 51.30 52.39 53.84 45.82 48.25 56.19
54.82 55.06 55.54 55.24 53.94 54.16 55.06 56.48 54.87 54.61 54.68 55.53 60.62 62.62 59.18 56.81 57.41 56.23 54.94 54.20 54.20 53.46 50.71 53.05 51.60 51.87 51.44 48.01 48.73 48.58 47.35 49.80 47.21 48.74 47.10 45.45 44.88 45.22 46.58 43.59 40.89 52.78 52.26 48.71 53.09 55.99 56.41
54.70 54.76 55.24 55.32 53.75 53.61 54.90 56.43 54.33 54.31 54.31 53.85 58.99 61.52 61.50 57.82 57.50 59.21 59.06 58.94 57.98 57.71 56.37 54.36 53.68 51.47 53.24 51.44 51.34 51.83 47.83 49.43 47.24 44.73 50.85 46.18 48.96 49.47 47.07 48.48 53.63 55.29 54.99 56.01 56.39 55.87 56.57

GFSGBSN_sfc_wetblb_099.txt.gz
Wetbulb
57.87 57.99 58.17 58.38 58.01 57.78 57.15 57.11 57.24 57.16 57.29 56.96 57.06 56.66 56.57 56.54 56.26 56.36 56.32 56.26 56.19 56.21 56.25 56.54 56.89 57.48 59.14 56.70 57.20 66.67 68.25 66.88 61.90 63.77 62.73 60.40 58.97 64.34 63.96 66.26 66.20 64.15 65.08 66.66 67.16 67.66 67.87
58.72 58.08 57.97 58.36 57.94 57.42 57.16 56.96 56.97 57.11 56.88 57.09 56.76 56.65 56.47 56.05 55.97 55.98 56.00 55.64 55.52 55.51 55.84 56.29 56.83 57.44 57.80 53.21 60.66 64.36 63.02 59.67 58.58 63.12 61.10 60.57 58.94 62.25 64.60 66.25 65.08 65.94 66.28 65.87 66.84 67.66 67.98
60.12 58.74 58.14 57.80 58.61 57.93 57.76 57.62 57.04 57.14 57.03 56.69 56.45 56.51 56.39 56.08 55.91 55.63 55.06 55.04 54.94 54.85 55.63 56.52 57.32 59.14 56.86 55.23 60.35 65.61 62.55 60.09 60.56 62.17 60.47 60.91 61.20 61.22 67.09 64.42 66.55 66.79 62.73 64.40 64.79 67.06 64.53
60.52 59.97 58.45 58.05 58.57 58.19 57.63 57.68 57.42 57.13 56.81 56.72 56.41 56.39 56.31 56.37 56.21 55.61 54.79 54.41 54.40 54.88 56.32 56.88 57.83 60.00 55.23 58.26 61.86 63.56 63.87 63.15 62.14 62.54 62.19 62.32 62.37 63.74 66.78 65.68 65.49 65.06 62.44 57.79 63.26 66.07 65.40
60.30 60.19 59.24 58.03 57.94 58.48 57.68 57.46 57.60 57.54 57.27 57.08 56.73 56.31 56.06 55.77 55.48 55.25 54.59 54.04 55.07 56.22 57.32 58.23 59.64 59.05 53.65 58.03 57.32 62.38 62.08 61.33 60.91 60.79 61.33 61.58 65.16 65.23 65.34 61.68 58.90 63.14 55.60 58.10 60.06 65.22 63.19
60.26 60.08 59.88 58.53 57.66 57.90 58.32 57.54 57.46 57.50 57.58 57.41 57.19 56.85 55.84 55.32 54.95 54.63 54.06 53.81 56.74 57.32 58.67 61.03 60.81 55.57 56.86 55.18 59.30 58.88 59.79 59.65 57.47 57.50 56.73 56.93 62.59 61.61 62.16 60.58 54.44 56.68 54.91 59.94 59.44 62.14 63.43
60.77 60.17 59.33 59.17 58.24 57.75 58.30 57.73 57.14 57.25 57.36 57.31 57.01 56.71 56.05 55.56 55.04 54.02 54.62 60.70 59.38 59.17 60.24 56.18 55.19 54.41 55.24 59.46 61.40 58.41 59.15 57.10 56.43 55.56 52.44 54.62 56.25 56.95 59.59 61.18 59.04 57.33 55.55 54.83 61.37 61.97 59.26
60.80 60.11 59.38 59.10 58.56 57.93 58.18 57.50 56.74 56.68 56.97 56.99 56.96 56.36 55.50 54.91 54.66 53.92 55.84 58.13 57.38 58.40 53.57 56.90 55.42 55.61 57.35 59.14 56.27 57.27 59.65 54.55 53.40 50.17 53.70 52.55 52.53 58.78 61.35 60.62 58.99 60.20 57.48 53.82 60.47 62.59 59.72
60.77 60.05 59.41 58.96 58.06 57.90 58.20 57.11 56.55 56.79 56.70 56.80 56.73 56.02 54.87 54.80 54.16 55.06 59.79 58.64 61.41 60.91 54.91 53.80 55.23 54.42 55.08 57.25 55.18 56.13 56.91 55.59 52.57 49.88 51.31 51.13 53.11 57.14 59.26 59.11 56.51 57.54 57.56 54.21 53.41 60.04 59.25
60.21 59.64 58.90 58.49 58.45 57.71 57.88 57.03 56.28 56.40 56.39 56.37 56.37 55.39 54.43 54.04 52.21 61.11 58.41 61.47 62.06 61.36 51.28 51.54 53.21 55.44 56.46 56.65 53.03 59.49 58.95 55.51 52.71 50.06 51.75 52.51 55.18 54.55 58.59 58.03 57.62 53.86 59.98 57.73 56.58 58.91 54.57
60.03 59.54 58.88 58.37 58.33 57.76 57.54 56.80 56.16 56.05 55.97 56.11 55.81 54.72 53.65 51.84 58.82 58.62 60.30 62.20 62.31 60.19 42.80 51.69 53.21 59.33 57.91 54.75 55.54 55.68 59.55 56.49 51.82 50.53 51.35 50.47 51.91 53.21 55.23 56.66 59.14 55.30 58.61 59.22 58.15 58.17 57.84
59.87 59.06 58.47 58.41 58.40 57.40 57.16 56.43 55.69 55.71 55.73 55.68 54.79 53.80 52.90 56.48 59.32 61.10 62.38 62.09 60.42 49.02 40.67 49.37 53.09 52.44 52.42 54.03 54.02 55.68 55.21 57.68 56.77 52.54 52.20 52.30 55.94 55.21 56.24 57.72 59.44 59.51 56.81 57.24 59.88 58.82 49.45
59.85 58.82 58.22 57.98 57.95 57.20 56.87 56.53 55.75 55.34 55.04 54.76 53.05 51.54 53.25 60.97 60.02 62.57 62.09 59.27 50.47 45.61 50.61 48.12 49.69 51.24 51.53 50.98 52.55 53.04 51.94 51.66 51.00 47.58 47.87 50.98 52.81 56.17 57.07 54.40 57.95 58.71 54.79 49.03 48.29 47.27 50.15
59.45 58.55 57.78 57.65 57.64 57.09 56.82 56.91 55.63 54.96 54.77 53.55 51.46 50.52 56.32 60.72 63.28 62.06 60.53 55.16 45.39 46.73 48.32 51.19 50.51 50.67 48.49 50.93 51.47 52.32 51.80 50.43 53.21 52.43 50.08 46.53 46.23 53.59 55.46 55.56 54.27 55.90 55.49 50.51 45.53 47.47 49.61
59.05 58.70 57.79 57.64 57.62 57.30 57.01 56.91 55.32 54.63 54.31 53.06 50.99 60.77 61.70 62.80 62.57 62.69 57.32 49.99 48.04 48.80 50.12 49.57 50.99 48.74 48.62 49.39 50.24 51.30 51.64 50.82 52.70 53.98 49.47 48.00 47.69 54.56 55.29 56.21 56.25 54.08 53.49 57.44 51.50 53.45 48.82
58.92 58.70 57.99 57.57 57.56 57.50 57.20 56.85 55.08 54.63 54.11 52.80 59.91 60.68 60.42 63.48 63.73 60.95 54.96 45.36 49.99 51.69 51.74 51.58 48.00 51.24 47.72 48.68 47.80 49.54 50.38 53.08 52.27 54.36 55.68 53.12 48.04 53.03 53.77 54.97 55.31 53.78 57.02 52.51 53.16 46.63 44.22
58.56 58.61 57.80 57.64 57.62 57.46 57.46 56.87 54.81 54.45 53.50 52.29 59.42 56.79 61.70 63.66 62.92 57.29 51.10 50.57 50.30 52.40 51.69 49.97 49.41 48.79 50.71 48.72 49.32 48.66 49.30 52.15 54.08 54.65 55.07 54.08 51.78 50.81 52.95 51.30 50.83 51.51 51.20 54.09 54.40 52.59 47.94
57.46 57.84 57.85 57.46 57.50 57.42 57.68 56.63 54.39 53.54 52.13 51.53 60.16 53.57 62.47 63.36 54.93 55.14 53.10 50.40 47.43 49.61 51.47 50.67 51.46 51.18 50.26 49.17 49.32 49.01 49.04 50.60 54.35 54.55 51.50 54.25 51.88 48.35 49.71 53.52 54.23 53.54 51.84 52.73 49.11 50.08 51.98
56.81 57.18 57.60 57.73 57.49 57.46 57.58 56.45 54.04 53.02 52.39 59.63 58.13 58.29 62.12 60.75 51.37 51.29 52.91 49.71 50.28 50.10 49.83 49.02 50.32 51.34 52.85 50.64 48.45 50.45 49.40 53.48 53.85 53.08 52.60 54.14 50.37 47.00 47.96 51.14 52.93 51.00 52.59 52.68 52.67 52.42 50.59
56.47 56.75 57.48 57.64 57.58 57.46 57.28 56.29 54.08 53.32 53.11 56.72 58.82 52.73 56.25 57.17 57.23 52.50 50.55 49.62 48.94 51.90 49.85 50.01 51.40 52.43 51.53 50.25 52.39 49.63 50.23 52.38 53.73 53.72 56.69 56.16 51.61 49.41 46.30 48.87 51.85 49.35 51.15 52.43 51.71 48.71 49.33
57.00 56.59 56.81 57.50 57.66 57.30 57.16 56.71 54.67 53.70 53.22 56.82 58.71 55.05 55.67 51.08 51.94 52.47 52.00 50.39 47.46 47.63 50.93 51.15 50.98 50.96 50.53 48.62 50.13 49.66 51.14 51.78 52.88 55.02 55.62 53.90 49.77 51.63 51.66 53.09 52.87 50.97 50.13 51.13 50.92 52.61 50.40
55.96 56.72 56.30 57.08 57.36 57.10 56.98 57.02 55.40 53.98 53.07 58.88 57.94 55.83 55.73 56.39 52.82 51.56 48.57 50.45 47.86 47.83 48.94 48.74 48.85 50.17 51.21 50.06 51.32 46.69 50.69 50.77 50.52 52.88 53.55 55.49 50.00 52.11 50.32 51.99 51.87 50.36 51.96 52.23 51.82 51.88 52.38
54.84 56.08 56.28 55.94 57.12 56.76 56.68 56.82 55.85 54.23 53.22 60.81 62.64 61.62 58.75 50.76 52.33 51.14 51.97 49.84 48.68 49.13 50.40 51.99 51.41 51.30 50.08 51.94 53.69 54.96 54.42 53.53 54.38 51.00 51.49 52.43 50.86 51.07 46.07 51.35 51.06 47.87 51.88 52.19 52.60 53.79 53.12
54.88 55.36 56.30 55.86 55.93 56.52 56.48 56.74 56.80 54.98 53.86 59.16 61.71 61.08 56.78 52.03 51.63 51.85 50.03 49.90 48.71 50.22 49.08 49.29 52.58 51.54 54.11 55.97 55.63 55.29 53.76 52.17 52.66 52.11 53.77 51.55 48.66 48.31 48.90 49.08 42.81 50.53 55.21 55.75 54.09 55.66 56.54
55.24 55.59 55.86 56.42 55.50 55.82 56.09 56.61 57.41 55.49 54.71 56.82 62.02 60.71 58.65 53.19 52.70 51.77 50.59 49.89 51.24 52.63 50.92 48.79 51.36 55.81 56.12 53.82 50.93 48.61 49.12 50.41 50.75 51.78 52.58 53.33 50.56 47.83 43.57 42.00 47.73 51.13 52.98 53.06 52.58 53.24 57.03
55.36 55.50 55.67 56.11 55.92 55.14 55.72 56.18 57.53 55.33 54.81 55.82 61.52 62.76 60.28 55.81 52.53 52.87 51.41 51.79 51.59 52.19 51.16 50.63 54.26 56.59 55.07 52.60 49.44 45.65 40.69 45.96 45.88 48.82 53.34 51.79 53.47 49.52 48.91 42.22 42.10 46.49 53.51 55.60 54.84 50.03 57.54
55.24 55.22 55.16 55.65 56.13 55.01 55.14 55.88 56.92 55.50 54.96 55.23 60.54 64.61 60.65 56.19 56.43 55.36 52.35 52.37 54.73 54.44 53.45 52.55 52.52 52.49 54.77 50.90 48.53 46.55 45.92 50.54 47.11 45.30 46.81 48.69 49.45 46.85 47.42 45.42 45.15 53.39 54.10 55.34 46.52 48.49 58.15
55.00 55.08 54.85 55.16 55.74 55.04 54.34 55.38 56.59 54.94 54.93 55.41 60.77 65.29 61.51 57.56 58.42 56.97 56.63 55.21 54.69 54.60 52.31 54.61 52.84 52.87 51.92 49.82 50.16 49.69 47.98 51.97 48.42 50.34 49.06 47.91 46.36 46.40 47.89 43.06 43.09 54.59 53.32 49.88 56.05 57.65 58.67
54.75 55.00 55.06 55.26 55.64 54.84 54.11 55.27 56.68 54.22 54.43 53.94 57.69 64.05 63.54 59.52 59.30 60.88 59.79 60.07 58.90 58.81 56.17 55.86 54.84 53.46 54.86 52.02 52.83 53.80 49.43 51.41 48.61 44.95 52.66 46.92 50.53 49.05 49.71 50.27 56.08 56.94 57.29 58.40 58.70 57.88 58.02

GFSGBSN_sfc_wetblb_102.txt.gz
Wetbulb
58.98 58.67 58.49 58.92 58.67 58.13 58.00 57.74 57.69 57.45 57.61 57.38 57.45 57.20 57.14 56.78 56.79 56.86 56.91 56.78 56.80 56.73 56.98 57.20 57.35 57.95 58.19 57.25 56.59 66.75 72.12 68.93 60.10 57.96 60.74 61.61 59.10 62.11 62.23 64.47 65.86 63.35 64.52 66.62 66.69 67.61 67.34
60.51 58.96 58.77 58.25 58.73 58.55 58.37 58.16 57.75 57.81 57.70 57.37 57.28 57.10 57.05 56.78 56.64 56.62 56.51 56.23 56.14 56.08 56.34 56.90 57.48 57.88 56.79 52.31 61.43 67.01 64.08 62.90 56.74 58.09 60.69 62.35 59.51 61.23 64.08 64.68 63.84 66.32 65.76 65.95 67.24 65.55 67.30
60.67 60.37 58.78 58.76 58.66 58.83 58.26 58.23 58.20 57.91 57.71 57.35 57.23 56.93 56.89 57.04 56.93 56.69 56.37 55.76 55.57 55.85 56.19 56.89 57.84 58.33 55.79 55.93 60.35 63.15 62.78 57.56 57.32 58.93 59.91 61.81 61.49 59.30 61.68 63.19 67.96 66.32 63.24 64.36 65.68 66.69 65.65
60.66 60.52 59.43 58.71 58.36 58.72 58.34 57.93 58.11 58.23 57.96 57.62 57.57 57.21 56.79 56.60 56.58 56.39 56.12 55.41 55.22 55.85 56.12 57.38 58.49 58.53 55.00 59.45 61.36 63.04 63.43 59.89 58.38 60.30 62.26 62.53 61.41 59.29 59.71 66.05 64.84 63.70 63.93 58.92 63.05 64.72 65.58
60.96 60.56 60.09 58.99 58.45 58.12 58.52 57.86 57.83 57.83 57.95 57.88 57.85 57.53 57.30 56.32 56.14 55.61 55.35 54.84 55.71 57.64 57.73 58.60 58.65 57.75 54.82 58.42 55.44 61.34 62.75 60.16 60.75 59.81 61.62 62.40 60.50 58.10 60.44 60.59 60.36 62.43 57.22 58.62 60.17 65.12 64.43
61.26 60.82 60.03 59.17 58.53 58.62 58.43 58.43 57.69 57.70 57.90 57.90 57.72 57.54 56.84 56.16 56.19 55.35 54.90 54.70 58.34 57.62 59.19 61.16 60.40 55.97 57.75 54.81 57.19 61.45 61.87 61.65 59.12 58.42 58.14 57.58 57.38 56.65 59.92 58.98 53.68 56.55 57.16 59.05 58.84 61.67 62.99
61.31 60.71 60.20 59.71 58.35 58.54 58.76 58.11 57.44 57.42 57.61 57.44 57.53 57.41 56.82 56.20 55.84 55.00 54.54 59.31 58.87 57.93 60.04 56.67 56.08 54.61 56.05 58.83 60.95 58.18 58.98 58.70 57.73 55.63 51.80 54.48 51.41 53.72 58.67 60.30 61.20 57.01 57.49 57.59 56.60 60.31 60.47
61.37 60.57 59.47 59.40 58.32 58.46 58.62 58.09 57.32 57.19 57.11 57.20 57.21 57.00 56.52 55.75 55.41 54.78 55.15 57.13 57.25 58.36 53.89 59.52 55.68 54.68 57.14 58.92 55.11 57.53 58.92 53.69 52.68 49.79 52.82 52.15 48.78 54.97 60.13 60.90 60.19 57.31 55.18 55.16 55.02 56.52 58.94
60.71 60.30 59.55 59.01 58.17 58.01 58.20 57.79 56.96 56.76 56.87 56.87 56.86 56.64 55.69 55.08 54.65 54.52 57.97 58.49 61.68 61.34 54.68 54.91 54.82 54.42 54.40 55.99 54.46 55.43 57.21 55.01 52.03 49.88 50.32 49.69 52.07 55.11 56.78 57.71 56.94 57.76 56.56 53.12 51.91 54.15 56.61
60.34 59.42 59.03 58.70 58.30 57.91 58.00 57.55 56.71 56.41 56.47 56.46 56.48 56.25 55.00 53.84 53.47 60.56 59.18 61.62 62.10 62.09 50.80 51.45 53.16 55.07 55.48 55.55 52.38 58.93 58.39 55.56 53.24 50.04 50.12 50.21 54.20 53.37 53.99 55.02 58.18 54.82 58.04 56.29 54.41 50.84 48.34
59.98 59.13 58.73 58.24 58.39 57.67 57.41 57.44 56.77 56.29 56.08 56.04 56.11 55.04 54.09 52.44 56.90 57.33 60.76 62.25 62.37 59.95 41.73 51.82 53.18 59.04 57.44 53.27 54.71 55.58 59.44 55.59 51.49 51.03 51.13 49.06 51.06 52.00 51.53 54.31 59.40 54.40 60.21 56.96 55.33 51.49 51.67
59.88 59.46 58.58 58.46 58.58 58.06 57.21 57.26 56.94 55.84 55.63 55.79 55.38 53.90 52.42 56.54 57.67 59.84 62.22 62.55 60.40 49.40 41.30 49.64 53.15 52.64 52.04 53.69 54.33 56.08 56.05 57.37 56.61 52.73 51.77 50.89 54.47 53.67 53.32 56.74 58.84 58.16 58.12 56.25 54.69 52.25 47.79
59.47 59.58 58.54 58.15 58.11 57.89 57.13 56.98 56.87 55.73 55.06 54.84 54.09 52.65 52.56 58.79 60.03 62.74 62.24 58.96 49.73 44.49 51.39 49.16 49.83 51.48 51.15 50.73 52.11 52.79 51.64 51.15 49.81 47.38 48.09 49.74 50.38 54.60 55.12 52.96 56.80 57.51 54.98 48.36 47.14 45.88 47.15
59.09 59.26 58.63 57.89 57.69 57.58 57.41 57.21 56.92 55.37 54.72 53.88 52.40 51.89 54.68 58.95 61.88 62.75 60.57 54.22 44.89 48.56 48.77 51.37 50.62 50.93 47.81 52.18 51.61 51.93 50.60 48.73 52.20 51.87 49.14 46.24 44.30 52.27 55.33 54.04 53.01 55.25 54.82 48.27 42.41 44.20 48.19
58.79 59.12 58.54 57.89 57.61 57.52 57.50 57.08 56.39 55.02 54.27 53.11 51.29 60.47 59.53 62.26 61.95 60.99 56.71 49.28 48.87 49.28 50.97 49.46 50.54 49.50 49.09 50.40 50.06 51.15 50.45 49.99 51.92 52.44 48.75 48.14 47.29 53.01 54.77 55.63 55.31 53.69 51.59 56.40 50.96 51.37 49.14
57.90 58.69 58.64 58.06 57.62 57.40 57.28 57.30 56.33 54.68 54.02 52.78 56.76 60.15 60.09 63.11 63.34 60.25 54.04 47.90 51.10 51.92 51.27 50.50 46.95 50.32 47.22 49.54 48.92 49.32 49.71 52.69 51.63 53.96 54.78 52.04 48.02 52.88 54.00 55.39 55.36 54.48 56.35 50.28 51.60 44.52 43.95
56.89 57.53 57.84 58.04 57.74 57.52 57.35 57.40 56.27 54.14 53.31 52.44 57.89 57.01 61.42 62.77 61.76 56.43 50.45 51.66 51.28 52.55 51.16 48.60 48.59 48.62 49.54 48.14 50.56 48.97 49.33 52.05 54.01 53.72 55.67 53.20 51.92 51.41 53.17 51.49 50.26 51.07 50.62 52.41 52.78 52.69 45.65
56.18 56.75 57.35 57.72 57.74 57.64 57.53 57.14 55.83 53.13 52.17 53.16 59.53 52.86 62.64 61.75 53.52 54.79 51.83 52.68 48.05 49.91 51.79 50.27 50.90 49.79 49.55 51.37 48.98 48.70 50.23 51.92 54.64 55.09 52.16 54.44 51.81 48.24 50.10 53.86 54.60 52.92 51.36 51.85 48.60 48.88 51.47
57.22 56.84 56.77 57.28 57.64 57.74 57.39 56.76 55.43 53.10 52.89 56.44 57.13 57.43 62.94 60.14 50.08 52.36 53.85 51.09 49.89 49.81 49.34 49.12 48.71 51.87 51.70 50.54 47.06 49.20 51.70 54.30 54.87 53.40 52.32 53.82 50.45 46.08 48.12 51.55 53.16 50.74 51.70 52.17 51.52 52.13 50.54
56.00 56.98 57.28 57.11 57.60 57.68 57.11 56.50 55.23 53.73 53.41 55.55 57.44 54.38 56.96 57.10 56.42 54.11 52.28 50.37 48.95 52.61 50.46 50.31 49.77 52.09 50.73 50.04 51.98 46.15 48.11 52.77 54.24 53.54 59.15 56.81 50.79 48.66 45.04 48.45 52.03 49.25 50.09 51.50 50.62 47.54 48.55
55.36 55.74 56.87 57.07 57.31 57.60 57.13 56.36 55.75 54.42 53.44 55.68 57.52 55.66 56.84 50.78 52.09 52.89 52.06 51.55 48.26 47.70 51.29 51.25 50.04 50.48 50.19 47.51 46.91 49.90 50.00 52.23 53.21 54.01 54.56 53.20 48.67 51.09 50.83 51.59 52.58 51.91 50.16 50.22 50.26 50.37 49.18
54.81 55.32 55.85 56.87 56.77 57.39 57.16 56.69 56.03 54.72 53.03 56.97 56.26 56.89 58.68 54.54 53.73 51.82 48.75 49.57 48.67 48.82 49.00 49.24 48.58 50.37 50.86 49.12 47.86 46.08 50.51 47.45 51.43 54.19 53.03 54.13 49.54 51.60 50.07 52.24 52.40 50.56 52.37 50.84 50.99 51.43 51.76
54.46 54.56 55.42 56.44 56.73 56.61 57.11 56.64 56.36 54.60 53.00 60.24 61.59 62.14 58.74 52.57 52.85 50.64 50.79 51.16 49.71 50.27 50.53 50.63 51.44 50.85 50.62 52.60 53.92 54.47 53.58 54.49 54.86 52.85 52.19 52.10 51.54 49.70 47.52 51.01 51.41 48.00 51.72 52.06 51.61 52.86 52.87
54.25 54.89 55.68 55.98 56.72 56.31 56.73 56.95 56.84 55.75 53.74 56.92 60.42 60.05 57.16 52.29 52.51 51.39 51.40 50.95 49.27 50.66 50.01 49.98 51.50 51.38 54.46 56.84 55.24 54.33 53.09 53.19 53.06 53.09 54.04 51.60 51.19 48.64 46.14 48.14 42.08 50.56 56.05 55.01 54.98 54.21 58.70
54.33 54.87 55.82 56.21 56.46 56.77 55.93 56.42 56.83 56.88 55.00 55.15 58.03 59.08 57.54 54.32 54.85 52.45 51.50 50.32 51.45 52.47 50.06 49.63 50.81 54.89 56.96 53.13 49.77 49.16 48.66 49.88 50.65 51.59 52.59 54.21 51.67 46.77 42.39 41.67 45.76 50.62 52.72 52.87 52.93 52.89 57.39
54.51 55.43 55.65 55.98 56.12 56.63 56.09 55.80 56.56 57.11 54.96 54.90 58.43 62.15 58.71 55.40 54.19 54.05 51.61 51.76 50.40 52.00 52.05 50.85 53.82 55.89 54.65 51.19 49.27 45.08 41.71 44.43 46.43 48.64 52.39 53.64 53.99 49.74 46.93 42.17 39.84 48.51 53.12 56.76 56.07 46.35 55.76
54.84 55.51 55.45 55.61 55.69 56.12 56.50 55.63 56.06 56.94 55.36 54.22 57.48 61.18 58.95 55.98 58.34 55.78 52.02 52.29 53.67 53.99 52.44 53.26 52.30 52.13 54.39 50.68 47.14 46.39 42.61 46.02 39.94 43.37 46.84 47.36 48.09 43.53 41.85 42.19 45.79 51.57 53.94 56.13 45.93 49.46 57.88
54.98 55.26 55.36 55.28 55.36 55.87 56.28 55.19 55.59 56.86 55.64 54.25 57.02 63.29 59.13 57.92 58.75 58.36 56.26 55.00 54.84 54.36 52.05 54.76 52.51 53.45 51.52 49.23 48.88 49.16 47.76 46.42 45.83 50.37 49.28 47.69 47.38 46.92 48.49 44.18 41.60 54.99 53.75 48.83 55.42 58.30 59.58
54.84 55.02 55.16 55.38 55.47 55.59 56.12 54.86 55.44 56.71 55.02 54.24 54.51 63.22 63.76 57.83 59.46 62.43 59.95 59.17 58.16 58.66 56.32 56.96 55.08 56.03 54.47 51.64 52.34 52.20 48.74 49.76 49.50 44.88 52.90 47.09 51.56 49.58 50.28 49.74 56.31 57.57 58.42 60.06 59.74 58.48 58.74

GFSGBSN_sfc_wetblb_105.txt.gz
Wetbulb
60.40 59.29 59.10 58.77 58.88 59.25 58.64 58.57 58.61 58.20 58.20 57.99 57.71 57.57 57.43 57.50 57.26 57.31 57.23 57.18 56.96 56.73 56.80 57.32 57.71 58.10 55.77 52.08 53.94 64.63 71.57 69.17 60.75 53.72 52.01 55.94 56.98 56.89 61.22 64.70 64.38 63.37 64.41 64.12 64.41 63.20 64.54
60.88 59.99 59.23 59.09 58.99 59.16 58.72 58.43 58.66 58.67 58.39 58.06 57.87 57.73 57.42 57.37 57.44 57.44 57.49 57.36 56.58 56.29 56.52 57.05 57.52 58.45 53.22 46.86 62.84 64.60 65.79 63.90 56.55 51.60 54.78 57.41 58.43 58.47 58.90 63.65 62.39 65.48 63.97 65.12 64.33 65.42 65.34
60.97 60.57 59.39 59.30 59.00 58.57 59.00 58.73 58.44 58.45 58.53 58.39 58.19 58.09 57.75 57.38 57.25 57.42 57.25 57.04 56.52 56.18 56.44 56.91 57.97 57.32 52.14 51.25 59.78 63.86 61.32 57.94 55.85 52.71 54.20 58.20 60.70 56.73 56.25 56.50 66.52 65.31 61.97 64.31 63.97 64.83 64.69
61.29 60.71 59.77 58.78 59.03 58.76 58.41 58.57 58.35 58.35 58.26 58.19 58.24 58.08 57.76 57.43 57.12 56.80 56.34 56.07 55.70 56.30 57.13 57.43 58.36 55.38 50.01 59.11 57.34 58.10 59.64 55.33 54.13 53.53 55.93 59.13 59.60 56.26 53.20 61.81 63.66 62.23 61.00 57.15 63.47 64.19 64.48
61.44 61.06 60.40 58.96 58.46 58.92 58.62 58.62 58.25 58.04 57.99 58.21 58.08 57.93 57.51 57.27 56.82 56.59 55.72 55.56 56.03 57.56 59.12 58.19 55.16 51.40 51.09 61.28 53.53 55.71 56.64 57.68 53.26 53.05 55.44 59.98 57.94 52.94 53.85 51.21 54.45 60.21 53.37 56.53 59.57 64.38 63.03
61.76 61.10 60.52 59.56 58.45 58.78 58.85 58.79 57.91 57.66 57.76 57.87 57.66 57.44 57.47 57.03 56.43 55.80 54.92 55.03 56.78 56.82 58.50 59.05 58.46 51.45 56.39 54.64 55.35 55.01 56.26 59.89 56.59 55.18 54.34 54.33 52.32 48.21 49.28 47.85 46.58 52.82 54.11 57.43 56.40 58.30 59.13
61.54 60.94 59.62 59.46 58.53 58.33 58.77 58.55 57.78 57.34 57.40 57.43 57.32 57.11 57.07 56.52 55.65 55.13 53.68 53.86 53.29 52.72 55.23 54.17 53.43 53.94 54.81 56.53 58.75 56.50 58.49 56.95 56.78 52.57 47.58 51.27 45.80 43.91 48.51 53.39 55.83 57.63 56.59 53.53 56.80 58.06 55.90
60.95 60.11 59.04 59.18 57.97 57.78 58.39 58.24 57.65 57.02 56.95 57.00 56.86 56.75 56.62 56.00 55.19 54.92 52.09 51.31 55.14 54.30 49.77 56.97 58.18 56.53 53.83 55.13 53.40 55.82 56.53 51.29 51.76 46.95 49.10 46.40 43.35 48.98 52.26 58.55 59.28 56.61 53.60 53.74 55.65 56.96 54.99
60.57 58.91 58.06 57.87 57.61 57.77 58.10 57.97 57.65 56.70 56.56 56.58 56.47 56.32 55.75 54.97 54.25 51.59 53.17 54.83 58.70 57.96 49.57 54.49 56.60 52.63 51.36 52.00 50.95 53.49 53.82 51.81 48.25 46.15 46.40 44.03 47.78 51.90 50.79 58.35 56.52 56.04 54.48 53.82 53.49 55.11 55.20
60.13 59.19 58.40 57.67 57.73 57.56 57.90 57.65 57.69 56.93 56.20 56.15 56.27 56.14 54.44 52.73 52.44 56.11 56.05 59.84 59.67 58.24 44.92 50.87 49.66 52.27 53.17 52.69 49.28 55.38 56.50 53.34 50.14 46.36 47.35 45.14 50.10 50.17 49.57 54.48 56.40 52.64 58.10 55.85 53.84 51.55 47.39
59.77 59.77 58.97 58.29 58.27 57.93 57.19 57.24 57.57 57.16 56.07 55.70 55.76 55.53 53.90 52.22 51.11 52.51 57.09 59.61 58.42 55.35 36.97 51.25 50.99 56.86 53.66 49.14 52.18 52.41 57.06 53.28 48.84 48.71 46.26 44.63 46.57 46.87 47.67 50.75 58.56 55.09 58.36 55.73 53.58 50.64 51.79
59.42 59.67 59.45 58.67 58.41 58.19 57.38 56.84 57.15 56.88 55.92 55.24 55.07 54.50 53.57 53.18 51.90 54.72 57.85 58.39 57.21 44.36 40.08 48.54 52.13 50.94 49.73 50.74 51.81 54.31 54.33 54.05 53.61 49.79 50.06 47.94 50.84 48.82 49.05 53.77 58.70 59.77 56.40 54.94 53.73 51.98 45.54
58.96 59.37 59.52 58.65 58.22 57.74 57.20 56.73 56.99 56.62 55.57 54.36 53.42 52.81 52.18 55.36 54.55 59.23 57.98 55.07 44.17 41.09 52.93 48.33 47.19 50.10 48.64 48.44 49.99 51.38 50.36 48.50 44.76 39.94 41.93 47.86 47.32 48.89 51.47 52.31 58.25 56.56 52.51 46.15 43.25 42.50 42.32
57.52 58.34 59.16 58.49 57.81 57.51 57.47 57.22 57.00 56.02 54.94 53.46 51.85 51.40 52.46 55.67 57.87 58.28 56.56 49.60 42.15 49.67 49.03 49.77 48.58 48.76 46.15 50.00 49.82 50.37 48.27 44.77 49.11 47.21 43.87 41.31 39.64 46.69 52.03 48.51 52.32 54.19 50.29 43.59 40.11 42.31 45.62
56.08 56.89 58.03 58.09 57.82 57.60 57.35 56.99 56.58 55.61 54.32 52.67 51.39 56.51 56.31 57.97 57.42 57.42 51.01 44.65 46.13 49.19 48.73 47.16 47.46 46.59 47.37 50.22 49.83 48.55 47.84 45.96 47.69 48.16 41.28 41.47 43.78 51.10 52.28 52.67 50.76 48.92 46.58 52.38 46.01 47.20 45.93
56.29 55.83 56.24 57.54 57.80 57.68 57.58 57.03 56.32 55.61 53.97 52.67 51.77 55.11 57.13 61.58 60.52 56.51 49.44 44.49 49.47 50.99 49.18 47.13 42.96 46.64 45.62 47.98 47.47 47.65 47.22 51.02 50.01 51.47 49.59 46.17 41.45 49.43 52.69 51.63 51.89 47.69 52.06 43.28 47.17 40.79 40.46
57.52 57.25 55.76 56.09 57.43 57.64 57.78 57.13 55.98 55.09 53.19 52.16 54.05 52.90 59.59 62.42 60.03 53.08 45.45 48.70 52.68 50.68 49.86 46.74 44.83 44.69 47.55 47.19 48.26 47.32 48.20 51.57 52.45 51.28 51.69 47.34 44.72 45.80 50.68 46.73 45.78 45.82 44.55 45.50 48.25 46.64 43.01
56.87 57.14 57.25 55.77 57.11 57.62 57.76 56.74 55.67 53.89 52.19 53.04 56.98 50.23 59.87 59.53 50.18 50.70 48.02 51.66 51.99 49.50 50.48 48.36 47.61 46.60 46.08 49.12 46.12 47.51 47.35 50.44 54.31 52.33 48.56 48.76 43.87 40.82 45.66 51.42 52.07 48.14 45.59 44.82 40.72 41.25 45.56
55.50 55.74 56.85 57.17 56.89 57.59 57.67 56.72 55.19 53.83 52.80 51.69 53.22 54.96 61.58 59.03 46.32 47.23 53.09 52.32 50.63 47.54 48.25 47.08 46.11 47.43 49.73 48.11 44.69 49.07 49.96 53.96 54.30 52.12 47.43 48.41 43.30 38.78 42.20 46.85 49.64 45.54 46.79 44.27 44.03 43.18 41.38
55.31 55.31 55.45 56.67 57.13 57.13 57.43 56.70 54.99 54.35 53.69 52.21 53.84 50.95 56.48 56.66 54.89 49.53 50.18 50.82 49.77 51.56 50.14 49.90 49.13 48.37 47.23 47.29 48.53 46.94 47.73 51.88 53.77 52.81 59.77 53.26 42.91 41.17 38.14 43.12 48.25 47.28 47.67 47.24 43.87 39.40 40.79
55.51 54.92 54.95 55.66 56.48 57.05 56.85 56.84 55.31 54.62 54.14 52.22 54.65 52.71 55.75 50.00 49.49 50.09 51.26 50.23 48.95 47.40 50.47 49.39 49.57 48.80 47.53 43.96 45.32 45.06 47.30 48.86 52.55 55.64 51.55 47.13 41.18 43.95 47.59 50.09 49.69 49.33 49.32 48.21 44.01 44.49 40.78
55.60 54.66 54.44 55.42 56.19 56.99 56.75 56.76 56.16 54.93 53.30 51.96 51.56 52.93 56.34 54.44 54.57 50.60 47.90 48.16 48.17 48.87 48.92 46.87 47.23 49.19 49.74 46.24 47.28 44.39 47.95 47.68 47.11 50.28 49.58 48.37 42.92 46.79 45.70 50.30 50.87 48.88 50.57 51.73 49.89 47.70 53.48
55.32 54.33 54.54 55.62 56.26 56.72 56.99 56.47 56.46 55.09 52.57 55.23 59.11 59.58 56.48 52.71 53.13 48.82 47.86 51.34 50.17 50.20 49.89 51.45 50.07 48.93 49.16 51.10 52.24 51.91 51.78 51.31 50.65 48.30 47.43 46.96 45.61 43.81 39.89 47.12 47.91 45.80 48.15 50.23 51.02 52.20 52.94
54.79 54.32 54.96 55.77 56.46 56.80 56.93 56.63 56.41 56.24 54.32 52.21 54.95 55.42 54.23 51.23 53.34 53.25 52.40 51.43 49.93 49.55 50.11 49.99 50.13 48.69 52.52 54.01 51.71 50.06 49.18 49.54 50.67 47.62 48.07 45.98 46.01 43.80 40.32 43.84 36.73 47.19 52.21 52.43 51.70 52.41 52.51
54.06 54.17 55.03 55.81 56.31 56.41 56.62 57.05 56.39 56.40 56.06 52.46 53.37 53.56 54.34 50.73 54.86 55.16 53.65 50.60 51.00 50.02 50.05 49.06 51.75 52.10 52.09 49.18 44.82 44.74 46.01 46.50 48.26 51.24 47.36 48.86 46.50 42.21 39.25 37.87 44.68 48.73 50.98 49.66 47.55 48.14 54.09
53.47 54.36 55.23 55.72 56.04 56.07 56.36 56.74 56.68 56.15 56.10 52.86 53.40 55.80 55.43 52.20 52.71 56.71 53.84 51.77 47.82 48.42 49.80 50.60 52.93 52.29 51.28 46.88 45.08 41.16 37.95 41.22 42.21 46.43 51.41 52.58 51.64 44.62 40.50 37.59 36.92 46.68 52.70 54.75 52.94 45.22 53.94
53.72 54.62 55.21 55.49 55.58 55.74 56.18 56.48 56.67 55.99 56.26 53.12 52.78 56.16 56.55 52.50 55.59 56.59 53.18 50.72 52.38 52.27 50.37 50.70 50.50 49.54 50.11 45.76 43.20 42.73 41.86 45.75 39.58 41.43 44.23 44.77 43.83 41.32 41.56 41.61 44.51 51.78 53.93 54.68 43.92 47.10 54.91
54.70 55.01 55.21 55.21 55.27 55.54 56.06 56.21 56.36 55.52 56.80 53.19 52.52 55.77 57.20 54.78 55.80 58.87 57.69 54.39 53.39 51.88 49.54 51.68 50.39 50.04 47.94 44.64 44.10 45.48 41.97 43.34 42.12 46.25 47.90 44.25 41.83 41.86 40.27 37.19 38.26 54.38 53.09 46.86 51.80 54.87 55.80
54.64 54.91 55.17 55.37 55.41 55.65 56.00 56.31 55.69 55.45 56.54 54.75 51.29 59.02 60.65 57.43 55.38 57.25 57.46 58.22 58.39 56.96 53.61 54.31 53.23 53.09 52.32 48.41 49.00 48.67 45.11 43.78 42.98 40.55 48.37 42.38 47.75 45.75 45.29 43.71 48.82 53.82 53.89 56.01 56.21 54.07 54.59

GFSGBSN_sfc_wetblb_108.txt.gz
Wetbulb
60.53 59.55 59.36 59.38 59.32 59.17 58.90 58.62 58.73 58.80 58.58 58.35 58.17 57.98 57.81 57.80 57.71 57.80 57.66 57.69 57.13 56.63 56.62 57.05 57.51 58.33 53.89 48.25 51.91 62.87 70.92 70.29 62.42 54.25 49.54 49.91 52.84 55.06 52.64 62.55 64.97 61.88 61.67 63.77 64.23 63.87 63.77
60.83 60.27 59.08 58.90 59.13 58.64 58.64 58.64 58.38 58.39 58.38 58.47 58.33 58.24 58.04 57.94 57.50 57.66 57.70 57.81 57.10 56.84 56.78 57.07 57.50 58.53 50.95 43.90 57.88 65.85 63.50 61.60 55.23 50.15 49.44 51.21 54.95 57.82 54.58 61.74 62.33 65.47 64.47 63.21 63.54 62.79 64.03
61.09 60.73 59.73 58.55 58.22 59.08 58.62 58.66 58.47 58.21 58.31 58.15 58.12 58.16 58.07 57.82 57.57 57.60 57.22 57.00 56.45 56.30 56.76 57.27 57.35 57.18 50.57 47.56 60.54 64.73 62.51 59.42 55.91 49.44 50.66 54.41 54.83 54.29 54.11 51.93 65.18 65.69 61.40 62.20 62.08 64.20 62.56
61.13 61.08 60.70 59.02 58.10 58.83 58.63 58.85 58.43 58.06 57.98 57.97 58.07 57.80 57.74 57.56 57.48 56.83 56.75 56.20 55.93 56.61 57.12 58.05 57.98 53.46 45.95 57.06 57.17 54.93 59.66 54.32 55.57 50.43 50.77 54.76 55.59 53.49 52.07 53.35 56.65 62.06 60.26 56.50 61.28 62.27 61.44
61.39 60.60 59.81 59.54 58.22 58.63 58.46 58.48 58.07 57.58 57.39 57.46 57.54 57.48 57.32 57.24 56.85 56.36 55.37 55.47 56.28 57.49 58.72 58.32 51.81 49.67 49.04 61.84 54.00 54.91 55.96 54.56 50.63 49.45 50.92 55.46 52.71 51.17 51.54 48.04 48.85 59.98 51.95 55.65 59.38 61.50 62.25
60.85 59.56 59.04 58.66 58.13 57.69 58.35 58.28 57.88 57.31 57.11 57.10 57.10 57.01 56.97 56.92 56.30 55.15 54.46 55.23 55.41 55.73 57.77 58.19 57.28 48.84 52.93 54.66 53.43 53.37 53.16 54.36 51.14 49.77 50.71 49.69 49.05 45.43 45.95 44.49 40.54 49.76 54.35 54.87 53.83 57.73 59.78
60.35 59.55 59.26 58.62 57.67 57.54 58.14 58.11 58.04 57.39 56.95 56.88 56.77 56.41 56.40 56.22 55.55 54.28 51.39 49.90 49.63 49.09 52.25 51.43 51.66 52.79 54.82 55.12 56.62 53.43 54.02 54.98 54.34 50.05 45.03 48.06 44.69 41.85 45.70 47.42 49.12 57.25 54.92 53.50 55.45 57.79 56.92
60.37 58.91 58.28 58.39 58.26 57.68 57.77 58.03 57.90 57.71 56.90 56.58 56.17 56.14 55.93 55.29 54.38 53.67 50.29 46.68 50.47 52.96 46.74 54.37 56.46 55.65 57.32 54.42 51.21 54.28 55.24 50.49 50.10 45.87 46.84 44.39 41.82 47.64 49.86 50.46 53.36 55.86 53.62 53.27 54.89 57.27 56.08
59.78 59.41 58.52 57.52 57.48 57.76 57.15 57.24 57.44 57.40 56.95 56.03 55.90 55.76 55.35 54.58 53.83 50.16 48.94 52.12 55.76 53.39 45.46 51.47 54.17 54.61 54.58 50.28 49.29 49.54 52.23 49.52 46.55 45.34 43.91 41.96 45.73 50.20 49.17 48.69 54.99 54.48 54.16 52.85 52.92 55.07 56.08
58.95 59.40 59.17 58.39 57.63 57.51 57.00 56.83 57.10 57.16 56.94 56.20 55.76 55.63 54.72 52.85 51.31 50.30 50.42 55.08 54.95 53.92 41.03 47.16 47.86 50.38 50.18 50.29 47.27 52.73 54.24 51.12 47.96 44.38 44.65 42.73 47.74 47.76 46.92 48.75 55.60 50.26 57.22 55.92 53.78 51.39 46.96
58.78 59.19 59.53 58.71 58.11 57.62 57.07 56.65 56.58 56.80 56.70 56.36 55.46 54.82 53.54 52.32 47.05 47.92 52.85 53.41 56.05 51.06 34.09 51.31 48.37 55.49 50.72 47.49 48.62 50.79 54.63 50.96 47.37 47.18 44.42 43.52 44.88 44.31 44.73 46.52 57.66 53.72 57.47 54.91 53.87 50.42 50.75
58.20 58.24 59.11 59.04 58.65 57.85 57.06 56.56 56.49 56.52 56.50 56.24 54.84 53.83 52.92 49.78 47.51 51.61 54.38 54.47 51.23 41.74 36.75 47.17 49.83 48.38 46.84 47.42 48.50 51.42 51.99 52.97 52.27 48.26 46.81 46.76 50.62 46.44 45.58 56.40 58.63 58.02 54.87 53.91 53.08 50.09 43.21
56.16 56.43 57.31 58.26 58.26 57.86 57.12 56.67 56.46 56.24 55.87 55.29 53.50 51.93 51.21 53.05 47.06 52.37 52.92 50.40 41.52 37.16 50.92 46.50 43.94 47.02 45.45 45.06 47.45 49.39 48.69 46.24 44.45 38.81 38.46 45.09 46.81 50.33 59.42 54.88 57.36 54.53 48.54 44.76 43.81 43.47 42.13
56.26 56.17 55.93 56.59 57.45 57.72 57.28 57.06 56.40 55.95 55.49 54.22 51.76 50.72 50.31 52.25 50.82 52.56 50.89 46.10 36.94 47.36 47.27 48.14 44.70 45.41 44.45 47.22 48.18 48.83 46.30 44.08 46.80 44.01 39.74 38.12 38.60 45.10 52.91 54.88 52.23 51.79 46.80 43.78 39.64 39.90 45.00
57.46 57.28 55.93 55.34 56.57 56.95 57.38 56.94 56.05 55.39 54.89 53.21 50.80 48.28 49.61 52.48 52.88 51.76 47.19 39.33 41.74 45.50 45.67 43.32 43.55 42.69 44.13 46.61 47.06 47.98 46.54 43.23 46.86 45.56 39.72 37.61 40.75 49.08 50.12 55.04 55.76 50.98 46.17 49.50 45.02 43.74 44.52
57.33 57.39 57.04 55.58 55.75 56.14 57.10 56.80 55.46 55.31 54.66 52.43 47.10 47.63 49.13 55.53 55.14 49.94 44.02 40.11 44.45 50.21 45.36 43.84 37.92 41.50 40.38 43.75 44.52 44.06 45.54 49.96 49.01 50.09 46.64 42.57 38.04 44.79 50.54 50.36 54.02 52.17 52.97 43.43 42.28 38.85 39.46
56.62 56.17 56.68 56.92 55.85 55.64 56.98 57.22 55.63 54.76 53.72 51.56 48.71 45.94 52.80 55.89 53.83 46.76 39.48 41.22 48.18 51.97 47.79 42.93 40.49 39.67 42.97 43.68 44.94 43.78 45.31 50.42 52.18 51.08 49.14 43.71 40.57 43.53 47.02 43.82 43.68 43.98 43.36 42.51 44.49 44.27 41.39
56.71 55.59 55.03 55.98 56.56 56.52 56.58 56.84 55.27 53.64 52.04 49.62 47.90 45.04 53.20 55.94 45.08 42.37 40.60 45.79 50.41 49.94 46.45 44.21 43.62 41.78 42.17 45.75 43.64 44.27 45.96 48.83 53.62 52.08 45.04 45.49 40.25 38.59 43.39 48.34 49.19 46.19 43.96 42.44 38.37 38.63 43.37
56.98 56.12 55.00 55.02 55.37 56.46 56.68 56.46 55.27 53.38 51.94 46.30 45.05 47.88 54.61 52.33 40.58 40.14 44.17 48.10 50.05 49.48 45.00 43.86 43.19 43.64 47.44 43.84 41.89 46.40 47.83 52.65 52.96 50.92 46.50 45.57 38.86 37.28 40.85 44.42 48.01 44.69 44.93 43.48 39.97 39.75 40.58
57.12 56.19 55.65 54.75 55.32 55.56 56.58 56.01 55.41 53.86 53.43 46.97 46.53 43.39 49.38 49.71 46.60 44.79 42.40 44.81 47.39 49.97 47.85 46.44 44.97 44.45 44.36 42.54 44.73 44.33 46.37 50.79 52.03 52.71 59.87 51.31 38.93 40.87 37.91 41.04 43.66 43.28 47.05 46.92 40.07 36.94 37.77
57.10 55.97 55.29 54.66 54.69 55.25 55.86 55.81 55.37 54.26 53.62 47.96 47.36 44.72 48.78 45.72 47.07 48.46 44.19 45.37 47.18 45.12 46.68 46.16 44.92 46.34 42.66 39.78 41.66 42.58 46.04 47.41 51.50 54.73 51.72 47.05 39.50 40.82 45.20 48.84 49.23 48.49 48.15 49.41 44.51 41.66 40.54
56.68 55.74 54.84 54.72 54.95 55.22 55.66 56.10 55.61 54.70 52.80 47.06 44.46 46.16 51.20 48.62 49.78 48.17 43.95 45.32 45.58 44.73 44.70 43.12 44.16 48.98 48.17 43.37 43.88 41.43 45.39 44.65 45.95 48.37 46.92 46.83 42.67 43.61 44.38 48.86 48.29 47.89 48.66 50.80 50.13 49.69 53.92
56.08 55.29 54.50 54.81 55.62 55.28 56.22 55.99 55.89 55.03 51.67 47.55 51.40 52.07 50.81 47.75 48.60 47.19 43.06 45.85 47.40 46.34 46.92 48.30 47.89 45.68 46.30 48.17 49.59 47.65 48.09 47.15 46.30 45.39 43.72 44.90 42.74 42.09 37.92 44.56 47.54 42.84 46.91 48.79 49.57 50.83 49.95
55.35 54.69 54.26 55.06 55.87 55.55 55.61 55.99 56.18 55.61 54.67 48.13 47.88 48.50 47.91 46.87 49.87 50.62 52.58 52.41 47.77 47.06 46.00 47.25 46.60 44.58 48.95 47.84 47.10 45.39 45.68 46.26 48.61 45.18 43.47 44.17 41.49 40.32 37.68 40.50 35.94 44.05 50.91 51.25 50.11 50.86 53.61
54.78 54.07 53.86 55.05 55.56 56.39 56.53 56.29 56.37 55.57 55.57 52.16 48.52 45.89 48.27 46.32 51.24 52.07 52.75 51.50 46.77 45.67 44.99 46.77 49.16 48.05 46.19 44.76 40.52 40.10 41.70 41.30 43.84 47.23 46.35 45.08 41.70 39.02 36.12 35.87 41.83 47.28 49.51 49.16 47.04 46.85 54.04
54.03 53.48 54.15 54.91 55.64 56.00 56.15 56.44 56.45 56.06 54.99 53.75 48.00 48.98 47.26 48.89 47.35 53.97 51.68 49.59 43.16 42.77 45.04 47.02 48.55 48.01 46.72 41.81 40.60 35.32 34.37 38.83 40.06 43.73 45.42 45.10 44.82 40.79 37.00 34.57 34.56 44.17 51.29 54.23 52.87 43.10 54.05
53.41 54.13 54.92 55.35 55.55 55.50 55.73 56.42 56.70 56.69 54.99 54.04 49.25 49.35 47.81 49.38 51.32 52.85 50.40 49.38 49.98 45.75 44.32 45.13 45.33 44.15 45.01 39.84 39.80 38.22 37.08 43.81 36.14 38.37 39.63 39.74 40.06 37.51 38.33 35.86 40.89 48.34 51.61 54.01 43.92 43.85 54.86
53.82 54.19 54.82 55.03 55.35 55.29 55.66 56.27 56.35 56.31 55.68 53.22 48.41 50.63 48.25 50.83 52.09 55.56 55.42 50.63 49.37 47.50 44.29 46.46 46.24 45.60 42.43 40.14 41.05 39.65 39.05 40.46 38.21 41.74 43.27 42.70 38.08 38.88 36.29 33.16 33.08 51.16 51.68 46.59 50.21 54.05 56.23
53.83 54.14 54.83 55.13 55.35 55.07 55.72 56.22 56.56 55.82 55.74 54.44 45.98 51.75 52.85 52.21 51.64 55.45 56.68 55.76 52.65 52.12 49.56 47.69 47.11 46.88 46.80 43.28 42.48 43.38 40.82 40.77 38.14 37.38 44.07 40.11 44.22 43.30 44.31 40.93 46.40 50.14 50.05 54.27 53.67 56.20 56.82

GFSGBSN_sfc_wetblb_111.txt.gz
Wetbulb
60.53 59.60 58.65 58.22 58.97 58.48 58.15 58.49 58.34 58.31 58.39 58.37 58.26 58.23 58.11 57.92 57.44 57.06 57.37 57.06 57.33 57.25 56.93 57.01 57.48 58.13 52.51 44.77 49.92 59.18 72.26 70.24 62.18 51.83 48.69 48.44 50.96 53.36 51.00 55.71 63.79 61.37 62.22 63.49 64.17 64.12 64.00
60.76 60.33 59.39 58.04 57.94 58.66 58.32 58.28 57.98 57.96 57.93 58.07 58.03 58.04 57.84 57.91 57.71 57.82 57.71 57.12 57.01 56.76 56.86 57.23 57.76 58.46 49.45 39.67 53.08 63.97 63.36 60.20 55.26 50.67 48.91 49.45 52.17 55.52 53.35 53.17 61.47 64.11 62.84 63.22 64.18 63.25 63.72
60.99 60.73 60.24 58.79 57.88 58.37 58.34 58.23 57.80 57.53 57.35 57.36 57.45 57.59 57.42 57.50 57.59 57.43 57.10 56.44 56.62 56.59 56.69 57.34 57.81 57.00 48.67 44.52 60.32 62.45 59.64 55.58 53.33 48.90 46.71 49.36 53.18 52.57 52.66 51.02 60.90 64.67 60.74 61.73 62.28 62.74 62.55
60.91 59.81 59.68 59.37 58.15 58.38 58.47 58.24 58.03 57.64 57.36 57.18 57.16 57.08 57.04 57.09 57.21 56.74 56.25 55.74 55.93 56.57 57.04 58.30 58.03 52.43 46.07 53.61 55.76 54.03 59.87 58.57 55.02 48.08 47.88 51.80 55.05 52.35 50.66 52.47 52.47 61.32 60.58 55.57 60.45 62.52 62.14
60.05 58.98 58.70 59.17 58.52 57.26 58.30 58.20 57.99 57.59 57.05 56.91 56.93 56.63 56.57 56.68 56.59 56.12 55.15 54.93 56.11 57.30 57.75 58.08 51.11 48.59 47.78 60.39 55.87 55.96 56.00 56.47 50.88 49.50 49.54 53.76 50.56 48.28 49.73 46.56 45.44 55.42 52.42 55.02 57.07 61.71 60.78
59.54 58.87 58.33 57.86 57.67 57.29 57.53 58.03 58.15 58.01 57.12 56.64 56.54 56.57 56.47 56.35 55.86 54.97 53.79 54.63 56.62 55.81 57.15 58.35 56.50 47.82 51.15 52.41 54.28 51.95 53.56 55.04 50.81 48.09 49.02 47.68 46.17 44.10 43.69 42.49 38.66 46.88 52.29 53.54 54.04 58.48 59.62
59.82 59.18 58.77 57.65 58.02 57.74 56.94 57.62 57.93 57.91 57.81 56.84 56.26 55.91 56.04 55.64 55.13 53.74 50.39 48.02 47.21 47.00 52.39 48.95 49.02 51.06 53.74 55.76 54.53 51.25 51.88 50.82 51.73 48.38 43.76 46.18 42.64 40.40 44.38 44.88 48.26 56.41 54.65 53.28 55.18 58.55 56.33
59.34 59.50 59.01 58.47 58.17 57.91 57.39 56.91 56.77 57.69 57.65 57.35 56.19 55.68 55.52 55.13 54.53 53.30 50.13 45.97 47.37 50.55 45.57 52.77 54.38 54.15 55.95 54.79 52.18 52.30 54.14 49.81 48.90 45.06 45.40 43.06 40.76 46.05 48.29 48.31 50.18 56.20 53.40 52.17 55.11 57.35 56.00
57.90 58.75 59.10 58.73 58.07 57.87 57.33 56.90 56.59 56.72 57.19 57.12 56.49 55.56 54.89 54.32 53.39 49.53 47.74 49.81 52.59 51.66 44.07 49.43 52.56 52.56 52.87 54.10 51.37 48.64 51.83 49.15 45.86 44.22 43.72 41.04 44.36 48.88 47.93 47.47 54.60 53.50 52.28 52.17 52.24 55.06 55.99
58.42 58.40 58.24 58.91 58.49 57.94 57.43 56.76 56.51 56.36 56.83 56.76 56.52 55.56 54.30 52.67 49.07 48.52 47.60 52.32 51.89 51.52 40.14 45.87 47.88 51.87 50.05 48.73 46.13 51.58 52.73 49.56 46.44 43.64 43.87 41.63 46.05 46.66 44.91 44.80 53.97 49.38 57.25 55.56 53.27 51.09 46.89
56.88 56.98 57.63 57.93 58.33 58.26 57.77 57.08 56.48 56.57 56.56 56.62 56.38 55.35 53.22 51.99 46.37 48.21 50.07 51.11 51.76 49.56 33.39 50.07 47.55 52.70 47.52 46.22 47.35 49.38 52.50 49.70 44.97 45.33 43.46 42.86 44.32 43.91 42.90 44.48 55.30 52.17 57.06 54.65 53.25 49.30 49.84
56.06 56.23 56.05 56.32 57.36 57.85 57.58 57.14 56.63 56.38 56.10 56.12 55.78 54.37 52.41 48.87 46.03 49.12 51.84 50.56 50.06 41.61 36.79 47.21 48.13 46.55 45.43 45.55 47.19 49.54 49.97 50.94 50.29 46.22 44.88 45.70 48.73 46.73 45.80 54.39 56.25 57.14 53.73 52.40 50.88 48.67 43.80
57.11 56.85 56.82 55.52 55.89 56.59 56.76 56.90 56.54 55.68 55.41 55.03 54.11 52.53 51.05 51.42 44.55 49.33 50.67 49.43 41.14 36.74 49.35 43.26 42.46 44.06 43.36 43.72 45.92 46.47 46.60 44.47 42.50 37.60 39.10 44.93 45.99 56.26 57.57 53.27 55.74 53.01 46.11 39.42 38.93 40.75 42.52
57.36 57.27 57.15 55.58 55.64 55.59 56.13 56.90 56.42 55.15 54.81 54.25 52.45 50.87 49.46 50.86 48.94 51.12 49.61 45.63 36.98 45.76 45.23 47.34 42.12 44.31 42.68 45.74 45.61 46.44 44.44 42.51 45.76 43.56 40.75 39.26 38.84 52.65 56.52 52.81 50.77 50.06 44.86 39.71 36.13 38.76 42.54
57.57 57.04 56.81 56.64 55.48 55.35 55.67 56.41 56.18 55.05 54.48 53.44 51.08 46.64 47.49 49.64 51.72 49.35 47.06 39.16 40.92 44.44 47.47 40.94 41.57 42.04 41.51 44.98 45.18 44.63 43.35 43.27 45.27 42.75 37.96 38.17 40.55 47.49 55.59 56.53 55.38 50.72 44.36 47.35 43.37 41.82 41.78
57.68 56.75 55.75 55.66 56.26 56.03 55.88 56.03 56.08 55.07 54.18 52.91 47.01 46.36 47.33 52.72 52.62 48.68 43.32 39.37 42.55 48.83 46.34 41.55 36.58 40.03 38.29 41.84 42.87 42.61 43.45 47.90 47.82 49.62 44.99 42.51 38.53 43.42 47.62 55.04 54.92 50.40 51.48 43.26 42.30 39.51 35.60
58.11 57.14 56.07 54.88 54.64 55.82 56.18 56.15 55.88 54.59 53.58 51.54 47.57 46.22 48.84 51.72 50.60 45.85 39.03 39.83 46.24 50.08 49.59 41.58 38.92 37.51 38.99 40.53 42.76 41.56 43.20 47.76 50.05 49.92 48.27 42.00 38.12 41.02 45.39 43.19 46.23 43.45 43.47 41.72 42.94 42.57 39.58
58.06 57.09 56.27 55.56 54.62 54.54 55.43 56.10 55.05 53.63 52.19 48.13 45.41 42.64 50.89 51.08 44.61 38.81 39.25 43.37 47.72 48.31 46.77 42.70 41.92 40.86 41.12 44.28 42.48 42.03 43.12 46.71 51.75 49.79 45.59 44.71 39.19 37.27 41.79 45.49 47.42 43.12 40.86 40.93 38.94 36.60 41.69
57.92 57.28 56.34 55.89 54.40 54.53 55.16 55.66 54.61 53.45 52.64 46.94 40.60 44.61 52.58 50.42 40.91 39.28 41.18 45.57 48.25 47.15 45.37 42.55 42.61 43.09 46.13 42.59 39.79 44.84 45.79 50.41 51.78 50.93 45.96 45.91 39.16 35.10 39.33 43.56 46.79 44.65 45.18 40.57 37.39 36.98 38.24
58.12 57.44 56.47 55.91 54.38 54.23 55.45 55.21 54.31 53.69 52.91 46.24 44.02 41.86 46.68 47.00 43.67 42.24 40.46 43.81 44.93 50.36 48.15 44.93 43.73 43.44 43.76 41.39 43.06 42.26 45.15 49.25 50.66 50.72 59.24 51.04 39.67 39.87 35.42 39.42 42.32 43.14 47.01 46.51 37.66 34.88 35.25
58.12 57.37 56.33 55.22 54.68 54.58 55.37 55.34 54.83 53.72 52.88 47.30 43.88 41.68 46.20 43.39 45.77 46.35 45.01 46.29 48.10 46.35 45.90 44.70 45.04 45.49 43.12 39.79 40.89 40.48 44.53 45.32 49.16 53.16 50.24 46.95 40.22 39.52 40.68 47.72 47.87 46.82 47.77 48.68 44.26 42.95 36.51
57.40 56.87 55.82 55.00 54.69 54.89 54.97 55.42 55.25 54.22 52.21 45.91 40.25 45.60 49.05 47.28 47.71 46.17 43.48 43.81 47.03 47.71 43.60 42.67 45.16 47.54 45.51 42.73 42.14 39.59 43.36 42.62 42.32 46.02 44.78 45.85 42.86 42.72 41.68 47.93 48.72 45.36 47.76 49.33 48.77 49.28 47.98
56.64 56.18 55.50 54.68 54.94 55.59 55.56 55.38 55.03 54.31 50.45 45.11 48.19 48.88 49.14 45.95 46.93 45.84 45.72 45.97 48.17 46.16 46.13 46.32 46.79 46.31 45.41 46.36 48.00 44.11 45.18 44.21 44.67 43.62 42.18 43.47 42.57 41.14 37.58 43.42 46.38 40.63 44.77 47.14 48.13 51.36 50.34
55.98 55.56 54.94 54.43 54.85 55.34 56.10 55.53 55.42 55.19 54.37 49.74 45.90 45.83 46.66 45.39 47.83 49.09 51.42 52.07 47.86 46.29 44.84 46.90 46.49 44.71 48.03 47.15 46.24 45.37 44.45 43.63 46.84 44.91 42.67 42.41 40.45 40.95 37.75 39.44 35.83 42.52 49.36 50.62 48.83 50.26 53.65
54.97 54.50 53.89 53.75 54.99 55.42 55.96 56.03 55.77 55.38 54.54 52.79 50.72 44.33 46.37 44.68 48.72 49.89 51.46 50.80 46.31 45.54 44.28 47.14 47.48 47.08 45.70 43.73 39.85 38.47 39.23 39.77 42.04 46.11 44.60 42.89 40.91 37.97 35.86 34.40 40.59 47.90 48.66 47.27 44.48 44.98 53.79
53.64 53.42 53.77 54.28 54.92 55.37 55.59 55.93 56.21 55.72 54.77 54.11 52.43 49.63 45.34 45.99 45.49 52.79 50.71 51.28 43.72 41.81 44.36 45.33 47.18 45.33 45.23 39.81 41.25 33.77 32.66 37.33 37.89 42.24 42.21 43.75 41.92 39.52 36.46 33.64 34.12 43.82 50.09 53.01 50.90 41.92 54.07
53.11 53.50 54.28 54.69 55.20 55.15 55.36 55.49 56.40 56.53 55.09 53.80 51.30 48.32 44.71 45.00 49.21 51.41 49.14 48.66 50.86 44.86 42.87 42.30 44.50 43.24 43.05 38.69 38.87 35.91 35.71 42.26 35.32 36.84 37.30 38.23 38.38 36.32 37.15 34.46 39.10 46.11 50.81 51.85 40.75 42.27 54.38
53.11 53.83 54.12 54.44 55.11 54.94 55.06 54.99 56.15 56.47 55.84 54.08 50.22 49.62 46.51 45.09 48.00 53.82 54.52 50.80 49.18 45.48 42.04 44.20 45.17 44.48 40.51 38.91 39.64 38.46 37.38 39.42 36.83 39.50 41.06 40.46 37.29 36.08 34.83 32.02 32.18 48.98 49.47 44.39 47.38 52.45 55.28
53.40 53.59 53.93 54.63 54.93 55.38 55.20 55.36 56.20 56.42 55.37 55.15 48.22 49.29 49.28 44.50 46.72 54.52 57.19 57.89 55.64 52.87 47.41 45.09 46.12 44.31 44.83 41.53 40.72 41.30 38.92 39.40 36.47 35.67 43.22 40.83 42.38 40.43 41.49 39.87 45.08 48.09 48.54 51.01 53.52 54.65 55.10

GFSGBSN_sfc_wetblb_114.txt.gz
Wetbulb
60.63 60.22 59.12 57.83 58.11 58.64 58.39 58.38 58.16 58.01 57.87 58.07 58.12 58.05 58.03 57.84 58.00 57.95 57.87 57.63 56.78 56.87 56.99 57.20 57.71 58.10 51.66 42.06 46.74 63.52 69.08 68.81 62.06 50.85 47.75 48.22 51.40 52.64 50.36 53.43 62.89 60.62 62.43 63.70 64.12 63.71 63.80
60.63 60.10 60.07 58.74 57.76 58.47 58.24 58.27 57.87 57.60 57.49 57.42 57.65 57.60 57.46 57.52 57.68 57.87 57.63 57.13 56.88 56.74 56.97 57.44 57.98 58.56 47.45 37.72 50.56 63.72 63.74 57.51 53.52 49.05 46.68 48.48 51.30 54.16 52.36 52.13 58.41 63.04 62.89 63.12 64.21 63.40 63.79
59.80 58.86 59.41 58.81 57.81 57.73 58.35 58.08 57.89 57.48 57.10 56.97 57.18 57.30 57.10 57.27 57.48 57.42 57.15 56.63 56.13 56.48 56.90 57.30 57.90 56.72 46.34 43.29 59.20 59.78 57.99 53.98 51.35 49.56 45.99 47.92 52.39 52.99 51.79 49.80 56.54 62.94 60.32 61.21 62.60 62.93 62.42
58.70 58.55 59.02 58.26 58.21 56.97 57.69 58.01 58.17 57.97 57.27 56.79 56.56 56.75 56.81 56.81 56.95 56.59 56.14 55.51 55.57 56.26 57.09 58.09 57.97 51.42 45.92 52.10 54.44 54.54 58.01 57.08 54.56 46.72 47.68 48.99 52.80 51.03 49.76 51.25 54.14 60.13 59.16 54.43 60.19 62.94 62.76
59.08 59.04 58.77 57.71 58.14 57.46 57.00 57.73 57.61 57.99 58.14 57.53 56.80 56.39 56.26 56.30 56.18 55.81 54.74 54.05 55.91 56.70 57.87 58.05 50.41 47.68 46.18 59.38 54.55 55.45 57.00 54.18 51.02 47.61 48.41 53.00 50.67 46.91 48.58 45.13 43.64 52.47 49.92 54.68 56.64 61.19 61.24
59.80 59.29 58.90 58.37 57.58 57.54 56.94 56.80 56.67 57.02 57.81 57.80 57.46 56.59 56.10 56.06 55.71 54.82 53.24 54.17 57.71 57.26 57.23 58.32 56.14 46.55 50.13 50.92 53.44 51.34 52.32 52.72 49.64 47.11 47.38 46.15 45.65 43.31 42.71 41.21 38.01 46.78 51.07 53.64 53.90 58.22 58.52
58.93 59.46 59.60 58.82 58.35 57.71 57.31 56.84 56.68 56.45 57.51 57.74 57.50 56.68 55.84 55.43 54.82 53.52 49.61 47.15 45.96 46.07 50.50 47.01 47.50 49.70 52.32 54.92 53.97 49.07 52.27 52.38 50.14 47.34 42.39 44.45 41.62 39.31 41.40 44.09 47.23 54.33 53.59 52.33 55.38 58.69 56.90
58.74 58.91 58.46 58.85 58.51 58.13 57.15 56.91 56.69 56.41 56.90 57.56 57.18 56.64 55.93 54.80 53.79 53.21 47.85 46.98 46.06 48.69 44.50 50.91 52.50 52.36 54.28 53.97 50.82 51.25 52.70 48.31 47.27 43.74 43.94 42.29 38.44 44.43 47.11 46.74 47.82 54.53 52.35 51.82 54.89 57.43 55.68
57.67 57.82 58.07 58.16 58.21 58.34 57.97 57.42 57.02 56.41 56.81 56.88 56.84 56.51 55.51 54.07 53.20 49.07 46.68 47.99 51.37 49.83 42.98 48.39 51.26 51.17 50.89 53.12 50.01 49.44 51.18 48.28 45.09 43.09 42.00 40.29 43.24 47.81 46.81 49.45 52.12 52.57 50.90 51.26 52.00 55.23 55.86
56.40 55.82 56.40 57.10 57.41 57.75 58.00 57.72 57.28 56.71 56.60 56.47 56.60 56.29 55.01 52.26 47.35 46.83 47.51 50.57 50.36 49.59 40.10 45.09 46.88 51.29 49.37 48.42 44.91 51.01 51.43 48.73 45.21 42.34 43.38 41.25 44.67 45.24 43.33 43.48 51.07 47.63 55.09 54.46 53.38 50.86 45.96
56.81 56.67 56.65 55.41 55.65 56.79 57.03 57.28 57.28 56.45 55.40 55.87 56.19 55.71 53.83 51.60 44.72 45.09 48.48 48.73 48.95 48.21 32.22 48.62 46.67 51.00 46.03 45.36 46.10 47.74 50.85 48.89 43.87 43.78 42.95 41.39 42.96 42.87 41.72 43.13 52.23 48.00 56.25 53.35 52.98 48.61 49.00
57.87 57.45 57.20 55.64 55.40 55.33 56.06 56.28 56.68 56.26 55.17 55.69 55.31 54.40 53.11 47.77 44.68 48.02 49.38 48.73 49.04 41.20 35.03 46.72 46.85 45.27 44.27 44.70 45.52 47.90 48.55 50.11 48.72 44.30 42.93 44.32 46.87 45.61 44.96 52.80 54.17 56.30 52.78 50.95 49.60 47.50 41.83
58.41 57.59 57.35 56.91 55.74 55.27 55.11 55.68 55.97 55.66 55.09 54.66 53.77 52.60 51.67 50.46 43.67 47.30 48.49 48.90 40.36 35.62 47.30 43.45 39.81 42.49 42.63 42.81 44.56 44.68 44.92 42.35 40.90 36.98 35.79 42.56 43.87 53.49 56.11 52.03 54.47 51.77 44.40 38.35 37.32 38.80 39.86
57.51 56.74 57.05 56.12 56.35 55.37 55.14 55.16 55.07 55.04 54.72 53.77 52.18 51.09 49.30 49.47 48.38 49.29 48.62 45.38 34.82 43.95 43.29 45.00 41.00 42.86 41.27 45.06 44.27 44.62 42.81 40.98 43.57 41.13 37.50 35.77 36.28 51.88 55.47 51.97 49.59 48.09 43.30 38.41 33.61 36.21 40.52
58.15 57.48 56.76 56.02 54.85 55.55 55.89 55.35 55.15 54.94 54.50 53.16 50.93 46.21 45.73 47.64 50.43 48.13 46.96 38.66 39.81 43.14 46.51 39.85 39.87 39.19 40.32 43.75 43.88 44.07 42.79 41.46 43.65 42.13 38.16 35.29 37.87 46.39 55.22 55.59 54.11 49.24 44.30 46.62 41.55 39.27 40.73
58.83 58.08 57.30 56.20 55.27 54.50 54.45 55.29 55.25 54.80 54.25 52.76 46.10 46.11 47.32 50.58 50.76 47.01 43.02 39.11 41.73 47.25 46.41 40.34 35.43 38.30 35.87 40.69 41.82 41.44 41.09 46.29 45.77 47.51 43.05 41.13 37.09 43.46 46.87 54.75 53.98 49.85 52.27 43.48 41.65 35.66 35.16
59.12 58.54 57.48 56.52 55.65 54.37 54.65 54.79 55.35 54.38 53.41 51.45 46.16 44.58 47.56 49.95 47.37 45.46 38.31 38.82 44.68 48.30 48.10 40.65 38.45 37.18 37.53 40.04 41.21 40.75 41.46 46.64 48.40 47.96 44.21 41.09 37.91 41.06 43.19 43.38 47.48 43.82 44.02 42.30 42.69 41.50 37.94
58.91 58.46 57.42 56.71 55.77 54.74 54.38 54.60 54.86 53.38 52.21 48.02 41.50 41.86 49.43 48.47 43.17 36.85 38.85 41.77 46.14 46.50 45.61 41.21 41.15 39.96 40.73 43.17 40.92 40.81 41.85 45.64 50.00 47.78 42.29 42.26 40.00 36.70 41.98 45.92 46.49 44.70 44.69 42.60 38.40 36.07 40.68
58.59 58.35 57.64 56.80 56.04 54.86 54.30 54.22 54.24 52.74 52.64 48.74 38.62 41.96 50.32 48.50 39.30 37.92 40.03 43.71 46.37 45.29 44.78 42.14 41.78 41.84 44.57 41.81 39.10 42.91 44.36 48.86 49.91 47.74 43.05 42.90 37.47 36.59 40.19 42.53 46.57 42.84 44.76 39.32 36.81 36.85 38.75
58.44 58.53 58.00 56.98 56.04 55.07 54.76 54.70 53.97 53.07 52.78 46.01 41.98 39.82 45.44 45.00 41.50 41.17 39.70 42.54 43.51 48.80 46.71 44.49 43.76 46.18 42.91 41.06 41.05 39.31 43.45 47.57 48.89 48.46 58.00 50.15 37.72 40.12 36.56 39.31 44.51 43.94 46.55 46.98 36.09 33.62 34.89
58.46 58.53 57.56 56.56 55.68 55.13 55.52 54.91 54.27 53.61 52.75 46.98 41.81 39.29 43.88 41.92 43.42 44.40 43.41 45.47 46.80 45.93 45.09 43.68 45.67 43.86 43.64 38.81 39.32 39.97 42.96 44.26 47.10 50.31 47.05 43.60 38.14 40.84 42.46 46.24 47.74 46.86 46.03 47.80 42.75 42.29 35.83
57.89 57.64 56.94 56.22 55.28 55.01 55.65 55.36 54.70 53.99 51.87 45.20 38.41 44.17 46.91 46.04 46.20 45.38 44.06 44.92 45.83 45.42 44.73 41.20 44.72 46.53 44.95 40.69 41.90 39.45 41.66 41.31 41.50 44.22 42.33 43.52 39.71 43.83 43.24 46.61 46.98 45.33 46.88 48.31 48.43 50.21 48.26
56.88 56.58 56.30 55.68 55.09 55.07 55.68 55.60 54.88 53.97 50.33 44.23 45.99 46.46 47.26 44.42 45.20 43.89 45.10 45.67 49.13 47.97 44.28 45.82 48.42 46.39 44.76 44.63 45.85 44.15 43.42 42.87 43.11 41.14 41.58 43.61 41.92 40.16 38.30 43.75 44.67 41.60 43.98 46.45 47.74 51.44 50.88
55.77 55.69 55.41 55.01 54.01 54.99 55.52 55.64 55.27 54.62 54.08 50.74 45.72 44.67 45.44 43.29 45.93 47.39 50.60 51.46 50.26 49.19 43.13 45.76 47.91 45.63 46.58 47.06 45.64 45.14 43.78 41.67 44.74 43.81 42.17 43.18 40.20 41.83 38.46 40.29 33.95 43.70 50.21 49.63 47.70 49.74 52.72
54.80 54.54 54.15 53.97 54.24 55.03 55.61 55.79 56.16 55.23 54.66 53.14 51.04 44.57 46.47 44.89 47.39 48.67 50.31 49.33 46.55 42.86 42.65 45.37 45.82 45.84 45.20 42.44 39.50 37.47 37.65 38.48 40.59 43.90 42.20 41.77 41.04 37.26 36.29 35.71 39.35 46.89 49.66 47.74 44.95 45.90 52.67
53.76 53.23 53.82 54.44 55.15 55.40 55.11 55.43 56.16 55.77 54.78 53.37 52.87 51.51 45.15 45.62 45.74 51.22 49.39 49.66 41.69 39.59 42.44 45.38 45.43 43.70 44.13 41.14 39.66 32.84 32.49 35.44 36.51 40.31 41.34 42.92 40.55 38.91 36.30 33.05 33.19 42.49 50.36 53.04 50.48 42.58 52.75
52.46 53.10 53.39 54.35 54.62 55.25 54.99 55.33 55.48 56.12 55.18 53.28 52.29 50.82 45.62 45.15 48.66 49.89 48.00 46.70 48.03 43.36 42.37 41.13 43.84 42.60 42.24 39.21 37.16 34.76 35.33 40.94 34.51 35.65 37.84 37.65 37.78 35.75 35.91 34.19 38.88 45.65 51.25 53.36 41.94 42.84 54.29
52.31 52.77 53.80 53.92 54.54 54.98 55.52 55.12 55.02 56.03 56.38 53.59 51.06 50.40 47.93 42.65 44.28 50.49 53.05 48.51 48.20 44.70 41.98 42.65 44.21 43.41 39.63 38.37 38.18 37.80 36.27 39.06 36.00 38.52 38.99 37.80 36.16 35.08 34.66 32.71 32.51 49.22 50.21 46.11 48.43 54.03 55.50
52.27 52.96 53.80 53.84 54.39 55.19 55.49 55.34 55.46 56.20 56.19 55.21 50.08 48.65 49.17 44.49 43.88 50.09 52.61 54.88 55.12 53.10 47.73 44.23 43.66 42.77 42.73 39.85 39.76 40.19 38.44 38.35 35.26 35.27 41.39 38.96 40.83 38.62 39.03 38.26 44.48 47.17 48.81 51.90 53.56 54.34 54.82

GFSGBSN_sfc_wetblb_117.txt.gz
Wetbulb
60.27 60.18 59.59 58.55 57.52 58.39 58.32 58.31 58.16 57.84 57.66 57.80 57.79 57.94 57.81 57.63 57.85 58.10 58.15 57.88 57.30 57.21 56.94 57.60 58.13 58.62 55.61 48.43 48.81 64.90 68.75 68.63 63.75 54.31 51.97 54.46 59.08 57.18 55.91 55.74 62.08 61.58 63.22 63.25 63.81 61.84 61.33
58.84 59.33 59.53 58.99 57.57 56.90 58.23 58.21 58.30 57.86 57.57 57.21 57.18 57.37 57.45 57.37 57.61 57.84 57.72 57.38 57.01 56.86 57.26 57.78 58.28 58.92 52.88 45.63 57.01 65.72 64.60 59.39 55.52 54.23 51.98 53.51 57.57 58.27 56.17 55.04 58.99 64.45 64.61 64.19 64.55 63.73 63.40
58.98 58.96 58.85 58.64 58.16 57.18 57.13 57.53 57.45 58.06 58.26 57.88 57.33 56.93 57.03 56.99 57.05 57.09 56.91 56.52 55.50 56.22 57.15 57.71 58.21 57.56 51.30 47.72 61.41 64.76 61.17 58.25 56.14 54.97 53.08 52.97 56.81 57.82 56.77 54.51 58.85 64.90 61.46 62.88 62.92 63.48 61.88
59.38 59.07 58.63 58.44 58.00 57.83 56.92 56.72 56.66 56.92 57.28 58.20 58.02 57.26 56.80 56.61 56.64 56.44 55.96 54.11 54.23 55.83 56.90 57.91 58.30 56.18 51.63 55.66 57.95 58.16 60.87 60.54 56.82 53.84 53.35 53.23 55.14 56.16 55.68 55.48 63.10 61.71 61.28 56.93 60.97 62.73 63.06
59.43 59.43 59.11 58.61 58.45 57.94 57.67 57.12 56.85 56.82 56.81 57.76 58.01 57.85 57.04 56.38 56.01 55.72 53.87 54.13 56.22 56.69 57.84 58.82 56.36 54.21 51.85 61.08 57.24 58.70 60.88 57.85 55.33 53.31 53.55 54.45 54.83 53.82 53.93 51.98 53.72 58.53 53.92 56.01 57.42 61.85 61.62
58.04 57.95 58.51 59.18 58.67 58.09 57.24 57.08 56.90 56.72 56.49 57.51 57.83 57.70 57.16 56.52 55.61 54.64 53.48 54.83 58.28 58.72 58.70 58.91 57.33 52.80 55.25 54.08 57.21 55.67 58.08 56.11 52.98 52.11 51.03 51.15 52.57 51.86 51.65 51.18 46.85 52.40 53.91 55.90 55.80 58.81 58.97
58.53 58.64 58.90 58.25 58.13 58.39 57.96 57.55 57.22 56.82 56.78 57.57 57.55 57.16 56.92 56.38 55.27 53.67 52.34 54.12 53.83 53.29 55.68 52.81 52.75 53.16 54.38 57.92 57.68 53.48 57.23 55.97 53.91 52.39 48.50 50.34 50.31 50.02 49.68 51.02 52.93 54.12 55.09 54.54 57.02 59.64 57.81
56.74 56.96 57.27 57.71 57.80 57.96 58.35 58.11 57.60 57.13 56.60 57.01 56.84 56.32 56.34 55.57 54.26 52.92 52.09 53.98 53.43 53.98 50.01 53.30 53.49 54.33 56.36 57.31 53.88 53.59 57.04 53.04 51.51 49.73 49.97 49.45 48.37 50.15 51.22 51.19 54.60 54.90 54.02 54.74 56.34 58.35 57.55
56.45 56.72 55.92 55.85 56.65 57.24 57.48 57.58 57.26 56.88 56.08 55.78 55.72 55.86 55.45 54.35 53.30 52.67 51.60 54.06 54.97 55.16 50.50 52.33 54.13 54.43 55.45 56.94 52.93 52.80 54.35 53.45 51.14 49.43 49.02 47.98 49.07 50.59 50.58 52.84 52.80 54.25 52.23 54.43 53.85 56.56 57.04
57.68 57.28 57.11 56.05 55.44 55.41 56.20 56.44 56.23 56.41 56.04 55.46 55.84 55.95 54.15 52.40 50.58 50.45 52.83 54.57 54.55 54.59 49.02 50.07 52.54 54.40 55.78 54.83 50.15 55.13 55.78 53.53 49.86 48.65 49.05 49.07 49.26 48.65 48.42 47.64 51.60 48.57 56.93 56.17 55.33 53.75 50.43
58.41 58.01 57.48 56.46 55.89 55.42 55.61 55.63 55.33 55.24 55.70 55.45 55.59 54.96 53.01 51.90 50.92 50.30 53.19 53.57 54.39 53.32 39.27 52.22 51.73 55.42 52.00 50.92 51.94 50.88 54.57 53.04 48.98 48.05 48.77 47.47 47.45 47.84 46.82 47.79 51.61 48.84 58.45 56.99 55.80 53.15 52.45
58.68 57.77 56.93 57.28 56.78 56.37 55.59 54.77 55.13 54.70 54.89 55.08 54.92 53.97 52.64 50.66 50.04 52.63 53.41 53.81 54.69 48.34 38.71 48.48 50.77 49.99 49.72 50.53 50.35 52.08 52.22 54.47 52.70 49.26 49.20 49.08 50.85 50.08 49.62 55.83 52.87 58.76 56.05 55.05 54.41 52.95 47.58
58.80 57.94 57.24 56.35 56.29 55.80 55.87 55.74 55.21 55.08 54.81 54.24 53.75 52.39 51.63 52.57 50.01 52.56 53.30 55.27 47.94 42.68 50.15 46.16 45.66 47.87 48.73 48.68 49.00 49.85 49.33 49.21 48.16 44.70 45.02 47.92 48.50 54.81 58.37 55.01 57.58 56.25 53.66 46.83 44.94 46.14 44.79
58.89 58.19 57.60 56.88 55.95 55.39 54.69 54.83 55.15 55.29 54.46 53.66 52.03 51.04 51.64 52.21 53.26 53.06 54.25 52.71 42.65 46.70 47.96 48.70 46.18 48.27 47.29 49.36 49.19 48.72 48.04 46.99 48.88 48.28 46.78 44.51 42.47 54.30 58.11 54.99 53.26 53.97 51.46 44.67 39.39 42.34 46.38
59.30 58.82 58.04 57.19 56.32 55.78 55.01 54.18 54.30 54.84 54.26 52.99 50.96 51.91 51.83 53.14 53.63 53.19 54.39 46.27 46.81 48.57 50.39 45.62 45.68 45.62 46.44 48.77 49.54 49.82 48.88 47.58 49.64 49.49 45.90 44.24 44.22 51.02 58.21 58.44 57.38 53.32 50.32 53.44 48.80 49.86 47.17
59.55 59.20 58.90 57.69 56.64 55.99 55.13 54.52 54.06 54.56 53.97 52.68 50.85 52.13 54.36 53.92 54.01 54.20 51.43 44.15 48.68 51.24 51.10 45.87 43.18 45.39 44.02 46.49 47.89 48.78 48.75 50.98 50.18 51.63 50.96 48.55 44.72 48.69 52.44 58.75 57.47 55.94 56.63 48.79 50.69 42.05 40.95
59.39 59.17 58.77 58.00 57.16 56.22 55.37 54.48 54.10 54.05 53.22 51.35 51.99 51.79 52.97 54.60 52.57 53.66 46.43 47.21 48.90 51.94 51.95 47.26 44.39 44.13 45.07 46.76 48.20 47.93 48.16 50.97 51.88 51.37 51.39 49.57 46.85 47.74 48.88 51.80 51.49 52.76 51.94 51.89 51.56 50.56 44.41
59.01 58.56 58.45 57.94 57.18 56.24 55.57 54.53 54.27 53.25 52.21 51.12 46.81 48.96 54.24 53.84 50.23 46.71 47.39 47.99 46.70 50.97 50.94 47.29 46.54 45.78 46.43 48.11 48.14 47.76 47.63 50.09 52.97 52.73 48.98 50.01 48.26 45.48 47.45 50.60 50.96 54.21 52.88 53.15 48.19 45.54 49.53
58.30 58.10 58.34 57.96 57.12 56.20 55.38 54.77 53.83 52.86 52.61 50.61 45.96 47.69 55.43 53.24 46.24 47.09 47.56 47.79 49.41 49.52 50.08 46.69 46.28 47.41 50.59 49.08 46.12 48.75 48.94 51.81 52.38 51.90 50.33 50.02 47.14 43.35 45.40 48.99 51.34 50.53 52.59 50.28 48.17 49.38 48.49
57.96 58.10 58.54 57.98 56.94 55.88 55.59 54.82 53.77 52.99 52.88 51.16 47.19 46.17 51.61 52.36 49.32 48.70 47.82 48.23 48.45 50.88 50.51 49.75 47.69 51.21 49.68 48.22 49.14 47.02 48.31 50.77 51.49 52.02 57.24 53.28 47.58 45.80 42.32 45.79 49.40 49.22 50.83 52.85 48.61 45.87 47.93
58.06 58.22 58.26 57.44 56.68 55.74 55.62 55.51 54.11 53.26 52.71 50.91 46.83 45.23 48.59 47.58 48.60 49.10 49.56 50.16 48.65 49.00 50.71 49.52 48.65 49.19 49.39 46.90 47.25 47.13 48.74 49.58 50.82 52.15 52.38 50.95 46.37 46.99 47.80 49.90 50.64 49.21 49.60 51.41 48.95 50.45 44.45
57.72 57.58 56.95 56.91 56.25 55.62 55.68 55.80 54.80 53.81 51.98 49.83 45.21 49.34 51.38 51.12 50.39 50.74 48.10 50.34 49.70 50.91 50.72 46.22 48.23 49.42 50.31 48.43 49.29 47.32 49.06 49.01 49.58 51.19 50.78 51.16 47.38 48.44 46.99 50.05 49.29 48.27 48.59 51.15 51.95 52.45 53.07
56.84 56.40 56.20 55.98 55.48 54.81 55.40 55.63 55.05 53.83 52.18 48.52 48.78 50.73 50.64 47.33 49.64 49.77 49.88 50.19 49.95 52.42 51.92 49.56 50.39 49.97 48.55 50.19 52.18 50.89 51.56 51.62 51.87 50.63 49.62 50.12 50.09 47.21 43.41 47.90 46.79 43.90 46.98 48.72 51.52 53.86 53.57
55.39 55.25 55.06 54.75 54.39 54.53 55.26 55.66 55.38 54.84 54.08 52.52 50.11 48.00 47.61 46.25 49.53 50.57 52.04 51.98 52.06 52.52 50.84 48.23 52.44 51.71 51.80 53.39 53.19 53.13 52.24 51.51 51.94 51.58 50.72 49.58 48.99 48.45 44.98 46.01 37.29 47.88 52.39 52.74 51.69 52.82 55.74
54.11 53.66 53.40 53.51 54.45 55.12 55.48 55.79 55.85 55.47 54.46 53.91 52.15 49.38 47.89 46.84 50.19 50.24 51.43 51.98 52.57 49.30 50.26 49.64 50.88 52.09 53.74 50.89 48.51 45.33 47.16 47.43 48.39 50.01 50.45 50.03 49.36 44.83 43.14 42.59 44.51 48.13 50.72 49.96 49.58 50.47 55.80
53.58 52.67 52.84 53.77 54.81 54.99 55.44 55.39 55.79 55.59 54.74 54.47 52.90 53.10 48.53 47.11 46.68 51.71 51.28 51.83 48.34 46.85 47.44 48.31 49.25 51.37 52.32 49.67 47.77 42.91 42.15 44.07 43.58 46.88 50.00 49.36 49.55 47.40 43.78 40.02 37.77 47.62 52.25 54.39 53.44 47.35 56.14
52.65 52.34 53.10 53.49 54.27 54.89 55.48 55.61 55.52 55.69 55.13 54.47 52.54 53.42 49.00 45.19 49.94 52.81 51.06 50.20 51.60 48.91 47.49 48.49 49.03 49.36 51.09 48.90 45.79 44.42 44.67 46.48 43.28 43.28 45.02 46.86 46.96 44.76 44.25 43.09 45.06 50.19 52.95 54.94 45.17 48.25 57.31
52.80 52.29 52.75 53.82 53.78 54.38 55.33 55.76 55.43 55.37 55.92 54.56 52.34 52.96 49.94 45.90 48.49 51.08 54.52 51.88 51.33 49.80 47.16 48.10 49.25 48.41 48.66 47.55 46.48 46.23 45.87 47.24 44.90 46.14 46.83 46.45 45.53 45.60 44.40 43.06 40.04 52.01 52.48 49.70 53.05 56.75 58.83
53.64 52.98 53.35 53.68 53.54 54.33 55.33 55.76 55.72 55.82 55.94 55.49 50.78 51.55 53.05 48.49 49.19 51.14 52.57 53.24 55.57 55.49 52.83 51.00 49.69 50.43 51.44 48.07 47.97 48.18 46.39 46.16 45.43 44.27 48.36 46.59 48.99 48.90 47.85 48.02 51.76 53.74 53.83 56.48 56.76 58.09 58.95

GFSGBSN_sfc_wetblb_120.txt.gz
Wetbulb
59.42 59.91 59.30 58.98 57.50 56.96 57.57 58.24 58.36 58.46 58.40 58.07 57.87 57.83 57.89 57.78 57.97 58.11 58.48 58.43 58.05 57.75 57.23 57.84 58.55 58.97 59.90 54.94 53.79 65.92 69.77 69.02 64.49 58.86 56.76 62.39 64.23 64.36 61.90 61.27 63.16 63.41 64.25 63.72 65.57 64.73 64.10
59.32 59.21 59.07 58.95 58.24 57.32 57.04 57.05 57.22 57.51 57.76 58.24 58.35 58.00 57.51 57.29 57.50 57.69 57.83 57.58 57.31 56.83 57.37 58.03 58.84 59.01 58.07 51.82 62.18 65.20 64.02 61.08 58.84 57.41 55.38 61.29 64.38 65.02 61.54 58.36 62.06 65.78 65.72 65.71 65.75 65.55 64.73
59.39 59.10 58.76 58.56 58.38 57.84 57.42 57.09 57.00 57.10 57.47 57.60 57.94 58.48 58.03 57.44 57.25 57.26 56.96 56.33 55.06 55.24 56.88 57.97 58.93 59.84 55.44 55.26 64.55 63.51 61.26 59.66 58.87 57.90 55.03 57.01 62.59 64.62 61.91 57.68 65.26 66.88 63.35 64.49 64.52 64.62 63.31
59.21 59.44 59.08 58.62 58.47 58.41 57.90 57.50 57.22 57.23 57.29 57.25 58.01 58.10 58.26 57.76 57.47 56.52 55.77 54.65 55.04 55.57 56.81 58.20 59.41 60.88 54.88 57.75 60.87 62.35 62.87 62.30 60.17 58.64 56.37 57.07 60.12 63.49 60.49 58.87 64.47 63.31 62.75 58.58 63.11 64.40 64.77
59.19 59.36 58.70 58.99 58.81 58.46 57.92 57.91 57.82 57.49 57.19 57.14 58.14 57.71 57.84 57.66 57.34 56.25 54.75 54.63 57.17 57.29 58.18 59.29 61.32 59.45 53.61 60.98 58.60 60.22 61.91 59.40 57.50 57.29 55.99 55.47 59.57 60.59 59.76 56.63 56.84 59.07 56.05 56.93 59.50 64.49 62.64
58.25 58.37 58.82 58.69 58.12 58.14 58.29 58.05 57.99 57.81 57.48 57.00 56.77 56.58 56.53 56.43 56.38 55.25 54.18 54.77 58.46 59.26 60.81 61.54 61.04 57.20 57.45 56.05 59.20 59.69 62.17 59.87 55.00 54.00 53.16 53.26 56.37 56.51 58.59 56.21 50.11 52.74 54.43 56.58 57.41 61.86 62.93
56.96 56.57 56.82 57.21 57.51 57.83 58.12 58.09 57.99 57.53 57.26 56.97 56.40 56.05 55.93 55.48 54.91 53.92 54.93 59.96 59.34 58.40 59.55 56.48 56.49 55.73 56.19 59.53 59.35 56.98 59.97 57.71 55.73 52.57 49.40 52.99 51.49 51.30 54.94 56.75 55.44 55.23 54.82 54.49 59.87 61.95 61.14
57.49 57.43 57.03 56.38 55.99 56.35 57.07 57.25 56.95 56.80 56.91 56.73 56.17 55.93 55.52 54.87 53.88 53.65 56.91 58.34 56.74 56.60 54.40 57.54 56.96 57.46 58.89 59.58 54.70 55.75 59.60 55.65 54.05 50.32 51.68 51.01 49.09 54.09 55.49 54.98 55.57 55.33 54.06 54.84 59.49 61.10 60.40
58.75 57.93 57.67 57.24 56.80 56.23 55.57 55.62 56.18 55.92 55.57 56.07 55.93 55.76 55.05 53.94 53.65 56.35 57.77 57.88 59.57 58.41 55.43 55.96 57.80 57.07 57.60 58.93 53.18 54.62 58.16 56.02 53.28 51.46 50.47 49.08 51.80 54.59 54.19 53.53 53.04 54.47 53.51 53.44 55.86 59.34 60.39
58.74 58.27 57.58 57.68 57.27 56.64 55.93 55.62 55.63 55.54 55.17 55.52 55.81 55.54 54.51 52.41 53.97 56.67 57.67 58.91 58.71 58.37 52.74 52.03 54.50 56.70 58.60 57.84 52.87 56.89 58.31 55.98 52.90 50.69 51.50 51.06 53.49 52.14 52.65 51.71 53.53 50.59 55.83 54.99 57.57 56.17 53.11
58.81 58.33 57.79 57.41 57.16 56.91 56.49 56.25 56.09 55.54 55.51 55.66 55.33 54.93 53.52 51.93 57.55 55.48 57.82 57.91 60.79 58.83 43.59 53.30 53.98 59.25 57.19 54.10 54.22 53.75 58.08 55.42 51.48 51.10 51.90 50.17 50.75 50.41 49.68 50.37 52.50 50.84 55.72 55.73 58.14 56.18 55.08
59.20 58.59 58.18 57.84 57.19 56.66 55.94 55.60 55.42 55.27 55.54 55.66 54.47 54.14 53.15 56.98 57.72 57.96 57.50 58.89 59.13 50.53 42.26 50.39 53.36 52.28 52.27 53.43 53.35 54.23 54.10 56.70 55.60 51.81 52.14 51.65 53.35 52.16 51.73 53.33 52.95 56.03 55.67 57.31 58.02 55.79 49.34
59.72 59.08 58.52 57.94 57.14 56.47 55.86 55.46 54.65 54.38 54.73 54.83 53.63 52.54 52.50 57.40 57.51 57.84 58.09 58.72 50.92 46.00 52.20 48.57 49.36 51.65 51.92 51.61 51.71 52.73 52.05 51.71 51.05 47.46 47.77 50.07 50.53 52.45 53.69 52.40 54.68 56.11 53.51 48.04 46.78 47.57 46.82
59.83 59.41 59.01 58.20 57.26 56.57 56.21 55.60 54.83 54.28 54.18 53.59 51.93 51.29 55.36 57.24 60.20 58.37 56.39 54.47 46.45 49.05 49.38 50.62 50.62 51.70 50.06 52.16 52.05 51.68 51.35 50.14 52.49 51.16 50.09 46.99 45.28 51.38 55.63 53.74 52.76 53.78 52.57 47.47 42.02 44.21 48.05
59.61 59.40 59.20 58.56 57.59 56.87 56.16 55.48 54.65 54.08 53.85 52.77 51.33 59.49 57.82 60.44 59.18 58.82 55.22 49.46 49.56 50.35 51.22 49.03 50.58 49.44 49.66 51.59 52.06 51.85 51.17 50.89 52.17 53.02 48.35 48.40 46.89 53.74 56.69 57.53 57.13 53.60 51.87 54.57 50.08 50.81 48.21
59.35 59.35 59.12 58.64 57.94 57.06 56.28 55.46 54.52 54.28 53.79 52.69 56.42 57.65 59.20 59.56 59.40 56.80 53.20 48.17 52.63 53.63 52.36 49.97 47.32 49.02 46.95 49.07 49.65 49.74 50.86 53.16 52.46 54.23 55.51 51.49 46.98 51.88 55.32 59.36 59.23 57.77 58.68 50.73 50.62 43.79 43.19
58.97 58.81 58.64 58.49 58.18 57.21 56.36 55.66 54.46 54.03 53.29 52.52 56.00 54.46 58.17 60.33 57.61 54.82 49.76 52.03 53.94 55.20 53.66 49.23 47.48 46.82 47.23 47.17 49.15 49.29 50.23 53.40 54.19 53.75 55.13 53.58 50.91 50.28 53.45 53.86 52.19 55.02 54.31 54.72 53.77 51.90 44.73
58.37 58.15 57.89 57.97 57.84 57.19 56.48 55.44 54.44 53.19 52.13 54.08 54.24 49.71 58.13 58.80 51.15 52.82 50.87 52.88 50.55 53.67 54.61 51.27 50.31 49.03 48.05 48.62 48.74 48.88 49.02 52.19 55.04 53.90 50.49 53.19 50.87 47.77 49.72 54.14 54.63 53.80 54.43 54.55 49.63 48.22 51.73
57.97 57.99 57.93 58.07 57.88 57.03 56.21 55.21 54.16 52.50 52.58 54.09 54.60 53.92 58.93 57.68 48.55 50.10 52.81 52.18 53.77 53.36 52.41 50.42 49.19 50.38 51.76 49.29 47.33 48.79 49.63 54.46 55.00 52.94 51.45 53.35 48.88 45.32 47.33 51.41 54.29 52.15 54.43 55.52 54.46 53.91 45.30
57.93 57.93 58.45 58.26 57.41 56.67 56.05 55.07 54.06 52.97 52.93 54.61 53.02 49.08 54.39 54.46 55.56 52.15 50.33 50.95 51.43 53.83 53.11 52.89 50.55 51.51 51.22 50.55 51.84 48.94 49.08 52.57 54.39 53.54 56.56 55.75 48.66 46.66 44.12 47.40 49.91 51.21 52.91 54.87 54.33 49.76 48.74
57.87 57.99 58.27 57.47 57.25 56.43 56.03 55.42 54.49 53.33 52.78 54.03 52.71 50.27 53.95 48.44 50.91 52.19 52.24 50.77 50.47 51.26 54.15 54.60 52.19 51.11 50.62 49.16 49.45 49.24 50.45 51.64 53.28 53.72 54.65 53.69 47.97 48.98 49.18 49.67 51.87 51.69 51.66 52.92 52.57 52.93 49.82
57.72 57.15 56.71 56.81 56.35 55.71 55.35 55.70 54.95 53.79 52.86 54.13 50.81 51.42 55.96 54.43 54.91 52.16 49.22 51.27 50.71 52.55 53.57 50.93 51.23 51.92 52.17 50.55 50.29 48.47 50.94 51.60 50.44 54.30 53.93 54.63 49.22 50.34 48.27 50.14 51.26 50.02 51.31 52.25 53.31 54.26 54.49
56.65 56.09 55.99 55.75 55.08 54.38 55.12 55.66 54.91 53.94 53.02 53.64 54.14 55.07 53.39 50.42 53.95 52.26 50.80 51.65 51.54 53.50 55.33 55.67 52.88 52.30 50.82 52.31 53.72 54.87 55.22 53.93 54.52 52.57 52.30 52.27 51.56 49.80 46.00 48.98 49.76 46.65 49.97 51.65 52.74 54.75 54.40
55.20 54.80 54.41 54.29 54.10 54.65 55.31 55.93 55.40 54.97 53.98 54.32 53.80 50.86 48.44 48.14 50.65 53.09 53.67 54.52 53.34 54.95 54.04 53.01 55.35 52.96 54.97 58.47 57.31 55.55 54.65 53.91 54.07 53.64 54.36 52.04 51.48 50.34 46.48 46.68 40.04 49.80 54.63 54.15 52.73 53.95 55.99
54.16 53.79 53.21 53.37 53.98 55.07 55.47 55.86 55.92 55.40 54.46 54.71 54.76 52.31 48.34 46.42 50.10 51.43 53.68 54.88 56.32 56.80 55.20 54.64 53.47 56.36 58.67 56.11 51.40 49.18 49.00 49.36 50.35 51.63 52.96 53.97 52.02 47.58 45.19 44.04 46.43 49.54 52.78 52.66 51.87 50.80 55.01
53.69 53.32 52.51 53.14 53.98 54.97 55.39 55.78 55.72 55.50 54.71 55.43 54.32 54.74 51.37 47.26 48.27 52.15 52.65 54.50 53.77 53.33 52.25 52.36 53.68 58.53 57.12 52.67 50.04 45.13 44.57 46.79 46.37 49.14 54.20 53.30 54.67 49.85 46.20 41.97 39.49 50.03 54.95 56.76 55.87 48.30 57.14
53.70 53.11 52.68 53.25 54.04 54.39 55.06 55.82 55.88 55.55 54.73 55.25 54.43 55.41 51.55 46.91 51.28 52.23 51.97 52.51 55.55 52.72 51.85 51.71 52.01 52.30 55.63 50.88 47.78 47.45 46.02 50.37 45.55 46.04 48.53 49.83 50.31 47.06 45.55 44.85 46.45 53.33 55.51 57.00 47.36 51.03 59.93
54.03 53.64 52.94 53.15 53.83 54.01 54.67 55.53 55.77 55.49 55.63 55.54 54.19 56.45 51.44 49.44 51.42 53.61 54.19 53.91 54.88 53.80 50.43 52.71 51.06 52.15 51.59 49.40 49.03 48.90 46.92 50.62 49.10 50.32 49.29 48.79 47.98 48.18 48.75 45.58 42.29 55.34 55.18 51.60 56.24 60.71 61.77
54.51 54.06 53.52 53.61 53.71 53.60 54.29 55.20 55.78 55.92 55.78 56.20 52.66 55.54 55.05 49.48 51.74 55.16 55.39 56.33 55.71 55.58 54.59 54.10 53.95 53.59 53.36 51.15 52.67 53.48 49.33 52.15 50.20 46.62 53.34 49.25 52.18 51.77 50.01 50.32 56.23 58.39 57.32 59.27 59.92 60.30 62.68

GFSGBSN_sfc_wetblb_123.txt.gz
Wetbulb
59.74 59.61 59.40 59.09 58.28 57.78 57.48 57.65 57.62 57.88 58.14 58.59 58.67 58.83 58.82 58.37 58.23 58.32 58.46 58.47 58.33 58.32 58.13 58.67 59.03 59.59 61.45 58.99 57.36 68.78 71.80 68.29 62.82 61.41 58.14 61.65 63.86 64.91 62.60 63.42 65.13 63.46 65.00 64.22 67.28 66.19 62.92
59.80 59.71 59.46 59.22 58.87 58.30 58.06 57.90 57.91 57.80 57.82 58.06 58.24 58.42 58.65 58.68 58.46 58.14 57.89 57.78 57.35 56.74 57.05 58.34 59.23 59.55 61.79 54.63 64.59 66.74 63.29 61.83 59.95 58.46 57.28 62.30 64.55 66.43 63.89 61.48 63.32 65.15 66.19 66.41 66.64 65.09 65.87
59.87 59.89 59.52 59.06 58.97 58.85 58.59 57.95 58.12 58.01 57.88 57.74 58.01 58.44 58.16 58.63 58.49 58.25 57.68 56.81 56.00 55.89 56.36 58.05 59.47 61.53 59.29 59.03 65.19 63.97 61.62 59.41 59.04 58.58 56.54 60.97 65.45 65.07 64.44 60.17 66.12 66.38 63.35 65.79 65.00 65.87 65.02
59.25 59.34 59.45 59.53 58.92 59.00 58.77 58.66 58.25 58.35 57.71 57.78 57.81 57.69 57.63 57.76 57.85 57.63 57.02 55.86 55.77 57.44 56.93 58.32 59.63 63.18 57.09 63.05 65.69 63.20 63.37 61.52 60.60 59.99 59.14 59.12 64.05 64.88 63.21 62.57 64.55 62.60 63.45 59.25 64.79 65.13 65.13
58.03 58.12 58.13 58.51 58.25 58.40 58.61 58.72 58.58 58.48 58.07 57.78 57.11 56.94 56.93 56.89 56.62 55.64 55.29 55.09 57.52 57.99 58.67 59.70 62.58 63.14 55.14 59.96 58.72 62.03 63.56 60.77 59.75 58.38 57.83 57.20 61.47 61.72 62.61 57.60 57.52 59.81 54.52 57.21 61.35 65.76 64.81
57.88 57.69 57.62 57.10 57.09 57.55 57.67 57.78 57.78 57.57 57.32 57.35 56.81 56.76 56.45 56.23 55.80 54.62 54.41 55.01 58.64 58.35 60.96 63.95 63.51 59.67 57.77 57.49 59.92 60.66 62.03 61.32 56.51 55.76 54.04 54.49 58.33 58.57 58.57 56.87 51.53 54.08 54.62 56.18 57.56 63.94 64.48
58.79 58.44 58.06 57.51 57.26 56.47 56.58 56.54 56.87 57.05 56.10 56.68 56.79 56.17 56.04 55.75 54.99 54.12 55.52 61.70 61.36 61.13 62.88 58.74 57.92 57.09 57.52 60.27 60.92 59.20 61.01 59.04 57.83 54.17 50.85 53.23 51.37 52.00 54.57 57.62 57.21 56.42 56.18 54.81 60.45 63.74 62.52
59.28 58.91 58.36 58.03 57.89 57.55 57.16 56.74 56.13 56.17 55.75 56.43 56.17 56.20 55.71 55.40 54.50 54.02 56.92 60.58 59.14 59.57 56.08 58.10 57.27 57.48 58.43 59.46 55.65 57.06 60.37 55.62 54.52 50.40 52.50 51.60 49.42 53.95 56.10 56.93 55.74 55.67 54.39 55.03 60.07 62.85 62.06
59.39 58.91 58.50 58.18 58.09 57.86 57.49 56.86 56.72 56.54 56.02 56.12 56.23 55.71 55.33 54.60 53.92 57.35 60.67 60.55 62.21 61.62 56.81 56.22 58.38 57.86 57.93 58.79 54.73 55.75 57.77 57.20 54.12 52.75 51.89 50.67 52.31 55.39 55.00 54.41 53.31 54.63 54.37 54.68 54.97 61.01 62.48
59.41 58.75 58.25 58.20 57.93 57.57 57.09 56.64 56.42 56.01 55.86 55.99 55.83 55.14 54.67 53.46 55.81 61.04 59.35 62.32 61.89 61.98 53.85 53.20 55.28 57.52 58.23 59.07 54.25 57.86 59.39 56.83 54.08 52.39 52.73 51.90 55.01 53.36 53.52 52.70 53.91 51.42 55.81 55.14 54.25 56.23 51.75
59.85 59.25 58.63 58.21 57.94 57.65 57.00 56.51 56.11 55.09 54.66 55.36 55.74 55.03 53.73 52.72 59.92 58.26 60.77 61.67 62.43 61.43 45.94 54.71 55.52 60.88 59.10 56.34 55.95 55.41 58.73 56.43 53.31 51.75 53.16 51.61 52.18 51.61 51.29 52.47 54.05 52.16 55.56 54.34 55.04 55.28 55.53
60.28 60.12 59.60 59.15 58.48 57.84 56.90 56.51 56.01 55.44 55.00 54.66 54.81 54.22 53.33 59.37 61.18 61.35 61.32 61.13 61.41 51.38 44.84 52.27 54.89 53.97 53.87 54.86 54.85 55.96 54.85 57.63 57.16 52.81 53.19 53.28 55.63 53.99 53.17 53.40 53.20 54.26 53.36 55.24 56.56 55.78 50.12
60.45 60.07 59.89 59.47 58.94 57.88 56.95 56.36 55.86 55.26 54.57 54.26 53.40 52.50 53.38 60.03 61.44 60.64 60.35 59.16 50.94 46.90 54.42 51.25 51.47 53.47 53.47 53.10 53.21 54.14 53.21 52.63 51.62 48.99 49.43 51.18 51.88 53.41 53.88 51.47 55.18 53.14 52.42 48.26 47.94 48.08 48.05
60.17 59.65 59.34 59.16 58.76 58.09 57.15 56.60 55.82 54.93 54.22 53.56 52.06 51.37 56.57 60.64 64.39 62.21 59.08 54.53 47.02 52.03 52.22 53.46 51.87 52.59 51.19 53.08 53.22 53.00 52.79 51.94 53.00 52.38 51.38 48.61 46.77 51.65 53.92 52.30 52.81 52.65 52.44 48.84 44.17 46.14 48.64
59.94 59.45 59.03 58.84 58.52 58.24 57.32 56.54 55.44 54.46 53.93 52.92 51.42 62.82 61.65 62.79 61.75 60.59 55.31 48.79 50.10 53.39 53.71 51.08 51.77 50.43 50.81 52.19 52.96 52.59 52.54 52.62 53.86 53.91 50.64 49.80 48.57 53.95 55.26 55.55 55.02 53.62 51.34 54.63 50.70 51.62 48.82
59.65 59.01 58.74 58.61 58.15 58.11 57.32 56.32 55.27 54.67 53.95 52.77 57.31 60.44 60.96 62.21 61.30 57.77 52.08 47.27 53.25 56.05 54.18 52.81 49.23 51.92 50.08 51.45 50.50 50.97 52.60 54.05 53.03 55.12 56.12 53.22 48.60 53.41 54.14 56.22 57.31 55.17 58.19 50.92 50.98 44.95 44.50
58.90 58.64 58.33 58.21 57.89 57.98 57.39 56.62 55.21 54.32 53.10 52.70 57.96 56.73 60.82 61.45 59.17 54.01 48.56 50.78 54.22 57.64 55.34 52.20 50.66 49.93 50.54 49.48 50.81 51.30 51.03 54.46 54.91 55.24 56.12 55.04 52.06 51.60 53.91 53.42 53.03 54.19 52.65 53.59 53.69 52.57 46.53
58.12 58.04 58.05 58.03 57.95 57.88 57.23 56.22 54.83 53.43 52.09 54.45 58.59 52.38 60.63 60.20 49.53 51.20 50.07 53.22 55.06 56.60 55.78 53.52 52.71 51.53 49.93 50.28 50.18 49.81 50.48 53.50 56.27 55.18 52.17 54.84 52.11 49.30 51.13 54.86 56.14 56.19 54.55 55.11 49.81 49.00 49.36
57.94 58.03 58.17 58.31 58.10 57.71 57.19 55.94 54.44 53.07 52.69 56.89 56.18 56.78 60.54 57.38 46.33 48.60 52.32 52.77 55.40 55.63 54.36 53.05 51.18 52.11 52.20 50.70 49.06 50.29 50.92 55.79 55.41 53.96 52.28 54.41 50.64 45.93 48.21 51.27 54.89 52.36 53.29 53.62 54.70 54.33 51.27
58.09 58.17 58.39 58.23 57.80 57.58 56.79 55.56 54.49 53.60 53.35 55.71 56.09 51.04 55.89 54.60 54.23 52.25 52.31 52.23 52.66 56.28 55.18 54.25 52.60 53.29 51.98 51.45 52.82 50.57 49.86 52.90 53.78 53.25 59.19 56.23 49.28 47.16 43.86 47.38 51.51 50.79 52.94 54.24 52.37 50.22 50.40
58.06 58.11 58.02 57.42 57.30 56.72 56.22 55.68 54.85 53.75 53.29 55.38 56.52 52.58 56.11 50.02 50.03 51.73 54.25 52.92 51.33 52.45 55.33 55.27 53.07 51.93 51.71 50.45 51.66 50.85 51.30 52.14 53.86 55.78 53.56 53.01 48.68 50.16 49.76 49.51 49.73 49.81 51.78 48.21 46.53 52.77 50.38
57.57 57.59 57.00 56.81 56.20 55.59 54.97 55.90 55.31 54.04 53.07 56.58 52.93 53.17 55.66 53.69 56.22 51.75 50.00 51.72 50.59 53.20 54.50 52.77 52.84 53.01 52.74 51.60 52.81 50.87 52.12 53.01 51.90 55.36 54.21 55.18 50.27 51.28 48.97 50.70 50.13 48.41 51.26 50.35 51.56 53.79 52.32
56.47 56.09 55.58 55.25 54.84 54.76 55.01 55.83 55.56 54.26 53.50 57.48 56.38 56.06 53.82 50.51 52.83 53.16 52.22 51.62 51.85 53.41 55.23 56.25 55.13 54.07 52.82 53.58 55.71 55.45 55.31 54.68 54.68 53.00 52.91 53.60 51.76 50.30 47.06 50.46 50.36 47.77 50.28 51.06 53.18 53.96 52.44
55.00 54.75 54.58 54.44 54.04 54.65 55.45 56.04 56.00 55.14 54.08 57.93 57.70 54.08 50.23 47.00 51.08 52.70 53.76 52.94 51.70 53.51 52.91 56.11 57.36 54.78 56.65 58.33 57.60 56.41 55.06 54.92 54.29 53.51 54.19 51.82 52.62 50.98 46.79 48.87 41.94 51.00 52.43 51.41 52.27 53.63 53.10
54.47 54.23 53.69 53.62 54.20 54.66 55.40 56.14 56.34 55.53 55.07 56.71 56.66 54.32 51.01 47.37 50.75 51.69 53.79 55.75 55.19 55.50 54.66 55.53 56.75 58.72 59.71 56.65 52.49 50.76 51.00 51.98 52.63 53.47 52.82 53.86 52.03 48.57 46.54 46.55 49.36 50.50 52.41 52.68 52.74 52.19 55.80
54.41 54.02 53.28 53.39 53.97 54.42 54.95 55.77 56.58 55.86 55.19 55.55 56.11 56.79 52.79 49.04 48.87 52.46 52.15 54.73 52.74 54.62 54.74 56.27 58.01 59.54 58.70 54.29 51.30 47.59 45.84 48.77 48.13 49.95 54.21 53.03 54.38 49.60 48.18 43.74 38.61 50.25 50.19 52.82 53.04 49.41 57.52
54.91 54.32 53.81 53.20 53.57 54.46 54.60 55.32 56.02 56.25 55.26 55.38 55.88 58.17 54.05 49.61 52.00 52.66 49.46 51.83 56.49 56.19 53.80 55.68 55.11 55.50 57.64 51.94 47.96 47.67 47.12 51.22 46.13 46.78 50.18 50.50 50.37 47.83 47.74 46.15 48.75 54.98 56.64 58.18 48.02 50.76 59.17
55.35 54.93 54.52 53.75 53.71 54.28 54.27 55.05 55.68 56.12 55.64 55.35 56.22 57.87 54.24 51.60 54.10 54.53 55.04 52.79 54.81 55.97 52.65 55.07 53.74 54.28 52.50 49.91 49.01 49.54 49.67 50.62 49.09 51.33 50.89 49.87 48.24 48.33 49.73 46.35 43.95 57.38 56.37 51.49 57.50 60.17 60.78
53.62 55.15 54.81 54.26 54.07 54.34 53.68 54.53 55.47 56.21 56.03 55.89 53.75 58.06 56.96 51.02 52.65 55.64 56.66 57.56 56.75 56.56 54.78 56.67 54.16 54.96 53.45 51.36 52.46 52.02 50.08 51.34 50.98 46.81 54.95 49.20 53.30 49.39 51.79 50.63 58.29 59.87 58.12 60.76 61.25 61.46 62.70